# Wetter Temperatur Luftdruck Luftfeuchtigkeit Sichtweite Windgeschwindigkeit Windrichtung Zeit
1 Clear 21 1017 45 10000 1.54 60 13:40 22.04.2021
2 Clear 22 1017 45 10000 1.54 60 13:20 22.04.2021
3 Clouds 23 1017 32 10000 1.54 260 12:45 22.04.2021
4 Clouds 23 1017 32 10000 1.54 260 12:20 22.04.2021
5 Clear 24 1017 33 10000 2.57 290 11:45 22.04.2021
6 Clear 24 1017 33 10000 2.57 290 11:23 22.04.2021
7 Clouds 25 1016 29 9000 5.14 290 10:45 22.04.2021
8 Clouds 26 1016 29 9000 5.14 290 10:24 22.04.2021
9 Rain 27 1016 29 8000 4.12 310 09:45 22.04.2021
10 Rain 27 1016 29 8000 4.12 310 09:20 22.04.2021
11 Clear 28 1016 21 10000 3.09 230 08:39 22.04.2021
12 Clear 27 1016 21 10000 3.09 230 08:19 22.04.2021
13 Clear 27 1017 21 10000 4.12 200 07:44 22.04.2021
14 Clear 27 1017 21 10000 4.12 200 07:20 22.04.2021
15 Rain 27 1018 24 10000 4.12 160 06:27 22.04.2021
16 Clear 27 1018 24 10000 4.12 160 06:27 22.04.2021
17 Clouds 25 1018 27 8000 2.06 190 05:26 22.04.2021
18 Clouds 23 1019 31 9000 3.09 120 04:29 22.04.2021
19 Clear 16 1020 48 10000 2.06 250 00:55 22.04.2021
20 Clear 15 1020 58 10000 1.54 150 23:47 21.04.2021
21 Clear 15 1020 58 10000 1.54 150 23:26 21.04.2021
22 Clear 16 1020 44 10000 1.54 170 22:42 21.04.2021
23 Clear 16 1020 44 10000 1.54 170 22:24 21.04.2021
24 Clear 15 1019 47 10000 2.57 80 21:46 21.04.2021
25 Clear 15 1019 47 10000 2.57 80 21:24 21.04.2021
26 Rain 15 1021 47 10000 2.06 360 20:43 21.04.2021
27 Rain 15 1021 47 10000 2.06 360 20:20 21.04.2021
28 Rain 15 1022 47 10000 1.03 340 19:43 21.04.2021
29 Rain 15 1022 47 10000 1.03 340 19:23 21.04.2021
30 Clear 15 1022 54 10000 2.57 320 18:46 21.04.2021
31 Clear 15 1022 54 10000 2.57 320 18:26 21.04.2021
32 Clear 16 1021 44 10000 1.54 30 17:48 21.04.2021
33 Clear 16 1021 44 10000 1.54 30 17:24 21.04.2021
34 Clear 17 1021 41 10000 2.06 240 16:48 21.04.2021
35 Clouds 17 1021 51 9000 1.54 290 15:57 21.04.2021
36 Clouds 18 1021 51 9000 1.54 290 15:39 21.04.2021
37 Clear 19 1021 45 10000 2.06 310 14:54 21.04.2021
38 Clear 19 1021 45 10000 2.06 310 14:36 21.04.2021
39 Clear 19 1021 45 10000 2.06 310 14:18 21.04.2021
40 Clear 21 1020 40 10000 3.09 290 13:40 21.04.2021
41 Clouds 22 1019 43 8000 3.6 300 13:19 21.04.2021
42 Clouds 22 1019 43 8000 3.6 300 12:30 21.04.2021
43 Clouds 25 1018 35 7000 4.63 290 11:49 21.04.2021
44 Clouds 25 1018 35 7000 4.63 290 11:29 21.04.2021
45 Clouds 27 1018 29 7000 3.6 290 10:49 21.04.2021
46 Clouds 28 1018 29 7000 3.6 290 10:20 21.04.2021
47 Clouds 29 1018 24 8000 2.57 300 09:42 21.04.2021
48 Clouds 27 1019 22 9000 1.54 260 08:56 21.04.2021
49 Clouds 27 1019 22 9000 1.54 260 08:56 21.04.2021
50 Clouds 28 1019 22 9000 1.54 260 08:37 21.04.2021
51 Clouds 27 1019 22 9000 1.54 260 08:18 21.04.2021
52 Clouds 27 1020 24 9000 2.06 230 07:29 21.04.2021
53 Clouds 25 1021 27 9000 2.06 210 06:28 21.04.2021
54 Clouds 22 1023 33 9000 1.54 120 04:46 21.04.2021
55 Clouds 10 1023 87 8000 1.03 290 00:51 21.04.2021
56 Mist 8 1022 93 5000 0.95 62 23:48 20.04.2021
57 Clouds 8 1022 87 7000 1.03 290 22:59 20.04.2021
58 Clouds 8 1022 87 7000 1.03 290 22:38 20.04.2021
59 Clouds 8 1022 87 7000 1.03 290 22:18 20.04.2021
60 Clouds 8 1022 81 8000 1.54 360 21:45 20.04.2021
61 Clouds 8 1022 81 8000 1.54 360 21:24 20.04.2021
62 Clouds 9 1022 81 9000 2.06 320 20:42 20.04.2021
63 Clouds 9 1022 81 9000 2.06 320 20:23 20.04.2021
64 Clouds 9 1022 81 9000 0.19 50 19:52 20.04.2021
65 Clouds 9 1022 81 9000 0.19 50 19:34 20.04.2021
66 Clear 10 1022 76 10000 2.06 320 18:54 20.04.2021
67 Clear 10 1022 76 10000 2.06 320 18:35 20.04.2021
68 Clear 11 1022 76 10000 1.54 310 17:43 20.04.2021
69 Clear 11 1022 76 10000 1.54 310 17:22 20.04.2021
70 Clear 12 1022 71 10000 1.54 350 16:44 20.04.2021
71 Clear 12 1022 71 10000 1.03 300 15:51 20.04.2021
72 Clear 12 1022 71 10000 1.03 300 15:27 20.04.2021
73 Clear 13 1022 62 10000 2.06 320 14:57 20.04.2021
74 Clear 14 1022 62 10000 2.06 320 14:28 20.04.2021
75 Clear 15 1021 58 10000 2.57 320 13:32 20.04.2021
76 Clear 16 1020 44 10000 3.6 310 12:57 20.04.2021
77 Clear 17 1020 44 10000 3.6 310 12:34 20.04.2021
78 Clear 18 1020 31 10000 3.6 290 11:58 20.04.2021
79 Clear 18 1020 31 10000 3.6 290 11:39 20.04.2021
80 Clear 19 1020 31 10000 3.6 290 11:19 20.04.2021
81 Clear 21 1020 29 10000 4.63 280 10:42 20.04.2021
82 Clear 21 1020 29 10000 4.63 280 10:22 20.04.2021
83 Clear 22 1019 28 10000 5.14 290 09:20 20.04.2021
84 Clear 23 1020 35 10000 4.63 300 08:54 20.04.2021
85 Clear 22 1020 35 10000 4.63 300 08:19 20.04.2021
86 Clear 22 1020 35 10000 3.6 270 07:35 20.04.2021
87 Clear 20 1021 40 8000 1.54 180 05:56 20.04.2021
88 Clear 20 1021 40 8000 1.54 180 05:31 20.04.2021
89 Clear 18 1022 42 10000 1.54 160 04:40 20.04.2021
90 Clear 8 1021 87 6000 1.54 190 00:53 20.04.2021
91 Clear 8 1021 87 6000 1.54 190 00:27 20.04.2021
92 Clear 6 1020 87 6000 3.6 140 23:32 19.04.2021
93 Clouds 6 1020 87 7000 1.54 150 22:46 19.04.2021
94 Clouds 6 1020 87 7000 1.54 150 22:26 19.04.2021
95 Clouds 7 1020 81 8000 2.06 160 21:46 19.04.2021
96 Clouds 7 1020 81 8000 2.06 160 21:20 19.04.2021
97 Clouds 7 1019 87 9000 2.57 160 20:41 19.04.2021
98 Clear 7 1019 87 9000 2.57 160 20:20 19.04.2021
99 Clear 7 1019 81 9000 1.54 160 19:50 19.04.2021
100 Clear 7 1019 81 9000 1.54 160 19:27 19.04.2021
101 Clear 8 1019 81 10000 1.54 160 18:59 19.04.2021
102 Clear 8 1019 81 10000 1.54 160 18:38 19.04.2021
103 Clear 8 1019 81 10000 1.54 160 18:19 19.04.2021
104 Clear 9 1019 71 10000 1.03 170 17:43 19.04.2021
105 Clear 10 1019 71 10000 1.03 170 17:23 19.04.2021
106 Clear 10 1019 76 10000 0.51 210 16:43 19.04.2021
107 Clear 10 1019 76 10000 0.51 210 16:24 19.04.2021
108 Clear 11 1018 71 10000 2.57 210 15:41 19.04.2021
109 Clear 11 1018 71 10000 2.57 210 15:23 19.04.2021
110 Clear 12 1018 71 10000 1.54 210 14:41 19.04.2021
111 Clear 12 1018 71 10000 1.54 210 14:23 19.04.2021
112 Clear 14 1017 66 10000 3.09 210 13:48 19.04.2021
113 Clear 14 1017 66 10000 3.09 210 13:25 19.04.2021
114 Clear 15 1016 62 10000 4.12 240 12:45 19.04.2021
115 Clear 15 1016 62 10000 4.12 240 12:24 19.04.2021
116 Clear 17 1016 55 10000 4.63 240 11:54 19.04.2021
117 Clear 17 1016 55 10000 4.63 240 11:26 19.04.2021
118 Clear 17 1016 55 10000 4.63 240 11:26 19.04.2021
119 Clear 18 1016 48 10000 4.12 220 10:51 19.04.2021
120 Clear 19 1016 48 10000 4.12 220 10:26 19.04.2021
121 Clear 19 1015 48 10000 4.63 240 09:57 19.04.2021
122 Clear 19 1015 48 10000 4.63 240 09:36 19.04.2021
123 Clear 20 1015 48 10000 4.63 240 09:18 19.04.2021
124 Clear 20 1016 48 10000 5.14 220 08:29 19.04.2021
125 Clear 20 1016 45 10000 5.66 220 07:49 19.04.2021
126 Clear 20 1016 45 10000 5.66 220 07:19 19.04.2021
127 Clear 19 1016 45 10000 5.66 240 06:36 19.04.2021
128 Clear 11 1018 62 10000 3.09 190 02:36 19.04.2021
129 Clear 9 1018 66 10000 2.57 150 01:27 19.04.2021
130 Clear 4 1017 87 7000 3.6 140 23:56 18.04.2021
131 Clear 4 1017 87 7000 3.6 140 23:18 18.04.2021
132 Clear 4 1017 87 7000 4.12 140 22:48 18.04.2021
133 Clear 4 1017 87 7000 4.12 140 22:29 18.04.2021
134 Clear 5 1017 87 7000 4.12 140 21:40 18.04.2021
135 Clear 5 1017 87 7000 4.12 140 21:18 18.04.2021
136 Clear 5 1017 87 10000 2.06 170 20:40 18.04.2021
137 Clear 5 1017 87 10000 2.06 170 20:20 18.04.2021
138 Clear 5 1017 81 10000 2.57 140 19:45 18.04.2021
139 Clear 5 1017 81 10000 2.57 140 19:27 18.04.2021
140 Clear 6 1017 75 10000 1.03 140 18:54 18.04.2021
141 Clear 6 1017 75 10000 1.03 140 18:31 18.04.2021
142 Clear 7 1017 66 10000 0.51 330 17:50 18.04.2021
143 Clear 7 1017 66 10000 0.51 330 17:31 18.04.2021
144 Clear 8 1017 61 10000 3.6 270 16:55 18.04.2021
145 Clear 8 1017 61 10000 3.6 270 16:36 18.04.2021
146 Clear 9 1017 66 10000 1.54 230 15:57 18.04.2021
147 Clear 9 1017 66 10000 1.54 230 15:38 18.04.2021
148 Clear 9 1017 66 10000 1.54 230 15:18 18.04.2021
149 Clear 10 1017 66 10000 2.06 220 14:41 18.04.2021
150 Clear 10 1017 66 10000 2.06 220 14:18 18.04.2021
151 Clear 11 1016 66 10000 3.6 250 13:45 18.04.2021
152 Clear 11 1016 66 10000 3.6 250 13:27 18.04.2021
153 Clear 12 1015 66 10000 4.63 230 12:37 18.04.2021
154 Clear 14 1015 58 10000 5.14 230 11:55 18.04.2021
155 Clear 14 1015 58 10000 5.14 230 11:28 18.04.2021
156 Clear 15 1015 54 10000 6.17 210 10:58 18.04.2021
157 Clear 15 1015 54 10000 6.17 210 10:40 18.04.2021
158 Clear 16 1015 41 10000 5.14 280 09:58 18.04.2021
159 Clear 16 1015 41 10000 5.14 280 09:39 18.04.2021
160 Clear 16 1015 41 10000 5.66 270 09:19 18.04.2021
161 Clear 15 1015 41 10000 5.66 270 08:41 18.04.2021
162 Clear 15 1015 41 10000 5.66 270 08:19 18.04.2021
163 Clouds 15 1016 44 10000 6.17 290 07:39 18.04.2021
164 Clouds 14 1017 41 10000 4.12 310 05:48 18.04.2021
165 Clouds 13 1017 41 10000 4.12 310 05:26 18.04.2021
166 Clouds 12 1018 50 10000 4.12 310 03:37 18.04.2021
167 Clouds 9 1018 53 10000 5.14 330 02:22 18.04.2021
168 Clear 7 1017 70 10000 3.6 300 00:41 18.04.2021
169 Clear 5 1016 81 10000 2.06 270 23:40 17.04.2021
170 Clear 5 1015 81 10000 1.03 300 22:59 17.04.2021
171 Clear 5 1015 81 10000 1.03 300 22:39 17.04.2021
172 Clear 5 1015 81 10000 1.03 300 22:20 17.04.2021
173 Clear 5 1015 75 10000 3.09 280 21:38 17.04.2021
174 Clear 6 1015 75 10000 2.06 270 21:19 17.04.2021
175 Clear 6 1015 75 10000 2.06 270 20:28 17.04.2021
176 Clear 6 1015 75 10000 2.57 300 19:46 17.04.2021
177 Clear 6 1015 75 10000 2.57 300 19:22 17.04.2021
178 Clear 6 1015 70 10000 3.6 290 18:57 17.04.2021
179 Clear 6 1015 70 10000 3.6 290 18:37 17.04.2021
180 Clear 7 1015 61 10000 4.63 290 17:58 17.04.2021
181 Clear 7 1015 61 10000 4.63 290 17:39 17.04.2021
182 Clear 7 1014 53 10000 3.6 270 16:54 17.04.2021
183 Clear 7 1014 53 10000 3.6 270 16:28 17.04.2021
184 Clear 7 1014 49 10000 4.12 290 15:50 17.04.2021
185 Clear 8 1014 61 10000 4.12 280 14:50 17.04.2021
186 Clear 8 1014 61 10000 4.12 280 14:50 17.04.2021
187 Clear 8 1014 61 10000 4.12 280 14:31 17.04.2021
188 Clear 8 1013 61 10000 6.69 280 13:48 17.04.2021
189 Clear 8 1013 61 10000 6.69 280 13:22 17.04.2021
190 Clear 9 1013 50 10000 7.2 260 12:41 17.04.2021
191 Clear 10 1013 50 10000 7.2 260 12:18 17.04.2021
192 Clouds 11 1012 26 10000 9.26 280 11:39 17.04.2021
193 Clouds 11 1012 26 10000 9.26 280 11:39 17.04.2021
194 Clouds 11 1012 26 10000 9.26 280 11:21 17.04.2021
195 Clouds 11 1012 41 10000 6.69 260 10:42 17.04.2021
196 Rain 11 1012 41 10000 6.69 260 10:23 17.04.2021
197 Clouds 13 1012 54 10000 7.72 250 09:22 17.04.2021
198 Clouds 14 1013 44 10000 6.17 270 08:38 17.04.2021
199 Clouds 13 1013 44 10000 6.17 270 08:19 17.04.2021
200 Rain 12 1014 35 10000 4.12 200 06:43 17.04.2021
201 Clouds 12 1016 54 10000 5.14 280 03:51 17.04.2021
202 Clouds 10 1016 62 10000 1.54 170 02:40 17.04.2021
203 Clouds 5 1015 87 10000 1.54 110 00:44 17.04.2021
204 Clouds 5 1015 87 10000 1.54 110 00:23 17.04.2021
205 Clear 4 1015 93 9000 0.51 60 23:43 16.04.2021
206 Clear 4 1015 93 9000 0.51 60 23:20 16.04.2021
207 Clear 4 1015 87 9000 1.03 280 22:42 16.04.2021
208 Clear 4 1015 87 9000 1.03 280 22:20 16.04.2021
209 Clear 4 1016 93 9000 0.51 250 21:49 16.04.2021
210 Clear 4 1016 93 9000 0.51 250 21:28 16.04.2021
211 Clear 4 1016 93 10000 0.51 20 20:47 16.04.2021
212 Clear 5 1016 93 10000 0.51 20 20:24 16.04.2021
213 Clear 5 1017 81 10000 1.03 160 19:50 16.04.2021
214 Clear 5 1017 81 10000 1.03 160 19:22 16.04.2021
215 Clear 6 1017 81 10000 0.51 170 18:28 16.04.2021
216 Clear 7 1018 71 10000 3.09 170 17:54 16.04.2021
217 Clear 7 1018 71 10000 3.09 170 17:20 16.04.2021
218 Clear 7 1017 70 10000 3.09 160 16:57 16.04.2021
219 Clear 7 1017 70 10000 3.09 160 16:38 16.04.2021
220 Clear 7 1017 70 10000 3.09 160 16:20 16.04.2021
221 Clear 8 1017 61 10000 1.54 140 15:39 16.04.2021
222 Clear 9 1017 57 10000 2.06 200 14:56 16.04.2021
223 Clear 10 1017 57 10000 2.06 200 14:37 16.04.2021
224 Clear 11 1016 53 10000 4.12 220 13:58 16.04.2021
225 Clear 11 1016 53 10000 4.12 220 13:36 16.04.2021
226 Clear 11 1016 53 10000 4.12 220 13:18 16.04.2021
227 Clear 12 1015 50 10000 2.06 220 12:43 16.04.2021
228 Clear 13 1015 50 10000 2.06 220 12:21 16.04.2021
229 Clear 14 1015 47 10000 3.6 230 11:43 16.04.2021
230 Clear 14 1015 47 10000 3.6 230 11:23 16.04.2021
231 Clear 15 1015 51 10000 4.63 240 10:43 16.04.2021
232 Clear 15 1015 51 10000 4.63 240 10:23 16.04.2021
233 Clouds 16 1015 44 8000 5.14 270 09:44 16.04.2021
234 Clouds 15 1015 44 8000 5.14 270 09:22 16.04.2021
235 Clouds 15 1015 55 10000 4.12 220 08:45 16.04.2021
236 Clouds 15 1015 55 10000 4.12 220 08:24 16.04.2021
237 Clouds 13 1015 77 10000 4.12 230 07:45 16.04.2021
238 Clouds 13 1015 77 10000 4.12 230 07:25 16.04.2021
239 Clouds 12 1015 82 10000 4.12 210 06:41 16.04.2021
240 Mist 11 1015 93 5000 5.14 220 05:32 16.04.2021
241 Clouds 11 1014 58 10000 3.6 180 01:47 16.04.2021
242 Clouds 10 1014 58 10000 3.6 160 00:45 16.04.2021
243 Clouds 10 1014 58 10000 3.6 160 00:22 16.04.2021
244 Clouds 9 1015 54 10000 4.63 180 23:56 15.04.2021
245 Clouds 9 1014 71 10000 2.57 140 23:32 15.04.2021
246 Rain 10 1015 62 10000 1.54 160 22:50 15.04.2021
247 Rain 10 1015 62 10000 1.54 160 22:23 15.04.2021
248 Rain 9 1015 53 10000 1.03 140 21:44 15.04.2021
249 Rain 9 1015 53 10000 1.03 140 21:26 15.04.2021
250 Clouds 9 1016 61 10000 0.51 220 20:49 15.04.2021
251 Clouds 9 1016 61 10000 0.51 220 20:25 15.04.2021
252 Clear 8 1015 66 10000 4.12 160 19:48 15.04.2021
253 Clear 9 1015 66 10000 4.12 160 19:28 15.04.2021
254 Clouds 8 1016 81 8000 3.6 150 18:59 15.04.2021
255 Clouds 8 1016 81 8000 3.6 150 18:37 15.04.2021
256 Clouds 8 1017 81 8000 1.03 340 18:18 15.04.2021
257 Clouds 8 1017 81 8000 1.03 340 17:51 15.04.2021
258 Clouds 8 1017 81 8000 1.03 340 17:29 15.04.2021
259 Clouds 9 1016 81 8000 1.03 350 16:44 15.04.2021
260 Clouds 9 1016 81 8000 1.03 350 16:24 15.04.2021
261 Clear 9 1016 81 10000 1.03 340 15:47 15.04.2021
262 Clear 9 1016 81 10000 1.03 340 15:27 15.04.2021
263 Clear 11 1016 76 10000 1.03 330 14:44 15.04.2021
264 Clear 11 1016 76 10000 1.03 330 14:25 15.04.2021
265 Clear 12 1016 66 10000 2.06 280 13:48 15.04.2021
266 Clear 12 1016 66 10000 2.06 280 13:25 15.04.2021
267 Clear 14 1016 62 10000 4.12 280 12:49 15.04.2021
268 Clear 14 1016 62 10000 4.12 280 12:26 15.04.2021
269 Clear 16 1016 47 10000 5.14 300 11:48 15.04.2021
270 Clear 16 1016 47 10000 5.14 300 11:27 15.04.2021
271 Clear 16 1016 47 10000 5.14 300 11:27 15.04.2021
272 Clear 17 1016 33 10000 4.12 260 10:58 15.04.2021
273 Clear 17 1016 33 10000 4.12 260 10:39 15.04.2021
274 Clear 17 1016 33 10000 4.12 260 10:20 15.04.2021
275 Clear 18 1016 29 10000 4.63 230 09:29 15.04.2021
276 Clear 18 1017 34 10000 4.63 250 08:52 15.04.2021
277 Clear 18 1017 34 10000 4.63 250 08:29 15.04.2021
278 Clouds 18 1017 45 10000 3.09 260 07:33 15.04.2021
279 Clear 17 1019 39 10000 2.57 180 06:56 15.04.2021
280 Clear 17 1019 39 10000 2.57 180 06:33 15.04.2021
281 Clear 17 1019 39 10000 2.57 180 06:33 15.04.2021
282 Clear 13 1021 54 10000 1.54 220 04:54 15.04.2021
283 Clouds 11 1021 62 10000 1.54 180 03:58 15.04.2021
284 Clouds 5 1020 81 7000 2.06 170 23:51 14.04.2021
285 Clouds 5 1020 81 7000 2.06 170 23:30 14.04.2021
286 Clouds 5 1020 81 6000 3.6 150 22:47 14.04.2021
287 Clouds 5 1020 81 6000 3.6 150 22:28 14.04.2021
288 Clouds 5 1020 87 6000 3.6 150 21:56 14.04.2021
289 Clouds 5 1020 87 6000 3.6 150 21:37 14.04.2021
290 Clouds 4 1019 93 6000 3.6 130 21:18 14.04.2021
291 Clouds 4 1019 93 6000 3.6 130 20:36 14.04.2021
292 Clouds 4 1019 93 6000 3.6 130 20:18 14.04.2021
293 Clouds 4 1020 87 7000 3.09 160 19:38 14.04.2021
294 Clouds 5 1020 87 9000 2.06 150 19:18 14.04.2021
295 Clouds 5 1020 87 9000 2.06 150 18:49 14.04.2021
296 Clouds 5 1020 87 9000 2.06 150 18:19 14.04.2021
297 Clouds 6 1020 81 9000 2.06 180 17:51 14.04.2021
298 Clear 6 1020 81 9000 2.06 180 17:24 14.04.2021
299 Clear 6 1020 81 10000 2.06 200 16:43 14.04.2021
300 Clear 6 1020 81 10000 2.06 200 16:22 14.04.2021
301 Clear 7 1020 76 10000 2.06 210 15:40 14.04.2021
302 Clear 8 1020 76 10000 2.06 210 15:18 14.04.2021
303 Clear 8 1020 71 10000 3.09 220 14:42 14.04.2021
304 Clear 8 1020 71 10000 3.09 220 14:21 14.04.2021
305 Clear 8 1019 66 10000 1.03 250 13:47 14.04.2021
306 Clear 10 1018 61 10000 3.6 260 12:48 14.04.2021
307 Clear 10 1018 61 10000 3.6 260 12:24 14.04.2021
308 Clear 11 1019 53 10000 6.17 250 11:42 14.04.2021
309 Clear 12 1019 53 10000 6.17 250 11:23 14.04.2021
310 Clear 12 1019 50 10000 6.17 250 10:35 14.04.2021
311 Clear 13 1018 37 10000 7.72 240 09:46 14.04.2021
312 Clear 13 1018 37 10000 7.72 240 09:27 14.04.2021
313 Clear 14 1019 33 10000 6.17 260 08:56 14.04.2021
314 Clear 14 1019 33 10000 6.17 260 08:32 14.04.2021
315 Clear 13 1019 35 10000 5.66 270 07:51 14.04.2021
316 Clear 14 1019 30 10000 6.17 280 06:39 14.04.2021
317 Clear 13 1019 30 10000 6.17 280 05:52 14.04.2021
318 Clear 9 1020 46 10000 3.6 350 02:57 14.04.2021
319 Clear 6 1020 49 10000 2.57 310 01:19 14.04.2021
320 Clear 4 1019 65 10000 1.54 280 00:34 14.04.2021
321 Clear 3 1019 70 10000 2.06 300 23:38 13.04.2021
322 Clear 3 1018 70 10000 1.03 270 22:45 13.04.2021
323 Clear 3 1018 70 10000 1.03 270 22:23 13.04.2021
324 Clear 3 1018 70 10000 1.54 300 21:50 13.04.2021
325 Clear 4 1018 70 10000 1.54 300 21:32 13.04.2021
326 Clear 4 1018 65 10000 1.54 290 20:52 13.04.2021
327 Clear 4 1018 65 10000 1.54 290 20:26 13.04.2021
328 Clear 5 1018 65 10000 2.57 270 19:59 13.04.2021
329 Clear 6 1018 65 10000 2.57 270 19:26 13.04.2021
330 Clear 6 1018 60 10000 1.54 250 18:57 13.04.2021
331 Clear 6 1018 60 10000 1.54 250 18:32 13.04.2021
332 Clear 6 1018 65 10000 3.09 300 17:41 13.04.2021
333 Clear 6 1018 65 10000 3.09 300 17:22 13.04.2021
334 Clouds 7 1017 61 10000 4.12 310 16:50 13.04.2021
335 Clouds 7 1017 61 10000 4.12 310 16:31 13.04.2021
336 Clouds 8 1017 70 10000 4.63 310 15:56 13.04.2021
337 Clouds 8 1017 70 10000 4.63 310 15:38 13.04.2021
338 Clouds 8 1016 65 10000 5.14 280 14:58 13.04.2021
339 Clouds 8 1016 65 10000 5.14 280 14:25 13.04.2021
340 Clouds 9 1015 61 10000 4.63 280 13:57 13.04.2021
341 Clouds 9 1015 61 10000 4.63 280 13:39 13.04.2021
342 Clouds 9 1015 61 10000 4.63 280 13:20 13.04.2021
343 Clouds 10 1014 57 10000 5.66 280 12:46 13.04.2021
344 Clouds 10 1014 57 10000 5.66 280 12:22 13.04.2021
345 Clouds 11 1014 57 10000 7.72 260 11:37 13.04.2021
346 Clouds 12 1013 54 10000 7.2 270 10:58 13.04.2021
347 Clouds 12 1013 54 10000 7.2 270 10:58 13.04.2021
348 Clouds 12 1013 54 10000 7.2 270 10:40 13.04.2021
349 Clouds 12 1013 54 10000 7.2 270 10:19 13.04.2021
350 Clouds 13 1013 54 10000 6.17 260 09:49 13.04.2021
351 Clouds 13 1013 54 10000 6.17 270 09:23 13.04.2021
352 Clouds 13 1013 54 10000 6.17 270 08:43 13.04.2021
353 Clouds 14 1013 54 10000 7.2 270 08:21 13.04.2021
354 Clouds 14 1013 54 10000 7.2 270 07:43 13.04.2021
355 Clouds 14 1013 54 10000 7.2 270 07:22 13.04.2021
356 Clouds 14 1013 58 10000 8.23 270 06:19 13.04.2021
357 Clouds 14 1012 76 10000 6.17 270 03:41 13.04.2021
358 Clouds 12 1011 82 10000 4.12 300 01:31 13.04.2021
359 Clouds 12 1009 94 8000 3.09 290 23:51 12.04.2021
360 Clouds 12 1009 94 8000 3.09 290 23:32 12.04.2021
361 Clouds 11 1009 93 7000 2.06 260 22:46 12.04.2021
362 Clouds 11 1009 93 7000 2.06 260 22:28 12.04.2021
363 Clouds 12 1009 93 7000 2.06 250 21:48 12.04.2021
364 Mist 12 1009 93 4500 2.06 270 21:24 12.04.2021
365 Rain 12 1008 93 4000 2.57 220 20:46 12.04.2021
366 Mist 12 1008 93 4000 2.57 220 20:26 12.04.2021
367 Rain 12 1008 93 3500 2.06 220 19:58 12.04.2021
368 Rain 13 1008 93 3500 2.06 220 19:39 12.04.2021
369 Rain 12 1008 93 8000 2.57 220 19:20 12.04.2021
370 Rain 13 1008 94 7000 6.17 230 18:47 12.04.2021
371 Rain 13 1008 94 7000 6.17 230 18:29 12.04.2021
372 Rain 12 1008 94 8000 6.17 230 17:46 12.04.2021
373 Rain 13 1008 94 3500 6.69 230 17:25 12.04.2021
374 Rain 13 1008 94 2800 2.06 160 16:49 12.04.2021
375 Rain 13 1008 94 2800 2.06 160 16:29 12.04.2021
376 Rain 13 1009 94 2000 4.12 140 15:54 12.04.2021
377 Rain 13 1009 94 2000 4.12 140 15:33 12.04.2021
378 Rain 12 1010 100 2000 3.6 120 14:55 12.04.2021
379 Rain 12 1010 100 2000 3.6 120 14:37 12.04.2021
380 Rain 12 1010 94 2800 4.12 120 13:56 12.04.2021
381 Rain 12 1010 94 2800 4.12 120 13:33 12.04.2021
382 Rain 12 1011 94 2800 4.12 130 12:59 12.04.2021
383 Rain 12 1011 94 2800 4.12 130 12:38 12.04.2021
384 Rain 12 1011 94 4000 3.6 120 12:19 12.04.2021
385 Rain 12 1012 87 6000 4.63 110 11:25 12.04.2021
386 Rain 12 1013 87 6000 4.63 110 10:49 12.04.2021
387 Rain 12 1013 87 6000 4.63 110 10:27 12.04.2021
388 Rain 12 1014 87 4500 4.63 100 09:51 12.04.2021
389 Rain 12 1014 87 4500 4.63 100 09:23 12.04.2021
390 Rain 12 1015 82 4800 5.66 110 08:40 12.04.2021
391 Rain 14 1018 62 10000 5.66 140 07:42 12.04.2021
392 Rain 15 1018 62 10000 5.66 140 07:22 12.04.2021
393 Rain 16 1019 58 10000 6.17 170 06:27 12.04.2021
394 Rain 18 1020 36 10000 7.2 160 05:42 12.04.2021
395 Clear 14 1023 55 10000 1.54 170 01:40 12.04.2021
396 Clear 14 1023 55 10000 1.54 170 01:40 12.04.2021
397 Clear 12 1023 58 10000 2.57 180 00:26 12.04.2021
398 Clear 12 1023 58 10000 2.57 180 23:49 11.04.2021
399 Clear 12 1023 58 10000 2.57 180 23:30 11.04.2021
400 Clear 12 1024 82 10000 0.51 190 22:48 11.04.2021
401 Clear 12 1024 82 10000 0.51 190 22:26 11.04.2021
402 Clear 12 1024 66 10000 0.51 30 21:50 11.04.2021
403 Clear 12 1024 66 10000 0.51 30 21:30 11.04.2021
404 Clear 12 1024 66 10000 0.51 30 21:30 11.04.2021
405 Clear 12 1024 62 10000 1.22 161 20:58 11.04.2021
406 Clear 12 1024 62 10000 1.46 188 20:31 11.04.2021
407 Clear 13 1025 62 10000 1.03 290 19:58 11.04.2021
408 Clear 13 1025 62 10000 1.03 290 19:39 11.04.2021
409 Rain 13 1025 62 10000 1.03 290 19:19 11.04.2021
410 Rain 13 1025 62 10000 1.03 290 19:19 11.04.2021
411 Rain 13 1025 62 10000 1.03 290 19:19 11.04.2021
412 Clear 13 1025 58 10000 1.54 320 18:45 11.04.2021
413 Clear 13 1025 58 10000 1.54 320 18:26 11.04.2021
414 Clear 14 1026 58 10000 0.51 50 17:48 11.04.2021
415 Clear 14 1026 58 10000 0.51 50 17:28 11.04.2021
416 Rain 14 1026 58 10000 1.54 300 16:52 11.04.2021
417 Clear 14 1026 58 10000 1.54 300 16:25 11.04.2021
418 Clear 14 1027 54 10000 1.54 300 15:57 11.04.2021
419 Clear 14 1027 54 10000 1.54 300 15:38 11.04.2021
420 Rain 14 1027 54 10000 1.54 300 15:19 11.04.2021
421 Clear 15 1026 47 10000 1.54 310 14:46 11.04.2021
422 Clear 16 1026 47 10000 1.54 310 14:18 11.04.2021
423 Clear 16 1026 44 10000 3.09 330 13:36 11.04.2021
424 Clear 16 1026 44 10000 3.09 330 13:18 11.04.2021
425 Clear 17 1026 44 10000 3.6 350 12:23 11.04.2021
426 Clear 19 1027 34 10000 4.12 290 11:53 11.04.2021
427 Clear 19 1027 34 10000 4.12 290 11:31 11.04.2021
428 Clear 21 1027 28 10000 4.63 280 10:56 11.04.2021
429 Clear 21 1027 28 10000 4.63 280 10:38 11.04.2021
430 Clear 21 1027 28 10000 4.63 280 10:19 11.04.2021
431 Clear 22 1027 28 10000 4.63 290 09:37 11.04.2021
432 Clear 21 1027 28 10000 4.63 290 09:19 11.04.2021
433 Clear 22 1028 26 10000 3.6 290 08:31 11.04.2021
434 Clear 22 1029 21 10000 1.54 260 07:25 11.04.2021
435 Clear 21 1030 21 10000 1.54 270 06:57 11.04.2021
436 Clear 20 1031 24 10000 2.06 210 05:44 11.04.2021
437 Clear 19 1031 24 10000 2.06 210 05:21 11.04.2021
438 Clear 17 1031 31 10000 1.54 250 04:35 11.04.2021
439 Clear 12 1032 54 10000 1.03 230 02:58 11.04.2021
440 Clear 7 1031 87 10000 1.54 50 00:40 11.04.2021
441 Clear 7 1031 87 10000 1.54 50 00:40 11.04.2021
442 Mist 5 1031 93 5000 1.03 60 23:52 10.04.2021
443 Mist 5 1031 93 5000 1.03 60 23:27 10.04.2021
444 Mist 5 1031 93 5000 0.51 350 22:51 10.04.2021
445 Mist 5 1031 93 5000 0.51 350 22:24 10.04.2021
446 Clear 5 1031 93 6000 1.54 20 21:51 10.04.2021
447 Clear 5 1031 93 6000 1.54 20 21:23 10.04.2021
448 Clear 6 1031 93 8000 1.03 300 20:48 10.04.2021
449 Clear 6 1031 93 8000 1.03 300 20:29 10.04.2021
450 Clear 7 1031 93 8000 0.51 280 19:45 10.04.2021
451 Clear 7 1031 93 8000 0.51 280 19:27 10.04.2021
452 Clear 7 1031 87 10000 1.54 310 18:54 10.04.2021
453 Clear 7 1031 87 10000 1.54 310 18:34 10.04.2021
454 Clear 8 1031 81 10000 0.51 320 17:44 10.04.2021
455 Clear 8 1031 81 10000 0.51 320 17:23 10.04.2021
456 Clear 9 1031 76 10000 1.03 30 16:31 10.04.2021
457 Clear 9 1031 76 10000 2.57 310 15:56 10.04.2021
458 Clear 9 1031 76 10000 2.57 310 15:34 10.04.2021
459 Clear 11 1030 71 10000 2.57 300 14:47 10.04.2021
460 Clear 11 1030 71 10000 2.57 300 14:23 10.04.2021
461 Clear 12 1030 66 10000 2.57 280 13:46 10.04.2021
462 Clear 12 1030 66 10000 2.57 280 13:28 10.04.2021
463 Clear 15 1030 58 10000 2.57 260 12:37 10.04.2021
464 Clear 16 1029 38 10000 4.63 290 11:52 10.04.2021
465 Clear 16 1029 38 10000 4.63 290 11:26 10.04.2021
466 Clear 17 1029 27 10000 5.14 300 10:57 10.04.2021
467 Clear 17 1029 27 10000 5.14 300 10:39 10.04.2021
468 Clear 18 1029 27 10000 5.14 300 10:21 10.04.2021
469 Clear 19 1029 27 10000 4.63 270 09:29 10.04.2021
470 Clear 19 1030 34 10000 5.14 240 08:54 10.04.2021
471 Clear 19 1030 34 10000 5.14 240 08:30 10.04.2021
472 Clear 18 1030 36 10000 4.63 250 07:52 10.04.2021
473 Clear 18 1030 36 10000 4.63 250 07:21 10.04.2021
474 Clear 18 1030 36 10000 2.06 240 06:27 10.04.2021
475 Clear 15 1031 38 10000 2.57 160 04:42 10.04.2021
476 Clear 12 1031 44 10000 3.09 140 02:54 10.04.2021
477 Clear 12 1031 44 10000 3.09 140 02:35 10.04.2021
478 Clear 8 1031 50 10000 3.6 120 00:50 10.04.2021
479 Clear 8 1031 50 10000 3.6 120 00:29 10.04.2021
480 Clear 7 1030 57 10000 3.6 120 23:44 09.04.2021
481 Clear 7 1030 57 10000 3.6 120 23:18 09.04.2021
482 Clear 7 1029 65 10000 3.6 140 22:42 09.04.2021
483 Clear 7 1029 65 10000 3.6 140 22:22 09.04.2021
484 Clear 8 1029 61 10000 3.6 130 21:38 09.04.2021
485 Clear 8 1028 61 10000 2.06 160 21:19 09.04.2021
486 Clear 8 1029 61 10000 3.6 130 21:19 09.04.2021
487 Clear 8 1028 61 10000 2.06 160 20:43 09.04.2021
488 Clear 8 1028 61 10000 2.06 160 20:23 09.04.2021
489 Clear 8 1028 61 10000 2.06 160 19:54 09.04.2021
490 Clear 8 1028 61 10000 2.06 160 19:36 09.04.2021
491 Clear 8 1028 61 10000 2.06 160 19:18 09.04.2021
492 Clear 10 1028 50 10000 5.66 120 18:41 09.04.2021
493 Clear 10 1028 50 10000 5.66 120 18:19 09.04.2021
494 Clear 10 1028 50 10000 6.17 120 17:37 09.04.2021
495 Clear 11 1027 54 10000 3.6 140 16:56 09.04.2021
496 Clear 11 1027 54 10000 3.6 140 16:35 09.04.2021
497 Clear 12 1027 43 10000 3.6 20 15:52 09.04.2021
498 Clear 12 1027 43 10000 3.6 20 15:34 09.04.2021
499 Clear 13 1026 47 10000 1.54 340 14:58 09.04.2021
500 Clear 13 1026 47 10000 1.54 340 14:39 09.04.2021
501 Clear 14 1025 43 10000 2.06 290 13:52 09.04.2021
502 Clear 14 1025 43 10000 2.06 290 13:25 09.04.2021
503 Clear 15 1024 38 10000 3.09 280 12:51 09.04.2021
504 Clear 15 1024 38 10000 3.09 280 12:32 09.04.2021
505 Clear 17 1024 31 10000 5.14 270 11:46 09.04.2021
506 Clear 17 1024 31 10000 5.14 270 11:22 09.04.2021
507 Clear 19 1023 27 10000 5.14 270 10:46 09.04.2021
508 Clear 19 1023 27 10000 5.14 270 10:20 09.04.2021
509 Clear 19 1023 25 10000 4.12 360 09:39 09.04.2021
510 Clear 19 1023 25 10000 4.12 360 09:20 09.04.2021
511 Clear 19 1024 20 10000 2.57 240 08:51 09.04.2021
512 Clear 18 1024 24 10000 2.06 160 07:36 09.04.2021
513 Clear 18 1024 25 10000 2.06 260 06:34 09.04.2021
514 Clear 18 1024 25 10000 2.06 260 06:34 09.04.2021
515 Clear 17 1025 29 10000 1.54 100 05:56 09.04.2021
516 Clear 14 1025 41 10000 4.12 90 03:52 09.04.2021
517 Clear 11 1024 50 10000 2.06 20 01:32 09.04.2021
518 Clear 7 1023 57 10000 2.57 360 00:37 09.04.2021
519 Clear 6 1022 65 10000 1.54 360 00:18 09.04.2021
520 Clear 6 1022 65 10000 1.54 360 23:18 08.04.2021
521 Clear 6 1022 60 10000 2.06 330 22:42 08.04.2021
522 Clear 5 1022 60 10000 2.06 330 22:21 08.04.2021
523 Clear 5 1021 60 10000 2.57 350 21:55 08.04.2021
524 Clear 5 1021 60 10000 2.57 350 21:36 08.04.2021
525 Clear 5 1021 60 10000 2.57 350 21:18 08.04.2021
526 Clear 6 1021 56 10000 3.09 310 20:47 08.04.2021
527 Clear 6 1021 56 10000 3.09 310 20:25 08.04.2021
528 Clear 6 1021 56 10000 0.51 280 19:42 08.04.2021
529 Clear 7 1021 56 10000 0.51 280 19:19 08.04.2021
530 Clear 7 1020 49 10000 2.57 320 18:45 08.04.2021
531 Clear 7 1020 49 10000 2.57 320 18:20 08.04.2021
532 Clear 8 1020 34 10000 1.54 330 17:48 08.04.2021
533 Clear 9 1020 34 10000 1.54 330 17:24 08.04.2021
534 Clear 11 1020 32 10000 3.09 330 16:46 08.04.2021
535 Clear 11 1020 32 10000 3.09 330 16:25 08.04.2021
536 Clear 11 1020 30 10000 4.63 320 15:47 08.04.2021
537 Clear 12 1020 30 10000 4.63 320 15:28 08.04.2021
538 Clear 13 1019 28 10000 5.14 310 14:45 08.04.2021
539 Clear 14 1019 28 10000 5.14 310 14:24 08.04.2021
540 Clear 14 1018 26 10000 5.14 310 13:55 08.04.2021
541 Clear 14 1018 26 10000 5.14 310 13:36 08.04.2021
542 Clear 14 1018 26 10000 5.14 310 13:18 08.04.2021
543 Clear 15 1017 26 10000 5.14 310 12:38 08.04.2021
544 Clear 17 1017 23 10000 7.2 320 11:59 08.04.2021
545 Clear 17 1017 23 10000 7.2 320 11:37 08.04.2021
546 Clear 18 1017 29 10000 5.66 280 10:56 08.04.2021
547 Clear 18 1017 29 10000 5.66 280 10:28 08.04.2021
548 Clear 18 1017 22 10000 6.69 330 09:51 08.04.2021
549 Clear 18 1017 22 10000 6.69 330 09:33 08.04.2021
550 Clear 18 1017 22 10000 4.63 310 08:45 08.04.2021
551 Clear 18 1017 22 10000 4.63 310 08:45 08.04.2021
552 Clear 18 1017 22 10000 4.63 310 08:45 08.04.2021
553 Clear 18 1017 22 10000 4.63 310 08:24 08.04.2021
554 Clear 18 1018 24 10000 5.66 320 07:53 08.04.2021
555 Clear 18 1019 27 10000 5.14 340 06:48 08.04.2021
556 Clear 13 1019 43 10000 3.09 340 02:26 08.04.2021
557 Clear 6 1019 70 10000 2.57 320 00:34 08.04.2021
558 Clear 5 1018 75 10000 1.03 310 23:55 07.04.2021
559 Clear 4 1018 75 10000 1.03 310 23:37 07.04.2021
560 Clear 5 1018 70 10000 2.57 340 23:18 07.04.2021
561 Clear 5 1018 70 10000 2.57 340 22:43 07.04.2021
562 Clear 5 1018 70 10000 2.57 340 22:22 07.04.2021
563 Clear 5 1018 70 10000 2.57 340 22:22 07.04.2021
564 Clear 5 1018 70 10000 2.57 340 22:22 07.04.2021
565 Clear 6 1018 70 10000 1.03 340 21:41 07.04.2021
566 Clear 7 1018 70 10000 1.03 340 21:20 07.04.2021
567 Clear 7 1018 65 10000 1.03 330 20:41 07.04.2021
568 Clear 7 1018 65 10000 1.03 330 20:20 07.04.2021
569 Clear 8 1018 57 10000 2.37 295 19:42 07.04.2021
570 Clear 8 1018 57 10000 1.96 290 19:22 07.04.2021
571 Clear 8 1018 53 10000 0.51 280 18:42 07.04.2021
572 Clear 9 1018 53 10000 0.51 280 18:19 07.04.2021
573 Clear 10 1018 49 10000 1.54 290 17:50 07.04.2021
574 Clear 10 1018 49 10000 1.54 290 17:32 07.04.2021
575 Clear 10 1018 66 10000 2.06 300 16:47 07.04.2021
576 Clear 10 1018 66 10000 2.06 300 16:22 07.04.2021
577 Clear 11 1018 66 10000 2.06 320 15:56 07.04.2021
578 Clear 11 1018 66 10000 2.06 320 15:38 07.04.2021
579 Clear 12 1018 58 10000 3.6 310 14:50 07.04.2021
580 Clear 12 1018 58 10000 3.6 310 14:25 07.04.2021
581 Clear 14 1018 35 10000 3.09 280 13:46 07.04.2021
582 Clear 15 1018 35 10000 3.09 280 13:21 07.04.2021
583 Clear 16 1017 26 10000 4.12 270 12:48 07.04.2021
584 Clear 16 1017 26 10000 4.12 270 12:21 07.04.2021
585 Clear 17 1017 23 10000 5.14 270 11:45 07.04.2021
586 Clear 18 1017 23 10000 5.14 270 11:24 07.04.2021
587 Clear 19 1018 24 10000 6.17 270 10:50 07.04.2021
588 Clear 20 1018 24 10000 7.2 260 09:51 07.04.2021
589 Clear 20 1018 24 10000 7.2 260 09:30 07.04.2021
590 Clear 20 1018 24 10000 7.2 260 09:30 07.04.2021
591 Clear 21 1018 30 10000 4.63 270 08:59 07.04.2021
592 Clear 21 1018 30 10000 4.63 270 08:33 07.04.2021
593 Clear 21 1019 30 10000 5.14 290 07:56 07.04.2021
594 Clear 21 1019 30 10000 5.14 290 07:29 07.04.2021
595 Clear 20 1019 34 10000 3.09 280 06:52 07.04.2021
596 Clear 20 1019 34 10000 3.09 280 06:18 07.04.2021
597 Clear 15 1021 48 6000 1.54 210 03:32 07.04.2021
598 Mist 5 1020 87 3000 2.57 140 23:52 06.04.2021
599 Mist 5 1020 87 3000 2.57 140 23:23 06.04.2021
600 Mist 6 1020 81 4000 0.51 110 22:59 06.04.2021
601 Mist 6 1020 81 4000 0.51 110 22:22 06.04.2021
602 Mist 6 1020 87 4500 1.03 10 21:57 06.04.2021
603 Mist 6 1020 87 4500 1.03 10 21:38 06.04.2021
604 Mist 7 1020 87 4500 1.03 10 21:19 06.04.2021
605 Mist 7 1020 87 4500 0.51 230 20:45 06.04.2021
606 Mist 7 1020 87 4500 0.51 230 20:21 06.04.2021
607 Mist 8 1020 76 4500 1.54 150 19:47 06.04.2021
608 Mist 8 1020 76 4500 1.54 150 19:29 06.04.2021
609 Haze 9 1021 76 4500 1.03 240 18:45 06.04.2021
610 Haze 10 1021 76 4500 1.03 240 18:23 06.04.2021
611 Haze 10 1021 76 5000 1.03 280 17:45 06.04.2021
612 Clear 10 1021 76 6000 2.06 300 17:27 06.04.2021
613 Clear 11 1020 58 9000 2.06 240 16:49 06.04.2021
614 Clear 12 1020 58 9000 2.06 240 16:30 06.04.2021
615 Clear 13 1020 62 10000 1.03 220 15:28 06.04.2021
616 Clear 13 1019 58 10000 4.63 270 14:55 06.04.2021
617 Clear 13 1019 58 10000 4.63 270 14:37 06.04.2021
618 Clear 13 1019 58 10000 4.63 270 14:37 06.04.2021
619 Clear 15 1018 47 10000 2.57 270 14:18 06.04.2021
620 Clear 15 1018 47 10000 2.57 270 13:40 06.04.2021
621 Clear 16 1018 47 10000 2.57 270 13:21 06.04.2021
622 Clear 16 1018 47 10000 3.6 280 12:41 06.04.2021
623 Clear 16 1018 47 10000 3.6 280 12:20 06.04.2021
624 Clear 17 1018 48 10000 4.12 260 11:49 06.04.2021
625 Clear 18 1018 48 10000 4.12 260 11:21 06.04.2021
626 Clear 18 1018 42 10000 4.12 270 10:47 06.04.2021
627 Clear 18 1018 42 10000 4.12 270 10:25 06.04.2021
628 Clear 19 1018 36 10000 5.66 260 09:48 06.04.2021
629 Clear 19 1018 36 10000 5.66 260 09:48 06.04.2021
630 Clear 19 1018 36 10000 5.66 260 09:29 06.04.2021
631 Clear 20 1019 32 10000 5.14 260 08:40 06.04.2021
632 Clear 20 1019 32 10000 5.66 290 07:57 06.04.2021
633 Clear 19 1019 36 10000 4.63 270 06:55 06.04.2021
634 Clear 18 1020 31 10000 2.06 310 05:22 06.04.2021
635 Clear 11 1021 71 10000 1.54 350 01:57 06.04.2021
636 Clear 8 1021 76 10000 0.51 150 00:44 06.04.2021
637 Clear 8 1021 76 10000 0.51 150 00:21 06.04.2021
638 Clear 7 1021 81 10000 1.54 320 23:42 05.04.2021
639 Clear 7 1021 81 10000 1.54 320 23:19 05.04.2021
640 Clear 7 1021 81 10000 0.51 100 22:45 05.04.2021
641 Clear 7 1021 81 10000 0.51 100 22:24 05.04.2021
642 Clear 7 1020 81 10000 1.03 300 21:40 05.04.2021
643 Clear 7 1020 81 10000 1.03 300 21:20 05.04.2021
644 Clear 8 1020 76 10000 1.03 60 20:42 05.04.2021
645 Clear 8 1020 76 10000 1.03 60 20:23 05.04.2021
646 Clear 8 1021 76 10000 1.54 290 19:40 05.04.2021
647 Clear 9 1021 76 10000 1.54 290 19:20 05.04.2021
648 Clear 9 1021 71 10000 1.03 330 18:43 05.04.2021
649 Clear 9 1021 71 10000 1.03 330 18:25 05.04.2021
650 Clear 9 1021 76 10000 2.06 330 17:55 05.04.2021
651 Clear 9 1021 76 10000 2.06 330 17:36 05.04.2021
652 Clear 9 1021 76 10000 2.06 330 17:18 05.04.2021
653 Clear 9 1021 66 10000 1.03 350 16:39 05.04.2021
654 Clear 9 1021 66 10000 1.03 350 16:19 05.04.2021
655 Clear 10 1021 57 10000 0.51 10 15:47 05.04.2021
656 Clear 10 1021 57 10000 0.51 10 15:22 05.04.2021
657 Clear 11 1021 54 10000 1.54 290 14:36 05.04.2021
658 Clear 12 1021 46 10000 1.54 280 13:56 05.04.2021
659 Clear 13 1021 46 10000 1.54 280 13:31 05.04.2021
660 Clear 15 1021 38 10000 2.57 270 12:47 05.04.2021
661 Clear 15 1021 38 10000 2.57 270 12:26 05.04.2021
662 Clear 15 1020 38 10000 5.14 280 11:53 05.04.2021
663 Clear 16 1020 38 10000 5.14 280 11:31 05.04.2021
664 Clear 18 1020 38 10000 7.2 280 10:56 05.04.2021
665 Clear 18 1020 38 10000 7.2 280 10:36 05.04.2021
666 Clear 18 1020 39 10000 7.2 290 09:49 05.04.2021
667 Clear 18 1020 39 10000 7.2 290 09:26 05.04.2021
668 Clear 19 1020 24 10000 1.54 250 08:54 05.04.2021
669 Clear 18 1020 24 10000 1.54 250 08:36 05.04.2021
670 Clear 18 1020 24 10000 1.54 250 08:18 05.04.2021
671 Clear 17 1021 23 10000 2.06 330 07:33 05.04.2021
672 Clear 13 1024 26 10000 2.57 70 03:42 05.04.2021
673 Clear 5 1024 81 10000 1.03 340 00:57 05.04.2021
674 Clear 4 1024 81 10000 1.03 340 00:19 05.04.2021
675 Clear 4 1023 87 10000 1.54 350 23:32 04.04.2021
676 Clear 4 1022 81 10000 1.03 20 22:58 04.04.2021
677 Clear 5 1022 81 10000 1.03 20 22:40 04.04.2021
678 Clear 5 1022 81 10000 1.03 20 22:21 04.04.2021
679 Clear 5 1022 87 10000 1.03 20 21:22 04.04.2021
680 Clear 5 1022 87 10000 2.06 360 20:43 04.04.2021
681 Clear 5 1022 87 10000 2.06 360 20:23 04.04.2021
682 Clear 7 1021 87 10000 1.54 350 19:40 04.04.2021
683 Clear 6 1021 87 10000 1.54 350 19:19 04.04.2021
684 Clear 7 1021 70 10000 1.03 60 18:51 04.04.2021
685 Clear 7 1021 70 10000 1.03 60 18:25 04.04.2021
686 Clear 8 1021 61 10000 1.54 340 17:58 04.04.2021
687 Clear 8 1021 61 10000 1.54 340 17:25 04.04.2021
688 Clear 9 1020 57 10000 2.57 10 16:57 04.04.2021
689 Clear 9 1020 57 10000 2.57 10 16:38 04.04.2021
690 Clear 10 1020 58 10000 2.57 70 15:54 04.04.2021
691 Clear 10 1020 58 10000 2.57 70 15:31 04.04.2021
692 Clear 11 1019 54 10000 3.09 60 14:40 04.04.2021
693 Clear 11 1019 54 10000 3.09 60 14:20 04.04.2021
694 Clear 12 1017 54 10000 3.09 30 13:27 04.04.2021
695 Clear 13 1016 50 10000 3.6 20 12:51 04.04.2021
696 Clear 13 1016 50 10000 3.6 20 12:28 04.04.2021
697 Clear 14 1016 44 10000 4.63 30 11:49 04.04.2021
698 Clear 14 1016 44 10000 4.63 30 11:30 04.04.2021
699 Clear 15 1015 44 10000 5.14 10 10:47 04.04.2021
700 Clear 15 1015 44 10000 5.14 10 10:24 04.04.2021
701 Clouds 15 1015 41 10000 5.66 360 09:44 04.04.2021
702 Clouds 16 1015 41 10000 5.66 360 09:21 04.04.2021
703 Clouds 16 1015 41 10000 5.66 360 09:21 04.04.2021
704 Clouds 16 1015 48 10000 1.54 30 08:44 04.04.2021
705 Clouds 15 1015 48 10000 2.06 10 08:24 04.04.2021
706 Clouds 14 1015 55 10000 2.06 10 06:39 04.04.2021
707 Clouds 13 1016 54 10000 4.12 20 05:44 04.04.2021
708 Clouds 11 1015 66 10000 4.63 20 02:20 04.04.2021
709 Clouds 10 1013 81 10000 3.6 10 00:47 04.04.2021
710 Clouds 10 1013 81 10000 3.6 10 00:18 04.04.2021
711 Rain 10 1013 81 10000 4.63 10 23:39 03.04.2021
712 Clouds 10 1012 87 10000 5.14 10 22:56 03.04.2021
713 Clouds 10 1012 87 10000 5.14 10 22:25 03.04.2021
714 Rain 10 1012 87 10000 5.14 10 21:59 03.04.2021
715 Rain 10 1012 87 10000 5.14 10 21:39 03.04.2021
716 Rain 10 1012 87 10000 5.14 10 21:20 03.04.2021
717 Clouds 11 1011 87 10000 3.6 10 20:38 03.04.2021
718 Rain 11 1011 87 10000 3.6 10 20:18 03.04.2021
719 Rain 11 1011 93 10000 3.6 10 19:43 03.04.2021
720 Rain 10 1011 93 10000 4.63 20 19:18 03.04.2021
721 Clouds 10 1011 93 10000 4.63 20 18:44 03.04.2021
722 Mist 10 1011 93 5000 5.66 20 17:58 03.04.2021
723 Mist 10 1011 93 5000 5.66 20 17:28 03.04.2021
724 Rain 11 1010 93 10000 3.6 10 16:59 03.04.2021
725 Clouds 11 1010 93 10000 3.6 10 16:32 03.04.2021
726 Clouds 11 1010 100 9000 4.12 360 15:57 03.04.2021
727 Rain 11 1010 100 9000 4.12 360 15:39 03.04.2021
728 Rain 11 1010 100 9000 4.12 360 15:18 03.04.2021
729 Rain 12 1010 100 2800 3.09 360 14:37 03.04.2021
730 Rain 13 1009 94 2800 5.14 360 14:19 03.04.2021
731 Rain 13 1009 94 2800 5.14 360 13:42 03.04.2021
732 Mist 13 1009 94 2800 5.14 360 13:20 03.04.2021
733 Rain 13 1009 94 4000 2.06 20 12:41 03.04.2021
734 Rain 14 1009 94 6000 2.06 80 12:19 03.04.2021
735 Rain 14 1009 100 3500 1.54 30 11:32 03.04.2021
736 Rain 14 1009 88 3500 2.57 80 10:49 03.04.2021
737 Rain 14 1009 88 3500 2.57 80 10:49 03.04.2021
738 Mist 14 1009 88 3500 2.57 80 10:30 03.04.2021
739 Rain 14 1009 88 3500 3.6 110 09:50 03.04.2021
740 Rain 14 1009 88 3500 3.6 110 09:27 03.04.2021
741 Rain 14 1010 94 4500 4.12 100 08:38 03.04.2021
742 Mist 14 1010 94 4500 4.12 100 08:19 03.04.2021
743 Rain 14 1011 100 2800 1.54 20 07:27 03.04.2021
744 Rain 14 1013 94 1600 2.57 30 04:27 03.04.2021
745 Rain 17 1014 77 10000 2.06 340 02:58 03.04.2021
746 Clouds 17 1014 77 10000 2.06 340 02:34 03.04.2021
747 Clouds 17 1014 59 10000 2.57 150 01:31 03.04.2021
748 Clouds 17 1014 55 10000 3.09 110 00:19 03.04.2021
749 Clouds 17 1014 55 10000 3.6 130 23:46 02.04.2021
750 Clouds 17 1014 63 10000 1.54 130 23:19 02.04.2021
751 Clouds 17 1014 63 10000 1.54 130 22:45 02.04.2021
752 Clouds 16 1014 63 10000 1.54 130 22:26 02.04.2021
753 Clouds 16 1015 63 10000 1.54 280 21:42 02.04.2021
754 Clouds 16 1015 63 10000 1.54 280 21:20 02.04.2021
755 Rain 16 1015 63 10000 1.03 330 20:47 02.04.2021
756 Clouds 16 1015 63 10000 1.03 330 20:25 02.04.2021
757 Clear 16 1016 63 10000 1.03 340 19:43 02.04.2021
758 Clear 16 1016 63 10000 1.03 340 19:24 02.04.2021
759 Clear 16 1016 51 10000 1.03 10 18:50 02.04.2021
760 Clear 16 1016 51 10000 1.03 10 18:31 02.04.2021
761 Clear 16 1017 58 10000 1.03 280 17:59 02.04.2021
762 Clear 16 1017 58 10000 1.03 280 17:34 02.04.2021
763 Clear 16 1017 51 10000 1.03 10 16:43 02.04.2021
764 Clear 17 1017 39 10000 1.03 340 15:50 02.04.2021
765 Clear 18 1017 39 10000 1.03 340 15:28 02.04.2021
766 Clear 18 1018 39 10000 1.54 10 14:41 02.04.2021
767 Clear 18 1018 39 10000 1.54 10 14:21 02.04.2021
768 Rain 19 1017 42 10000 3.09 70 13:39 02.04.2021
769 Rain 19 1017 45 10000 3.6 310 13:19 02.04.2021
770 Clear 20 1017 45 10000 3.6 310 12:38 02.04.2021
771 Clear 21 1017 34 10000 4.63 290 12:19 02.04.2021
772 Clear 21 1017 34 10000 4.63 290 11:48 02.04.2021
773 Rain 22 1017 28 10000 3.09 290 11:19 02.04.2021
774 Clear 22 1017 28 10000 3.09 290 10:43 02.04.2021
775 Clear 22 1017 28 10000 3.09 290 10:23 02.04.2021
776 Clear 23 1017 24 10000 2.06 220 09:51 02.04.2021
777 Clear 23 1017 24 10000 2.06 220 09:24 02.04.2021
778 Clear 23 1017 23 10000 1.54 200 08:46 02.04.2021
779 Clear 23 1017 23 10000 1.54 200 08:46 02.04.2021
780 Clear 23 1017 23 10000 1.54 200 08:26 02.04.2021
781 Clear 22 1018 23 10000 2.06 50 07:22 02.04.2021
782 Clear 22 1018 23 10000 3.09 100 06:34 02.04.2021
783 Clear 18 1021 29 10000 6.17 110 03:40 02.04.2021
784 Clear 14 1021 33 10000 5.14 100 01:40 02.04.2021
785 Clear 13 1022 41 10000 2.57 40 00:43 02.04.2021
786 Clear 13 1020 35 10000 4.63 120 23:47 01.04.2021
787 Clear 13 1020 35 10000 4.63 120 23:27 01.04.2021
788 Clear 13 1020 38 10000 4.12 100 22:41 01.04.2021
789 Clear 13 1020 35 10000 4.63 90 22:18 01.04.2021
790 Clear 13 1020 35 10000 4.63 90 21:42 01.04.2021
791 Clear 13 1020 35 10000 4.63 90 21:22 01.04.2021
792 Clear 13 1020 35 10000 5.66 100 20:41 01.04.2021
793 Clear 14 1020 35 10000 5.66 100 20:21 01.04.2021
794 Clear 14 1020 33 10000 5.66 100 19:41 01.04.2021
795 Clear 14 1021 38 10000 4.12 70 19:18 01.04.2021
796 Clear 14 1021 38 10000 4.12 70 18:43 01.04.2021
797 Clear 15 1020 33 10000 6.69 100 18:18 01.04.2021
798 Clear 15 1020 33 10000 6.69 100 17:39 01.04.2021
799 Clear 15 1020 33 10000 6.69 100 17:21 01.04.2021
800 Clear 16 1020 36 10000 5.14 80 16:48 01.04.2021
801 Clear 16 1020 34 10000 4.63 70 16:18 01.04.2021
802 Clear 17 1020 34 10000 4.63 70 15:39 01.04.2021
803 Clear 17 1020 34 10000 4.63 70 15:19 01.04.2021
804 Clear 18 1019 22 10000 6.69 120 14:39 01.04.2021
805 Clear 18 1019 22 10000 6.69 120 14:39 01.04.2021
806 Clear 19 1019 22 10000 6.69 120 14:20 01.04.2021
807 Clear 19 1018 22 10000 7.2 130 13:48 01.04.2021
808 Clear 19 1018 22 10000 7.2 130 13:27 01.04.2021
809 Clear 20 1017 26 10000 6.69 140 12:47 01.04.2021
810 Clear 20 1017 26 10000 6.69 140 12:28 01.04.2021
811 Rain 22 1017 20 10000 6.17 140 11:45 01.04.2021
812 Clear 23 1017 20 10000 6.17 140 11:19 01.04.2021
813 Rain 23 1017 17 10000 7.2 130 10:47 01.04.2021
814 Rain 23 1017 17 10000 7.2 130 10:29 01.04.2021
815 Rain 23 1017 15 10000 5.14 130 09:41 01.04.2021
816 Clear 24 1017 15 10000 5.14 130 09:22 01.04.2021
817 Clear 23 1017 14 10000 5.14 110 08:33 01.04.2021
818 Clear 23 1017 14 10000 5.14 110 08:33 01.04.2021
819 Clear 23 1018 16 10000 6.17 110 07:23 01.04.2021
820 Clear 23 1018 15 10000 6.69 100 06:58 01.04.2021
821 Clear 23 1018 15 10000 6.69 100 06:27 01.04.2021
822 Clear 18 1019 26 10000 6.17 110 03:25 01.04.2021
823 Clear 9 1017 81 10000 1.54 350 00:28 01.04.2021
824 Clear 8 1017 87 10000 0.51 10 23:44 31.03.2021
825 Clear 8 1017 87 10000 0.51 10 23:44 31.03.2021
826 Clear 8 1016 87 10000 1.03 320 22:56 31.03.2021
827 Clear 8 1016 87 10000 1.03 320 22:38 31.03.2021
828 Clear 8 1016 87 10000 1.03 320 22:19 31.03.2021
829 Clear 8 1016 81 10000 2.06 330 21:43 31.03.2021
830 Clear 8 1016 81 10000 2.06 330 21:20 31.03.2021
831 Clear 8 1016 76 10000 1.03 330 20:42 31.03.2021
832 Clear 9 1016 76 10000 1.03 330 20:22 31.03.2021
833 Clear 9 1015 76 10000 1.54 340 19:43 31.03.2021
834 Clear 9 1015 76 10000 1.54 340 19:21 31.03.2021
835 Clear 9 1015 76 10000 1.54 320 18:57 31.03.2021
836 Clear 9 1015 76 10000 1.54 320 18:38 31.03.2021
837 Clear 11 1015 71 10000 1.03 300 17:44 31.03.2021
838 Clear 11 1015 71 10000 1.03 300 17:44 31.03.2021
839 Clear 11 1015 71 10000 1.03 300 17:25 31.03.2021
840 Clear 11 1015 66 10000 1.54 310 16:55 31.03.2021
841 Clear 11 1015 66 10000 1.54 310 16:36 31.03.2021
842 Clear 12 1015 58 10000 2.57 330 15:58 31.03.2021
843 Clear 12 1015 58 10000 2.57 330 15:40 31.03.2021
844 Clear 14 1015 47 10000 2.57 310 15:18 31.03.2021
845 Clear 14 1015 47 10000 2.57 310 14:41 31.03.2021
846 Clear 14 1015 47 10000 2.57 310 14:18 31.03.2021
847 Clear 15 1014 47 10000 3.09 310 13:24 31.03.2021
848 Clear 17 1013 39 10000 2.06 270 12:41 31.03.2021
849 Clear 18 1013 39 10000 2.06 270 12:19 31.03.2021
850 Clear 20 1013 37 10000 3.6 300 11:39 31.03.2021
851 Clear 22 1012 14 10000 3.09 320 11:19 31.03.2021
852 Clear 22 1012 14 10000 3.09 320 10:44 31.03.2021
853 Clear 22 1012 14 10000 3.09 320 10:22 31.03.2021
854 Clear 23 1012 13 10000 3.09 320 09:33 31.03.2021
855 Clear 23 1013 17 10000 2.57 310 08:48 31.03.2021
856 Clear 23 1013 17 10000 2.57 310 08:30 31.03.2021
857 Clear 23 1013 17 10000 2.57 310 08:30 31.03.2021
858 Clear 22 1013 23 10000 1.54 310 07:41 31.03.2021
859 Clear 19 1015 27 10000 1.54 70 05:52 31.03.2021
860 Clear 11 1015 58 10000 1.03 340 02:42 31.03.2021
861 Clear 4 1015 87 10000 1.54 300 00:54 31.03.2021
862 Clear 3 1015 87 10000 1.54 300 00:26 31.03.2021
863 Clear 3 1015 87 10000 1.03 350 23:57 30.03.2021
864 Clear 3 1015 87 10000 1.03 350 23:25 30.03.2021
865 Clear 3 1015 87 10000 1.03 270 22:50 30.03.2021
866 Clear 3 1015 87 10000 1.03 270 22:31 30.03.2021
867 Clear 3 1014 87 10000 0.51 260 21:59 30.03.2021
868 Clear 4 1014 87 10000 0.51 260 21:31 30.03.2021
869 Clear 4 1014 75 10000 1.03 360 20:59 30.03.2021
870 Clear 4 1014 75 10000 1.03 360 20:40 30.03.2021
871 Clear 5 1015 81 10000 2.57 330 20:20 30.03.2021
872 Clear 5 1015 81 10000 2.57 330 19:43 30.03.2021
873 Clear 6 1014 75 10000 0.51 360 18:58 30.03.2021
874 Clear 6 1014 75 10000 0.51 360 18:30 30.03.2021
875 Clear 6 1014 70 10000 0.51 360 17:48 30.03.2021
876 Clear 6 1014 70 10000 0.51 360 17:30 30.03.2021
877 Clear 8 1014 57 10000 1.03 360 16:47 30.03.2021
878 Clear 8 1014 57 10000 1.03 360 16:28 30.03.2021
879 Clear 8 1014 57 10000 0.45 240 15:39 30.03.2021
880 Clear 9 1014 57 10000 1.12 239 15:19 30.03.2021
881 Clear 9 1014 46 10000 1.03 360 14:45 30.03.2021
882 Clear 10 1014 46 10000 1.03 360 14:21 30.03.2021
883 Clear 12 1013 37 10000 1.03 10 13:49 30.03.2021
884 Clear 12 1013 37 10000 1.03 10 13:26 30.03.2021
885 Clear 14 1012 24 10000 2.06 270 12:41 30.03.2021
886 Clear 14 1012 24 10000 2.06 270 12:41 30.03.2021
887 Clear 14 1012 24 10000 2.06 270 12:41 30.03.2021
888 Clear 15 1012 24 10000 2.06 270 12:21 30.03.2021
889 Clear 16 1012 28 10000 4.63 290 11:43 30.03.2021
890 Clear 17 1012 28 10000 4.63 290 11:19 30.03.2021
891 Clear 18 1011 31 10000 5.14 270 10:41 30.03.2021
892 Clear 18 1011 31 10000 5.14 270 10:19 30.03.2021
893 Clear 18 1012 31 10000 5.14 290 09:41 30.03.2021
894 Clear 18 1012 31 10000 5.14 290 09:41 30.03.2021
895 Clear 18 1012 31 10000 5.14 290 09:21 30.03.2021
896 Clear 18 1012 22 10000 4.12 330 08:42 30.03.2021
897 Clear 18 1012 20 10000 5.66 330 07:56 30.03.2021
898 Clear 18 1012 20 10000 5.66 330 07:31 30.03.2021
899 Clear 17 1013 25 10000 4.63 350 06:30 30.03.2021
900 Clear 15 1014 26 10000 1.54 350 05:25 30.03.2021
901 Clouds 6 1013 87 6000 0.51 230 01:47 30.03.2021
902 Clear 2 1011 87 7000 1.54 310 23:54 29.03.2021
903 Clear 2 1011 87 7000 1.54 310 23:21 29.03.2021
904 Dust 2 1011 100 5000 1.54 330 22:43 29.03.2021
905 Mist 2 1011 93 4000 0.51 360 21:55 29.03.2021
906 Dust 2 1011 93 4000 0.51 360 21:34 29.03.2021
907 Dust 3 1011 87 4000 0.51 340 20:51 29.03.2021
908 Dust 3 1011 87 4000 0.51 340 20:30 29.03.2021
909 Dust 4 1012 87 4000 1.54 290 19:55 29.03.2021
910 Dust 4 1012 87 4000 1.54 290 19:28 29.03.2021
911 Dust 4 1011 87 4500 1.03 310 18:54 29.03.2021
912 Dust 5 1011 87 4500 1.03 310 18:30 29.03.2021
913 Dust 5 1011 81 4500 2.06 320 17:58 29.03.2021
914 Dust 5 1011 81 4500 2.06 320 17:35 29.03.2021
915 Dust 6 1010 61 4800 2.06 260 16:53 29.03.2021
916 Dust 7 1010 61 4800 2.06 260 16:27 29.03.2021
917 Dust 7 1010 61 4800 2.57 280 15:41 29.03.2021
918 Dust 7 1010 61 4800 2.57 280 15:22 29.03.2021
919 Dust 9 1010 53 4800 4.12 240 14:48 29.03.2021
920 Clouds 10 1009 43 6000 4.12 250 13:58 29.03.2021
921 Clouds 10 1009 43 6000 4.12 250 13:37 29.03.2021
922 Clouds 10 1009 43 6000 4.12 250 13:18 29.03.2021
923 Clouds 11 1009 46 8000 3.6 240 12:48 29.03.2021
924 Clear 13 1008 40 10000 4.12 240 11:46 29.03.2021
925 Clear 13 1008 40 10000 4.12 240 11:28 29.03.2021
926 Clear 13 1008 37 10000 5.66 260 10:46 29.03.2021
927 Clear 13 1008 37 10000 5.66 260 10:21 29.03.2021
928 Clear 14 1008 35 10000 5.66 270 09:32 29.03.2021
929 Clouds 14 1008 35 9000 5.14 270 08:35 29.03.2021
930 Clouds 15 1009 35 10000 6.17 280 07:54 29.03.2021
931 Clouds 14 1009 41 8000 5.14 260 07:19 29.03.2021
932 Clouds 15 1009 41 8000 5.14 260 06:23 29.03.2021
933 Dust 11 1009 76 2000 2.06 290 02:33 29.03.2021
934 Dust 9 1008 93 1800 2.57 280 00:30 29.03.2021
935 Dust 8 1008 93 1600 2.57 230 23:59 28.03.2021
936 Dust 9 1008 93 1600 2.57 230 23:25 28.03.2021
937 Dust 9 1006 93 1200 2.57 240 22:48 28.03.2021
938 Dust 9 1006 93 1200 2.57 240 22:28 28.03.2021
939 Dust 9 1006 93 1200 2.57 240 21:47 28.03.2021
940 Dust 9 1006 93 1200 2.57 240 21:25 28.03.2021
941 Mist 9 1005 93 1300 4.12 250 20:54 28.03.2021
942 Dust 9 1005 93 1300 4.12 250 20:35 28.03.2021
943 Mist 10 1005 93 1100 3.6 250 20:00 28.03.2021
944 Mist 10 1005 93 1100 3.6 250 19:41 28.03.2021
945 Mist 10 1005 93 1100 3.6 250 19:20 28.03.2021
946 Mist 10 1004 93 1600 5.14 220 18:49 28.03.2021
947 Mist 10 1004 93 1600 5.14 220 18:19 28.03.2021
948 Mist 9 1004 93 2500 4.63 220 17:37 28.03.2021
949 Mist 9 1004 93 2800 3.09 190 16:57 28.03.2021
950 Mist 9 1004 93 2800 3.09 190 16:29 28.03.2021
951 Mist 10 1005 93 2800 3.09 210 15:58 28.03.2021
952 Mist 10 1005 93 2800 3.09 210 15:24 28.03.2021
953 Clouds 10 1005 87 8000 1.54 190 14:47 28.03.2021
954 Clouds 10 1004 87 8000 2.57 190 14:18 28.03.2021
955 Clouds 10 1004 87 8000 2.57 190 13:35 28.03.2021
956 Clouds 9 1005 87 9000 2.57 230 12:57 28.03.2021
957 Clouds 10 1005 87 9000 2.57 230 12:35 28.03.2021
958 Clouds 10 1004 87 10000 3.6 230 11:55 28.03.2021
959 Clouds 10 1004 87 10000 3.6 230 11:37 28.03.2021
960 Clouds 10 1004 87 10000 5.14 230 10:49 28.03.2021
961 Clouds 10 1004 87 10000 5.14 230 10:31 28.03.2021
962 Clouds 10 1004 87 10000 5.14 230 09:51 28.03.2021
963 Clouds 10 1004 87 10000 5.14 230 09:28 28.03.2021
964 Clouds 10 1004 87 6000 4.63 230 08:51 28.03.2021
965 Mist 10 1004 87 4500 4.63 220 08:33 28.03.2021
966 Mist 9 1004 93 4000 6.17 230 07:41 28.03.2021
967 Clouds 10 1003 93 6000 4.63 240 06:20 28.03.2021
968 Drizzle 9 1004 93 4000 3.09 210 03:50 28.03.2021
969 Clouds 9 1002 93 7000 5.14 210 00:36 28.03.2021
970 Rain 9 1001 93 4500 6.17 210 23:51 27.03.2021
971 Mist 9 1001 93 4500 6.17 210 23:33 27.03.2021
972 Mist 9 1001 93 2000 6.69 210 22:40 27.03.2021
973 Drizzle 9 1001 93 2000 6.69 210 22:21 27.03.2021
974 Mist 10 1000 93 4800 6.17 210 21:42 27.03.2021
975 Clouds 10 1000 93 9000 5.14 210 21:21 27.03.2021
976 Clouds 11 1000 93 9000 5.14 230 20:55 27.03.2021
977 Rain 11 1000 93 9000 5.14 230 20:37 27.03.2021
978 Clouds 12 1000 93 9000 6.17 200 19:46 27.03.2021
979 Clouds 12 1000 93 9000 6.17 200 19:24 27.03.2021
980 Rain 12 1000 94 7000 5.66 210 18:57 27.03.2021
981 Clouds 12 1000 94 7000 5.66 210 18:38 27.03.2021
982 Rain 12 1000 94 7000 5.66 210 18:19 27.03.2021
983 Rain 13 1000 94 3200 4.63 210 17:29 27.03.2021
984 Rain 12 1001 94 2000 1.03 210 16:54 27.03.2021
985 Rain 12 1001 94 2000 1.03 210 16:36 27.03.2021
986 Rain 12 1001 94 2000 1.03 210 16:18 27.03.2021
987 Mist 12 1001 94 2300 2.06 140 15:36 27.03.2021
988 Rain 12 1002 94 2500 3.09 120 14:55 27.03.2021
989 Rain 12 1002 94 3200 2.57 120 14:22 27.03.2021
990 Rain 12 1003 94 3500 3.09 130 13:36 27.03.2021
991 Rain 11 1004 94 3200 3.6 130 13:18 27.03.2021
992 Rain 11 1004 94 3200 3.6 130 12:35 27.03.2021
993 Rain 11 1004 87 4000 5.14 130 11:47 27.03.2021
994 Rain 11 1004 87 4000 5.14 130 11:28 27.03.2021
995 Rain 11 1005 93 4500 5.66 120 10:48 27.03.2021
996 Rain 11 1005 93 4500 5.66 120 10:28 27.03.2021
997 Rain 11 1005 93 4800 6.17 110 09:41 27.03.2021
998 Rain 11 1006 87 6000 4.63 110 09:18 27.03.2021
999 Rain 12 1007 82 6000 5.14 120 08:33 27.03.2021
1000 Rain 12 1008 82 7000 6.17 110 07:36 27.03.2021
1001 Rain 12 1009 76 8000 5.66 120 06:58 27.03.2021
1002 Rain 12 1009 76 8000 5.66 120 06:34 27.03.2021
1003 Rain 15 1012 47 10000 5.14 110 04:40 27.03.2021
1004 Rain 10 1015 66 7000 2.57 300 00:56 27.03.2021
1005 Rain 10 1015 66 7000 2.57 300 00:31 27.03.2021
1006 Haze 8 1015 76 5000 0.51 50 23:55 26.03.2021
1007 Rain 8 1015 76 5000 0.51 50 23:22 26.03.2021
1008 Rain 7 1015 76 5000 1.54 320 22:35 26.03.2021
1009 Haze 7 1016 76 5000 1.03 340 21:38 26.03.2021
1010 Haze 8 1016 76 5000 1.03 340 21:20 26.03.2021
1011 Haze 9 1017 66 5000 0.51 50 20:39 26.03.2021
1012 Haze 8 1017 66 5000 0.51 50 20:20 26.03.2021
1013 Haze 8 1017 61 5000 1.03 110 19:48 26.03.2021
1014 Haze 8 1017 61 5000 1.03 110 19:29 26.03.2021
1015 Haze 9 1018 61 5000 2.06 130 18:44 26.03.2021
1016 Haze 9 1018 61 5000 2.06 130 18:26 26.03.2021
1017 Haze 10 1018 54 5000 1.03 130 17:47 26.03.2021
1018 Haze 10 1018 54 4500 1.54 140 16:57 26.03.2021
1019 Haze 10 1018 54 4500 1.54 140 16:33 26.03.2021
1020 Haze 10 1018 66 4800 2.06 150 15:57 26.03.2021
1021 Haze 10 1018 66 4800 2.06 150 15:23 26.03.2021
1022 Haze 10 1018 66 5000 0.51 190 14:31 26.03.2021
1023 Haze 12 1018 58 5000 1.54 290 13:38 26.03.2021
1024 Haze 14 1018 47 5000 1.54 320 12:56 26.03.2021
1025 Haze 14 1018 47 5000 1.54 320 12:32 26.03.2021
1026 Haze 16 1018 41 5000 1.54 320 11:35 26.03.2021
1027 Haze 18 1018 36 4800 3.09 320 10:58 26.03.2021
1028 Haze 18 1018 36 4800 3.09 320 10:39 26.03.2021
1029 Haze 20 1018 36 4500 4.12 290 09:54 26.03.2021
1030 Haze 20 1018 36 4500 4.12 290 09:35 26.03.2021
1031 Clouds 21 1018 21 8000 1.54 290 08:42 26.03.2021
1032 Clouds 21 1018 21 8000 1.54 290 08:22 26.03.2021
1033 Clouds 20 1019 24 6000 1.54 200 07:24 26.03.2021
1034 Haze 20 1020 29 5000 2.57 220 06:58 26.03.2021
1035 Haze 19 1020 29 5000 2.57 220 06:35 26.03.2021
1036 Haze 18 1021 36 4500 0.51 190 05:31 26.03.2021
1037 Mist 9 1024 81 2200 1.03 250 01:59 26.03.2021
1038 Mist 6 1024 87 1600 1.03 220 00:31 26.03.2021
1039 Mist 4 1023 93 1600 1.03 270 23:44 25.03.2021
1040 Mist 4 1023 93 1600 1.03 270 23:20 25.03.2021
1041 Mist 4 1023 93 1400 1.03 100 22:30 25.03.2021
1042 Mist 4 1022 93 1200 0.51 310 21:53 25.03.2021
1043 Mist 4 1022 93 1200 0.51 310 21:33 25.03.2021
1044 Mist 4 1022 93 1300 1.03 320 20:45 25.03.2021
1045 Mist 4 1022 93 1300 1.03 320 20:25 25.03.2021
1046 Mist 5 1021 93 1300 0.51 290 19:45 25.03.2021
1047 Mist 5 1021 93 1300 0.51 290 19:27 25.03.2021
1048 Mist 6 1022 87 1400 0.51 240 18:47 25.03.2021
1049 Mist 6 1022 87 1400 0.51 240 18:27 25.03.2021
1050 Mist 6 1022 93 1300 1.54 340 17:51 25.03.2021
1051 Mist 6 1022 93 1300 1.54 340 17:33 25.03.2021
1052 Mist 7 1022 93 1300 2.06 320 16:51 25.03.2021
1053 Mist 7 1022 93 1300 2.06 320 16:51 25.03.2021
1054 Mist 7 1022 93 1300 2.06 320 16:30 25.03.2021
1055 Mist 7 1022 93 1700 2.06 330 15:45 25.03.2021
1056 Mist 7 1022 93 1700 2.06 330 15:21 25.03.2021
1057 Mist 8 1022 93 2000 2.06 340 14:46 25.03.2021
1058 Mist 9 1022 93 2800 2.57 290 13:52 25.03.2021
1059 Mist 9 1022 93 2800 2.57 290 13:24 25.03.2021
1060 Mist 9 1022 93 2800 2.57 290 13:24 25.03.2021
1061 Mist 10 1022 93 3200 3.6 300 12:44 25.03.2021
1062 Clear 11 1021 93 6000 3.09 320 12:20 25.03.2021
1063 Clear 12 1021 87 8000 2.57 300 11:52 25.03.2021
1064 Clear 13 1021 87 8000 2.57 300 11:30 25.03.2021
1065 Clear 14 1021 76 8000 4.63 290 10:55 25.03.2021
1066 Clear 15 1021 76 8000 4.63 290 10:26 25.03.2021
1067 Clear 17 1020 55 8000 3.6 250 09:57 25.03.2021
1068 Clear 17 1020 55 8000 3.6 250 09:38 25.03.2021
1069 Clear 18 1020 55 7000 3.6 250 08:57 25.03.2021
1070 Clear 18 1020 55 7000 3.6 250 08:28 25.03.2021
1071 Clear 18 1021 45 8000 4.12 240 07:19 25.03.2021
1072 Clear 18 1021 45 8000 4.12 240 06:26 25.03.2021
1073 Clear 18 1021 48 8000 3.09 220 05:49 25.03.2021
1074 Clouds 15 1022 51 8000 1.54 180 03:55 25.03.2021
1075 Clear 9 1021 87 9000 0.51 190 00:34 25.03.2021
1076 Clouds 7 1021 93 8000 0.51 150 23:53 24.03.2021
1077 Clouds 7 1021 93 8000 0.51 150 23:30 24.03.2021
1078 Clouds 7 1021 93 9000 1.54 330 22:50 24.03.2021
1079 Clouds 7 1021 93 9000 1.54 330 22:28 24.03.2021
1080 Clouds 7 1020 87 10000 0.51 30 21:46 24.03.2021
1081 Clouds 7 1020 87 10000 0.51 30 21:24 24.03.2021
1082 Clouds 7 1020 87 10000 1.54 310 20:45 24.03.2021
1083 Clouds 7 1020 87 10000 1.54 310 20:20 24.03.2021
1084 Clouds 6 1020 93 10000 1.03 30 19:48 24.03.2021
1085 Clouds 6 1020 93 10000 1.03 30 19:28 24.03.2021
1086 Clouds 6 1020 93 10000 0.51 330 18:49 24.03.2021
1087 Clouds 6 1020 93 10000 0.51 330 18:23 24.03.2021
1088 Clouds 7 1020 87 10000 0.51 80 17:51 24.03.2021
1089 Clouds 7 1020 87 10000 0.51 80 17:31 24.03.2021
1090 Clouds 7 1020 81 10000 0.51 30 16:52 24.03.2021
1091 Clouds 7 1020 81 10000 0.51 30 16:29 24.03.2021
1092 Clear 8 1020 81 10000 0.51 320 15:50 24.03.2021
1093 Clear 8 1020 81 10000 0.51 320 15:30 24.03.2021
1094 Clear 9 1020 76 10000 1.03 240 14:47 24.03.2021
1095 Clear 9 1020 76 10000 1.03 240 14:26 24.03.2021
1096 Clouds 10 1020 71 10000 0.51 290 13:54 24.03.2021
1097 Clouds 10 1020 71 10000 0.51 290 13:27 24.03.2021
1098 Clear 11 1020 71 10000 2.06 270 12:42 24.03.2021
1099 Clear 11 1020 71 10000 2.06 270 12:23 24.03.2021
1100 Clear 12 1019 66 10000 3.09 300 11:44 24.03.2021
1101 Clear 15 1019 54 10000 3.6 270 10:59 24.03.2021
1102 Clear 15 1019 54 10000 3.6 270 10:40 24.03.2021
1103 Clear 15 1019 54 10000 3.6 270 10:20 24.03.2021
1104 Clear 16 1018 44 10000 5.14 290 09:51 24.03.2021
1105 Clear 16 1018 44 10000 5.14 290 09:20 24.03.2021
1106 Clear 17 1018 44 10000 5.14 260 08:50 24.03.2021
1107 Clear 17 1018 44 10000 5.14 260 08:26 24.03.2021
1108 Clear 17 1018 39 10000 5.14 250 07:37 24.03.2021
1109 Clear 16 1019 36 10000 4.12 220 06:52 24.03.2021
1110 Clear 12 1022 44 10000 4.63 180 03:57 24.03.2021
1111 Clouds 6 1021 71 8000 2.57 170 00:48 24.03.2021
1112 Clouds 4 1021 81 7000 2.57 160 23:57 23.03.2021
1113 Clouds 3 1021 81 7000 2.57 160 23:21 23.03.2021
1114 Mist 3 1021 87 5000 3.6 150 22:52 23.03.2021
1115 Mist 3 1021 87 5000 3.6 150 22:31 23.03.2021
1116 Mist 4 1020 81 5000 3.09 130 21:52 23.03.2021
1117 Mist 4 1020 81 5000 3.09 130 21:33 23.03.2021
1118 Mist 4 1020 87 5000 3.6 140 20:47 23.03.2021
1119 Mist 4 1020 87 5000 3.6 140 20:29 23.03.2021
1120 Clouds 4 1020 81 6000 2.57 170 19:57 23.03.2021
1121 Clear 4 1020 81 6000 2.57 170 19:27 23.03.2021
1122 Clear 4 1021 81 7000 2.57 150 18:59 23.03.2021
1123 Clear 4 1021 81 7000 2.57 150 18:37 23.03.2021
1124 Clear 6 1020 76 7000 2.06 180 18:18 23.03.2021
1125 Clear 6 1020 76 7000 2.06 180 17:43 23.03.2021
1126 Clear 6 1020 76 7000 2.06 180 17:21 23.03.2021
1127 Clear 6 1020 70 9000 2.06 190 16:26 23.03.2021
1128 Clear 7 1020 61 10000 2.06 200 15:50 23.03.2021
1129 Clear 7 1020 61 10000 2.06 200 15:23 23.03.2021
1130 Clear 8 1020 61 10000 3.09 200 14:48 23.03.2021
1131 Clear 8 1019 65 10000 1.03 120 14:19 23.03.2021
1132 Clear 8 1019 65 10000 1.03 120 13:47 23.03.2021
1133 Clear 8 1019 65 10000 1.03 120 13:24 23.03.2021
1134 Clear 10 1019 61 10000 2.06 220 12:44 23.03.2021
1135 Clear 10 1019 61 10000 2.06 220 12:24 23.03.2021
1136 Clear 11 1019 57 10000 3.6 230 11:48 23.03.2021
1137 Clear 11 1019 57 10000 3.6 230 11:18 23.03.2021
1138 Clear 13 1019 50 10000 5.14 230 10:42 23.03.2021
1139 Clear 14 1019 50 10000 5.14 230 10:20 23.03.2021
1140 Clear 14 1019 44 10000 6.17 250 09:49 23.03.2021
1141 Clear 14 1019 44 10000 6.17 250 09:22 23.03.2021
1142 Clear 15 1019 41 10000 6.69 230 08:54 23.03.2021
1143 Clear 15 1019 41 10000 6.69 230 08:36 23.03.2021
1144 Clear 16 1019 41 10000 6.69 230 08:18 23.03.2021
1145 Clear 16 1019 47 10000 5.66 230 07:26 23.03.2021
1146 Clear 16 1020 47 10000 6.17 230 06:52 23.03.2021
1147 Clear 10 1021 54 9000 4.12 210 03:24 23.03.2021
1148 Clear 8 1022 62 8000 3.09 180 02:22 23.03.2021
1149 Mist 2 1021 87 5000 4.12 150 23:46 22.03.2021
1150 Mist 1 1021 93 4500 3.6 160 22:59 22.03.2021
1151 Mist 1 1021 93 4500 3.6 160 22:39 22.03.2021
1152 Mist 1 1021 93 4500 3.6 160 22:20 22.03.2021
1153 Mist 1 1021 93 3500 3.6 140 21:43 22.03.2021
1154 Mist 1 1021 93 3500 3.6 140 21:24 22.03.2021
1155 Mist 1 1021 93 3500 4.12 140 20:42 22.03.2021
1156 Mist 1 1021 93 3500 4.12 140 20:22 22.03.2021
1157 Mist 1 1021 87 4000 4.12 130 19:55 22.03.2021
1158 Mist 1 1021 87 4000 4.12 130 19:37 22.03.2021
1159 Mist 1 1021 87 4000 4.12 130 19:19 22.03.2021
1160 Clouds 2 1021 87 7000 2.57 150 18:40 22.03.2021
1161 Clouds 2 1021 87 7000 2.57 150 18:21 22.03.2021
1162 Clouds 3 1022 81 7000 2.06 200 17:44 22.03.2021
1163 Clouds 3 1022 81 7000 2.06 200 17:21 22.03.2021
1164 Clouds 3 1021 81 8000 2.06 150 16:45 22.03.2021
1165 Clouds 3 1021 81 8000 2.06 150 16:20 22.03.2021
1166 Clear 4 1021 75 10000 2.57 210 15:38 22.03.2021
1167 Clear 4 1021 75 10000 2.57 210 15:18 22.03.2021
1168 Clear 6 1021 75 10000 1.03 140 14:52 22.03.2021
1169 Clear 6 1021 75 10000 1.03 140 14:34 22.03.2021
1170 Clear 6 1021 70 10000 2.57 240 13:48 22.03.2021
1171 Clear 7 1021 70 10000 2.57 240 13:27 22.03.2021
1172 Clear 7 1020 61 10000 3.6 250 12:54 22.03.2021
1173 Clear 7 1020 61 10000 3.6 250 12:25 22.03.2021
1174 Clear 7 1019 49 10000 4.12 250 11:49 22.03.2021
1175 Clear 8 1019 49 10000 4.12 250 11:27 22.03.2021
1176 Clear 9 1019 31 10000 6.69 250 10:46 22.03.2021
1177 Clear 9 1019 31 10000 6.69 250 10:24 22.03.2021
1178 Clear 10 1018 25 10000 7.72 260 09:46 22.03.2021
1179 Clear 11 1018 25 10000 7.72 260 09:27 22.03.2021
1180 Clear 11 1019 30 10000 7.2 250 08:45 22.03.2021
1181 Clear 11 1019 30 10000 7.2 250 08:26 22.03.2021
1182 Clear 11 1019 35 10000 7.2 270 07:50 22.03.2021
1183 Clear 11 1019 35 10000 7.2 270 07:30 22.03.2021
1184 Clear 11 1019 37 10000 6.69 240 06:39 22.03.2021
1185 Clouds 8 1021 46 10000 4.12 260 02:47 22.03.2021
1186 Clear 4 1021 65 10000 1.03 340 00:43 22.03.2021
1187 Clear 1 1020 74 10000 1.03 340 23:55 21.03.2021
1188 Clear 1 1020 74 10000 1.03 340 23:20 21.03.2021
1189 Clear 1 1020 64 10000 2.06 290 22:59 21.03.2021
1190 Clear 1 1020 64 10000 2.06 290 22:30 21.03.2021
1191 Clear 1 1020 69 10000 2.57 290 21:42 21.03.2021
1192 Clear 2 1020 69 10000 2.57 290 21:24 21.03.2021
1193 Clear 2 1020 64 10000 2.57 290 20:48 21.03.2021
1194 Clear 2 1020 64 10000 2.57 290 20:29 21.03.2021
1195 Clear 3 1020 64 10000 2.57 270 19:59 21.03.2021
1196 Clear 3 1020 64 10000 2.57 270 19:28 21.03.2021
1197 Clear 3 1020 64 10000 3.6 270 18:55 21.03.2021
1198 Clear 3 1020 64 10000 3.6 270 18:32 21.03.2021
1199 Clear 3 1020 64 10000 3.09 270 17:54 21.03.2021
1200 Clear 3 1020 64 10000 3.09 270 17:36 21.03.2021
1201 Clear 4 1020 64 10000 3.09 270 17:18 21.03.2021
1202 Clear 4 1020 60 10000 3.6 280 16:41 21.03.2021
1203 Clear 4 1020 60 10000 3.6 280 16:22 21.03.2021
1204 Clouds 4 1020 65 10000 3.6 280 15:42 21.03.2021
1205 Clouds 4 1020 65 10000 3.6 280 15:20 21.03.2021
1206 Clouds 5 1019 60 10000 3.09 290 14:46 21.03.2021
1207 Clouds 5 1019 60 10000 3.09 290 14:27 21.03.2021
1208 Clouds 5 1018 56 10000 6.17 300 13:54 21.03.2021
1209 Clouds 5 1018 56 10000 6.17 300 13:33 21.03.2021
1210 Clouds 6 1017 56 10000 5.14 280 12:42 21.03.2021
1211 Clouds 6 1017 56 10000 5.14 280 12:24 21.03.2021
1212 Clouds 6 1016 49 10000 5.66 310 11:41 21.03.2021
1213 Clouds 6 1016 49 10000 5.66 310 11:20 21.03.2021
1214 Clouds 6 1015 49 10000 6.69 330 10:43 21.03.2021
1215 Clouds 6 1015 49 10000 6.69 330 10:23 21.03.2021
1216 Clouds 8 1014 45 10000 9.26 320 09:46 21.03.2021
1217 Clouds 8 1014 45 10000 9.26 320 09:28 21.03.2021
1218 Clouds 9 1014 43 10000 9.26 290 08:44 21.03.2021
1219 Clouds 9 1014 43 10000 9.26 290 08:26 21.03.2021
1220 Clouds 9 1013 37 10000 9.26 280 07:39 21.03.2021
1221 Clouds 8 1013 46 10000 10.29 260 06:56 21.03.2021
1222 Clouds 9 1013 57 10000 7.72 260 05:54 21.03.2021
1223 Clouds 7 1014 65 6000 4.63 270 02:25 21.03.2021
1224 Mist 6 1014 81 4500 3.6 280 00:42 21.03.2021
1225 Mist 6 1014 81 4500 3.6 280 00:22 21.03.2021
1226 Mist 5 1013 87 4000 2.57 280 23:49 20.03.2021
1227 Mist 5 1013 87 4000 2.57 280 23:22 20.03.2021
1228 Mist 6 1013 81 3500 2.06 270 22:55 20.03.2021
1229 Mist 6 1013 81 3500 2.06 270 22:22 20.03.2021
1230 Mist 6 1013 81 3500 2.57 270 21:47 20.03.2021
1231 Mist 6 1013 81 3500 2.57 270 21:25 20.03.2021
1232 Mist 6 1013 81 3500 2.57 270 20:45 20.03.2021
1233 Mist 6 1013 81 3500 2.57 270 20:23 20.03.2021
1234 Mist 6 1013 87 3000 2.57 280 19:50 20.03.2021
1235 Mist 7 1013 87 3000 2.57 280 19:27 20.03.2021
1236 Mist 7 1013 87 3500 5.66 280 18:50 20.03.2021
1237 Mist 7 1013 87 3500 5.66 280 18:27 20.03.2021
1238 Mist 7 1013 87 4000 2.57 280 17:55 20.03.2021
1239 Mist 7 1013 87 4000 2.57 280 17:33 20.03.2021
1240 Mist 8 1013 87 4000 3.6 270 16:56 20.03.2021
1241 Mist 8 1013 87 4000 3.6 270 16:37 20.03.2021
1242 Mist 8 1013 87 4000 3.6 270 16:18 20.03.2021
1243 Mist 8 1013 87 4000 2.57 270 15:39 20.03.2021
1244 Mist 8 1013 87 4500 2.06 240 14:49 20.03.2021
1245 Mist 8 1013 87 4500 2.06 240 14:49 20.03.2021
1246 Mist 8 1013 87 4500 2.06 240 14:28 20.03.2021
1247 Clouds 9 1013 87 6000 2.57 270 13:42 20.03.2021
1248 Clouds 9 1013 87 6000 2.57 270 13:18 20.03.2021
1249 Clouds 9 1012 87 8000 3.6 280 12:27 20.03.2021
1250 Clouds 9 1012 87 8000 3.6 280 12:27 20.03.2021
1251 Clouds 9 1012 87 6000 3.6 290 11:50 20.03.2021
1252 Clouds 9 1012 87 6000 3.6 290 11:30 20.03.2021
1253 Mist 10 1012 87 4800 3.6 260 10:56 20.03.2021
1254 Clouds 10 1012 87 6000 4.12 280 10:37 20.03.2021
1255 Clouds 10 1012 87 6000 4.12 280 10:18 20.03.2021
1256 Mist 10 1011 87 4500 4.63 280 09:29 20.03.2021
1257 Clouds 10 1011 81 8000 0.51 320 08:59 20.03.2021
1258 Clouds 10 1011 81 8000 0.51 320 08:39 20.03.2021
1259 Clouds 10 1011 87 6000 0.51 80 07:54 20.03.2021
1260 Clouds 9 1011 87 6000 0.51 80 07:32 20.03.2021
1261 Mist 9 1012 87 5000 1.03 320 06:55 20.03.2021
1262 Drizzle 9 1013 87 3000 2.06 320 06:27 20.03.2021
1263 Rain 8 1014 93 5000 1.03 100 04:23 20.03.2021
1264 Mist 8 1014 87 5000 1.03 180 03:42 20.03.2021
1265 Clouds 11 1013 58 10000 5.14 150 00:35 20.03.2021
1266 Rain 12 1014 47 10000 3.09 150 23:31 19.03.2021
1267 Rain 12 1013 47 10000 4.63 110 22:50 19.03.2021
1268 Clouds 12 1013 47 10000 4.63 110 22:29 19.03.2021
1269 Clear 13 1014 47 10000 4.12 120 21:58 19.03.2021
1270 Clear 13 1014 47 10000 4.12 120 21:22 19.03.2021
1271 Rain 13 1014 50 10000 5.14 130 20:59 19.03.2021
1272 Rain 13 1014 50 10000 5.14 130 20:40 19.03.2021
1273 Clear 13 1014 50 10000 5.14 130 20:21 19.03.2021
1274 Clouds 12 1015 58 9000 1.03 180 19:46 19.03.2021
1275 Clouds 13 1015 58 9000 1.03 180 19:20 19.03.2021
1276 Clouds 13 1015 66 8000 1.54 310 18:40 19.03.2021
1277 Clouds 13 1015 66 8000 1.54 310 18:20 19.03.2021
1278 Clouds 13 1016 66 8000 1.54 320 17:55 19.03.2021
1279 Clouds 13 1016 66 8000 1.54 320 17:31 19.03.2021
1280 Clouds 13 1016 66 8000 2.06 310 16:55 19.03.2021
1281 Clouds 13 1016 66 8000 2.06 310 16:29 19.03.2021
1282 Clouds 14 1016 58 9000 1.03 330 15:55 19.03.2021
1283 Clouds 14 1016 58 9000 1.03 330 15:26 19.03.2021
1284 Clear 14 1017 62 10000 1.54 350 14:47 19.03.2021
1285 Clear 15 1017 62 10000 1.54 350 14:27 19.03.2021
1286 Clear 15 1017 62 10000 1.54 320 13:40 19.03.2021
1287 Clear 16 1017 58 10000 3.09 290 12:57 19.03.2021
1288 Clear 15 1017 58 10000 3.09 290 12:35 19.03.2021
1289 Clear 16 1016 54 10000 2.57 330 11:44 19.03.2021
1290 Clear 17 1016 51 10000 5.14 280 10:54 19.03.2021
1291 Clear 17 1016 51 10000 5.14 280 10:31 19.03.2021
1292 Clear 19 1015 39 10000 4.12 270 09:50 19.03.2021
1293 Clear 19 1015 39 10000 4.12 270 09:30 19.03.2021
1294 Clear 20 1016 30 10000 2.06 260 08:58 19.03.2021
1295 Clear 20 1016 30 10000 2.06 260 08:39 19.03.2021
1296 Clear 19 1016 30 10000 1.54 150 08:18 19.03.2021
1297 Clear 19 1016 30 10000 1.54 150 07:37 19.03.2021
1298 Clear 19 1018 30 10000 1.54 70 06:51 19.03.2021
1299 Clear 14 1020 44 10000 4.12 130 02:45 19.03.2021
1300 Clouds 12 1020 71 7000 1.03 260 00:58 19.03.2021
1301 Clouds 10 1020 76 7000 0.51 40 23:30 18.03.2021
1302 Clouds 10 1020 76 7000 0.51 40 23:30 18.03.2021
1303 Clouds 10 1020 76 7000 0.51 360 22:58 18.03.2021
1304 Clouds 10 1020 76 7000 0.51 360 22:39 18.03.2021
1305 Clouds 10 1020 76 7000 0.51 360 22:19 18.03.2021
1306 Clouds 11 1019 71 7000 2.57 300 21:39 18.03.2021
1307 Clouds 11 1019 71 6000 2.57 310 20:51 18.03.2021
1308 Clouds 11 1019 71 6000 2.57 310 20:32 18.03.2021
1309 Rain 11 1019 71 6000 1.03 320 19:48 18.03.2021
1310 Clouds 11 1019 71 6000 1.03 320 19:27 18.03.2021
1311 Clouds 11 1019 71 7000 0.51 230 18:58 18.03.2021
1312 Clouds 11 1019 71 7000 0.51 230 18:33 18.03.2021
1313 Clouds 11 1019 62 7000 0.51 20 17:50 18.03.2021
1314 Clouds 11 1019 62 7000 0.51 20 17:25 18.03.2021
1315 Clouds 11 1019 71 7000 1.03 330 16:48 18.03.2021
1316 Clouds 11 1019 71 7000 1.03 330 16:29 18.03.2021
1317 Clouds 12 1019 71 7000 1.54 270 15:48 18.03.2021
1318 Clouds 12 1019 71 7000 1.54 270 15:26 18.03.2021
1319 Clouds 12 1019 71 8000 0.51 250 14:55 18.03.2021
1320 Clouds 12 1019 71 8000 0.51 250 14:32 18.03.2021
1321 Clouds 12 1019 66 8000 1.54 340 13:53 18.03.2021
1322 Clouds 12 1019 66 8000 1.54 340 13:26 18.03.2021
1323 Clouds 13 1018 66 8000 2.06 20 12:44 18.03.2021
1324 Clouds 13 1018 66 8000 2.06 20 12:26 18.03.2021
1325 Clouds 14 1019 58 9000 2.57 320 11:55 18.03.2021
1326 Clouds 14 1019 58 9000 2.57 320 11:33 18.03.2021
1327 Clouds 16 1018 44 8000 3.09 270 10:49 18.03.2021
1328 Clouds 16 1018 44 8000 3.09 270 10:27 18.03.2021
1329 Rain 17 1018 41 8000 4.63 290 09:54 18.03.2021
1330 Clouds 17 1018 41 8000 4.63 290 09:29 18.03.2021
1331 Clouds 18 1018 39 7000 5.14 290 08:50 18.03.2021
1332 Clouds 18 1018 39 7000 5.14 290 08:31 18.03.2021
1333 Clouds 18 1017 34 8000 4.12 290 07:53 18.03.2021
1334 Clouds 18 1017 34 8000 4.12 290 07:25 18.03.2021
1335 Clouds 17 1018 34 9000 1.54 360 06:29 18.03.2021
1336 Clouds 16 1019 38 9000 1.03 90 05:54 18.03.2021
1337 Clear 12 1021 50 10000 1.03 200 02:29 18.03.2021
1338 Clear 2 1021 86 10000 1.54 300 23:59 17.03.2021
1339 Clear 2 1020 86 10000 2.06 320 22:54 17.03.2021
1340 Clear 2 1020 86 10000 2.06 320 22:27 17.03.2021
1341 Clear 2 1020 80 10000 0.51 360 21:57 17.03.2021
1342 Clear 2 1020 80 10000 0.51 360 21:39 17.03.2021
1343 Clear 2 1020 80 10000 0.51 360 21:19 17.03.2021
1344 Clear 2 1020 86 10000 1.03 270 20:43 17.03.2021
1345 Clear 2 1020 86 10000 1.03 270 20:24 17.03.2021
1346 Clear 3 1020 75 10000 0.51 90 19:46 17.03.2021
1347 Clear 3 1020 75 10000 0.51 90 19:21 17.03.2021
1348 Clear 4 1020 75 10000 1.54 300 18:54 17.03.2021
1349 Clear 4 1020 75 10000 1.54 300 18:36 17.03.2021
1350 Clear 5 1020 75 10000 1.54 350 17:48 17.03.2021
1351 Clear 5 1020 75 10000 1.54 350 17:26 17.03.2021
1352 Clear 4 1020 81 10000 0.51 180 16:46 17.03.2021
1353 Clear 5 1020 81 10000 0.51 180 16:25 17.03.2021
1354 Clear 5 1020 81 10000 1.03 290 15:53 17.03.2021
1355 Clear 6 1020 81 10000 1.03 290 15:35 17.03.2021
1356 Clear 7 1020 70 10000 0.51 330 14:45 17.03.2021
1357 Clear 7 1020 70 10000 0.51 330 14:27 17.03.2021
1358 Clear 8 1020 65 10000 1.54 330 13:55 17.03.2021
1359 Clear 8 1020 65 10000 1.54 330 13:30 17.03.2021
1360 Clear 8 1020 60 10000 2.57 320 12:51 17.03.2021
1361 Clear 9 1020 60 10000 2.57 320 12:33 17.03.2021
1362 Clear 11 1019 42 10000 3.09 290 11:51 17.03.2021
1363 Clear 11 1019 42 10000 3.09 290 11:23 17.03.2021
1364 Clear 14 1018 40 10000 3.09 280 10:55 17.03.2021
1365 Clear 14 1018 40 10000 3.09 280 10:26 17.03.2021
1366 Clear 16 1018 38 10000 4.12 290 09:48 17.03.2021
1367 Clear 16 1018 38 10000 4.12 290 09:48 17.03.2021
1368 Clear 16 1018 38 10000 4.12 290 09:25 17.03.2021
1369 Clear 17 1018 35 10000 5.66 290 08:58 17.03.2021
1370 Clear 16 1018 35 10000 5.66 290 08:38 17.03.2021
1371 Clear 17 1018 21 10000 2.06 330 07:49 17.03.2021
1372 Clear 17 1018 21 10000 2.06 330 07:30 17.03.2021
1373 Clear 16 1018 21 10000 1.54 230 06:42 17.03.2021
1374 Clear 12 1019 28 10000 2.06 160 04:21 17.03.2021
1375 Clear 8 1020 37 10000 1.03 120 02:50 17.03.2021
1376 Clear 3 1020 65 10000 0.51 350 00:40 17.03.2021
1377 Clear 0 1019 69 10000 1.54 310 23:29 16.03.2021
1378 Clear 0 1020 69 10000 0.51 30 22:51 16.03.2021
1379 Clear 0 1020 69 10000 0.51 30 22:33 16.03.2021
1380 Clear 0 1019 64 10000 2.06 320 21:49 16.03.2021
1381 Clear 1 1019 64 10000 2.06 320 21:31 16.03.2021
1382 Clear 1 1019 74 10000 0.51 30 20:59 16.03.2021
1383 Clear 1 1019 74 10000 0.51 30 20:20 16.03.2021
1384 Clear 1 1019 74 10000 1.03 290 19:58 16.03.2021
1385 Clear 1 1019 74 10000 1.03 290 19:39 16.03.2021
1386 Clear 2 1019 74 10000 1.03 290 19:19 16.03.2021
1387 Clear 3 1019 64 10000 1.03 260 18:40 16.03.2021
1388 Clear 3 1019 64 10000 1.03 260 18:21 16.03.2021
1389 Clear 3 1019 56 10000 1.03 280 17:46 16.03.2021
1390 Clear 3 1019 56 10000 1.03 280 17:26 16.03.2021
1391 Clear 4 1018 56 10000 3.09 350 16:51 16.03.2021
1392 Clear 4 1018 56 10000 3.09 350 16:28 16.03.2021
1393 Clear 5 1018 52 10000 3.6 340 15:47 16.03.2021
1394 Clear 5 1018 52 10000 3.6 340 15:21 16.03.2021
1395 Clear 5 1018 56 10000 4.63 320 14:58 16.03.2021
1396 Clear 5 1018 56 10000 4.63 320 14:40 16.03.2021
1397 Clear 6 1018 56 10000 4.63 320 14:20 16.03.2021
1398 Clear 7 1017 48 10000 2.57 310 13:47 16.03.2021
1399 Clear 7 1017 48 10000 2.57 310 13:26 16.03.2021
1400 Clear 8 1017 45 10000 3.09 320 12:51 16.03.2021
1401 Clear 8 1017 45 10000 3.09 320 12:33 16.03.2021
1402 Clear 9 1016 42 10000 4.63 330 11:43 16.03.2021
1403 Clear 9 1016 42 10000 4.63 330 11:22 16.03.2021
1404 Clear 11 1016 37 10000 5.14 270 10:28 16.03.2021
1405 Clear 12 1016 40 10000 6.17 270 09:57 16.03.2021
1406 Clear 12 1016 40 10000 6.17 270 09:37 16.03.2021
1407 Clear 12 1016 40 10000 6.17 270 09:18 16.03.2021
1408 Clear 13 1016 37 10000 7.2 260 08:45 16.03.2021
1409 Clear 13 1016 37 10000 7.2 260 08:26 16.03.2021
1410 Clear 14 1016 28 10000 4.63 270 07:36 16.03.2021
1411 Clear 13 1016 22 10000 4.12 330 06:40 16.03.2021
1412 Clear 13 1016 24 10000 4.63 310 05:52 16.03.2021
1413 Clear 13 1016 24 10000 4.63 310 05:34 16.03.2021
1414 Clear 9 1017 39 10000 7.72 330 02:45 16.03.2021
1415 Clear 9 1017 39 10000 7.72 330 02:24 16.03.2021
1416 Clear 6 1015 56 10000 5.66 310 23:58 15.03.2021
1417 Clear 6 1015 56 10000 5.66 310 23:29 15.03.2021
1418 Clear 6 1015 56 10000 5.66 310 23:29 15.03.2021
1419 Clear 7 1014 56 10000 5.66 310 22:53 15.03.2021
1420 Clear 7 1014 56 10000 5.66 310 22:34 15.03.2021
1421 Clear 8 1013 70 10000 4.63 320 21:55 15.03.2021
1422 Clear 8 1013 70 10000 4.63 320 21:35 15.03.2021
1423 Clear 9 1013 76 10000 5.66 320 20:59 15.03.2021
1424 Clear 9 1013 76 10000 5.66 320 20:40 15.03.2021
1425 Mist 9 1013 87 4000 4.12 300 20:21 15.03.2021
1426 Mist 10 1013 87 2000 3.09 280 19:50 15.03.2021
1427 Mist 10 1013 87 2000 3.09 280 19:50 15.03.2021
1428 Mist 10 1013 87 2000 3.09 280 19:32 15.03.2021
1429 Mist 10 1013 93 1800 2.06 270 18:57 15.03.2021
1430 Mist 10 1013 93 1800 2.06 270 18:28 15.03.2021
1431 Mist 10 1013 93 1400 3.6 280 17:56 15.03.2021
1432 Mist 10 1013 93 1400 3.6 280 17:32 15.03.2021
1433 Mist 11 1013 93 2000 5.66 280 16:52 15.03.2021
1434 Mist 10 1013 93 2000 5.66 280 16:34 15.03.2021
1435 Mist 11 1013 93 1300 3.09 270 15:47 15.03.2021
1436 Mist 11 1013 87 2800 4.63 240 15:26 15.03.2021
1437 Clouds 13 1013 71 6000 6.17 220 14:45 15.03.2021
1438 Clouds 13 1013 71 6000 6.17 220 14:23 15.03.2021
1439 Clouds 13 1014 66 6000 4.63 240 13:49 15.03.2021
1440 Clouds 13 1014 66 6000 4.63 240 13:27 15.03.2021
1441 Rain 13 1013 54 7000 3.09 210 12:50 15.03.2021
1442 Clouds 13 1013 54 7000 3.09 210 12:20 15.03.2021
1443 Clouds 13 1013 54 8000 3.09 200 11:56 15.03.2021
1444 Clouds 13 1013 54 8000 3.09 200 11:37 15.03.2021
1445 Clouds 14 1014 47 9000 4.12 230 10:56 15.03.2021
1446 Clouds 14 1014 47 9000 4.12 230 10:32 15.03.2021
1447 Rain 15 1014 47 7000 4.63 230 09:54 15.03.2021
1448 Clouds 15 1014 47 7000 4.63 230 09:36 15.03.2021
1449 Clouds 16 1014 38 8000 4.12 230 08:59 15.03.2021
1450 Clouds 16 1014 38 8000 4.12 230 08:40 15.03.2021
1451 Clouds 16 1014 41 7000 4.63 230 07:56 15.03.2021
1452 Clouds 16 1014 41 7000 4.63 230 07:32 15.03.2021
1453 Clouds 16 1015 39 6000 3.6 200 06:41 15.03.2021
1454 Clouds 15 1016 44 6000 3.6 220 05:33 15.03.2021
1455 Mist 7 1019 76 3200 1.03 190 01:47 15.03.2021
1456 Mist 3 1018 93 1600 1.03 210 23:58 14.03.2021
1457 Fog 3 1018 93 1100 0.51 200 23:20 14.03.2021
1458 Fog 2 1018 100 1200 1.1 120 22:47 14.03.2021
1459 Fog 2 1018 100 1200 0.81 136 22:23 14.03.2021
1460 Mist 3 1019 93 1200 0.51 330 21:45 14.03.2021
1461 Mist 3 1019 93 1200 0.51 330 21:19 14.03.2021
1462 Mist 3 1019 93 1400 1.54 330 20:49 14.03.2021
1463 Mist 3 1019 93 1600 1.54 320 20:26 14.03.2021
1464 Mist 3 1019 93 1600 1.54 320 20:26 14.03.2021
1465 Mist 4 1019 93 2000 1.54 340 19:48 14.03.2021
1466 Mist 4 1019 93 2000 1.54 340 19:24 14.03.2021
1467 Mist 5 1019 93 2000 1.03 320 18:49 14.03.2021
1468 Mist 4 1019 93 2000 1.03 320 18:27 14.03.2021
1469 Mist 5 1019 87 2000 1.54 340 17:41 14.03.2021
1470 Mist 5 1019 87 2000 1.54 340 17:22 14.03.2021
1471 Mist 6 1020 87 2500 0.51 330 16:46 14.03.2021
1472 Mist 6 1020 87 2500 0.51 330 16:46 14.03.2021
1473 Mist 6 1020 87 2500 0.51 330 16:27 14.03.2021
1474 Mist 6 1020 87 2500 2.06 310 15:53 14.03.2021
1475 Mist 7 1020 87 2500 2.06 310 15:34 14.03.2021
1476 Mist 7 1019 87 2500 3.09 300 14:41 14.03.2021
1477 Mist 7 1019 87 2500 3.09 300 14:21 14.03.2021
1478 Mist 8 1019 76 3500 1.03 360 13:49 14.03.2021
1479 Mist 8 1019 76 3500 1.03 360 13:28 14.03.2021
1480 Haze 9 1020 71 5000 1.03 340 12:45 14.03.2021
1481 Haze 9 1020 71 5000 1.03 340 12:27 14.03.2021
1482 Clouds 9 1019 76 8000 1.03 310 11:47 14.03.2021
1483 Clear 9 1019 76 8000 1.03 310 11:29 14.03.2021
1484 Clear 12 1019 62 8000 3.6 300 10:56 14.03.2021
1485 Clear 12 1019 62 8000 3.6 300 10:36 14.03.2021
1486 Clear 12 1019 62 8000 3.6 300 10:18 14.03.2021
1487 Clear 13 1019 58 8000 4.12 240 09:42 14.03.2021
1488 Clear 13 1019 58 8000 4.12 240 09:21 14.03.2021
1489 Clouds 14 1019 54 7000 3.6 300 08:40 14.03.2021
1490 Clouds 14 1019 54 7000 3.6 300 08:18 14.03.2021
1491 Clouds 13 1019 54 7000 2.57 300 08:18 14.03.2021
1492 Clouds 13 1019 54 7000 2.57 300 07:35 14.03.2021
1493 Clouds 13 1020 50 6000 4.12 300 06:27 14.03.2021
1494 Mist 7 1022 87 1800 2.06 150 01:35 14.03.2021
1495 Mist 5 1021 93 1300 1.54 150 00:49 14.03.2021
1496 Mist 4 1021 93 1300 1.54 150 00:18 14.03.2021
1497 Mist 2 1020 93 1500 2.57 140 23:42 13.03.2021
1498 Mist 2 1020 93 1500 2.57 140 23:20 13.03.2021
1499 Mist 2 1020 93 1500 1.54 140 22:49 13.03.2021
1500 Mist 2 1020 93 1500 1.54 140 22:24 13.03.2021
1501 Mist 3 1019 93 1500 0.51 260 21:40 13.03.2021
1502 Mist 3 1019 93 1500 0.51 260 21:40 13.03.2021
1503 Mist 3 1019 93 2000 0.51 360 21:19 13.03.2021
1504 Mist 3 1019 93 2000 0.51 360 20:48 13.03.2021
1505 Mist 3 1019 93 2000 0.51 360 20:26 13.03.2021
1506 Mist 4 1019 93 2500 1.03 340 19:45 13.03.2021
1507 Mist 4 1019 93 2500 1.03 340 19:24 13.03.2021
1508 Mist 4 1020 93 3000 0.51 10 18:43 13.03.2021
1509 Mist 4 1020 93 3000 0.51 10 18:21 13.03.2021
1510 Mist 5 1020 87 3500 1.03 60 17:51 13.03.2021
1511 Mist 6 1020 87 3500 1.03 60 17:32 13.03.2021
1512 Mist 5 1020 87 4000 1.03 320 16:55 13.03.2021
1513 Mist 5 1020 87 4000 1.03 320 16:37 13.03.2021
1514 Mist 6 1020 87 4200 1.54 290 15:56 13.03.2021
1515 Mist 6 1020 87 4200 1.54 290 15:19 13.03.2021
1516 Mist 7 1020 81 5000 1.03 300 14:42 13.03.2021
1517 Mist 8 1020 81 5000 1.03 300 14:21 13.03.2021
1518 Clouds 8 1020 70 6000 1.54 290 13:30 13.03.2021
1519 Clouds 10 1020 66 8000 0.51 290 12:53 13.03.2021
1520 Clouds 10 1020 66 8000 0.51 290 12:35 13.03.2021
1521 Clouds 11 1020 61 9000 2.06 280 11:58 13.03.2021
1522 Clouds 11 1020 61 9000 2.06 280 11:39 13.03.2021
1523 Clouds 11 1020 61 9000 2.06 280 11:20 13.03.2021
1524 Clouds 12 1020 53 10000 4.12 280 10:31 13.03.2021
1525 Clouds 13 1020 50 10000 5.66 270 09:59 13.03.2021
1526 Clouds 13 1020 50 10000 5.66 270 09:33 13.03.2021
1527 Clouds 14 1020 47 9000 5.66 280 08:54 13.03.2021
1528 Clouds 14 1020 47 9000 5.66 280 08:54 13.03.2021
1529 Clouds 14 1020 47 9000 5.66 280 08:21 13.03.2021
1530 Clouds 15 1020 44 9000 5.14 280 07:57 13.03.2021
1531 Clouds 14 1020 44 9000 5.14 280 07:33 13.03.2021
1532 Clouds 14 1022 44 9000 2.06 340 05:30 13.03.2021
1533 Clouds 8 1023 61 6000 1.54 20 02:20 13.03.2021
1534 Mist 5 1024 81 4000 2.57 330 00:33 13.03.2021
1535 Mist 3 1023 93 4000 0.51 320 23:38 12.03.2021
1536 Mist 3 1023 93 4000 0.51 320 23:20 12.03.2021
1537 Mist 3 1023 87 4500 1.54 320 22:32 12.03.2021
1538 Mist 4 1023 87 4500 2.06 330 21:56 12.03.2021
1539 Mist 4 1023 87 4500 2.06 330 21:56 12.03.2021
1540 Clouds 4 1023 87 6000 1.54 320 21:37 12.03.2021
1541 Clouds 4 1023 87 6000 1.54 320 21:37 12.03.2021
1542 Clouds 4 1023 87 6000 1.54 320 21:37 12.03.2021
1543 Clouds 4 1023 81 6000 2.57 310 21:18 12.03.2021
1544 Clouds 4 1023 81 6000 2.57 310 20:47 12.03.2021
1545 Clear 4 1023 81 6000 2.57 310 20:22 12.03.2021
1546 Clear 5 1023 81 7000 2.57 340 19:44 12.03.2021
1547 Clear 5 1023 81 7000 2.57 340 19:25 12.03.2021
1548 Clear 6 1023 81 7000 2.57 300 18:47 12.03.2021
1549 Clear 6 1023 81 7000 2.57 300 18:25 12.03.2021
1550 Clear 7 1023 70 8000 2.06 10 17:44 12.03.2021
1551 Clear 7 1023 70 8000 2.06 10 17:26 12.03.2021
1552 Clear 7 1023 70 9000 2.57 10 16:44 12.03.2021
1553 Clear 7 1023 70 9000 2.57 10 16:23 12.03.2021
1554 Clear 7 1023 70 9000 2.57 10 16:23 12.03.2021
1555 Clouds 7 1023 70 10000 4.12 20 15:38 12.03.2021
1556 Clouds 8 1023 66 10000 4.63 10 14:53 12.03.2021
1557 Clouds 9 1023 66 10000 4.63 10 14:22 12.03.2021
1558 Clouds 9 1023 66 10000 4.12 10 13:58 12.03.2021
1559 Clouds 9 1023 66 10000 4.12 10 13:58 12.03.2021
1560 Clouds 9 1023 66 10000 4.12 10 13:37 12.03.2021
1561 Clouds 9 1023 66 10000 4.12 10 13:18 12.03.2021
1562 Clouds 10 1022 62 10000 4.12 10 12:43 12.03.2021
1563 Clouds 10 1022 62 10000 4.12 10 12:25 12.03.2021
1564 Clouds 11 1022 62 10000 4.63 20 11:53 12.03.2021
1565 Clouds 11 1022 62 10000 4.63 20 11:24 12.03.2021
1566 Clouds 12 1021 54 10000 4.63 30 10:55 12.03.2021
1567 Clouds 13 1021 54 10000 4.63 30 10:27 12.03.2021
1568 Clouds 13 1021 58 10000 3.6 30 09:57 12.03.2021
1569 Clouds 13 1021 58 10000 3.6 30 09:26 12.03.2021
1570 Clouds 12 1021 54 10000 3.09 50 08:46 12.03.2021
1571 Clouds 12 1021 54 10000 5.66 100 07:59 12.03.2021
1572 Clouds 12 1021 54 10000 5.66 100 07:38 12.03.2021
1573 Rain 12 1021 41 6000 4.12 90 06:54 12.03.2021
1574 Rain 12 1021 41 6000 4.12 90 06:28 12.03.2021
1575 Haze 11 1022 54 4500 3.6 320 02:49 12.03.2021
1576 Haze 8 1022 76 4500 2.06 340 00:51 12.03.2021
1577 Haze 8 1022 76 3500 2.06 300 23:31 11.03.2021
1578 Haze 8 1022 71 3500 1.54 350 22:50 11.03.2021
1579 Haze 8 1022 71 3500 1.54 350 22:30 11.03.2021
1580 Haze 8 1022 71 3500 1.54 350 22:30 11.03.2021
1581 Rain 8 1022 70 3800 1.54 190 21:54 11.03.2021
1582 Rain 8 1022 70 3800 1.54 190 21:32 11.03.2021
1583 Haze 8 1021 70 4000 1.03 220 20:55 11.03.2021
1584 Rain 8 1021 70 4000 1.03 220 20:37 11.03.2021
1585 Haze 8 1021 70 4000 1.03 220 20:19 11.03.2021
1586 Rain 8 1022 70 4000 1.54 330 19:41 11.03.2021
1587 Rain 8 1022 70 4000 1.54 330 19:22 11.03.2021
1588 Haze 8 1022 70 4000 2.57 360 18:46 11.03.2021
1589 Rain 8 1022 70 4000 2.57 360 18:28 11.03.2021
1590 Haze 8 1022 65 4000 1.54 280 17:43 11.03.2021
1591 Rain 8 1022 65 4000 1.03 260 16:47 11.03.2021
1592 Rain 8 1022 65 4000 1.03 260 16:27 11.03.2021
1593 Haze 9 1023 61 5000 2.57 320 15:48 11.03.2021
1594 Haze 9 1023 61 5000 2.57 320 15:21 11.03.2021
1595 Clouds 9 1023 57 6000 1.03 290 14:46 11.03.2021
1596 Clouds 10 1023 57 6000 1.03 290 14:19 11.03.2021
1597 Clouds 10 1023 53 6000 1.54 310 13:47 11.03.2021
1598 Clouds 10 1023 53 6000 1.54 310 13:28 11.03.2021
1599 Clouds 10 1024 57 6000 2.57 320 12:57 11.03.2021
1600 Clouds 10 1024 57 6000 2.57 320 12:37 11.03.2021
1601 Clouds 10 1024 57 6000 2.57 320 12:19 11.03.2021
1602 Clouds 12 1024 40 8000 2.06 300 11:42 11.03.2021
1603 Clouds 12 1024 40 8000 2.06 300 11:20 11.03.2021
1604 Clouds 13 1023 35 8000 2.57 310 10:30 11.03.2021
1605 Clouds 15 1024 28 7000 4.12 270 09:57 11.03.2021
1606 Clouds 15 1024 28 7000 4.12 270 09:37 11.03.2021
1607 Clouds 16 1024 30 6000 4.63 280 09:18 11.03.2021
1608 Haze 16 1024 38 4000 5.66 290 08:44 11.03.2021
1609 Haze 17 1024 33 4000 4.63 290 08:18 11.03.2021
1610 Haze 17 1024 33 4000 4.63 290 07:28 11.03.2021
1611 Clouds 17 1025 23 6000 1.54 240 06:49 11.03.2021
1612 Clouds 17 1025 23 6000 1.54 240 06:24 11.03.2021
1613 Haze 10 1029 53 2000 1.54 210 02:49 11.03.2021
1614 Mist 4 1029 87 1500 1.03 330 00:49 11.03.2021
1615 Fog 1 1028 93 1500 1.03 350 23:27 10.03.2021
1616 Mist 1 1028 93 1600 1.03 20 22:47 10.03.2021
1617 Mist 1 1028 93 1600 1.03 20 22:28 10.03.2021
1618 Mist 1 1028 93 1600 1.03 20 22:26 10.03.2021
1619 Mist 1 1028 93 1800 1.03 290 21:45 10.03.2021
1620 Mist 1 1028 93 1800 1.03 290 21:23 10.03.2021
1621 Mist 2 1027 86 2000 0.51 160 20:46 10.03.2021
1622 Mist 2 1027 86 2000 0.51 160 20:27 10.03.2021
1623 Mist 2 1027 86 2000 1.54 110 19:49 10.03.2021
1624 Mist 2 1027 86 2000 1.54 110 19:28 10.03.2021
1625 Mist 3 1028 86 2300 1.03 290 18:46 10.03.2021
1626 Mist 3 1028 86 2300 1.03 290 18:24 10.03.2021
1627 Mist 3 1028 86 2300 1.03 290 18:24 10.03.2021
1628 Haze 3 1028 81 2500 0.51 20 17:55 10.03.2021
1629 Haze 4 1028 81 2500 0.51 20 17:37 10.03.2021
1630 Haze 4 1028 81 2500 0.51 20 17:19 10.03.2021
1631 Haze 5 1028 81 2500 2.57 320 16:42 10.03.2021
1632 Haze 4 1028 81 2500 2.57 320 16:22 10.03.2021
1633 Haze 5 1028 81 2500 1.03 320 15:45 10.03.2021
1634 Haze 5 1028 81 2500 1.03 320 15:23 10.03.2021
1635 Haze 6 1028 75 2700 0.51 330 14:48 10.03.2021
1636 Haze 7 1028 75 2700 0.51 330 14:20 10.03.2021
1637 Haze 7 1028 75 2700 0.51 330 14:20 10.03.2021
1638 Haze 8 1028 70 3200 2.06 310 13:51 10.03.2021
1639 Haze 8 1028 70 3200 2.06 310 13:27 10.03.2021
1640 Haze 9 1028 65 3200 1.54 330 12:45 10.03.2021
1641 Haze 9 1028 65 3200 1.54 330 12:19 10.03.2021
1642 Haze 11 1027 57 3500 1.54 300 11:33 10.03.2021
1643 Haze 13 1027 50 3500 4.12 300 10:59 10.03.2021
1644 Haze 13 1027 50 3500 4.12 300 10:41 10.03.2021
1645 Haze 14 1027 50 3500 4.12 300 10:23 10.03.2021
1646 Haze 16 1026 44 3500 3.6 280 09:45 10.03.2021
1647 Haze 16 1026 44 4500 4.63 290 09:24 10.03.2021
1648 Haze 16 1026 44 3500 3.6 280 09:24 10.03.2021
1649 Haze 16 1026 44 3500 3.6 280 09:24 10.03.2021
1650 Haze 16 1026 44 4500 4.63 290 08:57 10.03.2021
1651 Clouds 17 1026 33 6000 4.12 290 08:39 10.03.2021
1652 Clear 16 1026 33 6000 4.12 290 08:20 10.03.2021
1653 Clear 16 1027 31 6000 1.03 290 07:31 10.03.2021
1654 Clear 15 1027 33 6000 1.03 260 06:56 10.03.2021
1655 Clear 15 1027 33 6000 1.03 260 06:32 10.03.2021
1656 Mist 8 1030 66 4000 1.54 30 02:42 10.03.2021
1657 Fog -1 1029 100 1100 1.03 260 23:52 09.03.2021
1658 Fog -1 1029 100 1100 1.03 260 23:24 09.03.2021
1659 Fog -1 1029 100 900 0.51 250 22:42 09.03.2021
1660 Fog -1 1028 93 1800 1.54 360 22:23 09.03.2021
1661 Fog 0 1027 100 1200 1.03 350 21:46 09.03.2021
1662 Fog 0 1027 100 1200 1.03 350 21:25 09.03.2021
1663 Fog 0 1027 100 1400 0.51 290 20:58 09.03.2021
1664 Fog 0 1027 100 1400 0.51 290 20:40 09.03.2021
1665 Fog 0 1027 100 1400 0.51 290 20:40 09.03.2021
1666 Fog 0 1027 100 1400 0.51 290 20:21 09.03.2021
1667 Mist 0 1027 93 2700 1.03 320 19:47 09.03.2021
1668 Mist 1 1027 93 2700 1.03 320 19:26 09.03.2021
1669 Mist 1 1028 93 2700 1.03 330 18:48 09.03.2021
1670 Mist 1 1028 93 2700 1.03 330 18:25 09.03.2021
1671 Fog 2 1027 93 3800 0.51 10 17:51 09.03.2021
1672 Fog 2 1027 93 3800 0.51 10 17:30 09.03.2021
1673 Mist 2 1027 93 4000 1.03 300 16:47 09.03.2021
1674 Mist 3 1027 93 4000 1.03 300 16:26 09.03.2021
1675 Mist 3 1027 93 4500 0.51 270 15:59 09.03.2021
1676 Mist 3 1027 93 4500 0.51 270 15:40 09.03.2021
1677 Clear 4 1027 93 6000 1.03 310 15:20 09.03.2021
1678 Clear 4 1027 93 6000 1.03 310 14:28 09.03.2021
1679 Clear 4 1027 93 6000 1.03 310 14:28 09.03.2021
1680 Clear 5 1026 87 7000 0.51 260 13:47 09.03.2021
1681 Clouds 5 1026 87 7000 0.51 260 13:22 09.03.2021
1682 Clouds 6 1026 81 8000 2.06 280 12:59 09.03.2021
1683 Clouds 6 1026 81 8000 2.06 280 12:38 09.03.2021
1684 Clear 8 1025 65 10000 3.09 270 11:59 09.03.2021
1685 Clear 8 1025 65 10000 3.09 270 11:39 09.03.2021
1686 Clear 9 1025 65 10000 3.09 270 11:20 09.03.2021
1687 Clear 10 1025 42 10000 4.63 270 10:47 09.03.2021
1688 Clear 10 1025 42 10000 4.63 270 10:23 09.03.2021
1689 Clear 11 1024 29 10000 5.14 280 09:58 09.03.2021
1690 Clear 11 1024 29 10000 5.14 280 09:39 09.03.2021
1691 Clear 11 1024 29 10000 5.14 280 09:21 09.03.2021
1692 Clear 13 1024 30 10000 4.12 270 08:35 09.03.2021
1693 Clear 13 1024 30 10000 4.12 270 08:35 09.03.2021
1694 Clear 12 1024 35 10000 4.12 280 07:50 09.03.2021
1695 Clear 12 1024 35 10000 4.12 280 07:31 09.03.2021
1696 Clear 13 1024 32 10000 4.12 300 06:59 09.03.2021
1697 Clear 12 1025 37 10000 2.06 10 05:54 09.03.2021
1698 Clear 9 1026 46 10000 1.54 330 03:51 09.03.2021
1699 Clear 1 1026 86 10000 0.38 214 00:18 09.03.2021
1700 Clouds 0 1026 86 8000 0.51 240 23:39 08.03.2021
1701 Clouds 0 1026 86 8000 0.51 240 23:21 08.03.2021
1702 Clouds 0 1026 86 6000 1.03 320 22:43 08.03.2021
1703 Clouds 0 1026 86 6000 1.03 320 22:25 08.03.2021
1704 Clouds 0 1025 86 7000 1.03 320 21:50 08.03.2021
1705 Clouds 0 1025 86 7000 1.03 320 21:30 08.03.2021
1706 Clear 0 1025 86 10000 1.54 310 20:45 08.03.2021
1707 Clear 0 1025 86 10000 1.54 310 20:24 08.03.2021
1708 Clear 0 1026 86 10000 1.54 310 19:54 08.03.2021
1709 Clear 0 1026 86 10000 1.54 310 19:27 08.03.2021
1710 Clear 1 1026 93 10000 1.54 330 18:38 08.03.2021
1711 Clear 1 1026 93 10000 1.54 330 18:20 08.03.2021
1712 Clear 2 1026 80 10000 0.39 315 17:48 08.03.2021
1713 Clear 2 1026 80 10000 0.4 297 17:24 08.03.2021
1714 Clear 2 1026 86 10000 0.51 360 16:45 08.03.2021
1715 Clear 2 1026 86 10000 0.51 360 16:26 08.03.2021
1716 Clear 3 1026 87 10000 0.51 300 15:47 08.03.2021
1717 Clear 3 1026 87 10000 0.51 300 15:24 08.03.2021
1718 Clear 5 1026 81 10000 1.54 310 14:22 08.03.2021
1719 Clear 5 1026 75 10000 4.12 310 13:58 08.03.2021
1720 Clear 5 1026 75 10000 4.12 310 13:24 08.03.2021
1721 Clear 6 1026 70 10000 2.57 310 12:59 08.03.2021
1722 Clear 6 1026 70 10000 2.57 310 12:40 08.03.2021
1723 Clear 6 1026 70 10000 2.57 310 12:20 08.03.2021
1724 Clear 8 1026 61 10000 3.09 310 11:35 08.03.2021
1725 Clear 10 1025 53 10000 3.6 280 10:58 08.03.2021
1726 Clear 10 1025 53 10000 3.6 280 10:40 08.03.2021
1727 Clear 11 1025 53 10000 3.6 280 10:19 08.03.2021
1728 Clear 12 1025 50 10000 4.63 290 09:30 08.03.2021
1729 Clouds 13 1026 43 10000 6.17 280 08:54 08.03.2021
1730 Clouds 13 1026 43 10000 6.17 280 08:25 08.03.2021
1731 Clouds 13 1025 40 10000 5.66 290 07:22 08.03.2021
1732 Clouds 14 1026 26 10000 2.06 280 06:33 08.03.2021
1733 Clear 7 1029 61 6000 1.03 330 02:57 08.03.2021
1734 Mist 1 1028 93 4500 1.03 320 00:43 08.03.2021
1735 Mist -1 1028 100 3500 1.54 340 23:54 07.03.2021
1736 Mist -1 1028 100 3500 1.54 340 23:23 07.03.2021
1737 Fog -1 1028 100 2800 0.51 310 22:50 07.03.2021
1738 Mist -1 1028 100 3000 1.03 340 22:29 07.03.2021
1739 Mist -1 1027 100 2500 1.03 330 21:56 07.03.2021
1740 Mist 0 1027 100 2500 1.03 330 21:34 07.03.2021
1741 Mist 0 1027 93 4000 1.03 340 20:59 07.03.2021
1742 Mist 0 1027 93 4000 1.03 340 20:41 07.03.2021
1743 Mist 0 1027 93 4500 0.51 330 20:19 07.03.2021
1744 Clear 0 1027 93 6000 1.54 330 19:41 07.03.2021
1745 Clear 0 1027 93 6000 1.54 330 19:22 07.03.2021
1746 Clear 0 1027 93 6000 1.54 330 19:22 07.03.2021
1747 Clear 1 1028 93 7000 0.51 320 18:56 07.03.2021
1748 Clear 1 1028 93 7000 0.51 320 18:38 07.03.2021
1749 Clear 1 1028 93 7000 0.51 320 18:18 07.03.2021
1750 Clear 2 1027 93 7000 1.03 350 17:39 07.03.2021
1751 Clear 2 1027 93 7000 1.03 350 17:19 07.03.2021
1752 Clear 2 1028 87 8000 1.03 330 16:43 07.03.2021
1753 Clear 3 1028 87 8000 1.03 330 16:21 07.03.2021
1754 Clear 3 1028 87 8000 1.03 320 15:51 07.03.2021
1755 Clear 3 1028 87 8000 1.03 320 15:31 07.03.2021
1756 Clear 4 1028 81 10000 1.54 300 14:56 07.03.2021
1757 Clear 4 1028 81 10000 1.54 300 14:29 07.03.2021
1758 Clear 5 1027 75 10000 2.06 340 13:51 07.03.2021
1759 Clear 5 1027 75 10000 2.06 340 13:29 07.03.2021
1760 Clear 5 1027 70 10000 2.57 290 12:50 07.03.2021
1761 Clear 7 1027 70 10000 2.57 290 12:32 07.03.2021
1762 Clear 8 1026 57 10000 1.54 280 11:58 07.03.2021
1763 Clear 8 1026 57 10000 1.54 280 11:23 07.03.2021
1764 Clear 9 1026 57 10000 3.09 260 10:54 07.03.2021
1765 Clear 9 1026 57 10000 3.09 260 10:36 07.03.2021
1766 Clouds 11 1026 50 10000 4.63 290 09:53 07.03.2021
1767 Clouds 11 1026 50 10000 4.63 290 09:27 07.03.2021
1768 Clouds 12 1026 46 10000 3.6 300 08:57 07.03.2021
1769 Clouds 12 1026 46 10000 3.6 300 08:38 07.03.2021
1770 Clouds 11 1026 46 10000 3.6 300 08:20 07.03.2021
1771 Clouds 9 1029 49 10000 1.54 30 04:57 07.03.2021
1772 Clear 6 1030 53 10000 3.6 100 02:26 07.03.2021
1773 Clouds 2 1030 75 10000 2.06 20 00:24 07.03.2021
1774 Clouds 2 1030 75 10000 1.54 360 23:40 06.03.2021
1775 Clouds 1 1030 75 10000 1.54 360 23:19 06.03.2021
1776 Clouds 2 1029 69 10000 1.54 10 22:41 06.03.2021
1777 Clouds 2 1029 69 10000 1.54 10 22:21 06.03.2021
1778 Clouds 2 1029 75 10000 2.06 20 21:40 06.03.2021
1779 Clouds 2 1029 75 10000 2.06 20 21:20 06.03.2021
1780 Clouds 2 1029 69 10000 2.57 20 20:41 06.03.2021
1781 Clouds 2 1030 75 10000 2.57 20 19:51 06.03.2021
1782 Clouds 2 1030 75 10000 2.57 20 19:25 06.03.2021
1783 Clouds 3 1030 69 10000 1.54 60 18:57 06.03.2021
1784 Clouds 3 1030 69 10000 1.54 60 18:39 06.03.2021
1785 Clouds 3 1030 69 10000 1.54 60 18:20 06.03.2021
1786 Clouds 3 1030 60 10000 3.6 90 17:47 06.03.2021
1787 Clouds 3 1030 60 10000 3.6 90 17:26 06.03.2021
1788 Clouds 4 1030 60 10000 3.6 90 16:53 06.03.2021
1789 Clouds 4 1030 60 10000 3.6 90 16:30 06.03.2021
1790 Clouds 4 1030 60 10000 3.6 80 15:55 06.03.2021
1791 Clouds 4 1030 60 10000 3.6 80 15:34 06.03.2021
1792 Clouds 4 1030 56 10000 4.63 70 14:55 06.03.2021
1793 Clouds 4 1030 56 10000 4.63 70 14:31 06.03.2021
1794 Clouds 4 1029 60 10000 3.09 60 13:46 06.03.2021
1795 Clouds 4 1029 60 10000 3.09 60 13:24 06.03.2021
1796 Clear 5 1029 56 10000 3.09 70 12:49 06.03.2021
1797 Clear 5 1029 56 10000 3.09 70 12:20 06.03.2021
1798 Clouds 6 1028 52 10000 6.69 100 11:59 06.03.2021
1799 Clouds 6 1028 52 10000 6.69 100 11:27 06.03.2021
1800 Clouds 6 1028 53 10000 6.17 110 10:54 06.03.2021
1801 Clouds 6 1028 53 10000 6.17 110 10:36 06.03.2021
1802 Clouds 8 1027 49 10000 6.17 100 09:56 06.03.2021
1803 Rain 8 1027 49 10000 6.17 100 09:21 06.03.2021
1804 Clouds 8 1027 49 10000 7.2 110 08:54 06.03.2021
1805 Clouds 8 1027 49 10000 7.2 110 08:29 06.03.2021
1806 Clouds 9 1026 50 10000 6.69 90 07:43 06.03.2021
1807 Clouds 9 1026 50 10000 6.69 90 07:21 06.03.2021
1808 Clouds 10 1026 47 10000 4.63 110 05:40 06.03.2021
1809 Clouds 9 1027 71 7000 3.09 10 02:52 06.03.2021
1810 Clouds 7 1026 87 6000 2.57 330 01:31 06.03.2021
1811 Clouds 6 1026 87 6000 3.09 340 00:45 06.03.2021
1812 Mist 4 1025 93 5000 2.06 330 23:39 05.03.2021
1813 Mist 4 1025 93 5000 2.06 330 23:39 05.03.2021
1814 Mist 4 1025 93 4500 2.06 330 23:18 05.03.2021
1815 Mist 4 1025 93 4500 2.06 330 22:43 05.03.2021
1816 Mist 4 1025 93 4500 2.06 330 22:20 05.03.2021
1817 Mist 4 1024 93 4500 2.06 310 21:42 05.03.2021
1818 Mist 4 1024 93 4000 3.6 320 21:23 05.03.2021
1819 Mist 4 1024 93 4000 3.6 320 20:43 05.03.2021
1820 Mist 4 1024 93 4000 3.6 320 20:23 05.03.2021
1821 Mist 4 1024 93 3500 1.03 290 19:44 05.03.2021
1822 Mist 4 1024 93 3500 1.03 290 19:22 05.03.2021
1823 Mist 4 1023 93 4500 1.54 140 18:44 05.03.2021
1824 Mist 4 1023 93 4500 1.54 140 18:25 05.03.2021
1825 Mist 5 1023 93 5000 1.03 150 17:49 05.03.2021
1826 Mist 5 1023 93 5000 1.03 150 17:31 05.03.2021
1827 Mist 6 1023 93 5000 0.51 280 16:42 05.03.2021
1828 Mist 6 1023 93 5000 0.51 280 16:23 05.03.2021
1829 Mist 6 1022 93 5000 1.54 290 15:54 05.03.2021
1830 Mist 6 1022 93 5000 1.54 290 15:27 05.03.2021
1831 Clear 7 1022 87 10000 1.54 310 14:46 05.03.2021
1832 Clear 7 1022 87 10000 1.54 310 14:25 05.03.2021
1833 Clear 8 1022 87 10000 1.54 340 13:43 05.03.2021
1834 Clear 8 1022 87 10000 1.54 340 13:21 05.03.2021
1835 Clear 9 1021 81 10000 2.57 320 12:43 05.03.2021
1836 Clear 11 1021 71 10000 3.09 270 11:39 05.03.2021
1837 Clear 12 1020 62 10000 4.63 270 11:19 05.03.2021
1838 Clear 13 1020 62 10000 4.63 270 10:45 05.03.2021
1839 Clear 13 1020 62 10000 4.63 270 10:26 05.03.2021
1840 Clear 14 1019 54 10000 5.66 270 09:58 05.03.2021
1841 Clear 15 1019 54 10000 5.66 270 09:38 05.03.2021
1842 Clear 15 1019 54 10000 5.66 270 09:20 05.03.2021
1843 Clear 16 1019 47 10000 5.14 300 08:39 05.03.2021
1844 Clear 16 1019 47 10000 5.14 300 08:20 05.03.2021
1845 Clear 16 1019 47 10000 3.6 360 07:33 05.03.2021
1846 Clear 15 1019 51 10000 5.14 350 06:34 05.03.2021
1847 Clear 14 1020 47 10000 3.6 320 05:41 05.03.2021
1848 Mist 2 1022 87 5000 1.03 360 01:18 05.03.2021
1849 Fog 1 1022 100 3500 1.03 80 23:54 04.03.2021
1850 Fog 0 1022 93 1300 1.03 320 23:24 04.03.2021
1851 Fog 0 1022 93 1600 1.03 280 22:29 04.03.2021
1852 Fog 1 1021 93 2500 1.54 350 21:53 04.03.2021
1853 Fog 1 1021 93 2500 1.54 350 21:31 04.03.2021
1854 Mist 1 1021 93 4000 1.54 10 20:57 04.03.2021
1855 Mist 1 1021 93 4000 1.54 10 20:38 04.03.2021
1856 Mist 1 1021 93 4000 1.54 10 20:18 04.03.2021
1857 Clear 1 1021 93 6000 1.54 320 19:43 04.03.2021
1858 Clear 1 1021 93 6000 1.54 320 19:23 04.03.2021
1859 Clear 1 1021 93 8000 1.54 340 18:47 04.03.2021
1860 Clear 1 1021 93 8000 1.54 340 18:26 04.03.2021
1861 Clear 2 1021 87 9000 1.03 320 17:47 04.03.2021
1862 Clear 2 1021 87 9000 1.03 320 17:28 04.03.2021
1863 Clear 2 1022 93 9000 1.54 310 16:48 04.03.2021
1864 Clear 2 1022 93 9000 1.54 310 16:29 04.03.2021
1865 Clear 3 1022 87 10000 1.03 60 15:50 04.03.2021
1866 Clear 3 1022 87 10000 1.03 60 15:32 04.03.2021
1867 Clouds 5 1022 75 10000 1.03 350 14:50 04.03.2021
1868 Clouds 5 1022 75 10000 1.03 350 14:26 04.03.2021
1869 Clouds 6 1022 66 10000 2.06 100 13:50 04.03.2021
1870 Clouds 6 1022 66 10000 2.06 100 13:32 04.03.2021
1871 Clouds 7 1022 66 10000 2.57 300 12:53 04.03.2021
1872 Clouds 7 1022 66 10000 2.57 300 12:35 04.03.2021
1873 Clouds 9 1022 53 10000 0.51 200 11:47 04.03.2021
1874 Clouds 10 1022 53 10000 0.51 200 11:25 04.03.2021
1875 Clouds 11 1021 54 10000 2.06 130 10:52 04.03.2021
1876 Clouds 11 1021 54 10000 2.06 130 10:31 04.03.2021
1877 Clouds 12 1021 47 10000 1.54 140 09:42 04.03.2021
1878 Clouds 12 1021 47 10000 1.54 140 09:21 04.03.2021
1879 Clouds 12 1022 47 10000 2.57 130 08:35 04.03.2021
1880 Clouds 12 1022 50 10000 2.57 190 07:53 04.03.2021
1881 Clouds 12 1022 50 10000 2.57 190 07:29 04.03.2021
1882 Clouds 11 1022 47 10000 3.09 170 06:24 04.03.2021
1883 Rain 10 1023 46 10000 2.57 130 05:27 04.03.2021
1884 Clouds 4 1026 75 10000 1.03 180 01:41 04.03.2021
1885 Clouds 1 1026 86 6000 0.51 320 22:44 03.03.2021
1886 Clouds 1 1026 86 6000 0.51 320 22:26 03.03.2021
1887 Clouds 0 1026 86 6000 1.03 330 21:44 03.03.2021
1888 Clouds 0 1026 86 6000 1.03 330 21:24 03.03.2021
1889 Clouds 0 1026 86 6000 1.03 350 20:59 03.03.2021
1890 Clouds 0 1026 86 6000 1.03 350 20:41 03.03.2021
1891 Clouds 0 1026 93 7000 1.03 350 19:59 03.03.2021
1892 Clouds 0 1026 93 7000 1.03 350 19:40 03.03.2021
1893 Clouds 0 1026 93 7000 1.03 350 19:21 03.03.2021
1894 Clouds 0 1027 80 8000 0.51 90 18:47 03.03.2021
1895 Clouds 0 1027 80 8000 0.51 90 18:25 03.03.2021
1896 Clouds 0 1027 80 9000 0.51 100 17:50 03.03.2021
1897 Clouds 1 1027 80 9000 0.51 100 17:18 03.03.2021
1898 Clear 1 1027 75 10000 1.03 130 17:18 03.03.2021
1899 Clear 1 1027 75 10000 1.03 130 16:41 03.03.2021
1900 Clear 2 1027 75 10000 1.03 130 16:22 03.03.2021
1901 Clear 1 1028 80 10000 0.51 160 15:33 03.03.2021
1902 Clear 2 1028 80 10000 0.51 90 14:56 03.03.2021
1903 Clear 2 1028 80 10000 0.51 90 14:30 03.03.2021
1904 Clear 3 1028 69 10000 1.54 320 13:52 03.03.2021
1905 Clear 3 1028 69 10000 1.54 320 13:31 03.03.2021
1906 Clear 4 1028 65 10000 1.54 300 12:45 03.03.2021
1907 Clear 4 1028 65 10000 1.54 300 12:26 03.03.2021
1908 Clear 5 1027 52 10000 2.57 290 11:48 03.03.2021
1909 Clear 5 1027 52 10000 2.57 290 11:28 03.03.2021
1910 Clear 8 1027 36 10000 2.57 240 10:50 03.03.2021
1911 Clear 8 1027 36 10000 2.57 240 10:30 03.03.2021
1912 Clear 9 1027 34 10000 2.06 210 09:48 03.03.2021
1913 Clear 9 1027 34 10000 2.06 210 09:26 03.03.2021
1914 Clear 9 1027 37 10000 2.57 220 08:41 03.03.2021
1915 Clear 9 1027 37 10000 2.57 220 08:21 03.03.2021
1916 Clear 9 1027 40 10000 2.06 240 07:41 03.03.2021
1917 Clear 9 1028 43 10000 2.57 170 06:51 03.03.2021
1918 Clear 8 1029 37 10000 2.57 230 05:46 03.03.2021
1919 Clear 7 1030 39 10000 2.06 180 04:58 03.03.2021
1920 Clear 6 1030 39 10000 2.06 180 04:26 03.03.2021
1921 Clouds 1 1031 75 8000 2.57 170 01:54 03.03.2021
1922 Clear -2 1030 93 6000 0.51 130 23:57 02.03.2021
1923 Clear -2 1030 93 6000 0.51 130 23:22 02.03.2021
1924 Mist -3 1030 100 5000 1.03 220 22:41 02.03.2021
1925 Mist -2 1029 93 5000 0.51 270 22:18 02.03.2021
1926 Mist -2 1029 93 5000 0.51 270 21:40 02.03.2021
1927 Mist -2 1029 93 5000 0.51 270 21:21 02.03.2021
1928 Clear -2 1029 93 7000 2.06 140 20:46 02.03.2021
1929 Clear -2 1029 93 7000 2.06 140 20:22 02.03.2021
1930 Clear -1 1030 86 10000 2.06 120 19:51 02.03.2021
1931 Clear -1 1030 86 10000 2.06 120 19:32 02.03.2021
1932 Clear -2 1031 93 10000 1.03 310 18:58 02.03.2021
1933 Clear -2 1031 93 10000 1.03 310 18:39 02.03.2021
1934 Clear -2 1031 93 10000 1.03 310 18:20 02.03.2021
1935 Clear -1 1029 93 10000 1.03 340 17:49 02.03.2021
1936 Clear -1 1029 93 10000 1.03 340 17:29 02.03.2021
1937 Clear -1 1029 86 10000 0.51 260 16:49 02.03.2021
1938 Clear -1 1029 86 10000 0.51 260 16:20 02.03.2021
1939 Clear -1 1029 80 10000 0.51 60 15:47 02.03.2021
1940 Clear 0 1029 80 10000 0.51 60 15:21 02.03.2021
1941 Clear 1 1029 80 10000 0.51 360 14:21 02.03.2021
1942 Clear 1 1028 80 10000 1.03 320 13:48 02.03.2021
1943 Clear 1 1028 80 10000 1.03 320 13:28 02.03.2021
1944 Clear 2 1028 75 10000 1.03 240 12:51 02.03.2021
1945 Clear 2 1028 75 10000 1.03 240 12:26 02.03.2021
1946 Clouds 3 1028 75 10000 4.63 280 11:53 02.03.2021
1947 Clouds 3 1028 75 10000 4.63 280 11:29 02.03.2021
1948 Clouds 5 1027 52 10000 2.06 350 10:55 02.03.2021
1949 Clouds 5 1027 52 10000 2.06 350 10:31 02.03.2021
1950 Clouds 6 1027 52 10000 3.09 330 09:44 02.03.2021
1951 Clouds 6 1027 52 10000 3.09 330 09:24 02.03.2021
1952 Clouds 6 1026 49 10000 5.14 310 08:54 02.03.2021
1953 Clouds 6 1026 49 10000 5.14 310 08:33 02.03.2021
1954 Clouds 6 1026 52 10000 4.63 310 07:46 02.03.2021
1955 Clouds 5 1025 56 10000 4.12 360 06:37 02.03.2021
1956 Clouds 4 1025 56 10000 3.6 330 05:52 02.03.2021
1957 Clouds 5 1025 56 10000 3.6 330 05:32 02.03.2021
1958 Clouds 4 1026 60 10000 2.57 330 04:37 02.03.2021
1959 Clouds 1 1024 75 10000 4.12 360 01:43 02.03.2021
1960 Snow 1 1024 75 10000 4.12 360 01:21 02.03.2021
1961 Clouds 0 1022 80 10000 3.6 340 23:29 01.03.2021
1962 Clouds 0 1021 80 10000 3.09 340 22:56 01.03.2021
1963 Clouds 0 1021 80 10000 3.09 340 22:38 01.03.2021
1964 Clouds 0 1020 80 10000 3.6 340 22:19 01.03.2021
1965 Clouds 0 1020 80 10000 3.6 340 21:41 01.03.2021
1966 Clouds 0 1020 80 10000 3.6 340 21:23 01.03.2021
1967 Clouds 0 1020 80 10000 3.6 340 21:23 01.03.2021
1968 Clouds 0 1019 86 10000 3.6 340 20:42 01.03.2021
1969 Clouds 0 1019 86 10000 3.6 340 20:20 01.03.2021
1970 Clouds 0 1019 86 10000 4.63 350 19:43 01.03.2021
1971 Clouds 0 1019 86 10000 4.63 350 19:24 01.03.2021
1972 Snow 0 1019 86 10000 4.63 10 18:43 01.03.2021
1973 Snow 0 1019 86 10000 4.63 10 18:23 01.03.2021
1974 Snow 0 1017 93 10000 4.63 360 17:47 01.03.2021
1975 Snow 0 1017 93 10000 4.63 360 17:22 01.03.2021
1976 Snow 0 1017 93 5000 5.14 350 16:46 01.03.2021
1977 Snow 0 1017 93 5000 5.14 350 16:26 01.03.2021
1978 Snow 0 1016 100 4000 4.12 360 15:47 01.03.2021
1979 Snow 0 1016 100 4000 4.12 360 15:22 01.03.2021
1980 Mist 1 1015 93 1800 4.12 360 14:57 01.03.2021
1981 Snow 1 1015 93 1800 4.12 360 14:38 01.03.2021
1982 Snow 1 1015 93 2000 4.63 10 13:47 01.03.2021
1983 Snow 1 1015 93 6000 3.6 10 13:28 01.03.2021
1984 Snow 1 1014 93 3000 5.14 20 12:59 01.03.2021
1985 Snow 1 1014 93 3000 5.14 20 12:40 01.03.2021
1986 Snow 1 1014 93 3000 5.14 20 12:20 01.03.2021
1987 Snow 1 1014 93 4800 5.14 10 11:45 01.03.2021
1988 Rain 2 1012 93 8000 5.14 20 10:57 01.03.2021
1989 Rain 3 1012 87 5000 6.17 20 10:36 01.03.2021
1990 Rain 3 1012 87 5000 6.17 20 10:18 01.03.2021
1991 Rain 3 1011 93 5000 6.17 10 09:44 01.03.2021
1992 Mist 4 1011 93 5000 6.17 10 09:23 01.03.2021
1993 Rain 4 1011 93 5000 6.69 350 08:53 01.03.2021
1994 Rain 5 1011 93 5000 6.69 350 08:22 01.03.2021
1995 Rain 7 1010 93 4000 2.57 360 06:54 01.03.2021
1996 Rain 7 1010 93 4000 2.57 360 06:24 01.03.2021
1997 Rain 5 1016 93 3000 3.09 360 02:26 01.03.2021
1998 Rain 5 1017 93 3500 3.09 360 23:41 28.02.2021
1999 Rain 5 1018 93 5000 2.57 50 22:55 28.02.2021
2000 Rain 5 1018 93 5000 2.57 50 22:25 28.02.2021
2001 Rain 5 1019 87 4500 3.09 10 21:54 28.02.2021
2002 Rain 5 1019 87 10000 3.6 70 21:32 28.02.2021
2003 Rain 5 1019 87 6000 2.57 70 20:58 28.02.2021
2004 Rain 5 1019 87 6000 2.57 70 20:37 28.02.2021
2005 Rain 7 1021 70 10000 2.57 340 19:56 28.02.2021
2006 Rain 7 1021 70 10000 2.57 340 19:37 28.02.2021
2007 Rain 7 1021 70 10000 2.57 340 19:19 28.02.2021
2008 Rain 7 1022 70 10000 1.54 350 18:38 28.02.2021
2009 Rain 7 1022 70 10000 1.54 350 18:20 28.02.2021
2010 Rain 7 1022 57 10000 1.03 360 17:47 28.02.2021
2011 Rain 7 1022 57 10000 1.03 360 17:27 28.02.2021
2012 Clouds 7 1022 61 10000 2.06 320 16:53 28.02.2021
2013 Clouds 7 1022 61 10000 2.06 320 16:34 28.02.2021
2014 Clouds 8 1023 57 10000 2.06 20 15:55 28.02.2021
2015 Clouds 8 1023 57 10000 2.06 20 15:36 28.02.2021
2016 Clouds 7 1023 61 10000 1.03 340 15:18 28.02.2021
2017 Clouds 8 1023 61 10000 1.03 340 14:45 28.02.2021
2018 Clouds 8 1023 61 10000 1.03 340 14:24 28.02.2021
2019 Clouds 8 1023 61 10000 1.03 280 13:47 28.02.2021
2020 Clouds 8 1023 61 10000 1.03 280 13:19 28.02.2021
2021 Clouds 8 1023 61 10000 1.03 280 13:19 28.02.2021
2022 Rain 9 1024 53 10000 0.51 250 12:55 28.02.2021
2023 Rain 9 1024 53 10000 0.51 250 12:55 28.02.2021
2024 Clouds 9 1024 53 10000 0.51 250 12:37 28.02.2021
2025 Rain 9 1025 46 10000 1.03 320 12:19 28.02.2021
2026 Clouds 9 1025 46 10000 1.03 320 11:42 28.02.2021
2027 Rain 10 1025 46 10000 1.03 320 11:24 28.02.2021
2028 Clouds 10 1025 37 10000 2.06 360 10:52 28.02.2021
2029 Clouds 10 1025 37 10000 2.06 360 10:26 28.02.2021
2030 Clouds 11 1024 32 10000 1.03 270 09:42 28.02.2021
2031 Clouds 11 1024 32 10000 1.03 270 09:24 28.02.2021
2032 Clouds 11 1024 32 10000 1.54 50 08:49 28.02.2021
2033 Rain 11 1024 32 10000 1.54 50 08:31 28.02.2021
2034 Clouds 11 1025 37 10000 1.03 250 07:54 28.02.2021
2035 Clouds 11 1025 37 10000 1.03 250 07:36 28.02.2021
2036 Clouds 10 1026 34 10000 1.03 230 06:29 28.02.2021
2037 Clear 10 1026 34 10000 2.06 120 05:24 28.02.2021
2038 Clear 9 1027 37 10000 1.03 100 03:40 28.02.2021
2039 Clear 5 1027 45 10000 4.63 110 01:44 28.02.2021
2040 Clear 2 1027 56 10000 1.54 110 00:50 28.02.2021
2041 Clear 2 1027 56 10000 1.54 110 00:26 28.02.2021
2042 Clear 0 1027 60 10000 3.6 120 23:45 27.02.2021
2043 Clear 1 1027 60 10000 3.6 120 23:19 27.02.2021
2044 Clear 1 1027 60 10000 3.09 130 22:44 27.02.2021
2045 Clear 1 1027 56 10000 4.12 110 22:19 27.02.2021
2046 Clear 1 1027 56 10000 4.12 110 21:42 27.02.2021
2047 Clear 1 1027 56 10000 4.12 110 21:23 27.02.2021
2048 Clear 1 1028 56 10000 3.09 120 20:48 27.02.2021
2049 Clear 1 1028 56 10000 3.09 120 20:27 27.02.2021
2050 Clear 1 1028 60 10000 1.54 120 19:45 27.02.2021
2051 Clear 2 1028 60 10000 1.54 120 19:27 27.02.2021
2052 Clear 3 1029 52 10000 3.09 120 18:45 27.02.2021
2053 Clear 3 1029 52 10000 3.09 120 18:21 27.02.2021
2054 Clear 4 1029 52 10000 2.57 140 17:57 27.02.2021
2055 Clear 4 1029 52 10000 2.57 140 17:36 27.02.2021
2056 Clear 4 1029 52 10000 2.57 140 17:18 27.02.2021
2057 Clear 5 1029 49 10000 3.09 160 16:48 27.02.2021
2058 Clear 5 1029 49 10000 3.09 160 16:25 27.02.2021
2059 Clear 7 1029 42 10000 3.6 180 15:41 27.02.2021
2060 Clear 7 1029 42 10000 2.57 190 14:57 27.02.2021
2061 Clear 7 1029 42 10000 2.57 190 14:39 27.02.2021
2062 Clear 7 1029 42 10000 2.57 190 14:19 27.02.2021
2063 Clear 9 1028 40 10000 3.6 170 13:37 27.02.2021
2064 Clear 9 1028 40 10000 3.6 170 13:18 27.02.2021
2065 Clear 10 1027 46 10000 4.12 130 12:38 27.02.2021
2066 Clear 10 1027 46 10000 4.12 130 12:19 27.02.2021
2067 Clear 11 1027 37 10000 4.63 140 11:42 27.02.2021
2068 Clear 12 1027 37 10000 4.63 140 11:24 27.02.2021
2069 Clear 13 1027 33 10000 4.63 140 10:46 27.02.2021
2070 Clear 13 1027 33 10000 4.63 140 10:28 27.02.2021
2071 Clear 15 1026 29 10000 5.14 150 09:50 27.02.2021
2072 Clear 15 1026 29 10000 5.14 150 09:26 27.02.2021
2073 Clear 16 1026 27 10000 4.12 110 08:42 27.02.2021
2074 Clear 16 1026 27 10000 4.12 110 08:21 27.02.2021
2075 Clear 15 1026 31 10000 5.14 90 07:42 27.02.2021
2076 Clear 12 1029 37 10000 6.69 90 05:18 27.02.2021
2077 Clear 3 1029 75 10000 1.54 310 00:56 27.02.2021
2078 Clear 0 1029 80 10000 2.06 330 23:54 26.02.2021
2079 Clear 0 1029 80 10000 2.06 330 23:28 26.02.2021
2080 Clear 1 1028 80 10000 2.06 330 22:50 26.02.2021
2081 Clear 1 1028 80 10000 2.06 330 22:29 26.02.2021
2082 Clear 1 1028 80 10000 1.54 300 21:43 26.02.2021
2083 Clear 1 1028 80 10000 1.54 300 21:24 26.02.2021
2084 Clear 1 1027 74 10000 2.06 350 20:44 26.02.2021
2085 Clear 1 1027 74 10000 2.06 350 20:21 26.02.2021
2086 Clear 2 1027 80 10000 1.03 320 19:48 26.02.2021
2087 Clear 2 1027 80 10000 1.03 320 19:25 26.02.2021
2088 Clear 3 1027 69 10000 2.57 360 18:42 26.02.2021
2089 Clear 3 1027 69 10000 2.57 360 18:22 26.02.2021
2090 Clear 3 1026 64 10000 2.57 330 17:41 26.02.2021
2091 Clear 3 1026 64 10000 2.57 330 17:23 26.02.2021
2092 Clear 5 1026 52 10000 2.06 340 16:52 26.02.2021
2093 Clear 5 1026 52 10000 2.06 340 16:31 26.02.2021
2094 Clear 5 1026 55 10000 1.54 320 15:57 26.02.2021
2095 Clear 5 1026 55 10000 1.54 320 15:38 26.02.2021
2096 Clear 6 1025 48 10000 1.54 310 15:19 26.02.2021
2097 Clear 6 1025 48 10000 1.54 310 14:45 26.02.2021
2098 Clear 7 1025 48 10000 1.54 310 14:25 26.02.2021
2099 Clear 8 1024 36 10000 2.57 10 13:42 26.02.2021
2100 Clear 8 1024 36 10000 2.57 10 13:23 26.02.2021
2101 Clear 8 1024 33 10000 2.57 350 12:39 26.02.2021
2102 Clear 11 1023 22 10000 3.6 360 11:54 26.02.2021
2103 Clear 11 1023 22 10000 3.6 360 11:36 26.02.2021
2104 Clear 12 1022 18 10000 4.12 360 10:48 26.02.2021
2105 Clear 14 1022 15 10000 1.54 210 09:56 26.02.2021
2106 Clear 14 1022 15 10000 1.54 210 09:31 26.02.2021
2107 Clear 15 1021 14 10000 3.6 120 08:56 26.02.2021
2108 Clear 15 1021 14 10000 3.6 120 08:25 26.02.2021
2109 Clear 15 1021 13 10000 3.09 110 07:49 26.02.2021
2110 Clear 15 1021 13 10000 5.14 50 06:36 26.02.2021
2111 Clear 14 1022 18 10000 2.06 120 05:31 26.02.2021
2112 Clear 10 1024 25 10000 1.54 10 03:47 26.02.2021
2113 Clear 6 1024 31 10000 1.54 20 02:35 26.02.2021
2114 Clear -2 1024 69 10000 1.03 50 23:56 25.02.2021
2115 Clear -2 1024 69 10000 1.03 50 23:28 25.02.2021
2116 Clear -3 1024 74 10000 2.57 350 22:49 25.02.2021
2117 Clear -2 1024 74 10000 2.57 350 22:19 25.02.2021
2118 Clear -2 1023 74 10000 1.03 350 21:41 25.02.2021
2119 Clear -2 1023 74 10000 1.03 350 21:23 25.02.2021
2120 Clear -2 1023 74 10000 1.54 10 20:41 25.02.2021
2121 Clear -2 1023 74 10000 1.54 10 20:22 25.02.2021
2122 Clear -1 1023 64 10000 1.54 10 19:52 25.02.2021
2123 Clear -1 1023 64 10000 1.54 10 19:22 25.02.2021
2124 Clear -1 1023 69 10000 1.54 20 18:57 25.02.2021
2125 Clear -1 1023 69 10000 1.54 20 18:25 25.02.2021
2126 Clear 0 1023 64 10000 1.54 340 17:49 25.02.2021
2127 Clear 0 1023 64 10000 1.54 340 17:26 25.02.2021
2128 Clear 0 1023 59 10000 1.54 340 16:43 25.02.2021
2129 Clear 0 1023 59 10000 1.54 340 16:25 25.02.2021
2130 Clear 1 1023 55 10000 1.54 350 15:30 25.02.2021
2131 Clear 1 1023 55 10000 1.54 310 14:57 25.02.2021
2132 Clear 1 1023 55 10000 1.54 310 14:22 25.02.2021
2133 Clear 1 1023 55 10000 1.54 320 13:51 25.02.2021
2134 Clear 2 1023 55 10000 1.54 320 13:25 25.02.2021
2135 Clear 4 1023 44 10000 2.06 340 12:50 25.02.2021
2136 Clear 4 1023 44 10000 2.06 340 12:21 25.02.2021
2137 Clear 5 1023 41 10000 2.57 330 11:45 25.02.2021
2138 Clear 5 1023 41 10000 2.57 330 11:19 25.02.2021
2139 Clear 6 1022 36 10000 2.57 310 10:38 25.02.2021
2140 Clear 8 1022 33 10000 3.09 330 09:58 25.02.2021
2141 Clear 8 1022 33 10000 3.09 330 09:38 25.02.2021
2142 Clear 8 1022 27 10000 1.03 20 08:50 25.02.2021
2143 Clear 8 1022 27 10000 1.03 20 08:22 25.02.2021
2144 Clear 8 1022 33 10000 2.57 360 07:50 25.02.2021
2145 Clear 8 1022 33 10000 2.57 360 07:26 25.02.2021
2146 Clouds 8 1023 29 10000 1.03 220 06:35 25.02.2021
2147 Clear 2 1025 69 10000 2.06 330 01:57 25.02.2021
2148 Clear 1 1025 69 10000 2.06 330 01:34 25.02.2021
2149 Clear -1 1025 74 10000 1.54 340 00:38 25.02.2021
2150 Clear -1 1024 80 10000 1.03 330 23:46 24.02.2021
2151 Clear -1 1024 80 10000 1.54 30 22:59 24.02.2021
2152 Clear -1 1024 80 10000 1.54 30 22:31 24.02.2021
2153 Clear -1 1024 80 10000 1.54 30 22:31 24.02.2021
2154 Clear -2 1024 80 10000 2.06 320 21:57 24.02.2021
2155 Clear -2 1024 80 10000 2.06 320 21:36 24.02.2021
2156 Clear -2 1024 74 10000 2.06 340 20:52 24.02.2021
2157 Clear -2 1024 74 10000 2.06 340 20:29 24.02.2021
2158 Clear -2 1024 74 10000 0.51 120 19:52 24.02.2021
2159 Clear -2 1024 74 10000 0.51 120 19:26 24.02.2021
2160 Clear -2 1024 74 10000 1.54 330 18:54 24.02.2021
2161 Clear -2 1024 74 10000 1.54 330 18:33 24.02.2021
2162 Clear 0 1024 59 10000 1.03 340 17:45 24.02.2021
2163 Clear 0 1024 59 10000 1.03 340 17:25 24.02.2021
2164 Clear -1 1024 69 10000 1.03 330 16:49 24.02.2021
2165 Clear -1 1024 69 10000 1.03 330 16:22 24.02.2021
2166 Clear 0 1024 69 10000 1.54 320 15:56 24.02.2021
2167 Clear 0 1024 69 10000 1.54 320 15:35 24.02.2021
2168 Clear 1 1024 64 10000 1.54 320 14:52 24.02.2021
2169 Clear 1 1024 64 10000 1.54 320 14:30 24.02.2021
2170 Clear 2 1025 55 10000 2.06 340 13:55 24.02.2021
2171 Clear 2 1025 55 10000 2.06 340 13:37 24.02.2021
2172 Clear 3 1024 55 10000 2.06 320 13:18 24.02.2021
2173 Clear 3 1024 55 10000 2.06 320 12:38 24.02.2021
2174 Clear 4 1024 41 10000 3.09 300 12:20 24.02.2021
2175 Clear 4 1024 41 10000 3.09 300 11:33 24.02.2021
2176 Clear 6 1023 33 10000 4.12 290 10:43 24.02.2021
2177 Clear 7 1023 33 10000 4.12 290 10:24 24.02.2021
2178 Clear 9 1023 11 10000 1.03 270 09:26 24.02.2021
2179 Clear 9 1023 12 10000 1.54 340 08:50 24.02.2021
2180 Clear 9 1023 12 10000 1.54 340 08:32 24.02.2021
2181 Clear 9 1024 13 10000 3.09 320 07:38 24.02.2021
2182 Clear 9 1024 13 10000 3.09 320 07:18 24.02.2021
2183 Clear 7 1026 15 10000 1.03 300 05:25 24.02.2021
2184 Clear -1 1027 40 10000 2.06 10 01:59 24.02.2021
2185 Clear -4 1027 54 10000 1.54 10 23:39 23.02.2021
2186 Clear -3 1027 39 10000 1.03 360 22:46 23.02.2021
2187 Clear -3 1027 39 10000 1.03 360 22:22 23.02.2021
2188 Clear -2 1027 43 10000 2.06 10 21:47 23.02.2021
2189 Clear -2 1027 43 10000 2.06 10 21:24 23.02.2021
2190 Clear -2 1027 37 10000 1.54 30 20:56 23.02.2021
2191 Clear -2 1027 37 10000 1.54 30 20:37 23.02.2021
2192 Clear -2 1027 37 10000 1.54 30 20:18 23.02.2021
2193 Clear -2 1027 37 10000 3.6 360 19:41 23.02.2021
2194 Clear -2 1027 37 10000 3.6 360 19:22 23.02.2021
2195 Clear -2 1027 37 10000 3.6 10 18:44 23.02.2021
2196 Clear -2 1027 37 10000 3.6 10 18:24 23.02.2021
2197 Clear -2 1027 43 10000 3.6 340 17:49 23.02.2021
2198 Clear -2 1027 43 10000 3.6 340 17:26 23.02.2021
2199 Clear -2 1026 46 10000 3.09 330 16:44 23.02.2021
2200 Clear -2 1026 46 10000 3.09 330 16:21 23.02.2021
2201 Clear -2 1026 46 10000 3.09 330 16:21 23.02.2021
2202 Clear -1 1026 50 10000 3.6 330 15:44 23.02.2021
2203 Clear -1 1026 50 10000 3.6 330 15:25 23.02.2021
2204 Clear -1 1027 46 10000 4.12 320 14:46 23.02.2021
2205 Clear -1 1027 46 10000 4.12 320 14:27 23.02.2021
2206 Clear 0 1026 40 10000 4.63 340 13:56 23.02.2021
2207 Clear 0 1026 40 10000 4.63 340 13:34 23.02.2021
2208 Clear 1 1026 40 10000 4.12 330 12:56 23.02.2021
2209 Clear 1 1026 40 10000 4.12 330 12:23 23.02.2021
2210 Clear 1 1026 29 10000 3.09 320 11:51 23.02.2021
2211 Clear 2 1026 29 10000 3.09 320 11:23 23.02.2021
2212 Clear 3 1025 23 10000 3.6 300 10:53 23.02.2021
2213 Clear 3 1025 23 10000 3.6 300 10:35 23.02.2021
2214 Clear 4 1025 19 10000 4.12 330 09:45 23.02.2021
2215 Clear 5 1025 19 10000 4.12 330 09:25 23.02.2021
2216 Clear 5 1025 17 10000 4.63 340 08:57 23.02.2021
2217 Clear 5 1025 17 10000 4.63 340 08:38 23.02.2021
2218 Clear 5 1025 17 10000 4.63 340 08:19 23.02.2021
2219 Clear 4 1026 22 10000 4.63 320 05:44 23.02.2021
2220 Clear 3 1026 22 10000 4.63 320 05:19 23.02.2021
2221 Clear 1 1028 27 10000 6.17 340 02:34 23.02.2021
2222 Clear -2 1027 46 10000 2.57 310 00:20 23.02.2021
2223 Clear -3 1026 46 10000 3.6 310 23:57 22.02.2021
2224 Clear -3 1026 46 10000 3.6 310 23:21 22.02.2021
2225 Clear -2 1026 39 10000 4.12 320 22:41 22.02.2021
2226 Clear -2 1026 39 10000 4.12 320 22:20 22.02.2021
2227 Clear -2 1026 39 10000 3.09 300 21:45 22.02.2021
2228 Clear -1 1026 39 10000 3.09 300 21:23 22.02.2021
2229 Clear -1 1025 40 10000 4.63 310 20:51 22.02.2021
2230 Clear -1 1025 40 10000 4.63 310 20:28 22.02.2021
2231 Clear -1 1025 40 10000 3.09 290 19:51 22.02.2021
2232 Clear -1 1025 40 10000 3.09 290 19:33 22.02.2021
2233 Clear -1 1024 40 10000 3.09 310 18:56 22.02.2021
2234 Clear 0 1024 40 10000 3.09 310 18:37 22.02.2021
2235 Clear 0 1024 37 10000 5.66 320 18:18 22.02.2021
2236 Clear 0 1024 37 10000 5.66 320 17:25 22.02.2021
2237 Clear 1 1023 34 10000 4.63 310 16:54 22.02.2021
2238 Clear 1 1023 34 10000 4.63 310 16:32 22.02.2021
2239 Clear 2 1023 37 10000 5.66 310 15:44 22.02.2021
2240 Clear 2 1023 37 10000 5.66 310 15:25 22.02.2021
2241 Clear 2 1022 37 10000 7.2 310 14:47 22.02.2021
2242 Clear 2 1022 37 10000 7.2 310 14:47 22.02.2021
2243 Clear 3 1022 37 10000 7.2 310 14:23 22.02.2021
2244 Clear 3 1021 37 10000 6.69 320 13:46 22.02.2021
2245 Clear 3 1021 37 10000 6.69 320 13:46 22.02.2021
2246 Clear 5 1020 35 10000 8.75 320 12:56 22.02.2021
2247 Clear 5 1020 35 10000 8.75 320 12:23 22.02.2021
2248 Clear 7 1018 33 10000 6.17 310 11:57 22.02.2021
2249 Clear 7 1018 33 10000 6.17 310 11:38 22.02.2021
2250 Clear 7 1018 33 10000 6.17 310 11:20 22.02.2021
2251 Clear 10 1016 31 10000 7.2 320 10:41 22.02.2021
2252 Clear 11 1016 31 10000 7.2 320 10:21 22.02.2021
2253 Clear 12 1015 20 10000 8.23 330 09:40 22.02.2021
2254 Clear 12 1015 20 10000 8.23 330 09:22 22.02.2021
2255 Clear 13 1014 30 10000 6.69 320 08:49 22.02.2021
2256 Clear 13 1014 30 10000 6.69 320 08:21 22.02.2021
2257 Clear 13 1014 35 8000 10.29 320 07:50 22.02.2021
2258 Clear 13 1014 35 8000 10.29 320 07:22 22.02.2021
2259 Clouds 13 1013 50 6000 8.75 310 06:28 22.02.2021
2260 Clouds 13 1013 62 6000 4.63 340 04:55 22.02.2021
2261 Clouds 11 1013 66 6000 2.57 290 03:23 22.02.2021
2262 Clouds 4 1010 93 10000 1.03 330 00:56 22.02.2021
2263 Clouds 4 1010 93 10000 1.03 330 00:30 22.02.2021
2264 Clouds 3 1010 93 7000 0.51 220 23:57 21.02.2021
2265 Clouds 3 1010 93 7000 0.51 220 23:25 21.02.2021
2266 Clouds 4 1010 93 8000 1.03 310 22:30 21.02.2021
2267 Clear 3 1010 87 10000 1.03 160 21:52 21.02.2021
2268 Clear 3 1010 87 10000 1.03 160 21:52 21.02.2021
2269 Clear 3 1010 87 10000 1.03 160 21:34 21.02.2021
2270 Clear 3 1010 87 10000 1.03 160 21:34 21.02.2021
2271 Clear 5 1010 75 10000 1.03 50 20:58 21.02.2021
2272 Clear 5 1010 75 10000 1.03 50 20:36 21.02.2021
2273 Clear 5 1010 75 10000 1.03 50 20:18 21.02.2021
2274 Clear 6 1010 81 10000 3.09 140 19:43 21.02.2021
2275 Clear 6 1010 81 10000 3.09 140 19:23 21.02.2021
2276 Clear 6 1011 81 10000 2.57 130 18:29 21.02.2021
2277 Clear 6 1010 81 10000 3.09 160 17:57 21.02.2021
2278 Clear 6 1010 81 10000 3.09 160 17:25 21.02.2021
2279 Clear 8 1010 81 10000 1.03 190 16:53 21.02.2021
2280 Clear 8 1010 81 10000 1.03 190 16:31 21.02.2021
2281 Clear 10 1010 71 10000 2.06 180 15:43 21.02.2021
2282 Clear 10 1010 71 10000 2.06 180 15:19 21.02.2021
2283 Clear 11 1010 66 10000 3.09 170 14:40 21.02.2021
2284 Clear 11 1010 66 10000 3.09 170 14:19 21.02.2021
2285 Clear 11 1009 66 10000 3.09 170 13:30 21.02.2021
2286 Clear 12 1009 62 10000 2.57 180 12:59 21.02.2021
2287 Clear 12 1009 62 10000 2.57 180 12:28 21.02.2021
2288 Clear 13 1009 58 10000 3.09 200 11:43 21.02.2021
2289 Clear 15 1008 51 10000 6.17 210 10:58 21.02.2021
2290 Clear 16 1008 51 10000 6.17 210 10:22 21.02.2021
2291 Clear 16 1008 47 10000 7.2 220 09:52 21.02.2021
2292 Clear 16 1008 47 10000 7.2 220 09:27 21.02.2021
2293 Clear 17 1008 44 10000 7.72 220 08:43 21.02.2021
2294 Clear 17 1008 44 10000 7.72 220 08:19 21.02.2021
2295 Clear 18 1008 45 10000 6.69 220 07:31 21.02.2021
2296 Clear 18 1008 45 10000 7.72 220 06:47 21.02.2021
2297 Clouds 12 1009 62 8000 3.6 180 02:48 21.02.2021
2298 Clear 12 1009 62 8000 3.6 180 02:29 21.02.2021
2299 Mist 4 1009 87 5000 3.09 140 00:37 21.02.2021
2300 Mist 4 1009 87 5000 3.09 140 00:18 21.02.2021
2301 Mist 4 1009 93 3000 4.12 150 22:59 20.02.2021
2302 Mist 4 1009 93 3000 4.12 150 22:40 20.02.2021
2303 Mist 3 1009 93 3000 4.12 150 22:19 20.02.2021
2304 Mist 3 1009 93 2800 3.6 140 21:41 20.02.2021
2305 Mist 4 1009 93 2800 3.6 140 21:19 20.02.2021
2306 Mist 3 1009 93 3000 4.63 140 20:42 20.02.2021
2307 Mist 3 1009 93 3000 4.63 140 20:21 20.02.2021
2308 Mist 5 1010 93 3000 4.12 160 19:49 20.02.2021
2309 Mist 3 1010 93 3000 4.12 160 19:19 20.02.2021
2310 Mist 3 1010 87 4000 4.12 150 18:37 20.02.2021
2311 Mist 4 1010 87 4000 4.12 150 18:19 20.02.2021
2312 Mist 4 1010 81 5000 3.6 140 17:36 20.02.2021
2313 Clear 2 1011 64 7000 1.54 150 16:54 20.02.2021
2314 Clear 2 1011 64 7000 1.54 150 16:27 20.02.2021
2315 Clear 2 1011 64 7000 1.54 150 16:27 20.02.2021
2316 Clear 3 1011 55 10000 1.03 180 15:44 20.02.2021
2317 Clear 3 1011 55 10000 1.03 180 15:18 20.02.2021
2318 Clear 4 1010 52 10000 1.03 180 14:43 20.02.2021
2319 Clear 4 1010 52 10000 1.03 180 14:22 20.02.2021
2320 Clear 4 1010 48 10000 1.03 190 13:40 20.02.2021
2321 Clear 4 1010 48 10000 1.03 190 13:22 20.02.2021
2322 Clear 6 1010 42 10000 0.51 40 12:46 20.02.2021
2323 Clear 8 1010 29 10000 2.57 310 11:56 20.02.2021
2324 Clear 10 1010 29 10000 2.57 310 11:36 20.02.2021
2325 Clear 12 1009 24 10000 2.06 200 10:54 20.02.2021
2326 Clear 12 1009 24 10000 2.06 200 10:29 20.02.2021
2327 Clear 14 1009 22 10000 3.09 230 09:48 20.02.2021
2328 Clear 14 1009 26 10000 4.63 220 08:56 20.02.2021
2329 Clear 14 1009 26 10000 4.63 220 08:27 20.02.2021
2330 Clear 15 1010 28 10000 3.09 250 07:50 20.02.2021
2331 Mist 8 1011 76 2500 2.06 200 02:32 20.02.2021
2332 Mist 8 1011 76 2500 2.06 200 02:32 20.02.2021
2333 Mist 6 1010 93 2500 1.54 270 01:59 20.02.2021
2334 Mist 6 1010 93 2500 1.54 270 01:18 20.02.2021
2335 Mist 4 1010 93 2500 1.03 210 00:39 20.02.2021
2336 Mist 3 1008 93 2500 1.54 170 23:41 19.02.2021
2337 Mist 4 1008 93 3000 2.06 180 22:48 19.02.2021
2338 Mist 4 1008 93 3000 2.06 180 22:25 19.02.2021
2339 Mist 5 1008 93 4000 1.54 180 21:47 19.02.2021
2340 Mist 5 1008 93 4000 1.54 180 21:25 19.02.2021
2341 Mist 4 1008 93 5000 3.6 140 20:44 19.02.2021
2342 Mist 4 1008 93 5000 3.6 140 20:26 19.02.2021
2343 Mist 4 1009 93 5000 3.09 140 19:49 19.02.2021
2344 Mist 4 1009 93 5000 3.09 140 19:20 19.02.2021
2345 Clouds 4 1009 87 6000 3.6 140 18:51 19.02.2021
2346 Clouds 4 1009 87 6000 3.6 140 18:28 19.02.2021
2347 Clouds 4 1010 87 6000 2.57 120 17:43 19.02.2021
2348 Clouds 5 1010 87 7000 3.09 180 16:44 19.02.2021
2349 Clouds 5 1010 87 7000 3.09 180 16:22 19.02.2021
2350 Clouds 5 1011 81 8000 3.09 190 15:55 19.02.2021
2351 Clouds 5 1011 81 8000 3.09 190 15:30 19.02.2021
2352 Clouds 5 1011 81 8000 3.09 190 15:30 19.02.2021
2353 Clouds 5 1012 81 9000 3.09 190 14:52 19.02.2021
2354 Clouds 5 1012 81 9000 3.09 190 14:33 19.02.2021
2355 Clouds 6 1012 75 8000 3.6 200 13:56 19.02.2021
2356 Clouds 6 1012 75 8000 3.6 200 13:36 19.02.2021
2357 Clear 6 1012 75 9000 4.12 200 12:54 19.02.2021
2358 Clear 6 1012 75 9000 4.12 200 12:28 19.02.2021
2359 Clear 6 1012 70 10000 3.09 180 11:59 19.02.2021
2360 Clear 6 1012 70 10000 3.09 180 11:34 19.02.2021
2361 Clouds 7 1012 65 10000 4.63 200 10:55 19.02.2021
2362 Clouds 7 1012 65 10000 4.63 200 10:33 19.02.2021
2363 Clear 8 1013 57 10000 6.69 210 09:58 19.02.2021
2364 Clear 8 1013 57 10000 6.69 210 09:27 19.02.2021
2365 Clouds 9 1014 53 10000 6.69 220 08:55 19.02.2021
2366 Clouds 9 1014 53 10000 6.69 220 08:28 19.02.2021
2367 Clouds 9 1015 57 10000 6.69 230 07:54 19.02.2021
2368 Clouds 9 1015 57 10000 6.69 230 07:36 19.02.2021
2369 Clouds 8 1016 53 10000 5.66 210 06:58 19.02.2021
2370 Clouds 7 1016 53 10000 5.66 210 06:29 19.02.2021
2371 Clear 4 1018 48 10000 4.12 180 04:41 19.02.2021
2372 Clear -4 1021 54 10000 2.06 180 01:49 19.02.2021
2373 Clear -7 1021 73 10000 2.06 160 00:38 19.02.2021
2374 Clear -8 1021 67 10000 2.57 160 23:56 18.02.2021
2375 Clear -8 1021 67 10000 2.57 160 23:35 18.02.2021
2376 Clear -9 1022 79 10000 1.54 180 22:51 18.02.2021
2377 Clear -9 1022 79 10000 1.54 180 22:30 18.02.2021
2378 Clear -9 1022 67 10000 1.03 110 21:56 18.02.2021
2379 Clear -9 1022 67 10000 1.03 110 21:28 18.02.2021
2380 Clear -9 1023 67 10000 0.51 120 20:57 18.02.2021
2381 Clear -8 1023 67 10000 0.51 120 20:38 18.02.2021
2382 Clear -8 1023 67 10000 0.51 120 20:18 18.02.2021
2383 Clear -8 1023 73 10000 0.51 180 19:41 18.02.2021
2384 Clear -8 1023 73 10000 0.51 180 19:19 18.02.2021
2385 Clear -8 1023 67 10000 1.03 170 18:43 18.02.2021
2386 Clear -8 1023 67 10000 1.03 170 18:25 18.02.2021
2387 Clear -6 1024 68 10000 0.51 320 17:43 18.02.2021
2388 Clear -6 1024 68 10000 0.51 320 17:23 18.02.2021
2389 Clear -6 1023 63 10000 1.54 290 16:42 18.02.2021
2390 Clear -6 1023 63 10000 1.54 290 16:42 18.02.2021
2391 Clear -6 1023 63 10000 1.54 290 16:22 18.02.2021
2392 Clear -5 1023 58 10000 2.06 310 15:41 18.02.2021
2393 Clear -5 1023 58 10000 2.06 310 15:22 18.02.2021
2394 Clear -5 1023 58 10000 3.09 320 14:49 18.02.2021
2395 Clear -5 1023 58 10000 3.09 320 14:29 18.02.2021
2396 Clear -5 1023 54 10000 3.09 310 13:46 18.02.2021
2397 Clear -4 1023 54 10000 3.09 310 13:20 18.02.2021
2398 Clear -4 1022 50 10000 3.6 330 12:53 18.02.2021
2399 Clear -4 1022 50 10000 3.6 330 12:23 18.02.2021
2400 Clear -2 1022 39 10000 2.57 320 11:46 18.02.2021
2401 Clear -2 1022 39 10000 2.57 320 11:27 18.02.2021
2402 Clear -2 1022 37 10000 2.57 320 10:52 18.02.2021
2403 Clear -1 1022 37 10000 2.57 320 10:31 18.02.2021
2404 Clear -1 1022 31 10000 3.6 320 09:50 18.02.2021
2405 Clear -1 1022 31 10000 3.6 320 09:50 18.02.2021
2406 Clear -1 1022 31 10000 3.6 320 09:24 18.02.2021
2407 Clear -1 1021 29 10000 5.14 310 08:48 18.02.2021
2408 Clear 0 1021 29 10000 5.14 310 08:25 18.02.2021
2409 Clear -1 1021 29 10000 3.6 320 07:35 18.02.2021
2410 Clear -2 1021 29 10000 4.12 330 06:58 18.02.2021
2411 Clear -4 1023 33 10000 7.2 340 03:52 18.02.2021
2412 Clear -4 1023 33 10000 7.2 340 03:52 18.02.2021
2413 Clear -10 1022 48 10000 4.63 300 23:56 17.02.2021
2414 Clear -10 1022 48 10000 4.63 300 23:30 17.02.2021
2415 Clear -10 1022 44 10000 5.14 320 22:54 17.02.2021
2416 Clear -10 1022 44 10000 5.14 320 22:27 17.02.2021
2417 Clear -10 1022 44 10000 5.14 320 21:57 17.02.2021
2418 Clear -10 1022 44 10000 5.14 320 21:22 17.02.2021
2419 Clear -10 1021 44 10000 6.69 320 20:52 17.02.2021
2420 Clear -10 1021 44 10000 6.69 320 20:32 17.02.2021
2421 Clear -10 1021 48 10000 5.14 320 19:51 17.02.2021
2422 Clear -10 1021 48 10000 5.14 320 19:32 17.02.2021
2423 Clear -9 1021 48 10000 5.14 310 18:49 17.02.2021
2424 Clear -9 1021 48 10000 5.14 310 18:30 17.02.2021
2425 Clear -9 1021 45 10000 7.72 310 17:42 17.02.2021
2426 Clear -9 1021 45 10000 7.72 310 17:20 17.02.2021
2427 Clouds -9 1021 45 10000 6.17 320 16:47 17.02.2021
2428 Clouds -9 1021 45 10000 6.17 320 16:28 17.02.2021
2429 Clouds -9 1021 48 10000 4.12 320 15:45 17.02.2021
2430 Clouds -9 1021 48 10000 4.12 320 15:27 17.02.2021
2431 Clouds -9 1021 48 10000 6.17 310 14:50 17.02.2021
2432 Clouds -9 1021 48 10000 6.17 310 14:29 17.02.2021
2433 Clouds -9 1020 48 10000 6.69 310 13:50 17.02.2021
2434 Clouds -9 1020 48 10000 6.69 310 13:32 17.02.2021
2435 Clouds -8 1020 48 10000 8.75 310 12:50 17.02.2021
2436 Clouds -9 1020 48 10000 8.75 310 12:25 17.02.2021
2437 Clouds -8 1020 53 10000 7.72 310 11:46 17.02.2021
2438 Clouds -8 1020 53 10000 7.72 310 11:28 17.02.2021
2439 Clouds -7 1018 42 10000 8.75 300 10:49 17.02.2021
2440 Clouds -7 1018 42 10000 8.75 300 10:31 17.02.2021
2441 Clouds -6 1018 33 10000 9.77 290 09:55 17.02.2021
2442 Clouds -6 1018 33 10000 9.77 290 09:30 17.02.2021
2443 Clouds -5 1018 30 10000 9.26 320 08:45 17.02.2021
2444 Clouds -5 1018 30 10000 9.26 320 08:23 17.02.2021
2445 Clouds -5 1017 28 10000 10.29 310 07:34 17.02.2021
2446 Clouds -5 1018 28 10000 9.26 310 06:36 17.02.2021
2447 Clouds -7 1019 32 10000 8.75 300 03:47 17.02.2021
2448 Clouds -8 1019 35 10000 8.23 310 02:30 17.02.2021
2449 Clouds -9 1019 38 10000 8.23 310 01:33 17.02.2021
2450 Clouds -10 1019 41 10000 8.23 310 00:25 17.02.2021
2451 Clear -10 1019 41 10000 8.23 300 23:38 16.02.2021
2452 Clear -10 1019 41 10000 7.2 310 22:46 16.02.2021
2453 Clear -10 1019 41 10000 7.2 310 22:26 16.02.2021
2454 Clear -9 1018 44 10000 6.17 300 21:59 16.02.2021
2455 Clear -9 1018 44 10000 6.17 300 21:39 16.02.2021
2456 Clear -9 1018 44 10000 6.17 300 21:21 16.02.2021
2457 Clouds -9 1019 41 10000 7.72 310 20:47 16.02.2021
2458 Clouds -9 1019 41 10000 7.72 310 20:24 16.02.2021
2459 Clouds -8 1019 41 10000 7.2 320 19:48 16.02.2021
2460 Clouds -8 1019 41 10000 7.2 320 19:28 16.02.2021
2461 Clouds -8 1019 41 10000 7.2 320 19:28 16.02.2021
2462 Clouds -8 1018 53 10000 5.66 320 18:47 16.02.2021
2463 Clouds -8 1018 53 10000 5.66 320 18:23 16.02.2021
2464 Clouds -7 1018 49 10000 5.66 330 17:53 16.02.2021
2465 Clouds -7 1018 49 10000 5.66 330 17:27 16.02.2021
2466 Clear -7 1018 53 10000 8.23 320 16:53 16.02.2021
2467 Clear -7 1018 53 10000 8.23 320 16:53 16.02.2021
2468 Clear -6 1018 53 10000 8.23 320 16:30 16.02.2021
2469 Clear -6 1018 45 10000 7.72 300 15:57 16.02.2021
2470 Clear -6 1018 45 10000 7.72 300 15:36 16.02.2021
2471 Clear -6 1018 45 10000 7.72 300 15:18 16.02.2021
2472 Clear -5 1018 45 10000 6.17 300 14:39 16.02.2021
2473 Clear -5 1018 45 10000 6.17 300 14:21 16.02.2021
2474 Clear -5 1017 42 10000 6.17 300 13:44 16.02.2021
2475 Clear -5 1017 42 10000 6.69 310 12:59 16.02.2021
2476 Clear -4 1017 42 10000 6.69 310 12:40 16.02.2021
2477 Clear -4 1017 42 10000 6.69 310 12:19 16.02.2021
2478 Clear -3 1016 33 10000 8.23 320 11:40 16.02.2021
2479 Clear -3 1016 33 10000 8.23 320 11:20 16.02.2021
2480 Clouds -3 1015 33 10000 7.72 320 10:46 16.02.2021
2481 Clouds -2 1015 33 10000 7.72 320 10:27 16.02.2021
2482 Clouds -1 1015 29 10000 7.2 320 09:53 16.02.2021
2483 Clouds -1 1015 29 10000 7.2 320 09:26 16.02.2021
2484 Clouds -2 1015 59 10000 3.6 270 08:51 16.02.2021
2485 Clouds -2 1015 59 10000 3.6 270 08:28 16.02.2021
2486 Clouds -3 1015 63 10000 3.09 290 07:45 16.02.2021
2487 Snow -4 1015 63 10000 3.09 280 06:55 16.02.2021
2488 Snow -4 1018 68 6000 3.6 330 02:42 16.02.2021
2489 Clear -7 1017 68 10000 3.09 300 23:55 15.02.2021
2490 Clear -7 1017 68 10000 3.09 300 23:29 15.02.2021
2491 Clear -8 1016 73 10000 1.54 260 22:50 15.02.2021
2492 Clear -8 1016 73 10000 1.54 260 22:28 15.02.2021
2493 Clear -7 1016 73 10000 1.54 150 21:47 15.02.2021
2494 Clear -6 1017 68 10000 1.03 200 21:24 15.02.2021
2495 Clear -6 1017 68 10000 1.03 200 20:55 15.02.2021
2496 Clear -6 1017 68 10000 1.03 200 20:37 15.02.2021
2497 Clear -6 1019 63 10000 1.03 250 19:51 15.02.2021
2498 Clear -6 1019 63 10000 1.03 250 19:29 15.02.2021
2499 Clear -5 1019 58 10000 2.06 300 18:57 15.02.2021
2500 Clear -5 1019 58 10000 2.06 300 18:29 15.02.2021
2501 Clear -5 1019 58 10000 2.57 270 17:58 15.02.2021
2502 Clear -5 1019 58 10000 2.57 270 17:40 15.02.2021
2503 Clear -5 1019 58 10000 2.57 270 17:21 15.02.2021
2504 Clear -5 1018 54 10000 4.12 290 16:42 15.02.2021
2505 Clear -5 1018 54 10000 4.12 290 16:21 15.02.2021
2506 Clear -4 1018 54 10000 5.14 300 15:42 15.02.2021
2507 Clear -4 1018 54 10000 5.14 300 15:19 15.02.2021
2508 Clear -4 1017 54 10000 4.12 300 14:44 15.02.2021
2509 Clear -4 1017 54 10000 4.12 300 14:20 15.02.2021
2510 Clear -3 1016 54 10000 5.66 290 13:49 15.02.2021
2511 Clear -3 1016 54 10000 5.66 290 13:20 15.02.2021
2512 Clear -3 1015 54 10000 7.2 290 12:47 15.02.2021
2513 Clear -3 1015 54 10000 7.2 290 12:25 15.02.2021
2514 Clear -2 1013 50 10000 6.69 280 11:51 15.02.2021
2515 Clear -2 1013 50 10000 6.69 280 11:25 15.02.2021
2516 Clear -1 1012 46 10000 7.2 280 10:50 15.02.2021
2517 Clear -1 1012 46 10000 7.2 280 10:28 15.02.2021
2518 Clouds 1 1011 37 10000 8.23 280 09:57 15.02.2021
2519 Clouds 1 1011 37 10000 8.23 280 09:39 15.02.2021
2520 Clouds 1 1011 37 10000 8.23 280 09:21 15.02.2021
2521 Clouds 2 1011 35 10000 8.75 290 08:20 15.02.2021
2522 Clouds 3 1010 41 10000 9.26 280 06:59 15.02.2021
2523 Clouds 3 1010 41 10000 9.26 280 06:40 15.02.2021
2524 Clouds 2 1010 80 8000 8.23 290 02:47 15.02.2021
2525 Clouds 4 1009 87 6000 7.72 280 01:27 15.02.2021
2526 Clouds 5 1008 87 6000 4.63 270 23:58 14.02.2021
2527 Clouds 5 1008 87 6000 4.63 270 23:23 14.02.2021
2528 Mist 5 1008 93 3000 3.6 250 22:40 14.02.2021
2529 Mist 5 1008 93 3000 3.6 250 22:40 14.02.2021
2530 Mist 5 1008 93 2300 3.09 220 22:21 14.02.2021
2531 Rain 6 1009 87 1700 1.54 210 21:50 14.02.2021
2532 Mist 6 1009 87 1700 1.54 210 21:29 14.02.2021
2533 Rain 6 1009 87 2500 1.54 300 20:52 14.02.2021
2534 Rain 6 1009 87 2500 1.54 300 20:27 14.02.2021
2535 Rain 6 1009 53 4800 47.33 340 19:48 14.02.2021
2536 Rain 6 1010 75 3000 0.51 160 18:57 14.02.2021
2537 Rain 6 1010 75 3000 0.51 160 18:37 14.02.2021
2538 Mist 6 1010 75 3000 1.54 360 17:57 14.02.2021
2539 Rain 6 1010 75 3000 1.54 360 17:36 14.02.2021
2540 Mist 6 1010 65 3000 1.03 280 16:55 14.02.2021
2541 Mist 6 1010 65 3000 1.03 280 16:29 14.02.2021
2542 Mist 6 1011 70 3000 2.57 320 15:49 14.02.2021
2543 Mist 6 1011 70 3000 2.57 320 15:31 14.02.2021
2544 Mist 6 1011 75 3000 2.06 310 14:48 14.02.2021
2545 Mist 6 1011 75 3000 2.06 310 14:27 14.02.2021
2546 Mist 7 1011 70 3000 1.03 320 13:49 14.02.2021
2547 Mist 7 1011 70 3000 1.03 320 13:27 14.02.2021
2548 Mist 8 1011 70 3500 1.03 290 12:38 14.02.2021
2549 Haze 10 1012 57 4000 0.51 350 12:19 14.02.2021
2550 Haze 10 1012 57 4000 0.51 350 11:49 14.02.2021
2551 Haze 10 1012 57 4000 0.51 350 11:21 14.02.2021
2552 Haze 12 1012 50 4500 1.54 330 10:35 14.02.2021
2553 Haze 13 1012 46 5000 3.09 310 09:55 14.02.2021
2554 Haze 13 1012 46 5000 3.09 310 09:37 14.02.2021
2555 Haze 13 1013 40 5000 2.06 310 09:19 14.02.2021
2556 Rain 14 1013 40 5000 2.06 310 08:25 14.02.2021
2557 Haze 14 1013 37 5000 2.06 300 07:48 14.02.2021
2558 Rain 14 1014 30 5000 2.06 200 06:37 14.02.2021
2559 Haze 14 1016 35 5000 1.54 240 04:35 14.02.2021
2560 Haze 8 1017 57 5000 0.51 260 02:50 14.02.2021
2561 Mist 6 1017 65 5000 1.03 90 01:29 14.02.2021
2562 Mist 4 1018 75 5000 1.54 350 00:42 14.02.2021
2563 Mist 4 1018 70 4000 1.03 340 23:57 13.02.2021
2564 Mist 4 1018 70 4000 1.03 340 23:25 13.02.2021
2565 Mist 4 1018 75 3000 1.03 360 22:57 13.02.2021
2566 Mist 4 1018 75 3000 1.03 360 22:22 13.02.2021
2567 Mist 4 1018 87 3000 1.54 340 21:49 13.02.2021
2568 Mist 4 1018 87 3000 1.54 340 21:27 13.02.2021
2569 Mist 3 1019 81 3000 1.54 360 20:45 13.02.2021
2570 Mist 3 1019 81 3000 1.54 360 20:26 13.02.2021
2571 Rain 3 1020 81 3000 1.03 330 19:48 13.02.2021
2572 Mist 3 1020 81 3000 1.03 330 19:23 13.02.2021
2573 Mist 3 1020 81 3000 1.03 310 18:49 13.02.2021
2574 Mist 3 1020 81 3000 1.03 310 18:25 13.02.2021
2575 Mist 3 1021 87 3500 2.06 330 17:44 13.02.2021
2576 Mist 3 1021 87 3500 2.06 330 17:24 13.02.2021
2577 Mist 3 1021 81 3500 1.03 60 16:50 13.02.2021
2578 Mist 3 1021 81 3500 1.03 60 16:31 13.02.2021
2579 Mist 3 1022 80 3500 1.54 330 15:43 13.02.2021
2580 Mist 3 1022 80 3500 1.54 330 15:24 13.02.2021
2581 Mist 4 1022 81 4000 1.03 340 14:34 13.02.2021
2582 Haze 5 1022 70 4500 1.03 330 13:49 13.02.2021
2583 Haze 5 1022 70 4500 1.03 330 13:26 13.02.2021
2584 Haze 5 1023 65 4500 1.54 330 12:52 13.02.2021
2585 Haze 7 1023 65 4500 1.54 330 12:21 13.02.2021
2586 Haze 7 1022 65 5000 3.09 300 11:47 13.02.2021
2587 Haze 7 1022 65 5000 3.09 300 11:21 13.02.2021
2588 Clouds 10 1022 53 6000 3.6 300 10:56 13.02.2021
2589 Clouds 10 1022 53 6000 3.6 300 10:38 13.02.2021
2590 Clear 14 1022 33 8000 2.06 340 10:19 13.02.2021
2591 Clear 14 1022 33 8000 2.06 340 09:45 13.02.2021
2592 Clear 14 1022 33 8000 2.06 340 09:21 13.02.2021
2593 Haze 15 1023 35 5000 3.6 310 08:41 13.02.2021
2594 Haze 15 1023 41 5000 4.12 290 07:56 13.02.2021
2595 Clear 15 1024 41 6000 3.09 300 06:44 13.02.2021
2596 Clear 14 1024 41 6000 3.09 300 06:19 13.02.2021
2597 Haze 11 1025 40 4000 2.06 220 04:26 13.02.2021
2598 Fog 1 1027 93 1500 0.51 250 01:57 13.02.2021
2599 Fog -3 1027 93 1500 0.51 10 00:51 13.02.2021
2600 Fog -3 1026 93 1000 1.03 350 23:55 12.02.2021
2601 Fog -3 1027 93 750 2.57 330 23:31 12.02.2021
2602 Fog -3 1025 93 600 1.03 360 22:58 12.02.2021
2603 Fog -2 1025 93 600 1.03 360 22:29 12.02.2021
2604 Fog -2 1025 93 500 0.51 160 21:50 12.02.2021
2605 Fog -2 1025 100 800 1.03 280 21:29 12.02.2021
2606 Mist -2 1026 86 4400 0.51 240 20:55 12.02.2021
2607 Fog -2 1026 93 1200 1.54 330 20:37 12.02.2021
2608 Fog -2 1026 93 1200 1.54 330 20:18 12.02.2021
2609 Mist -1 1026 93 1400 1.54 360 19:43 12.02.2021
2610 Mist -1 1026 93 1400 1.54 360 19:25 12.02.2021
2611 Mist -1 1025 93 1700 1.03 320 18:30 12.02.2021
2612 Mist 0 1025 86 2000 1.03 80 17:47 12.02.2021
2613 Mist 0 1025 86 2000 1.03 80 17:22 12.02.2021
2614 Mist 0 1025 86 2000 1.54 330 16:35 12.02.2021
2615 Mist 1 1025 80 2200 1.54 340 15:47 12.02.2021
2616 Mist 1 1025 80 2200 1.54 340 15:21 12.02.2021
2617 Mist 2 1025 80 2500 1.54 290 14:42 12.02.2021
2618 Mist 2 1025 80 2500 1.54 290 14:23 12.02.2021
2619 Haze 4 1025 75 3000 0.51 10 13:41 12.02.2021
2620 Haze 4 1025 75 3000 0.51 10 13:22 12.02.2021
2621 Haze 5 1025 65 3100 2.06 310 12:47 12.02.2021
2622 Haze 5 1025 65 3100 2.06 310 12:28 12.02.2021
2623 Haze 6 1025 65 3300 2.06 330 11:42 12.02.2021
2624 Haze 9 1024 57 4000 3.6 290 11:19 12.02.2021
2625 Haze 9 1024 57 4000 3.6 290 10:41 12.02.2021
2626 Clouds 12 1024 40 7000 4.12 300 09:49 12.02.2021
2627 Clouds 12 1024 40 7000 4.12 300 09:29 12.02.2021
2628 Clouds 13 1024 24 8000 2.57 310 08:49 12.02.2021
2629 Clear 14 1024 24 8000 2.57 310 08:28 12.02.2021
2630 Haze 14 1024 35 5000 1.54 350 07:57 12.02.2021
2631 Haze 13 1024 35 5000 1.54 350 07:32 12.02.2021
2632 Haze 13 1024 40 4500 2.57 330 06:55 12.02.2021
2633 Haze 13 1024 40 4500 2.57 330 06:55 12.02.2021
2634 Haze 12 1025 37 5000 1.54 340 05:47 12.02.2021
2635 Haze 10 1025 46 4000 1.03 350 04:30 12.02.2021
2636 Mist 0 1025 93 1700 1.03 350 01:28 12.02.2021
2637 Fog -2 1024 100 800 1.03 310 23:40 11.02.2021
2638 Fog -2 1024 100 800 1.03 310 23:22 11.02.2021
2639 Fog -2 1024 93 800 1.03 10 22:46 11.02.2021
2640 Fog -2 1024 93 800 1.03 10 22:24 11.02.2021
2641 Fog -2 1024 100 600 1.03 350 21:54 11.02.2021
2642 Fog -2 1024 100 600 1.03 350 21:36 11.02.2021
2643 Fog -2 1025 93 900 2.06 320 21:18 11.02.2021
2644 Fog -2 1025 93 900 2.06 320 21:18 11.02.2021
2645 Mist -2 1025 93 1300 1.03 320 20:41 11.02.2021
2646 Mist -2 1025 93 1300 1.03 320 20:21 11.02.2021
2647 Mist -1 1025 93 1300 1.54 340 19:47 11.02.2021
2648 Mist -1 1025 93 1300 1.54 340 19:27 11.02.2021
2649 Mist -1 1024 93 1800 0.51 330 18:45 11.02.2021
2650 Mist -1 1024 93 1800 0.51 330 18:24 11.02.2021
2651 Mist -1 1024 93 1800 1.03 340 17:49 11.02.2021
2652 Mist -1 1024 93 1800 1.03 340 17:21 11.02.2021
2653 Mist 0 1024 93 2000 1.54 340 16:47 11.02.2021
2654 Mist 0 1024 93 2000 1.54 340 16:29 11.02.2021
2655 Mist 0 1025 93 2000 1.54 310 15:48 11.02.2021
2656 Mist 1 1025 93 2000 1.54 310 15:29 11.02.2021
2657 Mist 1 1025 86 2500 1.54 320 14:58 11.02.2021
2658 Mist 1 1025 86 2500 1.54 320 14:32 11.02.2021
2659 Mist 2 1024 87 2800 1.54 320 13:45 11.02.2021
2660 Mist 2 1024 87 2800 1.54 320 13:45 11.02.2021
2661 Mist 2 1024 87 2800 1.54 320 13:21 11.02.2021
2662 Mist 4 1024 81 3000 2.06 340 12:56 11.02.2021
2663 Mist 4 1024 81 3000 2.06 340 12:35 11.02.2021
2664 Haze 5 1023 70 3500 2.06 310 11:49 11.02.2021
2665 Haze 5 1023 70 3500 2.06 310 11:29 11.02.2021
2666 Haze 8 1023 61 5000 2.06 320 10:57 11.02.2021
2667 Haze 8 1023 61 5000 2.06 320 10:39 11.02.2021
2668 Haze 8 1023 61 5000 2.06 320 10:21 11.02.2021
2669 Clouds 10 1023 49 7000 1.54 320 09:38 11.02.2021
2670 Clouds 11 1024 46 7000 1.54 240 09:18 11.02.2021
2671 Clouds 11 1024 46 7000 1.54 240 08:44 11.02.2021
2672 Clouds 11 1023 46 6000 2.06 150 07:43 11.02.2021
2673 Clouds 10 1024 49 6000 2.06 70 06:44 11.02.2021
2674 Clouds 9 1026 53 6000 1.54 70 05:55 11.02.2021
2675 Haze 6 1027 61 5000 2.06 70 03:43 11.02.2021
2676 Mist 2 1027 70 5000 2.06 150 02:21 11.02.2021
2677 Mist -1 1026 93 3000 0.51 260 00:23 11.02.2021
2678 Mist -2 1026 100 2500 0.51 10 23:48 10.02.2021
2679 Mist -2 1026 100 2500 0.51 10 23:19 10.02.2021
2680 Mist -1 1026 93 2000 1.03 290 22:43 10.02.2021
2681 Mist -1 1026 93 2000 1.03 290 22:23 10.02.2021
2682 Mist -1 1026 93 2000 0.51 360 21:40 10.02.2021
2683 Mist -1 1026 93 2000 0.51 360 21:20 10.02.2021
2684 Mist -1 1026 93 2000 0.51 360 21:20 10.02.2021
2685 Mist -1 1025 93 2000 1.03 280 20:50 10.02.2021
2686 Mist 0 1025 93 2000 1.03 280 20:28 10.02.2021
2687 Mist 0 1025 93 2500 1.03 300 19:50 10.02.2021
2688 Mist 2 1025 81 4000 1.03 70 19:27 10.02.2021
2689 Mist 2 1025 87 4000 0.51 280 18:48 10.02.2021
2690 Mist 2 1025 87 4000 0.51 280 18:26 10.02.2021
2691 Mist 2 1026 93 4000 1.03 130 17:59 10.02.2021
2692 Mist 2 1026 93 4000 1.03 130 17:26 10.02.2021
2693 Mist 2 1026 93 4000 2.06 150 16:59 10.02.2021
2694 Mist 2 1026 93 4000 2.06 150 16:38 10.02.2021
2695 Mist 2 1026 93 4000 2.06 150 16:19 10.02.2021
2696 Mist 2 1026 93 5000 0.51 200 15:24 10.02.2021
2697 Mist 2 1025 81 5000 1.54 60 14:52 10.02.2021
2698 Mist 2 1025 81 5000 1.54 60 14:34 10.02.2021
2699 Clouds 2 1025 87 7000 1.03 240 13:54 10.02.2021
2700 Clouds 2 1025 87 7000 1.03 240 13:30 10.02.2021
2701 Clouds 2 1025 87 7000 1.03 240 13:30 10.02.2021
2702 Clouds 3 1024 87 9000 2.06 240 12:53 10.02.2021
2703 Clouds 3 1024 87 9000 2.06 240 12:30 10.02.2021
2704 Clouds 4 1024 75 10000 2.06 210 11:57 10.02.2021
2705 Clouds 4 1024 75 10000 2.06 210 11:38 10.02.2021
2706 Clouds 5 1024 70 10000 2.57 230 11:19 10.02.2021
2707 Clouds 5 1024 70 10000 2.57 230 10:23 10.02.2021
2708 Clouds 7 1023 65 10000 3.09 230 09:56 10.02.2021
2709 Clouds 7 1023 65 10000 3.09 230 09:31 10.02.2021
2710 Clouds 7 1023 65 10000 3.6 260 08:53 10.02.2021
2711 Clouds 7 1023 65 10000 3.6 260 08:32 10.02.2021
2712 Clouds 7 1023 61 10000 3.6 230 07:34 10.02.2021
2713 Clouds 7 1023 61 10000 5.14 240 06:21 10.02.2021
2714 Clouds 0 1025 75 10000 2.06 160 01:24 10.02.2021
2715 Clouds -2 1025 80 10000 1.54 160 23:49 09.02.2021
2716 Clouds -2 1025 80 10000 1.54 160 23:30 09.02.2021
2717 Clouds -2 1025 80 10000 3.09 150 22:45 09.02.2021
2718 Clouds -2 1025 80 10000 3.09 150 22:23 09.02.2021
2719 Clouds -2 1025 74 10000 2.06 170 21:47 09.02.2021
2720 Clouds -2 1025 74 10000 2.06 170 21:47 09.02.2021
2721 Clouds -2 1025 74 10000 2.06 170 21:21 09.02.2021
2722 Clouds -4 1025 80 10000 3.09 140 20:43 09.02.2021
2723 Clouds -4 1025 80 10000 3.09 140 20:24 09.02.2021
2724 Clear -4 1026 80 10000 3.09 130 19:44 09.02.2021
2725 Clear -4 1026 80 10000 3.09 130 19:22 09.02.2021
2726 Clear -3 1026 74 10000 3.6 150 18:45 09.02.2021
2727 Clear -3 1026 74 10000 3.6 150 18:26 09.02.2021
2728 Clear -3 1027 80 10000 3.09 150 17:50 09.02.2021
2729 Clear -3 1027 80 10000 3.09 150 17:27 09.02.2021
2730 Clear -2 1027 74 10000 2.57 180 16:53 09.02.2021
2731 Clear -2 1027 74 10000 2.57 180 16:20 09.02.2021
2732 Clear -2 1027 69 10000 2.06 180 15:51 09.02.2021
2733 Clear -2 1027 69 10000 2.06 180 15:31 09.02.2021
2734 Clear -2 1027 64 10000 1.54 180 14:59 09.02.2021
2735 Clear -2 1027 64 10000 1.54 180 14:36 09.02.2021
2736 Clear -2 1027 64 10000 1.54 180 14:18 09.02.2021
2737 Clear -1 1027 69 10000 1.54 170 13:40 09.02.2021
2738 Clear 0 1027 59 10000 0.51 340 13:20 09.02.2021
2739 Clear 0 1027 59 10000 0.51 340 12:43 09.02.2021
2740 Clear 0 1027 59 10000 0.51 340 12:23 09.02.2021
2741 Clear 1 1026 55 10000 1.03 180 11:44 09.02.2021
2742 Clear 1 1026 55 10000 1.03 180 11:21 09.02.2021
2743 Clear 2 1027 48 10000 2.57 260 10:57 09.02.2021
2744 Clear 3 1027 48 10000 2.57 260 10:20 09.02.2021
2745 Clear 4 1027 41 10000 3.09 280 09:52 09.02.2021
2746 Clear 4 1027 41 10000 3.09 280 09:26 09.02.2021
2747 Clear 4 1027 35 10000 3.6 260 08:54 09.02.2021
2748 Clear 5 1027 35 10000 3.6 260 08:28 09.02.2021
2749 Clear 5 1027 26 10000 4.63 300 07:41 09.02.2021
2750 Clear 3 1029 25 10000 3.6 280 05:33 09.02.2021
2751 Clear 1 1030 29 10000 2.57 320 03:47 09.02.2021
2752 Clear -3 1030 54 10000 0.51 200 01:50 09.02.2021
2753 Clear -7 1029 73 10000 1.03 20 00:18 09.02.2021
2754 Clear -8 1029 73 10000 1.03 300 23:22 08.02.2021
2755 Clear -8 1029 63 10000 1.03 160 22:56 08.02.2021
2756 Clear -7 1029 63 10000 1.03 160 22:38 08.02.2021
2757 Clear -7 1029 63 10000 1.03 160 22:20 08.02.2021
2758 Clear -8 1029 73 10000 1.03 110 21:38 08.02.2021
2759 Clear -8 1029 73 10000 1.03 110 21:19 08.02.2021
2760 Clear -7 1029 63 10000 0.51 60 20:44 08.02.2021
2761 Clear -7 1029 63 10000 0.51 60 20:23 08.02.2021
2762 Clear -7 1030 68 10000 1.03 340 19:49 08.02.2021
2763 Clear -7 1030 68 10000 1.03 340 19:26 08.02.2021
2764 Clear -5 1030 50 10000 1.54 270 18:49 08.02.2021
2765 Clear -5 1030 50 10000 1.54 270 18:25 08.02.2021
2766 Clear -4 1030 50 10000 2.06 290 17:47 08.02.2021
2767 Clear -4 1030 50 10000 2.06 290 17:26 08.02.2021
2768 Clear -4 1030 46 10000 2.06 270 16:50 08.02.2021
2769 Clear -4 1030 46 10000 2.06 270 16:28 08.02.2021
2770 Clear -4 1030 50 10000 3.6 310 15:56 08.02.2021
2771 Clear -4 1030 50 10000 3.6 310 15:37 08.02.2021
2772 Clear -4 1030 50 10000 3.6 310 15:18 08.02.2021
2773 Clear -3 1030 42 10000 6.17 300 14:42 08.02.2021
2774 Clear -3 1030 42 10000 6.17 300 14:24 08.02.2021
2775 Clear -3 1029 46 10000 4.63 300 13:45 08.02.2021
2776 Clear -3 1029 46 10000 4.63 300 13:25 08.02.2021
2777 Clear -2 1029 36 10000 5.14 300 12:39 08.02.2021
2778 Clear -2 1029 34 10000 5.14 300 11:58 08.02.2021
2779 Clear -1 1029 34 10000 5.14 300 11:32 08.02.2021
2780 Clear -1 1029 31 10000 5.66 310 10:46 08.02.2021
2781 Clear -1 1029 31 10000 5.66 310 10:25 08.02.2021
2782 Clear 0 1028 29 10000 6.17 310 09:55 08.02.2021
2783 Clear 0 1028 29 10000 6.17 310 09:36 08.02.2021
2784 Clear 1 1028 27 10000 6.17 310 08:52 08.02.2021
2785 Clear 1 1028 27 10000 6.17 310 08:24 08.02.2021
2786 Clear 1 1028 25 10000 7.72 330 07:38 08.02.2021
2787 Clear 0 1029 25 10000 7.2 320 06:31 08.02.2021
2788 Clear 0 1030 27 10000 6.17 330 04:53 08.02.2021
2789 Clear -3 1029 42 10000 4.63 320 01:51 08.02.2021
2790 Clear -4 1028 46 10000 5.14 330 00:23 08.02.2021
2791 Clear -4 1027 50 10000 6.17 320 23:52 07.02.2021
2792 Clear -4 1027 50 10000 6.17 320 23:27 07.02.2021
2793 Clear -4 1026 50 10000 4.12 320 22:55 07.02.2021
2794 Clear -4 1026 50 10000 4.12 320 22:55 07.02.2021
2795 Clear -4 1026 50 10000 4.12 320 22:37 07.02.2021
2796 Clear -4 1026 54 10000 4.63 300 22:19 07.02.2021
2797 Clear -4 1026 54 10000 4.63 300 21:47 07.02.2021
2798 Clear -4 1026 54 10000 4.63 300 21:21 07.02.2021
2799 Clear -3 1026 54 10000 5.14 310 20:48 07.02.2021
2800 Clear -3 1026 54 10000 5.14 310 20:27 07.02.2021
2801 Clear -3 1026 54 10000 3.6 300 19:43 07.02.2021
2802 Clear -3 1026 54 10000 3.6 300 19:25 07.02.2021
2803 Clear -3 1025 54 10000 4.12 300 18:44 07.02.2021
2804 Clear -3 1025 54 10000 4.12 300 18:26 07.02.2021
2805 Clear -2 1025 58 10000 3.09 290 17:45 07.02.2021
2806 Clear -2 1025 58 10000 3.09 290 17:22 07.02.2021
2807 Clear -2 1025 54 10000 4.12 300 16:58 07.02.2021
2808 Clear -2 1025 54 10000 4.12 300 16:39 07.02.2021
2809 Clear -2 1025 54 10000 4.12 300 16:19 07.02.2021
2810 Clear -2 1025 59 10000 2.06 320 15:42 07.02.2021
2811 Clear -2 1025 59 10000 2.06 320 15:21 07.02.2021
2812 Clear -1 1025 54 10000 5.14 330 14:43 07.02.2021
2813 Clear -1 1025 54 10000 5.14 330 14:25 07.02.2021
2814 Clear 1 1024 43 10000 6.69 320 13:43 07.02.2021
2815 Clear 1 1024 43 10000 6.69 320 13:25 07.02.2021
2816 Clear 2 1023 37 10000 5.66 320 12:39 07.02.2021
2817 Clear 2 1023 37 10000 5.66 320 12:20 07.02.2021
2818 Clear 3 1023 25 10000 5.14 300 11:42 07.02.2021
2819 Clear 3 1023 25 10000 5.14 300 11:24 07.02.2021
2820 Clear 4 1022 25 10000 6.17 310 10:29 07.02.2021
2821 Clear 6 1021 26 10000 5.66 310 09:57 07.02.2021
2822 Clear 7 1021 26 10000 5.66 310 09:38 07.02.2021
2823 Clear 8 1021 29 10000 6.17 330 09:18 07.02.2021
2824 Clear 8 1021 33 10000 5.66 330 07:57 07.02.2021
2825 Clouds 8 1021 39 10000 6.17 320 06:25 07.02.2021
2826 Mist 7 1022 70 2500 2.06 350 04:36 07.02.2021
2827 Mist 4 1021 93 1100 2.06 290 02:31 07.02.2021
2828 Fog 2 1020 100 400 2.06 320 00:38 07.02.2021
2829 Fog 2 1019 100 100 3.09 340 23:51 06.02.2021
2830 Fog 3 1019 100 100 2.57 320 22:54 06.02.2021
2831 Fog 4 1018 93 100 1.54 340 22:19 06.02.2021
2832 Fog 4 1018 93 100 1.54 340 21:37 06.02.2021
2833 Fog 5 1018 93 900 1.54 30 21:19 06.02.2021
2834 Fog 5 1018 93 900 1.54 30 20:43 06.02.2021
2835 Fog 6 1018 93 900 1.54 30 20:22 06.02.2021
2836 Fog 6 1018 93 1200 0.51 30 19:45 06.02.2021
2837 Fog 6 1018 93 1200 0.51 30 19:23 06.02.2021
2838 Mist 7 1017 93 1300 2.06 300 18:44 06.02.2021
2839 Mist 7 1017 93 1300 2.06 300 18:24 06.02.2021
2840 Mist 7 1017 87 1600 3.09 300 17:41 06.02.2021
2841 Mist 7 1017 87 1600 3.09 300 17:21 06.02.2021
2842 Mist 8 1016 87 2200 2.06 240 16:52 06.02.2021
2843 Mist 7 1016 87 2200 2.06 240 16:30 06.02.2021
2844 Mist 8 1015 87 2300 3.09 210 15:53 06.02.2021
2845 Mist 8 1015 87 2300 3.09 210 15:34 06.02.2021
2846 Mist 8 1015 81 2500 3.09 230 14:59 06.02.2021
2847 Mist 8 1015 81 2500 3.09 230 14:39 06.02.2021
2848 Mist 8 1015 81 2500 3.09 230 14:21 06.02.2021
2849 Mist 8 1015 81 2700 2.06 200 13:44 06.02.2021
2850 Mist 8 1014 87 2600 3.09 210 12:41 06.02.2021
2851 Mist 7 1014 87 2600 3.09 210 12:20 06.02.2021
2852 Mist 8 1014 87 2400 4.12 200 11:40 06.02.2021
2853 Mist 8 1014 76 2500 3.6 190 11:20 06.02.2021
2854 Mist 8 1014 76 2500 3.6 190 10:52 06.02.2021
2855 Mist 8 1014 76 2500 3.6 190 10:25 06.02.2021
2856 Mist 9 1014 76 2700 5.14 220 09:38 06.02.2021
2857 Mist 9 1014 76 2700 5.14 220 09:38 06.02.2021
2858 Mist 9 1014 76 2700 5.14 220 09:19 06.02.2021
2859 Mist 10 1014 81 2600 4.63 230 08:58 06.02.2021
2860 Mist 10 1014 81 2600 4.63 230 08:29 06.02.2021
2861 Mist 10 1014 76 3000 4.12 230 06:51 06.02.2021
2862 Mist 9 1014 71 3000 4.63 230 05:41 06.02.2021
2863 Clouds 6 1015 76 8000 2.06 210 02:44 06.02.2021
2864 Clouds 4 1015 81 10000 3.09 180 00:56 06.02.2021
2865 Clouds 3 1015 81 10000 3.09 180 00:37 06.02.2021
2866 Clouds 3 1015 81 10000 2.06 170 00:18 06.02.2021
2867 Clouds 3 1015 81 10000 2.06 170 23:30 05.02.2021
2868 Clouds 3 1015 75 10000 2.57 180 22:50 05.02.2021
2869 Clouds 3 1015 75 10000 2.57 180 22:25 05.02.2021
2870 Clouds 3 1015 75 10000 2.57 180 21:56 05.02.2021
2871 Clouds 3 1015 75 10000 2.57 180 21:36 05.02.2021
2872 Clouds 3 1015 75 10000 2.57 170 20:56 05.02.2021
2873 Clouds 3 1015 75 10000 2.57 170 20:19 05.02.2021
2874 Clouds 2 1016 75 10000 1.03 90 19:39 05.02.2021
2875 Clouds 2 1016 75 10000 1.03 90 19:18 05.02.2021
2876 Clouds 2 1016 70 10000 1.03 180 18:38 05.02.2021
2877 Clouds 2 1016 75 10000 1.54 170 18:19 05.02.2021
2878 Clouds 2 1016 75 10000 1.54 170 17:35 05.02.2021
2879 Clouds 1 1017 80 10000 1.54 150 16:58 05.02.2021
2880 Clouds 1 1017 80 10000 1.54 150 16:39 05.02.2021
2881 Clouds 1 1017 80 10000 1.54 150 16:20 05.02.2021
2882 Clouds 1 1017 80 10000 1.54 130 15:45 05.02.2021
2883 Clouds 1 1017 80 10000 1.54 130 15:22 05.02.2021
2884 Clouds 2 1018 80 10000 0.51 160 14:38 05.02.2021
2885 Clouds 2 1018 81 10000 2.06 150 14:19 05.02.2021
2886 Clouds 2 1018 81 10000 2.06 150 13:43 05.02.2021
2887 Clouds 2 1018 81 10000 2.06 150 13:24 05.02.2021
2888 Clouds 2 1018 87 10000 2.57 140 12:42 05.02.2021
2889 Clouds 2 1018 87 10000 2.57 140 12:20 05.02.2021
2890 Clouds 3 1018 75 10000 3.6 200 11:39 05.02.2021
2891 Clouds 3 1018 75 10000 3.6 200 11:20 05.02.2021
2892 Clouds 4 1018 75 10000 3.6 190 10:48 05.02.2021
2893 Clouds 4 1018 75 10000 3.6 190 10:25 05.02.2021
2894 Clouds 6 1017 65 10000 6.17 220 09:43 05.02.2021
2895 Clouds 6 1017 65 10000 6.17 220 09:24 05.02.2021
2896 Clouds 6 1018 65 10000 6.17 220 08:41 05.02.2021
2897 Clouds 7 1019 61 10000 6.69 210 07:42 05.02.2021
2898 Clouds 6 1019 61 10000 6.69 210 07:22 05.02.2021
2899 Clouds 5 1019 65 10000 4.63 210 06:33 05.02.2021
2900 Clouds 4 1020 65 10000 4.12 190 05:33 05.02.2021
2901 Clear -1 1022 69 10000 3.09 150 02:26 05.02.2021
2902 Clear -3 1023 69 10000 2.06 190 01:28 05.02.2021
2903 Clear -4 1023 68 10000 2.57 170 00:36 05.02.2021
2904 Clear -4 1023 68 10000 2.57 170 00:18 05.02.2021
2905 Clear -5 1023 74 10000 3.09 170 23:41 04.02.2021
2906 Clear -5 1023 74 10000 3.09 170 23:22 04.02.2021
2907 Clear -5 1023 74 10000 4.12 160 22:54 04.02.2021
2908 Clear -5 1023 74 10000 4.12 160 22:30 04.02.2021
2909 Clear -5 1024 74 10000 3.6 160 21:55 04.02.2021
2910 Clear -5 1024 74 10000 3.6 160 21:37 04.02.2021
2911 Clouds -5 1025 79 10000 4.12 150 20:56 04.02.2021
2912 Clouds -5 1025 79 10000 4.12 150 20:34 04.02.2021
2913 Clouds -5 1025 73 10000 4.12 150 19:51 04.02.2021
2914 Clouds -5 1025 73 10000 4.12 150 19:23 04.02.2021
2915 Clouds -5 1025 73 10000 4.12 140 18:40 04.02.2021
2916 Clouds -6 1025 73 10000 4.12 140 18:21 04.02.2021
2917 Clouds -7 1026 68 10000 3.6 150 17:45 04.02.2021
2918 Clouds -7 1026 68 10000 3.6 150 17:21 04.02.2021
2919 Clear -7 1026 63 10000 3.09 140 16:48 04.02.2021
2920 Clear -6 1026 63 10000 3.09 140 16:19 04.02.2021
2921 Clear -6 1026 63 10000 3.09 140 15:41 04.02.2021
2922 Clear -6 1026 63 10000 3.09 140 15:21 04.02.2021
2923 Clear -6 1026 68 10000 2.06 150 14:56 04.02.2021
2924 Clear -6 1026 68 10000 2.06 150 14:37 04.02.2021
2925 Clear -5 1027 50 10000 1.54 60 14:19 04.02.2021
2926 Clear -5 1027 50 10000 1.54 60 13:41 04.02.2021
2927 Clear -4 1027 54 10000 0.51 10 12:57 04.02.2021
2928 Clear -4 1027 54 10000 0.51 10 12:21 04.02.2021
2929 Clear -3 1028 50 10000 3.09 270 11:50 04.02.2021
2930 Clear -3 1028 50 10000 3.09 270 11:32 04.02.2021
2931 Clear -2 1027 46 10000 2.57 290 10:44 04.02.2021
2932 Clear 0 1027 37 10000 3.6 300 10:18 04.02.2021
2933 Clear 0 1027 37 10000 3.6 300 09:43 04.02.2021
2934 Clear 1 1027 29 10000 0.51 240 09:18 04.02.2021
2935 Clear 1 1027 29 10000 0.51 240 08:41 04.02.2021
2936 Clear 0 1027 29 10000 0.51 240 08:20 04.02.2021
2937 Clear 0 1028 34 10000 1.03 120 07:41 04.02.2021
2938 Clear -1 1029 31 10000 2.06 340 06:55 04.02.2021
2939 Clear -1 1029 31 10000 2.06 340 06:35 04.02.2021
2940 Clear -3 1030 33 10000 1.54 330 03:53 04.02.2021
2941 Clear -4 1029 36 10000 2.57 300 02:25 04.02.2021
2942 Clear -7 1029 53 10000 3.09 300 00:42 04.02.2021
2943 Clear -7 1028 62 10000 2.57 270 23:40 03.02.2021
2944 Clear -6 1027 58 10000 2.06 270 22:44 03.02.2021
2945 Clear -6 1027 58 10000 2.06 270 22:22 03.02.2021
2946 Clear -5 1026 49 10000 5.14 310 21:57 03.02.2021
2947 Clear -5 1026 49 10000 5.14 310 21:36 03.02.2021
2948 Clear -5 1026 49 10000 5.14 310 21:18 03.02.2021
2949 Clear -4 1025 58 10000 3.6 300 20:38 03.02.2021
2950 Clear -4 1025 58 10000 3.6 300 20:19 03.02.2021
2951 Clear -2 1024 58 10000 6.69 330 19:42 03.02.2021
2952 Clear -2 1024 58 10000 6.69 330 19:19 03.02.2021
2953 Clouds 0 1023 64 10000 6.17 320 18:46 03.02.2021
2954 Clouds 0 1023 64 10000 6.17 320 18:20 03.02.2021
2955 Snow 1 1021 86 6000 6.17 330 17:51 03.02.2021
2956 Snow 1 1021 86 6000 6.17 330 17:30 03.02.2021
2957 Snow 0 1021 93 6000 6.17 320 16:53 03.02.2021
2958 Snow 0 1021 100 3500 4.63 270 16:29 03.02.2021
2959 Snow 0 1021 100 1200 5.14 240 15:45 03.02.2021
2960 Snow -1 1020 93 4000 5.14 200 15:25 03.02.2021
2961 Snow -1 1020 93 800 6.17 210 14:53 03.02.2021
2962 Snow -1 1021 100 4000 5.14 200 14:26 03.02.2021
2963 Snow -1 1021 93 2000 4.12 200 13:54 03.02.2021
2964 Snow 0 1021 93 400 4.12 200 13:26 03.02.2021
2965 Snow 0 1021 80 1800 4.63 200 12:47 03.02.2021
2966 Snow 1 1022 69 10000 5.14 200 12:27 03.02.2021
2967 Snow 0 1022 69 10000 4.63 180 11:49 03.02.2021
2968 Clouds 0 1022 69 10000 4.63 180 11:28 03.02.2021
2969 Snow 1 1023 74 8000 4.63 200 10:53 03.02.2021
2970 Snow 1 1023 74 8000 4.63 200 10:21 03.02.2021
2971 Snow 1 1023 64 10000 3.09 200 09:47 03.02.2021
2972 Snow 1 1023 64 10000 3.09 200 09:27 03.02.2021
2973 Clouds 1 1024 60 10000 4.12 200 08:52 03.02.2021
2974 Clouds 1 1024 60 10000 4.12 200 08:27 03.02.2021
2975 Clouds 1 1024 55 10000 3.6 210 07:39 03.02.2021
2976 Clouds 1 1024 55 10000 3.6 210 07:39 03.02.2021
2977 Clouds 1 1025 55 10000 5.14 230 06:40 03.02.2021
2978 Clear -1 1026 43 10000 2.06 190 04:52 03.02.2021
2979 Clear -1 1026 43 10000 2.06 190 04:29 03.02.2021
2980 Clear -4 1028 50 10000 2.57 140 02:53 03.02.2021
2981 Clear -5 1028 50 10000 2.57 140 02:23 03.02.2021
2982 Clear -10 1028 67 10000 3.09 140 00:27 03.02.2021
2983 Clear -10 1028 53 10000 1.03 120 23:47 02.02.2021
2984 Clear -10 1028 53 10000 1.03 120 23:28 02.02.2021
2985 Clear -10 1028 73 10000 1.54 80 22:54 02.02.2021
2986 Clear -10 1028 73 10000 1.54 80 22:22 02.02.2021
2987 Clear -10 1028 73 10000 1.03 280 21:54 02.02.2021
2988 Clear -10 1028 73 10000 1.03 280 21:29 02.02.2021
2989 Clear -10 1028 67 10000 1.03 210 20:52 02.02.2021
2990 Clear -10 1028 67 10000 1.03 210 20:25 02.02.2021
2991 Clear -9 1029 62 10000 1.03 250 19:59 02.02.2021
2992 Clear -9 1029 62 10000 1.03 250 19:40 02.02.2021
2993 Clear -9 1029 62 10000 1.03 250 19:22 02.02.2021
2994 Clear -9 1029 57 10000 1.54 310 18:42 02.02.2021
2995 Clear -8 1029 57 10000 1.54 310 18:24 02.02.2021
2996 Clear -8 1028 57 10000 2.57 330 17:42 02.02.2021
2997 Clear -8 1028 57 10000 2.57 330 17:21 02.02.2021
2998 Clear -7 1028 62 10000 3.6 330 16:51 02.02.2021
2999 Clear -7 1028 62 10000 3.6 330 16:31 02.02.2021
3000 Clouds -7 1028 63 10000 6.17 340 15:57 02.02.2021
3001 Clouds -6 1028 63 10000 3.6 330 15:34 02.02.2021
3002 Snow -5 1027 79 10000 4.12 330 14:56 02.02.2021
3003 Snow -5 1027 79 10000 4.12 330 14:37 02.02.2021
3004 Snow -5 1027 79 10000 4.12 330 14:18 02.02.2021
3005 Snow -5 1026 58 10000 4.63 340 13:42 02.02.2021
3006 Snow -5 1026 58 10000 4.63 340 13:24 02.02.2021
3007 Snow -4 1026 63 10000 4.63 300 12:53 02.02.2021
3008 Snow -4 1026 63 10000 4.63 300 12:22 02.02.2021
3009 Clouds -4 1025 54 10000 2.57 270 11:38 02.02.2021
3010 Clouds -4 1025 54 10000 2.57 270 11:18 02.02.2021
3011 Clouds -4 1025 50 10000 3.09 270 10:43 02.02.2021
3012 Clouds -3 1025 50 10000 3.09 270 10:25 02.02.2021
3013 Clouds -3 1025 43 10000 6.17 270 09:45 02.02.2021
3014 Clouds -3 1025 43 10000 6.17 270 09:21 02.02.2021
3015 Clouds -3 1026 39 10000 4.12 290 08:38 02.02.2021
3016 Clouds -3 1026 36 10000 6.17 270 07:46 02.02.2021
3017 Clear -3 1026 29 10000 5.14 290 06:49 02.02.2021
3018 Clear -2 1026 29 10000 5.14 290 06:31 02.02.2021
3019 Clear -2 1026 29 10000 5.14 290 06:31 02.02.2021
3020 Clear -3 1027 26 10000 7.2 330 05:50 02.02.2021
3021 Clear -5 1027 30 10000 5.66 320 02:57 02.02.2021
3022 Clear -5 1027 30 10000 5.66 320 02:24 02.02.2021
3023 Clear -7 1027 41 10000 3.09 290 00:38 02.02.2021
3024 Clear -7 1026 41 10000 4.63 310 23:47 01.02.2021
3025 Clear -6 1026 38 10000 6.17 310 22:53 01.02.2021
3026 Clear -6 1026 38 10000 6.17 310 22:35 01.02.2021
3027 Clear -6 1025 35 10000 6.17 310 21:57 01.02.2021
3028 Clear -6 1025 35 10000 6.17 310 21:39 01.02.2021
3029 Clear -6 1025 35 10000 6.17 310 21:20 01.02.2021
3030 Clear -5 1025 35 10000 5.66 310 20:41 01.02.2021
3031 Clear -5 1025 35 10000 5.66 310 20:22 01.02.2021
3032 Clear -4 1024 42 10000 4.12 290 19:41 01.02.2021
3033 Clear -4 1024 42 10000 4.12 290 19:21 01.02.2021
3034 Clear -3 1023 42 10000 4.12 280 18:49 01.02.2021
3035 Clear -3 1023 42 10000 4.12 280 18:29 01.02.2021
3036 Clear -2 1023 42 10000 4.63 310 17:48 01.02.2021
3037 Clear -2 1023 42 10000 4.63 310 17:26 01.02.2021
3038 Clear -2 1022 50 10000 7.2 310 16:58 01.02.2021
3039 Clear -2 1022 50 10000 7.2 310 16:30 01.02.2021
3040 Clouds 1 1021 64 9000 6.69 310 15:47 01.02.2021
3041 Clear 2 1020 55 10000 3.6 290 15:19 01.02.2021
3042 Clear 2 1020 55 10000 3.6 290 14:52 01.02.2021
3043 Clear 2 1020 55 10000 3.6 290 14:33 01.02.2021
3044 Clouds 3 1018 64 6000 5.14 300 13:51 01.02.2021
3045 Clouds 3 1018 64 6000 5.14 300 13:27 01.02.2021
3046 Clouds 4 1017 64 6000 3.6 320 12:56 01.02.2021
3047 Clouds 5 1017 64 6000 3.6 320 12:37 01.02.2021
3048 Mist 5 1017 81 3000 3.09 330 12:19 01.02.2021
3049 Mist 5 1017 81 3000 3.09 330 11:39 01.02.2021
3050 Mist 5 1016 87 2000 3.6 290 11:18 01.02.2021
3051 Mist 6 1015 81 2800 2.06 270 10:42 01.02.2021
3052 Mist 6 1015 81 2800 2.06 270 10:19 01.02.2021
3053 Mist 7 1014 75 3000 4.12 280 09:43 01.02.2021
3054 Mist 8 1013 76 3000 3.6 220 08:58 01.02.2021
3055 Mist 8 1013 76 3000 3.6 220 08:27 01.02.2021
3056 Mist 8 1013 87 3000 5.14 300 07:36 01.02.2021
3057 Haze 10 1013 66 5000 5.66 210 05:59 01.02.2021
3058 Mist 6 1015 81 5000 2.57 220 02:43 01.02.2021
3059 Mist 4 1015 93 2400 2.06 210 00:31 01.02.2021
3060 Mist 4 1015 93 4000 2.57 180 23:40 31.01.2021
3061 Clouds 4 1016 87 7000 2.57 170 22:42 31.01.2021
3062 Clouds 4 1016 87 7000 2.57 170 22:23 31.01.2021
3063 Clouds 4 1016 87 9000 2.06 180 21:49 31.01.2021
3064 Clouds 4 1016 87 9000 2.06 180 21:22 31.01.2021
3065 Clouds 4 1017 87 10000 1.54 200 20:46 31.01.2021
3066 Clouds 4 1017 87 10000 1.54 200 20:21 31.01.2021
3067 Clouds 4 1018 87 10000 2.06 130 19:43 31.01.2021
3068 Clouds 4 1018 87 10000 2.06 130 19:24 31.01.2021
3069 Rain 4 1018 76 10000 3.09 170 18:57 31.01.2021
3070 Rain 5 1018 76 10000 3.09 170 18:38 31.01.2021
3071 Rain 5 1018 66 4000 3.09 170 18:19 31.01.2021
3072 Clouds 4 1019 65 10000 2.57 140 17:44 31.01.2021
3073 Clouds 4 1019 65 10000 2.57 140 17:23 31.01.2021
3074 Clouds 4 1020 65 10000 2.06 130 16:46 31.01.2021
3075 Clouds 4 1020 65 10000 2.06 130 16:27 31.01.2021
3076 Clouds 3 1021 70 10000 0.51 90 15:50 31.01.2021
3077 Clouds 3 1021 70 10000 0.51 90 15:31 31.01.2021
3078 Clouds 4 1021 65 10000 2.57 160 14:42 31.01.2021
3079 Clouds 4 1021 65 10000 2.57 160 14:19 31.01.2021
3080 Clouds 3 1022 65 10000 2.57 130 13:48 31.01.2021
3081 Clouds 4 1022 65 10000 2.57 130 13:23 31.01.2021
3082 Rain 4 1022 65 10000 2.06 150 12:47 31.01.2021
3083 Clouds 4 1022 65 10000 2.06 150 12:21 31.01.2021
3084 Clouds 5 1023 65 10000 1.54 150 11:41 31.01.2021
3085 Clouds 5 1023 65 10000 1.54 150 11:21 31.01.2021
3086 Clouds 7 1023 57 10000 3.09 180 10:48 31.01.2021
3087 Clouds 7 1023 57 10000 3.09 180 10:30 31.01.2021
3088 Clouds 8 1023 50 10000 3.09 180 09:49 31.01.2021
3089 Clouds 9 1024 46 10000 4.12 160 08:58 31.01.2021
3090 Clouds 9 1024 46 10000 4.12 160 08:32 31.01.2021
3091 Clouds 7 1025 34 10000 3.09 100 06:54 31.01.2021
3092 Clouds 6 1026 33 10000 4.63 110 05:30 31.01.2021
3093 Clear -5 1029 80 10000 2.57 130 00:40 31.01.2021
3094 Clear -6 1029 80 10000 2.57 130 00:21 31.01.2021
3095 Mist -6 1029 86 5000 1.03 260 23:28 30.01.2021
3096 Mist -7 1029 93 5000 1.54 320 22:45 30.01.2021
3097 Mist -7 1029 93 5000 1.54 320 22:23 30.01.2021
3098 Mist -7 1029 93 3500 1.54 30 21:39 30.01.2021
3099 Mist -6 1029 93 3500 1.54 30 21:20 30.01.2021
3100 Mist -6 1029 93 3000 1.03 300 20:43 30.01.2021
3101 Mist -6 1029 93 3000 1.03 300 20:24 30.01.2021
3102 Mist -6 1030 93 3000 0.51 300 19:41 30.01.2021
3103 Mist -6 1030 93 3000 0.51 300 19:22 30.01.2021
3104 Mist -6 1029 93 4000 0.51 280 18:40 30.01.2021
3105 Mist -5 1029 93 4000 0.51 280 18:21 30.01.2021
3106 Clouds -5 1029 86 6000 2.57 20 17:49 30.01.2021
3107 Clouds -5 1029 86 6000 2.57 20 17:19 30.01.2021
3108 Mist -4 1029 93 5000 1.03 360 16:42 30.01.2021
3109 Mist -4 1029 93 5000 1.03 360 16:23 30.01.2021
3110 Mist -4 1029 93 5000 1.03 90 15:49 30.01.2021
3111 Mist -4 1029 93 5000 1.03 90 15:25 30.01.2021
3112 Mist -3 1028 86 5000 1.54 290 14:58 30.01.2021
3113 Mist -3 1028 86 5000 1.54 290 14:38 30.01.2021
3114 Mist -3 1028 86 5000 1.54 290 14:18 30.01.2021
3115 Clear -2 1028 80 6000 1.03 280 13:23 30.01.2021
3116 Clear -1 1027 80 7000 2.06 290 12:46 30.01.2021
3117 Clear -1 1027 80 7000 2.06 290 12:27 30.01.2021
3118 Clear 0 1027 64 10000 2.57 280 11:47 30.01.2021
3119 Clear 2 1026 51 10000 3.6 290 10:57 30.01.2021
3120 Clear 2 1026 51 10000 3.6 290 10:28 30.01.2021
3121 Clear 4 1026 45 10000 2.06 350 09:42 30.01.2021
3122 Clear 4 1026 45 10000 2.06 350 09:24 30.01.2021
3123 Clear 5 1025 33 10000 4.63 350 08:44 30.01.2021
3124 Clouds 5 1024 48 8000 3.6 330 07:42 30.01.2021
3125 Clouds 4 1024 52 8000 5.66 320 06:32 30.01.2021
3126 Clouds -3 1024 64 10000 2.57 120 03:51 30.01.2021
3127 Clouds -3 1024 64 10000 2.57 120 03:31 30.01.2021
3128 Clouds -4 1024 74 10000 4.12 130 02:22 30.01.2021
3129 Snow -5 1023 54 10000 4.12 130 00:56 30.01.2021
3130 Snow -5 1023 54 10000 4.12 130 00:26 30.01.2021
3131 Snow -6 1023 54 10000 3.6 130 23:54 29.01.2021
3132 Snow -6 1023 54 10000 3.6 130 23:27 29.01.2021
3133 Snow -6 1023 50 10000 4.12 140 22:46 29.01.2021
3134 Snow -6 1023 50 10000 4.12 140 22:28 29.01.2021
3135 Snow -6 1024 50 10000 4.12 150 21:56 29.01.2021
3136 Snow -6 1024 50 10000 4.12 150 21:26 29.01.2021
3137 Snow -6 1025 45 10000 4.12 150 20:43 29.01.2021
3138 Snow -7 1024 54 10000 4.12 140 20:22 29.01.2021
3139 Clouds -7 1025 46 10000 4.12 140 19:40 29.01.2021
3140 Clouds -7 1025 46 10000 4.12 140 19:20 29.01.2021
3141 Clouds -7 1025 50 10000 3.6 130 18:53 29.01.2021
3142 Clouds -8 1026 53 10000 3.09 150 17:48 29.01.2021
3143 Clouds -8 1026 53 10000 3.09 150 17:22 29.01.2021
3144 Clouds -9 1027 57 10000 3.09 160 16:49 29.01.2021
3145 Clouds -9 1027 57 10000 3.09 160 16:24 29.01.2021
3146 Clouds -9 1027 57 10000 3.09 160 16:24 29.01.2021
3147 Clouds -9 1027 57 10000 3.09 160 16:24 29.01.2021
3148 Clear -9 1027 57 10000 3.09 140 15:55 29.01.2021
3149 Clear -9 1027 57 10000 3.09 140 15:36 29.01.2021
3150 Clear -9 1027 57 10000 3.09 140 15:18 29.01.2021
3151 Clear -9 1027 57 10000 1.15 106 14:22 29.01.2021
3152 Clear -8 1026 49 10000 0.51 30 13:46 29.01.2021
3153 Clear -8 1026 49 10000 0.51 30 13:27 29.01.2021
3154 Clear -8 1027 45 10000 1.03 360 12:30 29.01.2021
3155 Clear -7 1026 41 10000 2.06 330 11:58 29.01.2021
3156 Clear -7 1026 41 10000 2.06 330 11:40 29.01.2021
3157 Clear -7 1026 41 10000 2.06 330 11:18 29.01.2021
3158 Clear -6 1026 38 10000 2.57 300 10:41 29.01.2021
3159 Clear -5 1027 30 10000 4.12 300 09:56 29.01.2021
3160 Clear -5 1027 30 10000 4.12 300 09:36 29.01.2021
3161 Clear -5 1026 28 10000 5.14 350 08:48 29.01.2021
3162 Clear -5 1026 28 10000 5.14 350 08:26 29.01.2021
3163 Clear -5 1026 26 10000 4.12 320 07:44 29.01.2021
3164 Clear -4 1026 26 10000 4.12 320 07:23 29.01.2021
3165 Clear -5 1027 27 10000 4.12 330 06:35 29.01.2021
3166 Clear -8 1028 29 10000 4.63 320 03:53 29.01.2021
3167 Clear -11 1027 44 10000 3.6 290 00:47 29.01.2021
3168 Clear -11 1027 44 10000 3.6 290 00:23 29.01.2021
3169 Clear -11 1027 44 10000 3.6 290 00:23 29.01.2021
3170 Clear -11 1027 44 10000 4.12 300 23:47 28.01.2021
3171 Clear -11 1027 44 10000 4.12 300 23:27 28.01.2021
3172 Clear -11 1026 44 10000 5.14 310 22:59 28.01.2021
3173 Clear -11 1026 44 10000 5.14 310 22:38 28.01.2021
3174 Clear -11 1026 44 10000 5.14 310 22:20 28.01.2021
3175 Clear -11 1026 48 10000 3.6 310 21:42 28.01.2021
3176 Clear -11 1026 48 10000 3.6 310 21:21 28.01.2021
3177 Clear -11 1026 48 10000 4.12 300 20:44 28.01.2021
3178 Clear -11 1026 44 10000 6.17 310 20:19 28.01.2021
3179 Clear -11 1026 44 10000 6.17 310 19:49 28.01.2021
3180 Clear -11 1026 44 10000 6.17 310 19:27 28.01.2021
3181 Clear -10 1025 41 10000 8.23 310 18:49 28.01.2021
3182 Clear -10 1025 41 10000 8.23 310 18:29 28.01.2021
3183 Clear -10 1025 41 10000 8.23 310 18:29 28.01.2021
3184 Clear -10 1025 37 10000 6.69 310 17:48 28.01.2021
3185 Clear -10 1025 37 10000 6.69 310 17:48 28.01.2021
3186 Clear -10 1025 37 10000 6.69 310 17:30 28.01.2021
3187 Clear -9 1024 38 10000 9.26 310 16:47 28.01.2021
3188 Clear -9 1024 38 10000 9.26 310 16:28 28.01.2021
3189 Clear -8 1023 38 10000 9.26 320 15:59 28.01.2021
3190 Clear -8 1023 38 10000 9.26 320 15:24 28.01.2021
3191 Clouds -8 1022 49 10000 5.66 310 14:44 28.01.2021
3192 Clouds -8 1022 49 10000 5.66 310 14:44 28.01.2021
3193 Clouds -8 1022 49 10000 5.66 310 14:23 28.01.2021
3194 Clouds -7 1021 49 10000 7.72 300 13:54 28.01.2021
3195 Clouds -7 1021 49 10000 7.72 300 13:23 28.01.2021
3196 Clouds -6 1020 49 10000 9.26 300 12:48 28.01.2021
3197 Clouds -6 1020 49 10000 9.26 300 12:23 28.01.2021
3198 Clouds -5 1019 45 10000 9.26 300 11:44 28.01.2021
3199 Clouds -5 1019 45 10000 9.26 300 11:21 28.01.2021
3200 Clouds -5 1018 39 10000 9.77 290 10:55 28.01.2021
3201 Clouds -4 1018 39 10000 9.77 290 10:35 28.01.2021
3202 Clouds -2 1017 40 10000 8.75 300 09:59 28.01.2021
3203 Clouds -2 1017 40 10000 8.75 300 09:31 28.01.2021
3204 Clouds -1 1017 40 10000 10.29 290 08:57 28.01.2021
3205 Clouds -1 1017 40 10000 10.29 290 08:39 28.01.2021
3206 Clouds 0 1015 37 10000 12.35 300 07:46 28.01.2021
3207 Clouds 1 1014 40 10000 12.35 280 06:51 28.01.2021
3208 Clouds 1 1014 40 10000 12.35 280 06:31 28.01.2021
3209 Snow 2 1013 64 10000 8.75 280 04:30 28.01.2021
3210 Snow 0 1013 60 2800 3.6 210 01:40 28.01.2021
3211 Snow -2 1015 69 10000 3.09 160 23:54 27.01.2021
3212 Clear -2 1015 69 10000 3.09 160 23:24 27.01.2021
3213 Clear -2 1015 69 10000 3.09 160 23:24 27.01.2021
3214 Clear -2 1016 69 10000 1.54 180 22:43 27.01.2021
3215 Clear -2 1016 69 10000 1.54 180 22:24 27.01.2021
3216 Clear -3 1016 68 10000 2.57 140 21:44 27.01.2021
3217 Clear -3 1016 68 10000 2.57 140 21:24 27.01.2021
3218 Clear -2 1017 80 10000 1.03 160 20:55 27.01.2021
3219 Clear -2 1017 80 10000 1.03 160 20:30 27.01.2021
3220 Snow -2 1018 86 10000 1.03 260 19:56 27.01.2021
3221 Clear -2 1018 86 10000 1.03 260 19:36 27.01.2021
3222 Clear -2 1018 86 10000 1.03 260 19:18 27.01.2021
3223 Clear -2 1019 80 10000 0.51 320 18:40 27.01.2021
3224 Clear -2 1019 80 10000 0.51 320 18:21 27.01.2021
3225 Clear -1 1020 69 10000 1.54 40 17:39 27.01.2021
3226 Clear -1 1021 64 10000 1.54 50 17:18 27.01.2021
3227 Clear -1 1021 64 10000 1.54 50 16:43 27.01.2021
3228 Clear -1 1021 64 10000 1.54 50 16:24 27.01.2021
3229 Clear -1 1022 69 10000 2.06 330 15:49 27.01.2021
3230 Clear -1 1022 69 10000 2.06 330 15:29 27.01.2021
3231 Clear 0 1022 59 10000 0.51 330 14:39 27.01.2021
3232 Clear 0 1022 59 10000 0.51 330 14:19 27.01.2021
3233 Clear 0 1022 59 10000 0.51 40 13:40 27.01.2021
3234 Clear 1 1022 59 10000 2.06 310 12:46 27.01.2021
3235 Clear 1 1022 59 10000 2.06 310 12:26 27.01.2021
3236 Clear 2 1023 47 10000 3.09 280 11:52 27.01.2021
3237 Clear 2 1023 47 10000 3.09 280 11:26 27.01.2021
3238 Clear 4 1023 41 10000 2.57 270 10:51 27.01.2021
3239 Clear 4 1023 41 10000 2.57 270 10:26 27.01.2021
3240 Clear 5 1023 38 10000 4.12 280 09:56 27.01.2021
3241 Clear 5 1023 38 10000 4.12 280 09:29 27.01.2021
3242 Clear 5 1023 38 10000 4.12 280 09:29 27.01.2021
3243 Clear 6 1023 20 10000 3.6 310 08:47 27.01.2021
3244 Clear 7 1023 19 10000 4.12 310 07:58 27.01.2021
3245 Clear 7 1023 19 10000 4.12 310 07:38 27.01.2021
3246 Clear 7 1023 21 10000 4.12 320 06:45 27.01.2021
3247 Clear 6 1023 24 10000 1.54 330 05:56 27.01.2021
3248 Clear 6 1023 24 10000 1.54 330 05:34 27.01.2021
3249 Clear 2 1025 44 10000 3.6 340 02:46 27.01.2021
3250 Clear 2 1025 44 10000 3.6 340 02:20 27.01.2021
3251 Clear -1 1025 59 10000 1.03 310 01:32 27.01.2021
3252 Clear -2 1025 54 10000 1.03 20 00:22 27.01.2021
3253 Clear -3 1025 74 10000 1.03 350 23:38 26.01.2021
3254 Clear -2 1025 74 10000 1.03 350 23:19 26.01.2021
3255 Clear -1 1025 59 10000 1.03 280 22:38 26.01.2021
3256 Clear -1 1025 64 10000 0.51 210 22:19 26.01.2021
3257 Clear -1 1025 64 10000 0.51 210 21:51 26.01.2021
3258 Clear 0 1025 64 10000 0.51 210 21:23 26.01.2021
3259 Clear 0 1024 59 10000 3.6 320 20:43 26.01.2021
3260 Clear 0 1024 59 10000 3.6 320 20:23 26.01.2021
3261 Clear 1 1024 59 10000 3.09 330 19:50 26.01.2021
3262 Clear 1 1024 59 10000 3.09 330 19:29 26.01.2021
3263 Mist 1 1023 80 5000 3.09 300 18:57 26.01.2021
3264 Mist 0 1023 80 5000 3.09 300 18:39 26.01.2021
3265 Mist 0 1023 80 5000 3.09 300 18:19 26.01.2021
3266 Mist 0 1022 93 5000 2.57 300 17:46 26.01.2021
3267 Mist 0 1022 93 5000 2.57 300 17:22 26.01.2021
3268 Mist 0 1022 93 5000 1.54 270 16:42 26.01.2021
3269 Mist 0 1022 93 5000 1.54 270 16:42 26.01.2021
3270 Mist 0 1022 93 5000 1.54 270 16:20 26.01.2021
3271 Clouds 1 1022 93 6000 1.03 320 15:49 26.01.2021
3272 Clouds 1 1022 93 6000 1.03 320 15:27 26.01.2021
3273 Clouds 3 1021 80 8000 3.09 320 14:49 26.01.2021
3274 Clouds 3 1021 80 8000 3.09 320 14:29 26.01.2021
3275 Clouds 4 1020 80 10000 3.6 320 13:39 26.01.2021
3276 Clouds 4 1020 80 10000 3.6 320 13:21 26.01.2021
3277 Clouds 5 1020 75 10000 5.66 320 12:44 26.01.2021
3278 Clouds 5 1020 75 10000 5.66 320 12:25 26.01.2021
3279 Clouds 5 1020 87 6000 5.14 340 11:57 26.01.2021
3280 Clouds 5 1020 87 6000 5.14 340 11:57 26.01.2021
3281 Clouds 5 1020 87 6000 5.14 340 11:38 26.01.2021
3282 Mist 5 1018 93 5000 3.09 330 10:45 26.01.2021
3283 Mist 5 1018 93 5000 3.09 330 10:27 26.01.2021
3284 Mist 5 1018 93 3800 3.09 290 09:42 26.01.2021
3285 Mist 5 1018 93 3800 3.09 290 09:23 26.01.2021
3286 Mist 5 1018 93 1400 4.63 290 08:52 26.01.2021
3287 Drizzle 5 1017 93 1900 4.63 290 08:24 26.01.2021
3288 Drizzle 6 1017 87 2500 2.57 260 07:43 26.01.2021
3289 Mist 6 1017 81 4500 2.06 210 06:21 26.01.2021
3290 Clouds 6 1019 81 6000 2.57 200 05:42 26.01.2021
3291 Clouds 5 1019 87 7000 2.57 170 04:23 26.01.2021
3292 Rain 4 1020 87 4000 2.06 220 02:21 26.01.2021
3293 Rain 4 1020 81 4000 1.03 30 00:54 26.01.2021
3294 Rain 4 1020 87 4500 1.54 10 23:36 25.01.2021
3295 Mist 4 1020 81 4500 2.06 300 22:57 25.01.2021
3296 Mist 4 1020 81 5000 7.2 300 22:36 25.01.2021
3297 Clouds 4 1019 87 6000 2.06 200 21:50 25.01.2021
3298 Clouds 4 1019 87 6000 2.06 200 21:26 25.01.2021
3299 Clouds 4 1020 87 6000 1.03 120 20:51 25.01.2021
3300 Clouds 4 1020 87 6000 1.03 120 20:33 25.01.2021
3301 Clouds 3 1020 81 6000 1.54 120 19:51 25.01.2021
3302 Clouds 3 1020 81 6000 1.54 120 19:31 25.01.2021
3303 Clouds 3 1020 81 6000 1.54 120 19:31 25.01.2021
3304 Clouds 3 1021 81 6000 0.41 140 18:49 25.01.2021
3305 Clouds 3 1021 81 6000 1.18 102 18:28 25.01.2021
3306 Clouds 3 1022 81 6000 1.03 320 17:58 25.01.2021
3307 Clouds 3 1022 81 6000 1.03 320 17:39 25.01.2021
3308 Clouds 3 1022 81 6000 1.03 320 17:20 25.01.2021
3309 Clouds 3 1022 87 7000 0.51 350 16:41 25.01.2021
3310 Clouds 3 1022 87 7000 0.51 350 16:21 25.01.2021
3311 Clouds 4 1022 81 8000 1.03 10 15:48 25.01.2021
3312 Clouds 4 1022 81 8000 1.03 10 15:29 25.01.2021
3313 Clouds 4 1022 75 9000 0.51 320 14:46 25.01.2021
3314 Clear 5 1022 81 10000 0.51 350 14:19 25.01.2021
3315 Clear 5 1022 81 10000 0.51 350 13:50 25.01.2021
3316 Clear 5 1022 81 10000 0.51 350 13:28 25.01.2021
3317 Clear 6 1023 70 10000 1.03 20 12:46 25.01.2021
3318 Clear 6 1023 70 10000 1.03 20 12:20 25.01.2021
3319 Clear 7 1023 65 10000 1.03 310 11:47 25.01.2021
3320 Clear 7 1023 65 10000 1.03 310 11:47 25.01.2021
3321 Clear 10 1023 50 10000 2.57 290 11:18 25.01.2021
3322 Clear 10 1023 50 10000 2.57 290 10:40 25.01.2021
3323 Clear 12 1023 50 10000 2.57 290 10:18 25.01.2021
3324 Clear 13 1023 43 10000 1.03 60 09:43 25.01.2021
3325 Clear 13 1023 43 10000 1.03 60 09:25 25.01.2021
3326 Clear 14 1023 35 10000 2.57 100 08:28 25.01.2021
3327 Clear 13 1023 41 10000 2.57 80 07:32 25.01.2021
3328 Clear 13 1024 41 10000 4.12 90 06:55 25.01.2021
3329 Rain 9 1027 61 10000 1.03 360 04:18 25.01.2021
3330 Clear 2 1027 87 10000 1.03 330 01:32 25.01.2021
3331 Clouds -1 1028 93 6000 1.03 290 23:44 24.01.2021
3332 Clouds -1 1028 93 6000 1.03 290 23:19 24.01.2021
3333 Clouds -1 1028 93 7000 1.03 310 22:42 24.01.2021
3334 Clouds -1 1028 93 7000 1.03 310 22:21 24.01.2021
3335 Clouds 0 1028 93 7000 1.54 290 21:48 24.01.2021
3336 Clouds 0 1028 93 7000 1.54 290 21:24 24.01.2021
3337 Clouds 0 1028 93 7000 2.06 310 20:45 24.01.2021
3338 Clouds 0 1028 93 7000 2.06 310 20:22 24.01.2021
3339 Clear 1 1029 86 10000 1.54 20 19:52 24.01.2021
3340 Clear 1 1029 86 10000 1.54 20 19:27 24.01.2021
3341 Clear 0 1028 86 10000 1.54 160 18:58 24.01.2021
3342 Clear 0 1028 86 10000 1.54 160 18:39 24.01.2021
3343 Clear 0 1028 86 10000 1.54 160 18:20 24.01.2021
3344 Clear 1 1028 93 10000 1.03 220 17:50 24.01.2021
3345 Clear 1 1028 93 10000 1.03 220 17:28 24.01.2021
3346 Clear 3 1027 81 10000 1.54 10 16:58 24.01.2021
3347 Clear 3 1027 81 10000 1.54 10 16:38 24.01.2021
3348 Clear 3 1027 81 10000 1.54 10 16:18 24.01.2021
3349 Clear 2 1027 80 10000 1.54 340 15:43 24.01.2021
3350 Clear 3 1026 87 10000 0.51 110 15:18 24.01.2021
3351 Clear 3 1026 87 10000 0.51 110 14:39 24.01.2021
3352 Clear 4 1026 81 10000 1.03 310 13:46 24.01.2021
3353 Clear 4 1026 81 10000 1.03 310 13:26 24.01.2021
3354 Clear 5 1026 70 10000 1.03 350 12:49 24.01.2021
3355 Clear 5 1026 70 10000 1.03 350 12:20 24.01.2021
3356 Clear 6 1027 65 10000 1.03 350 11:51 24.01.2021
3357 Clear 6 1027 65 10000 1.03 350 11:24 24.01.2021
3358 Clear 9 1026 57 10000 3.09 320 10:46 24.01.2021
3359 Clear 9 1026 57 10000 3.09 320 10:46 24.01.2021
3360 Clear 9 1026 57 10000 3.09 320 10:19 24.01.2021
3361 Clear 10 1025 57 10000 3.09 330 09:22 24.01.2021
3362 Clear 13 1025 43 10000 2.57 350 08:57 24.01.2021
3363 Clear 13 1025 43 10000 2.57 350 08:22 24.01.2021
3364 Clear 5 1027 70 10000 0.51 340 02:41 24.01.2021
3365 Clear 2 1026 80 10000 1.03 30 01:49 24.01.2021
3366 Clear -1 1026 86 10000 2.57 10 00:25 24.01.2021
3367 Clear 0 1025 86 10000 1.54 330 23:49 23.01.2021
3368 Clear 0 1025 86 10000 1.54 330 23:26 23.01.2021
3369 Clear 0 1025 86 10000 1.03 340 22:51 23.01.2021
3370 Clear 0 1025 86 10000 1.03 340 22:33 23.01.2021
3371 Clear 1 1024 80 10000 2.06 30 21:52 23.01.2021
3372 Clear 1 1024 80 10000 2.06 30 21:22 23.01.2021
3373 Clear 1 1024 80 10000 1.54 350 20:47 23.01.2021
3374 Clear 1 1024 80 10000 1.54 350 20:25 23.01.2021
3375 Clear 3 1024 75 10000 2.06 20 19:47 23.01.2021
3376 Clear 3 1024 75 10000 2.06 20 19:47 23.01.2021
3377 Clear 3 1024 75 10000 2.06 20 19:23 23.01.2021
3378 Clear 3 1023 75 10000 1.03 330 18:49 23.01.2021
3379 Clear 3 1023 75 10000 1.03 330 18:26 23.01.2021
3380 Clear 4 1023 75 10000 1.54 350 17:48 23.01.2021
3381 Clear 4 1023 75 10000 1.54 350 17:27 23.01.2021
3382 Clear 5 1023 65 10000 2.06 30 16:50 23.01.2021
3383 Clear 5 1023 65 10000 2.06 30 16:28 23.01.2021
3384 Rain 6 1023 57 10000 4.12 100 15:41 23.01.2021
3385 Clear 6 1023 57 10000 4.12 100 15:22 23.01.2021
3386 Clear 7 1022 57 10000 3.09 90 14:33 23.01.2021
3387 Clear 8 1022 53 10000 5.14 100 13:54 23.01.2021
3388 Clear 8 1022 53 10000 5.14 100 13:36 23.01.2021
3389 Clear 8 1021 57 10000 3.09 80 12:57 23.01.2021
3390 Clear 8 1021 57 10000 3.09 80 12:57 23.01.2021
3391 Clear 8 1021 57 10000 3.09 80 12:28 23.01.2021
3392 Clear 9 1020 53 10000 4.63 80 11:47 23.01.2021
3393 Clear 9 1020 53 10000 4.63 80 11:27 23.01.2021
3394 Clear 10 1019 53 10000 4.12 80 10:50 23.01.2021
3395 Clear 10 1019 53 10000 4.12 80 10:21 23.01.2021
3396 Clear 11 1019 50 10000 4.12 70 09:47 23.01.2021
3397 Clear 12 1018 47 10000 4.12 80 08:54 23.01.2021
3398 Clear 12 1018 47 10000 4.12 80 08:31 23.01.2021
3399 Rain 12 1018 47 10000 5.14 80 07:25 23.01.2021
3400 Clear 8 1020 70 10000 2.06 350 03:36 23.01.2021
3401 Clouds 2 1020 87 10000 1.54 320 00:42 23.01.2021
3402 Clouds 1 1020 93 7000 1.54 320 23:41 22.01.2021
3403 Mist 1 1019 100 4500 1.54 340 22:57 22.01.2021
3404 Mist 1 1019 100 4500 1.54 340 22:38 22.01.2021
3405 Mist 2 1019 93 3500 1.54 330 21:46 22.01.2021
3406 Mist 2 1019 93 3500 1.54 330 21:46 22.01.2021
3407 Mist 2 1019 93 2800 1.54 320 21:27 22.01.2021
3408 Mist 2 1019 100 2200 1.03 20 20:57 22.01.2021
3409 Mist 2 1019 100 2200 1.03 20 20:38 22.01.2021
3410 Mist 2 1020 93 2300 2.06 340 19:55 22.01.2021
3411 Mist 2 1020 93 2300 2.06 340 19:22 22.01.2021
3412 Mist 2 1019 100 2000 2.06 320 18:55 22.01.2021
3413 Mist 2 1019 100 2000 2.06 320 18:55 22.01.2021
3414 Mist 2 1019 100 2000 2.06 320 18:30 22.01.2021
3415 Mist 3 1020 93 3000 1.54 310 17:58 22.01.2021
3416 Mist 3 1020 93 3000 1.54 310 17:40 22.01.2021
3417 Mist 3 1019 93 3500 1.54 30 16:59 22.01.2021
3418 Mist 3 1019 93 3500 1.54 30 16:36 22.01.2021
3419 Mist 4 1020 93 3500 1.03 350 15:59 22.01.2021
3420 Mist 4 1020 93 3500 1.03 350 15:26 22.01.2021
3421 Mist 5 1020 87 4000 2.06 20 14:50 22.01.2021
3422 Mist 5 1020 87 4000 2.06 20 14:28 22.01.2021
3423 Mist 5 1020 93 4000 1.54 30 13:46 22.01.2021
3424 Mist 5 1020 93 4000 1.54 30 13:27 22.01.2021
3425 Mist 5 1020 93 4000 2.06 50 12:42 22.01.2021
3426 Mist 5 1020 93 4000 2.06 50 12:19 22.01.2021
3427 Clouds 5 1020 93 6000 2.06 30 11:42 22.01.2021
3428 Clouds 6 1019 87 7000 1.54 350 10:49 22.01.2021
3429 Clouds 6 1019 87 7000 1.54 350 10:29 22.01.2021
3430 Clouds 6 1019 87 7000 1.54 320 09:46 22.01.2021
3431 Clouds 6 1019 87 6000 2.06 330 08:59 22.01.2021
3432 Clouds 6 1019 87 6000 2.06 330 08:32 22.01.2021
3433 Mist 7 1019 81 5000 1.54 90 07:50 22.01.2021
3434 Mist 6 1019 87 4000 2.06 360 05:26 22.01.2021
3435 Mist 4 1020 93 1000 1.54 330 01:54 22.01.2021
3436 Mist 3 1020 100 1000 1.54 330 00:30 22.01.2021
3437 Fog 3 1020 100 800 2.06 360 23:49 21.01.2021
3438 Fog 3 1020 100 800 2.06 360 23:20 21.01.2021
3439 Fog 3 1019 93 500 1.03 310 22:48 21.01.2021
3440 Fog 3 1019 100 700 0.51 350 21:59 21.01.2021
3441 Fog 3 1019 100 700 0.51 350 21:39 21.01.2021
3442 Fog 3 1019 100 700 0.51 350 21:18 21.01.2021
3443 Fog 3 1019 100 500 2.06 320 20:44 21.01.2021
3444 Fog 3 1019 100 500 2.06 320 20:21 21.01.2021
3445 Fog 3 1019 100 400 1.54 310 19:49 21.01.2021
3446 Fog 3 1019 100 400 1.54 310 19:25 21.01.2021
3447 Fog 3 1019 100 500 1.54 330 18:43 21.01.2021
3448 Fog 3 1019 100 500 1.54 330 18:22 21.01.2021
3449 Drizzle 3 1019 100 500 1.54 320 17:57 21.01.2021
3450 Fog 4 1020 93 700 2.57 350 17:22 21.01.2021
3451 Drizzle 3 1020 100 800 1.03 290 16:58 21.01.2021
3452 Drizzle 3 1020 100 800 1.03 290 16:38 21.01.2021
3453 Drizzle 3 1020 100 800 1.03 290 16:20 21.01.2021
3454 Fog 3 1020 100 300 1.03 280 15:47 21.01.2021
3455 Rain 3 1020 100 300 1.03 280 15:24 21.01.2021
3456 Fog 3 1020 100 1000 0.51 120 14:45 21.01.2021
3457 Fog 3 1020 100 1000 0.51 120 14:23 21.01.2021
3458 Rain 4 1021 93 700 1.54 310 13:43 21.01.2021
3459 Fog 4 1021 93 700 1.54 310 13:23 21.01.2021
3460 Fog 4 1021 93 700 1.54 310 13:23 21.01.2021
3461 Fog 4 1021 93 700 1.54 310 13:23 21.01.2021
3462 Rain 4 1021 93 700 1.54 110 12:43 21.01.2021
3463 Rain 4 1021 93 700 1.54 110 12:24 21.01.2021
3464 Rain 4 1021 93 2700 1.03 360 11:51 21.01.2021
3465 Rain 4 1021 93 2700 1.03 360 11:30 21.01.2021
3466 Rain 4 1021 93 2700 1.03 360 11:30 21.01.2021
3467 Rain 4 1021 93 3000 1.54 100 10:52 21.01.2021
3468 Mist 4 1021 93 3000 1.54 100 10:33 21.01.2021
3469 Rain 4 1021 93 4000 1.54 140 09:47 21.01.2021
3470 Rain 4 1021 93 4000 1.54 140 09:26 21.01.2021
3471 Rain 5 1021 81 4500 0.51 150 08:55 21.01.2021
3472 Rain 5 1021 81 4500 0.51 150 08:27 21.01.2021
3473 Rain 5 1021 81 6000 1.54 200 07:43 21.01.2021
3474 Rain 6 1021 81 6000 1.54 200 07:20 21.01.2021
3475 Clouds 7 1022 39 10000 2.06 110 05:24 21.01.2021
3476 Clouds 5 1025 42 10000 1.03 130 02:59 21.01.2021
3477 Clear 4 1025 45 10000 2.06 20 01:21 21.01.2021
3478 Clouds 3 1025 44 10000 2.57 160 23:56 20.01.2021
3479 Clouds 3 1025 44 10000 2.57 160 23:36 20.01.2021
3480 Clouds 2 1026 51 10000 1.03 230 23:18 20.01.2021
3481 Clouds 2 1026 51 10000 1.03 230 22:46 20.01.2021
3482 Clouds 2 1026 51 10000 1.03 230 22:28 20.01.2021
3483 Clouds 1 1026 60 10000 0.51 90 21:43 20.01.2021
3484 Clouds 1 1026 60 10000 0.51 90 21:22 20.01.2021
3485 Clouds 0 1026 60 10000 1.03 200 20:50 20.01.2021
3486 Clouds 0 1027 55 10000 0.51 340 20:19 20.01.2021
3487 Clouds 0 1027 55 10000 0.51 340 19:45 20.01.2021
3488 Clouds 0 1027 55 10000 0.51 340 19:26 20.01.2021
3489 Clouds 0 1027 51 10000 0.51 130 18:42 20.01.2021
3490 Clouds 0 1027 55 10000 2.06 250 18:18 20.01.2021
3491 Clouds 0 1027 55 10000 2.06 250 17:40 20.01.2021
3492 Clouds 0 1027 47 10000 1.09 80 17:19 20.01.2021
3493 Clouds 0 1027 47 10000 1.09 80 16:41 20.01.2021
3494 Clouds -1 1027 47 10000 0.51 280 15:55 20.01.2021
3495 Clouds -1 1027 47 10000 0.51 280 15:36 20.01.2021
3496 Clouds -2 1027 51 10000 1.03 30 14:51 20.01.2021
3497 Clouds -2 1027 51 10000 1.03 30 14:51 20.01.2021
3498 Clouds -2 1027 51 10000 1.03 30 14:25 20.01.2021
3499 Clouds -2 1027 40 10000 0.51 340 13:50 20.01.2021
3500 Clouds -2 1027 40 10000 0.51 340 13:31 20.01.2021
3501 Clear -1 1027 37 10000 1.54 50 12:45 20.01.2021
3502 Clear -1 1027 37 10000 1.54 50 12:20 20.01.2021
3503 Clear -1 1027 37 10000 1.54 150 11:39 20.01.2021
3504 Clear 1 1027 29 10000 1.54 150 10:56 20.01.2021
3505 Clear 2 1027 29 10000 1.54 150 10:34 20.01.2021
3506 Clear 5 1027 21 10000 2.06 170 09:55 20.01.2021
3507 Clear 5 1027 21 10000 2.06 170 09:30 20.01.2021
3508 Clear 7 1028 17 10000 2.57 180 08:58 20.01.2021
3509 Clear 7 1028 17 10000 2.57 180 08:33 20.01.2021
3510 Clear 6 1028 19 10000 2.06 130 07:59 20.01.2021
3511 Clear 6 1028 19 10000 2.06 130 07:37 20.01.2021
3512 Clear 5 1028 21 10000 2.57 100 06:39 20.01.2021
3513 Clear -2 1032 37 10000 1.03 290 03:29 20.01.2021
3514 Clear -8 1032 63 10000 1.54 320 01:20 20.01.2021
3515 Clear -10 1032 79 10000 1.54 320 00:46 20.01.2021
3516 Clear -10 1032 79 10000 1.03 10 23:49 19.01.2021
3517 Clear -10 1032 79 10000 1.03 10 23:27 19.01.2021
3518 Clear -10 1032 73 10000 1.54 330 22:57 19.01.2021
3519 Clear -10 1032 73 10000 1.54 330 22:37 19.01.2021
3520 Clear -10 1032 73 10000 1.54 330 22:19 19.01.2021
3521 Clear -10 1032 73 10000 1.54 360 21:50 19.01.2021
3522 Clear -10 1032 73 10000 1.54 360 21:26 19.01.2021
3523 Clear -10 1032 79 10000 1.54 350 20:44 19.01.2021
3524 Clear -9 1032 79 10000 1.54 350 20:24 19.01.2021
3525 Clear -9 1032 73 10000 1.54 330 19:53 19.01.2021
3526 Clear -9 1032 73 10000 1.54 330 19:28 19.01.2021
3527 Clear -9 1032 67 10000 2.06 330 18:47 19.01.2021
3528 Clear -9 1032 67 10000 2.06 330 18:26 19.01.2021
3529 Clear -9 1032 67 10000 1.03 360 17:46 19.01.2021
3530 Clear -9 1032 67 10000 1.03 360 17:26 19.01.2021
3531 Clear -9 1032 62 10000 1.03 310 16:49 19.01.2021
3532 Clear -8 1032 62 10000 1.03 310 16:26 19.01.2021
3533 Clear -8 1032 57 10000 1.54 340 15:57 19.01.2021
3534 Clear -8 1032 57 10000 1.54 340 15:57 19.01.2021
3535 Clear -8 1032 57 10000 1.54 340 15:37 19.01.2021
3536 Clear -8 1033 45 10000 0.51 350 14:57 19.01.2021
3537 Clear -8 1033 45 10000 0.51 350 14:38 19.01.2021
3538 Clear -8 1033 45 10000 0.51 350 14:18 19.01.2021
3539 Clear -8 1033 49 10000 0.51 320 13:40 19.01.2021
3540 Clear -8 1033 49 10000 0.51 320 13:20 19.01.2021
3541 Clear -7 1033 42 10000 1.54 310 12:42 19.01.2021
3542 Clear -6 1033 42 10000 1.54 310 12:21 19.01.2021
3543 Clear -5 1033 30 10000 2.06 320 11:43 19.01.2021
3544 Clear -5 1033 30 10000 2.06 320 11:23 19.01.2021
3545 Clear -4 1032 24 10000 1.54 330 10:50 19.01.2021
3546 Clear -4 1032 24 10000 1.54 330 10:31 19.01.2021
3547 Clear -2 1032 17 10000 1.54 330 09:52 19.01.2021
3548 Clear -2 1032 17 10000 1.54 330 09:24 19.01.2021
3549 Clear -2 1032 16 10000 1.03 340 08:51 19.01.2021
3550 Clear -1 1032 16 10000 1.03 340 08:18 19.01.2021
3551 Clear -2 1032 13 10000 1.54 10 07:28 19.01.2021
3552 Clear -4 1033 26 10000 1.03 280 04:55 19.01.2021
3553 Clear -9 1033 35 10000 2.57 360 02:24 19.01.2021
3554 Clear -12 1032 56 10000 2.06 340 00:47 19.01.2021
3555 Clear -13 1032 56 10000 2.06 300 23:57 18.01.2021
3556 Clear -13 1032 56 10000 2.06 300 23:29 18.01.2021
3557 Clear -13 1031 56 10000 2.06 300 22:46 18.01.2021
3558 Clear -13 1031 56 10000 2.06 300 22:24 18.01.2021
3559 Clear -13 1030 61 10000 0.51 350 21:49 18.01.2021
3560 Clear -13 1030 61 10000 0.51 350 21:24 18.01.2021
3561 Clear -12 1030 56 10000 2.06 320 20:57 18.01.2021
3562 Clear -12 1030 56 10000 2.06 320 20:35 18.01.2021
3563 Clear -11 1030 52 10000 2.06 350 19:55 18.01.2021
3564 Clear -11 1030 52 10000 2.06 350 19:36 18.01.2021
3565 Clear -10 1029 44 10000 5.66 340 18:57 18.01.2021
3566 Clear -10 1029 44 10000 5.66 340 18:38 18.01.2021
3567 Clear -10 1029 41 10000 3.6 320 18:19 18.01.2021
3568 Clear -9 1029 41 10000 3.6 320 17:39 18.01.2021
3569 Clear -10 1029 44 10000 5.66 320 16:55 18.01.2021
3570 Clear -9 1029 44 10000 5.66 320 16:33 18.01.2021
3571 Clear -8 1028 41 10000 5.66 320 15:56 18.01.2021
3572 Clear -8 1028 41 10000 5.66 320 15:37 18.01.2021
3573 Clear -8 1028 41 10000 5.66 320 15:19 18.01.2021
3574 Clear -7 1028 45 10000 6.17 330 14:42 18.01.2021
3575 Clear -7 1028 45 10000 6.17 330 14:24 18.01.2021
3576 Clear -6 1026 42 10000 6.69 340 13:45 18.01.2021
3577 Clear -6 1026 42 10000 6.69 340 13:22 18.01.2021
3578 Clear -5 1025 45 10000 5.14 330 12:47 18.01.2021
3579 Clear -5 1025 45 10000 5.14 330 12:19 18.01.2021
3580 Clear -5 1024 39 10000 7.72 320 11:48 18.01.2021
3581 Clear -5 1024 39 10000 7.72 320 11:27 18.01.2021
3582 Clear -4 1023 33 10000 8.75 320 10:51 18.01.2021
3583 Clear -4 1023 33 10000 8.75 320 10:30 18.01.2021
3584 Clear -2 1021 29 10000 11.83 330 09:43 18.01.2021
3585 Clear -1 1021 29 10000 11.83 330 09:18 18.01.2021
3586 Clouds 0 1019 29 10000 8.23 330 08:31 18.01.2021
3587 Clouds 0 1018 40 10000 7.72 320 07:55 18.01.2021
3588 Snow 0 1017 59 9000 8.75 340 06:35 18.01.2021
3589 Snow 0 1018 80 3200 0.51 100 04:46 18.01.2021
3590 Snow 0 1018 64 10000 5.66 290 04:27 18.01.2021
3591 Clouds -1 1018 80 7000 2.57 170 03:52 18.01.2021
3592 Snow -1 1018 80 7000 2.57 170 03:29 18.01.2021
3593 Snow -2 1018 80 6000 3.09 160 02:58 18.01.2021
3594 Snow -2 1018 80 10000 2.57 250 02:19 18.01.2021
3595 Clouds -4 1018 86 9000 2.06 190 00:41 18.01.2021
3596 Clouds -4 1018 93 9000 3.6 160 23:57 17.01.2021
3597 Clouds -4 1018 93 9000 3.6 160 23:39 17.01.2021
3598 Clouds -4 1018 93 9000 3.6 160 23:19 17.01.2021
3599 Clouds -4 1019 86 10000 3.09 160 22:24 17.01.2021
3600 Clouds -4 1020 86 10000 3.09 150 21:44 17.01.2021
3601 Clouds -4 1020 86 10000 3.09 150 21:26 17.01.2021
3602 Clouds -5 1021 86 10000 2.57 150 20:54 17.01.2021
3603 Clouds -5 1021 86 10000 2.57 150 20:36 17.01.2021
3604 Snow -6 1021 86 10000 2.57 150 20:18 17.01.2021
3605 Snow -5 1021 86 10000 2.06 150 19:40 17.01.2021
3606 Snow -5 1022 80 10000 1.03 290 18:54 17.01.2021
3607 Snow -5 1022 80 10000 1.03 290 18:29 17.01.2021
3608 Snow -6 1023 93 10000 1.54 180 17:51 17.01.2021
3609 Clouds -6 1023 93 10000 1.54 180 17:29 17.01.2021
3610 Clouds -4 1023 86 10000 0.51 120 16:45 17.01.2021
3611 Clouds -4 1023 86 10000 0.51 120 16:45 17.01.2021
3612 Clouds -4 1023 86 10000 0.51 120 16:25 17.01.2021
3613 Clouds -4 1024 86 10000 1.03 230 15:54 17.01.2021
3614 Clouds -4 1024 86 10000 1.03 230 15:27 17.01.2021
3615 Clouds -4 1024 86 10000 2.06 140 14:59 17.01.2021
3616 Clouds -4 1024 86 10000 2.06 140 14:39 17.01.2021
3617 Clouds -4 1024 86 10000 2.06 140 14:21 17.01.2021
3618 Snow -3 1024 86 10000 2.06 160 13:41 17.01.2021
3619 Mist -3 1025 69 4800 2.06 210 13:23 17.01.2021
3620 Snow -3 1024 74 4000 1.54 200 12:44 17.01.2021
3621 Snow -3 1024 68 10000 1.03 190 12:24 17.01.2021
3622 Clouds -3 1024 63 10000 2.06 160 11:26 17.01.2021
3623 Clouds -3 1025 59 10000 2.57 220 10:52 17.01.2021
3624 Clouds -2 1025 59 10000 2.57 220 10:28 17.01.2021
3625 Clouds -2 1025 50 10000 3.09 230 09:57 17.01.2021
3626 Clouds -2 1025 46 10000 3.09 270 08:59 17.01.2021
3627 Clouds -2 1025 46 10000 3.09 270 08:40 17.01.2021
3628 Clear -4 1029 28 10000 1.03 310 04:32 17.01.2021
3629 Clear -6 1031 45 10000 1.03 320 02:51 17.01.2021
3630 Clear -12 1030 78 10000 0.51 320 00:57 17.01.2021
3631 Clear -12 1030 78 10000 0.51 320 00:21 17.01.2021
3632 Clear -12 1030 78 10000 0.51 310 23:52 16.01.2021
3633 Clear -12 1030 78 10000 0.51 310 23:22 16.01.2021
3634 Clear -11 1030 72 10000 3.79 302 22:53 16.01.2021
3635 Clear -11 1030 72 10000 3.91 303 22:19 16.01.2021
3636 Clear -11 1030 72 10000 0.51 270 21:45 16.01.2021
3637 Clear -11 1030 72 10000 0.51 270 21:22 16.01.2021
3638 Clear -11 1030 72 10000 0.51 210 20:47 16.01.2021
3639 Clear -11 1030 72 10000 0.51 210 20:23 16.01.2021
3640 Clear -10 1031 67 10000 1.54 270 19:48 16.01.2021
3641 Clear -10 1031 67 10000 1.54 270 19:29 16.01.2021
3642 Clear -9 1030 67 10000 1.03 260 18:45 16.01.2021
3643 Clear -9 1030 67 10000 1.03 260 18:26 16.01.2021
3644 Clear -9 1030 52 10000 3.09 300 17:50 16.01.2021
3645 Clear -9 1030 52 10000 3.09 300 17:30 16.01.2021
3646 Clear -8 1029 48 10000 4.63 320 16:50 16.01.2021
3647 Clear -8 1029 48 10000 4.63 320 16:31 16.01.2021
3648 Clear -8 1028 57 10000 3.09 320 15:54 16.01.2021
3649 Clear -8 1028 57 10000 3.09 320 15:33 16.01.2021
3650 Clear -7 1028 53 10000 3.6 320 14:30 16.01.2021
3651 Clear -7 1028 53 10000 3.6 320 14:30 16.01.2021
3652 Clear -7 1028 53 10000 3.6 320 14:30 16.01.2021
3653 Clear -6 1028 45 10000 5.66 350 13:50 16.01.2021
3654 Clear -6 1028 45 10000 5.66 350 13:29 16.01.2021
3655 Clear -5 1028 49 10000 4.12 320 12:46 16.01.2021
3656 Clear -5 1028 49 10000 4.12 320 12:21 16.01.2021
3657 Clear -5 1027 49 10000 3.6 310 11:52 16.01.2021
3658 Clear -5 1027 49 10000 3.6 310 11:25 16.01.2021
3659 Clear -4 1027 54 10000 5.14 280 10:50 16.01.2021
3660 Clear -4 1027 54 10000 5.14 280 10:28 16.01.2021
3661 Clouds -2 1026 46 10000 5.14 270 09:40 16.01.2021
3662 Clouds -2 1026 46 10000 5.14 270 09:19 16.01.2021
3663 Clear -1 1026 46 10000 5.66 270 07:51 16.01.2021
3664 Clear -1 1026 46 10000 4.63 270 06:44 16.01.2021
3665 Clear -2 1026 43 10000 4.63 340 04:40 16.01.2021
3666 Clear -4 1026 63 10000 3.09 350 02:56 16.01.2021
3667 Clear -5 1026 68 9000 2.57 320 01:44 16.01.2021
3668 Clouds -6 1025 79 6000 1.54 280 00:38 16.01.2021
3669 Clouds -6 1025 79 6000 1.54 280 00:19 16.01.2021
3670 Clouds -5 1024 79 6000 3.09 330 23:24 15.01.2021
3671 Clouds -5 1024 79 6000 2.57 320 22:26 15.01.2021
3672 Mist -4 1023 79 4500 3.6 310 21:47 15.01.2021
3673 Mist -4 1023 79 4500 3.6 310 21:22 15.01.2021
3674 Mist -4 1022 86 4500 3.09 320 20:42 15.01.2021
3675 Mist -4 1022 86 4500 3.09 320 20:22 15.01.2021
3676 Mist -3 1022 80 4500 3.09 330 19:41 15.01.2021
3677 Mist -3 1022 80 4500 3.09 330 19:23 15.01.2021
3678 Mist -2 1021 80 4500 2.57 330 18:44 15.01.2021
3679 Mist -2 1021 80 4500 2.57 330 18:44 15.01.2021
3680 Mist -2 1021 80 4500 2.57 330 18:19 15.01.2021
3681 Mist -1 1020 86 4500 2.57 320 17:52 15.01.2021
3682 Mist -1 1020 86 4500 2.57 320 17:26 15.01.2021
3683 Clouds -1 1020 80 6000 3.09 320 16:55 15.01.2021
3684 Clouds 0 1020 80 6000 3.09 320 16:25 15.01.2021
3685 Clouds 1 1019 74 6000 4.12 340 15:43 15.01.2021
3686 Clouds 1 1019 74 6000 4.12 340 15:23 15.01.2021
3687 Clouds 1 1019 74 6000 3.09 270 14:51 15.01.2021
3688 Clouds 2 1019 74 6000 3.09 270 14:28 15.01.2021
3689 Clouds 3 1018 75 8000 4.63 280 13:46 15.01.2021
3690 Rain 3 1018 75 8000 4.63 280 13:24 15.01.2021
3691 Clouds 3 1017 75 8000 5.66 280 12:59 15.01.2021
3692 Clouds 4 1017 75 8000 5.66 280 12:37 15.01.2021
3693 Clouds 4 1016 75 6000 2.06 290 12:18 15.01.2021
3694 Clouds 5 1016 75 6000 2.06 290 11:42 15.01.2021
3695 Clouds 6 1016 81 6000 4.63 290 10:58 15.01.2021
3696 Clouds 6 1016 81 6000 4.63 290 10:39 15.01.2021
3697 Clouds 6 1015 75 6000 6.17 280 10:19 15.01.2021
3698 Clouds 6 1015 75 6000 6.17 280 10:19 15.01.2021
3699 Clouds 6 1015 75 6000 6.17 280 09:46 15.01.2021
3700 Rain 7 1014 81 4000 5.14 270 09:27 15.01.2021
3701 Haze 8 1013 76 4000 5.66 260 08:27 15.01.2021
3702 Haze 9 1012 71 4500 8.23 270 07:41 15.01.2021
3703 Haze 9 1012 71 4500 8.23 270 07:21 15.01.2021
3704 Rain 8 1012 81 10000 7.72 240 05:56 15.01.2021
3705 Clouds 5 1014 66 10000 3.09 180 02:26 15.01.2021
3706 Clouds 3 1015 60 10000 3.09 130 00:32 15.01.2021
3707 Clouds 0 1016 69 10000 3.6 130 23:29 14.01.2021
3708 Clouds 1 1017 69 10000 1.54 190 22:50 14.01.2021
3709 Clouds 1 1016 56 10000 4.12 130 22:27 14.01.2021
3710 Clouds 0 1017 60 10000 3.6 140 21:56 14.01.2021
3711 Clouds 0 1017 60 10000 3.6 140 21:37 14.01.2021
3712 Clouds 0 1017 60 10000 1.03 180 21:19 14.01.2021
3713 Clouds 0 1017 60 10000 1.03 180 20:42 14.01.2021
3714 Clouds -3 1018 74 10000 2.06 200 19:54 14.01.2021
3715 Clouds -3 1018 74 10000 2.06 200 19:35 14.01.2021
3716 Clear -3 1019 74 10000 1.03 320 18:56 14.01.2021
3717 Clear -3 1019 74 10000 1.03 320 18:34 14.01.2021
3718 Clear -2 1019 68 10000 1.03 290 17:54 14.01.2021
3719 Clear -2 1019 68 10000 1.03 290 17:28 14.01.2021
3720 Clear -2 1019 68 10000 2.06 330 16:54 14.01.2021
3721 Clear -3 1019 68 10000 2.06 330 16:27 14.01.2021
3722 Clear -3 1019 68 10000 2.06 330 16:27 14.01.2021
3723 Clear -2 1019 64 10000 0.51 350 15:52 14.01.2021
3724 Clear -3 1019 64 10000 0.51 350 15:27 14.01.2021
3725 Clear -1 1019 59 10000 1.03 210 14:41 14.01.2021
3726 Clear -2 1019 59 10000 1.03 210 14:21 14.01.2021
3727 Clear -1 1019 51 10000 1.54 320 13:54 14.01.2021
3728 Clear -1 1019 51 10000 1.54 320 13:23 14.01.2021
3729 Clear -1 1020 47 10000 1.54 130 12:56 14.01.2021
3730 Clear 0 1020 47 10000 1.54 130 12:21 14.01.2021
3731 Clear 1 1020 41 10000 1.54 70 11:53 14.01.2021
3732 Clear 1 1020 41 10000 1.54 70 11:25 14.01.2021
3733 Clear 2 1020 35 10000 1.54 70 10:57 14.01.2021
3734 Clear 2 1020 35 10000 1.54 70 10:38 14.01.2021
3735 Clear 5 1020 26 10000 2.06 80 10:18 14.01.2021
3736 Clear 6 1020 26 10000 2.06 80 09:42 14.01.2021
3737 Clear 6 1020 26 10000 2.06 80 09:20 14.01.2021
3738 Clear 7 1020 24 10000 3.6 90 08:30 14.01.2021
3739 Clear 7 1021 24 10000 3.6 120 07:53 14.01.2021
3740 Clear 7 1021 24 10000 3.6 120 07:30 14.01.2021
3741 Clear 6 1021 24 10000 5.14 100 06:30 14.01.2021
3742 Clear 3 1023 30 10000 2.06 70 04:24 14.01.2021
3743 Clear -6 1023 79 10000 1.54 20 23:57 13.01.2021
3744 Clear -6 1023 79 10000 1.54 20 23:24 13.01.2021
3745 Clear -6 1023 79 10000 1.03 10 22:43 13.01.2021
3746 Clear -6 1023 79 10000 1.03 10 22:20 13.01.2021
3747 Clear -5 1022 79 10000 1.03 300 21:42 13.01.2021
3748 Clear -5 1022 79 10000 1.03 300 21:19 13.01.2021
3749 Clear -6 1022 73 10000 2.06 290 20:43 13.01.2021
3750 Clear -4 1022 73 10000 2.06 290 20:21 13.01.2021
3751 Clear -3 1021 63 10000 1.54 360 19:46 13.01.2021
3752 Clear -2 1021 63 10000 1.54 360 19:23 13.01.2021
3753 Clear -1 1021 63 9000 0.51 140 18:44 13.01.2021
3754 Clear 0 1021 63 9000 0.51 140 18:22 13.01.2021
3755 Clear 0 1021 54 9000 3.09 350 17:41 13.01.2021
3756 Clear 0 1021 54 9000 3.09 350 17:18 13.01.2021
3757 Clear 0 1020 74 7000 2.57 290 16:36 13.01.2021
3758 Clear 1 1019 69 6000 3.6 300 16:18 13.01.2021
3759 Clear 2 1019 69 6000 3.6 300 15:40 13.01.2021
3760 Dust 1 1018 93 5000 0.51 310 14:56 13.01.2021
3761 Mist 2 1018 93 5000 0.51 310 14:21 13.01.2021
3762 Mist 4 1017 80 5000 3.09 320 13:38 13.01.2021
3763 Mist 4 1017 80 5000 3.09 320 13:18 13.01.2021
3764 Mist 4 1017 80 5000 3.09 320 13:18 13.01.2021
3765 Clear 5 1016 93 6000 2.06 280 12:43 13.01.2021
3766 Clear 5 1016 93 6000 2.06 280 12:22 13.01.2021
3767 Clouds 6 1014 87 6000 2.06 220 11:47 13.01.2021
3768 Clouds 6 1014 87 6000 2.06 220 11:26 13.01.2021
3769 Clouds 7 1014 75 7000 3.6 260 10:46 13.01.2021
3770 Clouds 7 1014 75 7000 3.6 260 10:25 13.01.2021
3771 Clouds 8 1013 71 8000 4.63 230 09:40 13.01.2021
3772 Clouds 8 1013 66 8000 5.14 220 08:57 13.01.2021
3773 Clouds 8 1013 66 8000 5.14 220 08:33 13.01.2021
3774 Clear 7 1012 61 8000 5.66 220 07:56 13.01.2021
3775 Clear 7 1012 61 8000 5.66 220 07:27 13.01.2021
3776 Clear 4 1013 65 7000 4.12 200 04:22 13.01.2021
3777 Clouds 1 1014 70 6000 4.12 140 03:54 13.01.2021
3778 Clouds 1 1014 70 6000 4.12 140 03:33 13.01.2021
3779 Mist 0 1015 80 4800 3.09 210 02:53 13.01.2021
3780 Mist -4 1014 93 5000 3.09 150 00:38 13.01.2021
3781 Mist -5 1014 93 2500 2.57 160 23:33 12.01.2021
3782 Mist -5 1014 100 2300 3.09 150 22:47 12.01.2021
3783 Mist -5 1014 100 2300 3.09 150 22:25 12.01.2021
3784 Mist -5 1014 93 2300 3.09 170 21:54 12.01.2021
3785 Mist -5 1014 93 2300 3.09 170 21:35 12.01.2021
3786 Mist -5 1014 93 2300 3.09 170 21:35 12.01.2021
3787 Mist -6 1014 93 2000 3.09 160 20:57 12.01.2021
3788 Mist -6 1014 93 2000 3.09 160 20:38 12.01.2021
3789 Mist -6 1014 93 2000 3.09 160 20:20 12.01.2021
3790 Fog -6 1015 100 1800 3.6 150 19:39 12.01.2021
3791 Mist -5 1015 93 2000 2.06 150 18:53 12.01.2021
3792 Mist -5 1015 93 2000 2.06 150 18:25 12.01.2021
3793 Mist -3 1015 93 2100 3.6 150 17:57 12.01.2021
3794 Mist -3 1015 93 2100 3.6 150 17:33 12.01.2021
3795 Mist -3 1015 100 2000 2.57 180 16:44 12.01.2021
3796 Mist -3 1015 100 2000 2.57 180 16:26 12.01.2021
3797 Mist -3 1015 93 1600 2.06 160 15:48 12.01.2021
3798 Snow -3 1015 93 1600 2.06 160 15:27 12.01.2021
3799 Snow -3 1015 93 1800 3.6 160 14:49 12.01.2021
3800 Mist -3 1015 93 1800 3.6 160 14:26 12.01.2021
3801 Mist -4 1015 93 2000 2.57 170 13:55 12.01.2021
3802 Mist -4 1015 93 2000 2.57 170 13:36 12.01.2021
3803 Mist -3 1016 93 1600 0.51 200 12:33 12.01.2021
3804 Snow -2 1015 93 1600 3.09 160 11:45 12.01.2021
3805 Snow -2 1015 93 1600 3.09 160 11:26 12.01.2021
3806 Snow -2 1015 93 2500 3.09 170 10:43 12.01.2021
3807 Snow -2 1015 93 2500 2.57 170 10:19 12.01.2021
3808 Snow -2 1015 93 2500 2.57 170 09:52 12.01.2021
3809 Snow -2 1015 93 2500 2.57 170 09:22 12.01.2021
3810 Snow -2 1015 93 1500 1.54 190 08:27 12.01.2021
3811 Snow -1 1015 93 800 2.06 180 07:44 12.01.2021
3812 Snow -1 1015 86 500 3.09 160 07:26 12.01.2021
3813 Snow -1 1016 60 9000 4.12 190 05:40 12.01.2021
3814 Clouds -4 1019 59 9000 4.12 160 03:46 12.01.2021
3815 Clouds -5 1019 59 9000 4.12 160 03:19 12.01.2021
3816 Clouds -9 1019 73 7000 2.57 160 01:43 12.01.2021
3817 Snow -12 1019 85 8000 2.06 180 00:32 12.01.2021
3818 Clouds -12 1019 73 6000 2.06 130 23:40 11.01.2021
3819 Clouds -13 1020 85 6000 1.03 320 23:18 11.01.2021
3820 Clouds -13 1020 85 6000 1.03 320 22:45 11.01.2021
3821 Clouds -13 1020 85 6000 1.03 320 22:27 11.01.2021
3822 Clouds -13 1020 79 7000 1.46 135 21:44 11.01.2021
3823 Clouds -12 1020 79 7000 1.11 131 21:25 11.01.2021
3824 Clouds -12 1020 85 7000 1.03 30 20:50 11.01.2021
3825 Clouds -12 1020 85 7000 1.03 30 20:31 11.01.2021
3826 Clear -11 1021 85 8000 1.54 320 19:59 11.01.2021
3827 Clear -11 1021 85 8000 1.54 320 19:37 11.01.2021
3828 Clouds -11 1021 85 8000 1.54 320 19:19 11.01.2021
3829 Clouds -11 1021 79 9000 1.54 340 18:41 11.01.2021
3830 Clouds -11 1021 79 9000 1.54 340 18:22 11.01.2021
3831 Clear -9 1022 73 10000 0.51 20 17:42 11.01.2021
3832 Clear -9 1022 73 10000 0.51 20 17:23 11.01.2021
3833 Snow -9 1023 73 10000 1.54 10 16:47 11.01.2021
3834 Snow -8 1023 73 10000 1.54 10 16:28 11.01.2021
3835 Snow -10 1023 79 9000 1.03 210 15:50 11.01.2021
3836 Snow -10 1023 79 9000 1.03 210 15:32 11.01.2021
3837 Snow -10 1023 67 10000 0.7 132 14:41 11.01.2021
3838 Snow -10 1023 67 10000 0.23 15 14:22 11.01.2021
3839 Clouds -9 1024 58 10000 2.57 50 13:44 11.01.2021
3840 Clouds -9 1024 58 10000 2.57 50 13:21 11.01.2021
3841 Snow -8 1024 58 10000 2.06 340 12:41 11.01.2021
3842 Snow -7 1024 58 10000 2.06 340 12:22 11.01.2021
3843 Snow -7 1024 50 10000 1.54 350 11:44 11.01.2021
3844 Clear -6 1024 53 10000 0.51 360 10:55 11.01.2021
3845 Clear -6 1024 53 10000 0.51 360 10:32 11.01.2021
3846 Snow -4 1024 42 10000 1.03 220 09:48 11.01.2021
3847 Clear -4 1024 42 10000 1.03 220 09:25 11.01.2021
3848 Clear -4 1024 43 10000 0.51 70 08:47 11.01.2021
3849 Clear -4 1024 43 10000 0.51 70 08:22 11.01.2021
3850 Clear -4 1024 43 10000 1.54 10 07:40 11.01.2021
3851 Snow -4 1024 43 10000 1.54 10 07:19 11.01.2021
3852 Clear -4 1025 50 10000 1.03 60 06:47 11.01.2021
3853 Clouds -11 1029 79 9000 1.54 20 01:53 11.01.2021
3854 Clouds -12 1029 85 9000 1.03 40 00:40 11.01.2021
3855 Clouds -12 1029 79 9000 0.51 10 23:46 10.01.2021
3856 Clouds -13 1029 85 6000 0.51 350 22:49 10.01.2021
3857 Clouds -13 1029 85 6000 0.51 350 22:28 10.01.2021
3858 Clouds -14 1029 85 7000 1.54 250 21:56 10.01.2021
3859 Clouds -14 1029 85 7000 1.54 250 21:36 10.01.2021
3860 Clouds -14 1029 85 7000 1.54 250 21:18 10.01.2021
3861 Clouds -13 1029 85 8000 1.03 310 20:37 10.01.2021
3862 Clouds -13 1029 85 8000 1.03 310 20:19 10.01.2021
3863 Clear -12 1030 73 10000 2.06 350 19:38 10.01.2021
3864 Clear -11 1030 73 10000 2.06 350 19:20 10.01.2021
3865 Clear -11 1030 73 10000 2.57 320 18:43 10.01.2021
3866 Clear -11 1030 73 10000 2.57 320 18:20 10.01.2021
3867 Clear -11 1030 73 10000 1.54 330 17:23 10.01.2021
3868 Clear -10 1030 73 10000 2.06 350 16:46 10.01.2021
3869 Clear -10 1030 73 10000 2.06 350 16:27 10.01.2021
3870 Clear -10 1029 67 10000 2.57 310 15:26 10.01.2021
3871 Clouds -9 1029 67 10000 2.06 330 14:56 10.01.2021
3872 Clouds -9 1029 67 10000 2.06 330 14:38 10.01.2021
3873 Clouds -6 1029 54 10000 1.54 220 13:56 10.01.2021
3874 Clouds -6 1029 54 10000 1.54 220 13:38 10.01.2021
3875 Clouds -5 1029 54 10000 1.54 220 13:20 10.01.2021
3876 Clouds -5 1028 50 10000 1.54 260 12:50 10.01.2021
3877 Clouds -5 1028 50 10000 1.54 260 12:32 10.01.2021
3878 Clouds -5 1028 58 10000 1.54 250 11:48 10.01.2021
3879 Clouds -4 1027 46 10000 2.06 300 11:19 10.01.2021
3880 Clouds -4 1027 46 10000 2.06 300 10:45 10.01.2021
3881 Clouds -4 1027 46 10000 2.06 300 10:22 10.01.2021
3882 Clouds -4 1027 42 10000 1.54 330 09:36 10.01.2021
3883 Clouds -3 1026 36 10000 2.57 40 08:22 10.01.2021
3884 Clouds -3 1026 31 10000 1.54 300 07:33 10.01.2021
3885 Clouds -4 1026 31 10000 1.54 300 06:20 10.01.2021
3886 Clear -4 1027 33 10000 0.51 70 05:38 10.01.2021
3887 Clear -8 1028 35 10000 1.54 120 03:55 10.01.2021
3888 Clear -14 1029 67 10000 1.03 350 01:29 10.01.2021
3889 Clear -17 1028 85 10000 1.54 330 23:55 09.01.2021
3890 Clear -17 1028 85 10000 1.54 330 23:36 09.01.2021
3891 Clear -17 1027 78 10000 1.03 320 22:49 09.01.2021
3892 Clear -17 1027 78 10000 1.03 320 22:19 09.01.2021
3893 Clear -16 1027 78 10000 1.03 10 21:57 09.01.2021
3894 Clear -16 1027 78 10000 1.03 10 21:39 09.01.2021
3895 Clear -17 1027 78 10000 1.03 290 21:19 09.01.2021
3896 Clear -17 1027 78 10000 1.03 290 20:44 09.01.2021
3897 Clear -16 1027 72 10000 1.03 80 19:45 09.01.2021
3898 Clear -16 1027 72 10000 1.03 80 19:24 09.01.2021
3899 Clear -16 1027 78 10000 1.03 280 18:59 09.01.2021
3900 Clear -16 1027 78 10000 1.03 280 18:35 09.01.2021
3901 Clear -15 1027 72 10000 1.54 230 17:50 09.01.2021
3902 Clear -15 1027 72 10000 1.54 230 17:32 09.01.2021
3903 Clear -14 1027 61 10000 1.54 90 16:36 09.01.2021
3904 Clear -13 1027 66 10000 1.54 10 15:53 09.01.2021
3905 Clear -13 1027 66 10000 1.54 10 15:34 09.01.2021
3906 Clear -12 1027 56 10000 2.06 320 14:42 09.01.2021
3907 Clear -12 1027 56 10000 2.06 320 14:21 09.01.2021
3908 Clear -11 1026 56 10000 2.57 340 13:50 09.01.2021
3909 Clear -11 1026 56 10000 2.57 340 13:31 09.01.2021
3910 Clear -10 1026 52 10000 2.06 340 12:59 09.01.2021
3911 Clear -10 1026 52 10000 2.06 340 12:27 09.01.2021
3912 Clear -10 1025 48 10000 3.09 320 11:57 09.01.2021
3913 Clear -10 1025 48 10000 3.09 320 11:35 09.01.2021
3914 Clear -10 1024 44 10000 4.63 310 10:56 09.01.2021
3915 Clear -9 1024 44 10000 4.63 310 10:37 09.01.2021
3916 Clear -9 1024 41 10000 6.17 320 09:59 09.01.2021
3917 Clear -9 1024 41 10000 6.17 320 09:40 09.01.2021
3918 Clear -8 1024 41 10000 6.17 320 09:18 09.01.2021
3919 Clear -8 1023 35 10000 4.63 310 07:43 09.01.2021
3920 Clear -8 1024 38 10000 6.17 320 06:40 09.01.2021
3921 Clouds -9 1025 35 10000 2.06 300 04:54 09.01.2021
3922 Clouds -11 1026 34 10000 1.54 60 03:25 09.01.2021
3923 Clear -13 1025 34 10000 1.03 100 02:38 09.01.2021
3924 Clear -14 1025 34 10000 1.03 100 02:19 09.01.2021
3925 Clear -19 1024 60 10000 1.03 50 00:37 09.01.2021
3926 Clear -18 1024 60 10000 1.03 50 00:19 09.01.2021
3927 Clear -18 1024 60 10000 1.54 80 23:26 08.01.2021
3928 Clear -19 1025 65 10000 1.54 30 22:25 08.01.2021
3929 Clear -19 1025 71 10000 0.51 360 21:46 08.01.2021
3930 Clear -19 1025 65 10000 1.03 210 20:57 08.01.2021
3931 Clear -19 1025 65 10000 1.03 210 20:26 08.01.2021
3932 Clear -18 1025 65 10000 1.54 300 19:55 08.01.2021
3933 Clear -17 1025 65 10000 1.54 300 19:22 08.01.2021
3934 Clear -17 1025 65 10000 1.54 300 19:22 08.01.2021
3935 Clear -16 1025 55 10000 1.54 340 18:36 08.01.2021
3936 Clear -16 1025 55 10000 1.54 340 18:18 08.01.2021
3937 Clear -16 1025 51 10000 0.51 60 17:45 08.01.2021
3938 Clear -16 1025 51 10000 0.51 60 17:22 08.01.2021
3939 Clear -15 1025 51 10000 3.09 40 16:34 08.01.2021
3940 Clear -15 1026 51 10000 5.14 350 15:44 08.01.2021
3941 Clear -14 1025 56 10000 5.14 320 14:56 08.01.2021
3942 Clear -14 1025 56 10000 5.14 320 14:35 08.01.2021
3943 Clear -14 1025 56 10000 4.12 330 13:41 08.01.2021
3944 Clear -14 1025 56 10000 4.12 330 13:18 08.01.2021
3945 Clear -14 1025 56 10000 4.12 330 13:18 08.01.2021
3946 Clear -13 1024 56 10000 5.14 330 12:42 08.01.2021
3947 Clouds -13 1024 43 10000 5.14 330 12:19 08.01.2021
3948 Clouds -13 1024 43 10000 5.14 330 11:42 08.01.2021
3949 Clouds -12 1023 47 10000 3.09 340 11:22 08.01.2021
3950 Clouds -12 1023 47 10000 3.09 340 10:46 08.01.2021
3951 Clouds -12 1023 47 10000 3.09 340 10:24 08.01.2021
3952 Clear -12 1023 40 10000 6.17 310 09:43 08.01.2021
3953 Clear -11 1023 40 10000 6.17 310 09:21 08.01.2021
3954 Clear -11 1023 40 10000 6.69 320 07:56 08.01.2021
3955 Clear -11 1023 40 10000 6.69 320 07:25 08.01.2021
3956 Clear -14 1026 40 10000 5.66 330 04:20 08.01.2021
3957 Clear -19 1027 46 10000 4.12 340 23:45 07.01.2021
3958 Clear -18 1027 46 10000 4.12 340 23:27 07.01.2021
3959 Clear -18 1027 50 10000 4.12 350 22:38 07.01.2021
3960 Clear -18 1027 50 10000 2.57 310 21:53 07.01.2021
3961 Clear -18 1027 50 10000 2.57 310 21:34 07.01.2021
3962 Clear -18 1027 50 10000 3.6 320 20:57 07.01.2021
3963 Clear -17 1027 50 10000 3.6 320 20:38 07.01.2021
3964 Clear -17 1027 46 10000 6.17 310 20:18 07.01.2021
3965 Clear -17 1027 46 10000 6.17 310 19:38 07.01.2021
3966 Clear -16 1027 47 10000 7.2 330 18:50 07.01.2021
3967 Clear -16 1027 47 10000 7.2 330 18:22 07.01.2021
3968 Clear -16 1027 55 10000 4.63 340 17:36 07.01.2021
3969 Clear -16 1027 55 10000 3.09 340 17:18 07.01.2021
3970 Clear -16 1027 55 10000 3.09 340 16:45 07.01.2021
3971 Clear -16 1027 55 10000 3.09 340 16:20 07.01.2021
3972 Clear -15 1026 56 10000 6.17 330 15:31 07.01.2021
3973 Clear -14 1027 56 10000 4.63 340 14:42 07.01.2021
3974 Clear -14 1027 56 10000 4.63 340 14:22 07.01.2021
3975 Clear -15 1027 56 10000 3.6 330 13:31 07.01.2021
3976 Clouds -16 1026 51 10000 0.51 220 12:57 07.01.2021
3977 Clear -14 1027 39 10000 5.26 318 12:29 07.01.2021
3978 Clear -14 1027 39 10000 5.26 318 11:51 07.01.2021
3979 Clear -14 1027 39 10000 5.59 312 11:30 07.01.2021
3980 Clear -14 1026 39 10000 5.59 312 10:47 07.01.2021
3981 Clear -13 1027 35 10000 2.6 280 10:19 07.01.2021
3982 Clear -13 1027 35 10000 2.6 280 10:19 07.01.2021
3983 Clear -13 1027 35 10000 2.6 280 09:42 07.01.2021
3984 Clear -12 1027 35 10000 2.1 330 08:53 07.01.2021
3985 Clear -12 1026 35 10000 6.57 312 08:24 07.01.2021
3986 Clear -12 1026 35 10000 6.57 312 07:43 07.01.2021
3987 Clear -12 1026 35 10000 1.5 250 06:51 07.01.2021
3988 Clear -15 1028 50 10000 3.1 320 03:18 07.01.2021
3989 Clouds -16 1026 59 10000 2.1 310 00:25 07.01.2021
3990 Clouds -15 1026 54 10000 2.6 280 23:35 06.01.2021
3991 Clouds -15 1025 54 10000 2.6 310 22:36 06.01.2021
3992 Snow -14 1024 55 9000 4.6 320 21:42 06.01.2021
3993 Clear -14 1024 55 10000 3.1 320 21:22 06.01.2021
3994 Clear -14 1024 55 10000 3.1 320 20:50 06.01.2021
3995 Clear -13 1023 50 10000 7.37 309 20:22 06.01.2021
3996 Clear -13 1023 50 10000 7.37 309 19:48 06.01.2021
3997 Clear -13 1023 50 10000 8.09 309 19:29 06.01.2021
3998 Snow -11 1023 51 10000 2.6 300 18:50 06.01.2021
3999 Clouds -10 1022 56 10000 2.1 300 18:31 06.01.2021
4000 Snow -10 1021 72 10000 4.6 310 17:47 06.01.2021
4001 Clouds -9 1020 72 10000 8.38 313 17:28 06.01.2021
4002 Clouds -8 1020 72 10000 8.38 313 16:57 06.01.2021
4003 Snow -7 1018 85 6000 1.5 310 16:21 06.01.2021
4004 Snow -7 1018 85 6000 1.5 310 15:59 06.01.2021
4005 Snow -6 1017 73 10000 2.6 330 15:39 06.01.2021
4006 Snow -5 1017 85 6000 7.85 298 15:21 06.01.2021
4007 Snow -4 1016 73 8000 2.6 310 14:31 06.01.2021
4008 Snow -5 1017 100 6000 7.27 287 13:52 06.01.2021
4009 Snow -5 1018 92 3000 5.53 287 13:26 06.01.2021
4010 Snow -6 1017 100 2400 1.76 253 12:55 06.01.2021
4011 Snow -6 1017 100 2400 1.76 253 12:30 06.01.2021
4012 Mist -6 1019 92 1000 1.5 190 11:44 06.01.2021
4013 Snow -4 1019 27 10000 1.5 220 11:21 06.01.2021
4014 Snow -4 1019 21 10000 2.6 190 10:35 06.01.2021
4015 Clear -3 1020 19 10000 2.1 190 09:52 06.01.2021
4016 Clear -3 1021 19 10000 2.15 148 09:22 06.01.2021
4017 Clear -3 1021 19 10000 2.15 148 08:42 06.01.2021
4018 Clear -3 1022 21 10000 0.63 253 08:18 06.01.2021
4019 Clear -3 1022 21 10000 1.46 303 07:41 06.01.2021
4020 Clear -4 1024 32 10000 1.99 303 05:53 06.01.2021
4021 Clear -5 1026 41 10000 2.57 316 04:43 06.01.2021
4022 Clear -7 1028 44 10000 2.1 230 02:47 06.01.2021
4023 Clear -7 1028 44 10000 2.1 230 02:26 06.01.2021
4024 Clear -9 1028 56 10000 2.03 309 01:35 06.01.2021
4025 Clear -13 1027 65 10000 1.67 306 23:39 05.01.2021
4026 Clear -12 1027 60 10000 1.87 313 22:51 05.01.2021
4027 Clear -11 1028 51 10000 1.87 313 22:32 05.01.2021
4028 Clear -11 1028 51 10000 2.42 314 21:58 05.01.2021
4029 Clear -11 1028 56 10000 2.87 316 21:18 05.01.2021
4030 Clear -10 1029 61 10000 3.13 313 20:29 05.01.2021
4031 Clear -10 1029 61 10000 3.13 313 19:45 05.01.2021
4032 Clear -10 1029 61 10000 2.88 308 19:24 05.01.2021
4033 Clear -10 1029 56 10000 2.88 308 18:47 05.01.2021
4034 Clear -10 1029 47 10000 2.6 306 18:28 05.01.2021
4035 Clear -10 1029 47 10000 2.6 306 17:53 05.01.2021
4036 Clear -9 1029 47 10000 2.69 302 17:31 05.01.2021
4037 Clear -9 1029 47 10000 2.69 302 16:53 05.01.2021
4038 Clear -9 1029 47 10000 2.69 302 16:53 05.01.2021
4039 Clear -9 1029 44 10000 2.81 305 16:23 05.01.2021
4040 Clear -9 1029 44 10000 2.81 305 15:58 05.01.2021
4041 Clear -9 1029 44 10000 2.81 305 15:34 05.01.2021
4042 Clear -8 1029 37 10000 3.01 304 14:47 05.01.2021
4043 Clear -8 1030 37 10000 3.07 309 13:55 05.01.2021
4044 Clear -8 1030 37 10000 3.07 309 13:36 05.01.2021
4045 Clear -7 1030 34 10000 1.5 310 12:52 05.01.2021
4046 Clear -7 1030 34 10000 1.5 310 12:29 05.01.2021
4047 Clear -6 1030 31 10000 3.49 310 11:53 05.01.2021
4048 Clear -6 1029 29 10000 1.5 300 11:27 05.01.2021
4049 Clear -6 1029 29 10000 1.5 300 11:26 05.01.2021
4050 Clear -6 1029 29 10000 1.5 300 11:26 05.01.2021
4051 Clear -6 1029 29 10000 1.5 300 10:44 05.01.2021
4052 Clear -4 1028 27 10000 2.1 330 09:59 05.01.2021
4053 Clear -4 1028 27 10000 2.1 330 09:40 05.01.2021
4054 Clear -3 1029 29 10000 4.69 318 08:45 05.01.2021
4055 Clear -3 1029 27 10000 1.5 300 08:18 05.01.2021
4056 Clear -3 1030 23 10000 1.5 310 05:29 05.01.2021
4057 Clear -4 1032 38 10000 2.1 330 02:56 05.01.2021
4058 Clouds -5 1031 79 10000 2.6 290 00:23 05.01.2021
4059 Clouds -5 1030 79 10000 1.5 320 23:40 04.01.2021
4060 Clouds -4 1029 73 10000 2.1 300 23:21 04.01.2021
4061 Clouds -4 1029 73 10000 2.1 300 22:45 04.01.2021
4062 Clouds -3 1028 73 10000 2.6 320 21:57 04.01.2021
4063 Clouds -3 1028 79 10000 3.24 310 21:39 04.01.2021
4064 Clouds -3 1028 74 10000 1.5 320 20:58 04.01.2021
4065 Clouds -3 1028 74 10000 1.5 320 20:34 04.01.2021
4066 Clouds -3 1028 79 10000 2.49 330 19:59 04.01.2021
4067 Clouds -3 1028 79 10000 2.49 330 19:38 04.01.2021
4068 Clouds -2 1028 79 10000 1.86 342 19:18 04.01.2021
4069 Clouds -2 1028 79 10000 1.54 339 18:40 04.01.2021
4070 Clouds -2 1028 74 10000 1.45 6 17:47 04.01.2021
4071 Clouds -2 1029 74 10000 1.89 18 17:28 04.01.2021
4072 Clouds -2 1028 68 10000 2.6 20 16:48 04.01.2021
4073 Clouds -2 1028 68 10000 2.6 20 16:28 04.01.2021
4074 Clouds -1 1028 68 10000 2.59 12 15:52 04.01.2021
4075 Clouds -1 1028 68 10000 2.59 12 15:52 04.01.2021
4076 Clouds 0 1028 94 10000 2.59 12 15:34 04.01.2021
4077 Snow 0 1028 92 10000 2.38 23 14:52 04.01.2021
4078 Clouds -1 1028 91 10000 2.31 20 13:53 04.01.2021
4079 Snow -1 1028 91 10000 2.31 20 13:34 04.01.2021
4080 Snow 0 1028 86 10000 2.15 28 12:50 04.01.2021
4081 Snow 0 1028 84 10000 1.62 66 12:25 04.01.2021
4082 Clouds 0 1028 84 10000 1.62 66 11:31 04.01.2021
4083 Clouds -1 1028 50 10000 1.06 60 10:54 04.01.2021
4084 Clouds 0 1029 79 10000 1.6 74 10:29 04.01.2021
4085 Clouds 0 1029 79 10000 1.6 74 09:58 04.01.2021
4086 Clouds 0 1029 78 10000 1.32 47 09:22 04.01.2021
4087 Clouds 0 1029 78 10000 1.32 47 08:47 04.01.2021
4088 Clouds 0 1030 73 10000 0.63 37 08:18 04.01.2021
4089 Clouds 0 1030 73 10000 0.63 37 07:42 04.01.2021
4090 Clouds -1 1030 39 10000 1.5 100 05:33 04.01.2021
4091 Clear -1 1032 39 10000 0.92 76 04:30 04.01.2021
4092 Clear -10 1033 56 10000 0.91 61 00:47 04.01.2021
4093 Clear -10 1033 57 10000 0.89 65 23:49 03.01.2021
4094 Clear -10 1033 61 10000 1.06 77 23:24 03.01.2021
4095 Clear -10 1033 61 10000 1.06 77 22:56 03.01.2021
4096 Clear -10 1033 61 10000 1.06 77 22:32 03.01.2021
4097 Clear -10 1034 61 10000 0.8 91 21:55 03.01.2021
4098 Clear -10 1034 61 10000 0.6 43 21:29 03.01.2021
4099 Clear -10 1034 61 10000 0.6 43 20:49 03.01.2021
4100 Clear -10 1034 61 10000 0.36 322 20:31 03.01.2021
4101 Clear -10 1034 61 10000 0.36 322 19:56 03.01.2021
4102 Clear -10 1034 61 10000 0.36 322 19:35 03.01.2021
4103 Clear -10 1034 61 10000 0.66 356 18:57 03.01.2021
4104 Clear -10 1034 61 10000 0.67 7 18:38 03.01.2021
4105 Clear -9 1034 52 10000 0.92 355 18:18 03.01.2021
4106 Clear -9 1034 52 10000 0.92 355 17:41 03.01.2021
4107 Clear -8 1034 48 10000 1.14 350 17:22 03.01.2021
4108 Clear -8 1034 48 10000 1.14 350 16:42 03.01.2021
4109 Clear -7 1033 48 10000 1.29 341 16:19 03.01.2021
4110 Clear -7 1033 48 10000 1.29 341 15:46 03.01.2021
4111 Clouds -7 1034 52 10000 1 332 15:26 03.01.2021
4112 Clouds -7 1034 52 10000 1 332 14:50 03.01.2021
4113 Clouds -7 1034 52 10000 0.68 309 14:27 03.01.2021
4114 Clouds -7 1034 44 10000 0.68 309 13:40 03.01.2021
4115 Clear -5 1034 38 10000 0.9 298 13:21 03.01.2021
4116 Clear -4 1033 38 10000 1.89 304 12:24 03.01.2021
4117 Clear -4 1033 38 10000 1.89 304 11:40 03.01.2021
4118 Clear -4 1033 38 10000 2.34 315 11:22 03.01.2021
4119 Clear -3 1033 30 10000 2.73 321 10:34 03.01.2021
4120 Clear -2 1033 30 10000 2.73 321 09:55 03.01.2021
4121 Clear -2 1033 30 10000 3.17 316 09:33 03.01.2021
4122 Clouds -2 1033 28 10000 3.17 316 08:34 03.01.2021
4123 Clouds -1 1033 23 10000 4.04 303 07:24 03.01.2021
4124 Clouds -2 1034 30 10000 1.5 200 05:23 03.01.2021
4125 Clear -7 1035 57 10000 1.89 315 02:26 03.01.2021
4126 Clear -11 1034 66 10000 1.6 318 00:54 03.01.2021
4127 Clear -10 1034 61 10000 1.18 298 23:53 02.01.2021
4128 Clear -11 1034 61 10000 1.55 295 23:20 02.01.2021
4129 Clear -11 1034 61 10000 1.55 295 22:48 02.01.2021
4130 Clear -11 1034 61 10000 1.8 302 22:29 02.01.2021
4131 Clear -9 1033 44 10000 1.8 302 21:49 02.01.2021
4132 Clear -9 1034 44 10000 2.09 306 21:29 02.01.2021
4133 Clear -9 1034 44 10000 2.09 306 20:45 02.01.2021
4134 Clear -9 1034 44 10000 3.13 323 20:25 02.01.2021
4135 Clear -8 1034 44 10000 3.13 323 19:47 02.01.2021
4136 Clear -7 1034 44 10000 3.69 315 19:20 02.01.2021
4137 Clear -7 1033 44 10000 2.47 317 18:47 02.01.2021
4138 Clear -7 1033 41 10000 3 304 18:29 02.01.2021
4139 Clear -7 1033 41 10000 3 304 17:46 02.01.2021
4140 Clear -6 1032 37 10000 3.24 311 17:28 02.01.2021
4141 Clear -6 1032 37 10000 3.24 311 16:44 02.01.2021
4142 Clear -6 1031 38 10000 3.51 318 16:21 02.01.2021
4143 Clear -6 1031 38 10000 3.51 318 15:44 02.01.2021
4144 Clear -6 1031 38 10000 3.48 318 15:25 02.01.2021
4145 Clear -6 1031 38 10000 3.48 318 14:39 02.01.2021
4146 Clear -5 1031 35 10000 2.1 300 14:21 02.01.2021
4147 Clear -5 1031 35 10000 2.1 300 13:40 02.01.2021
4148 Clear -4 1031 45 10000 1.5 230 12:54 02.01.2021
4149 Clear -4 1031 45 10000 1.5 230 12:32 02.01.2021
4150 Clear -3 1030 45 10000 4.12 309 11:59 02.01.2021
4151 Clear -3 1030 38 10000 3.98 306 11:25 02.01.2021
4152 Clear -3 1030 38 10000 3.98 306 10:58 02.01.2021
4153 Clear -3 1030 38 10000 3.98 306 10:33 02.01.2021
4154 Clear -2 1029 33 10000 3.78 303 09:56 02.01.2021
4155 Clear -2 1029 33 10000 3.39 305 09:29 02.01.2021
4156 Clear -2 1029 28 10000 2.6 340 08:53 02.01.2021
4157 Clear -2 1029 28 10000 2.6 340 08:34 02.01.2021
4158 Clear -1 1028 26 10000 3.69 309 07:53 02.01.2021
4159 Clear -1 1028 23 10000 1.5 290 07:22 02.01.2021
4160 Clear -1 1028 23 10000 1.5 290 06:52 02.01.2021
4161 Clear -1 1029 25 10000 3.9 303 05:45 02.01.2021
4162 Clear -8 1028 37 10000 2.24 294 00:59 02.01.2021
4163 Clear -8 1028 37 10000 2.34 295 00:37 02.01.2021
4164 Clear -7 1027 29 10000 2.18 296 23:57 01.01.2021
4165 Clear -7 1027 29 10000 2.1 310 23:22 01.01.2021
4166 Clear -7 1027 29 10000 2.1 310 22:48 01.01.2021
4167 Clear -7 1026 41 10000 2.76 310 22:26 01.01.2021
4168 Clear -7 1026 41 10000 2.76 310 21:44 01.01.2021
4169 Clear -6 1026 35 10000 3.11 315 21:22 01.01.2021
4170 Clear -6 1026 35 10000 3.11 315 20:54 01.01.2021
4171 Clear -6 1026 38 10000 3.29 319 20:22 01.01.2021
4172 Clear -6 1026 38 10000 3.29 319 19:59 01.01.2021
4173 Clear -6 1026 38 10000 3.29 319 19:40 01.01.2021
4174 Clear -4 1026 32 10000 3.46 322 19:20 01.01.2021
4175 Clear -4 1026 32 10000 3.46 322 18:41 01.01.2021
4176 Clear -4 1025 30 10000 2.7 321 18:20 01.01.2021
4177 Clear -4 1025 30 10000 2.7 321 17:42 01.01.2021
4178 Clear -4 1025 42 10000 1.5 320 17:22 01.01.2021
4179 Clear -4 1025 42 10000 1.5 320 16:45 01.01.2021
4180 Clouds -3 1025 46 10000 1.98 331 15:57 01.01.2021
4181 Clouds -3 1025 46 10000 1.98 331 15:39 01.01.2021
4182 Clouds -2 1025 58 10000 1.86 326 14:42 01.01.2021
4183 Clouds -2 1025 74 10000 1.66 306 14:19 01.01.2021
4184 Clouds -2 1025 74 10000 1.66 306 13:37 01.01.2021
4185 Clouds -3 1024 79 10000 1.55 295 12:48 01.01.2021
4186 Clouds -2 1024 68 10000 1.22 286 12:25 01.01.2021
4187 Clouds -2 1024 68 10000 1.22 286 11:40 01.01.2021
4188 Clouds -1 1024 63 10000 1.19 317 11:18 01.01.2021
4189 Clouds -1 1024 63 10000 1.19 317 10:51 01.01.2021
4190 Clouds 0 1024 84 10000 1.15 316 09:51 01.01.2021
4191 Clouds 0 1024 84 10000 2.1 310 09:23 01.01.2021
4192 Clouds 1 1024 84 10000 1.5 220 08:30 01.01.2021
4193 Clouds 0 1024 76 10000 1.47 286 05:50 01.01.2021
4194 Clouds -2 1025 54 10000 1.21 280 04:47 01.01.2021
4195 Clear -7 1026 73 10000 0.34 5 01:39 01.01.2021
4196 Clouds -10 1026 85 10000 0.95 337 00:32 01.01.2021
4197 Clouds -9 1026 78 10000 1.17 352 23:38 31.12.2020
4198 Clouds -10 1026 78 10000 1.45 348 23:20 31.12.2020
4199 Clouds -10 1026 78 10000 1.45 348 22:41 31.12.2020
4200 Clouds -11 1026 78 10000 1.32 341 22:21 31.12.2020
4201 Clouds -11 1026 78 10000 1.32 341 21:50 31.12.2020
4202 Clouds -11 1026 78 10000 0.44 321 21:31 31.12.2020
4203 Clear -11 1027 78 10000 0.44 321 20:57 31.12.2020
4204 Clear -10 1027 72 10000 0.11 306 20:24 31.12.2020
4205 Clear -10 1027 72 10000 0.11 306 19:49 31.12.2020
4206 Clear -10 1027 72 10000 0.11 306 19:31 31.12.2020
4207 Clear -10 1027 72 10000 1 317 18:50 31.12.2020
4208 Clear -9 1027 72 10000 1.93 313 18:25 31.12.2020
4209 Clear -8 1027 61 10000 1.93 313 17:46 31.12.2020
4210 Clear -7 1027 62 10000 2.88 310 17:25 31.12.2020
4211 Clear -7 1027 62 10000 2.88 310 16:45 31.12.2020
4212 Clear -7 1027 57 10000 3.44 307 16:27 31.12.2020
4213 Clear -7 1027 57 10000 3.44 307 15:57 31.12.2020
4214 Clear -7 1027 57 10000 3.44 307 15:38 31.12.2020
4215 Clear -7 1026 57 10000 1.5 310 15:18 31.12.2020
4216 Clear -7 1026 57 10000 1.5 310 14:40 31.12.2020
4217 Clear -7 1026 53 10000 4.39 310 14:21 31.12.2020
4218 Clear -7 1026 53 10000 4.39 310 13:42 31.12.2020
4219 Clear -7 1025 48 10000 4.67 306 13:24 31.12.2020
4220 Clear -7 1025 48 10000 4.67 306 12:55 31.12.2020
4221 Clear -7 1025 48 10000 4.63 310 12:37 31.12.2020
4222 Clear -6 1025 53 10000 4.67 307 11:53 31.12.2020
4223 Clear -6 1025 53 10000 4.67 307 11:32 31.12.2020
4224 Clear -6 1024 45 10000 4.34 302 10:50 31.12.2020
4225 Clouds -6 1024 45 10000 3.86 299 10:30 31.12.2020
4226 Clouds -5 1024 45 10000 3.86 299 09:58 31.12.2020
4227 Clouds -5 1024 45 10000 3.86 299 09:39 31.12.2020
4228 Clouds -5 1024 45 10000 1.5 310 09:20 31.12.2020
4229 Clouds -5 1024 45 10000 1.5 310 08:45 31.12.2020
4230 Clouds -5 1024 41 10000 3.49 295 08:27 31.12.2020
4231 Clouds -5 1024 41 10000 3.49 295 07:51 31.12.2020
4232 Clouds -5 1024 41 10000 3.45 292 06:46 31.12.2020
4233 Clouds -6 1024 41 10000 1.5 190 05:29 31.12.2020
4234 Clear -8 1027 40 10000 3.52 302 02:59 31.12.2020
4235 Clear -9 1027 43 10000 3.15 309 02:26 31.12.2020
4236 Clear -10 1027 43 10000 3.15 309 01:48 31.12.2020
4237 Clear -10 1027 47 10000 1.5 320 01:28 31.12.2020
4238 Clear -11 1027 47 10000 1.5 320 00:48 31.12.2020
4239 Clear -11 1027 47 10000 2.1 320 23:53 30.12.2020
4240 Clear -12 1026 47 10000 3.92 316 23:20 30.12.2020
4241 Clear -12 1026 47 10000 3.92 316 22:51 30.12.2020
4242 Clear -12 1026 47 10000 3.92 316 22:31 30.12.2020
4243 Clear -12 1027 47 10000 3.82 316 21:47 30.12.2020
4244 Clear -12 1027 43 10000 3.94 312 21:25 30.12.2020
4245 Clear -12 1027 43 10000 3.94 312 20:51 30.12.2020
4246 Clear -12 1027 46 10000 2.1 300 20:22 30.12.2020
4247 Clear -12 1027 46 10000 2.1 300 19:42 30.12.2020
4248 Clear -12 1027 39 10000 4.56 315 19:23 30.12.2020
4249 Clear -12 1027 39 10000 4.56 315 18:49 30.12.2020
4250 Clear -12 1027 39 10000 2.1 290 18:30 30.12.2020
4251 Clear -12 1027 39 10000 2.1 290 17:52 30.12.2020
4252 Clear -12 1027 46 10000 4.7 312 17:33 30.12.2020
4253 Clear -12 1027 46 10000 4.7 312 16:58 30.12.2020
4254 Clear -12 1027 46 10000 4.7 312 16:33 30.12.2020
4255 Clear -12 1026 46 10000 5.17 313 15:48 30.12.2020
4256 Clear -12 1026 51 10000 2.1 320 15:25 30.12.2020
4257 Clear -12 1026 51 10000 2.1 320 14:44 30.12.2020
4258 Clear -12 1026 55 10000 6.33 316 14:24 30.12.2020
4259 Clear -12 1026 55 10000 6.33 316 13:42 30.12.2020
4260 Clear -11 1025 51 10000 6.1 311 12:43 30.12.2020
4261 Clear -10 1024 47 10000 2.6 310 12:21 30.12.2020
4262 Clear -10 1024 47 10000 2.6 310 11:36 30.12.2020
4263 Clear -10 1023 47 10000 1.5 310 11:18 30.12.2020
4264 Clear -10 1023 47 10000 1.5 310 10:49 30.12.2020
4265 Clear -10 1023 40 10000 2.6 330 10:27 30.12.2020
4266 Clear -9 1023 40 10000 2.6 330 09:50 30.12.2020
4267 Clear -8 1022 40 10000 2.6 320 09:28 30.12.2020
4268 Clear -8 1022 40 10000 2.1 310 08:28 30.12.2020
4269 Clear -8 1022 40 10000 2.1 310 07:29 30.12.2020
4270 Clear -9 1022 40 10000 3.6 310 06:52 30.12.2020
4271 Clear -9 1022 40 10000 3.6 310 06:30 30.12.2020
4272 Clear -9 1022 43 10000 6.79 303 05:43 30.12.2020
4273 Clear -9 1022 43 10000 6.63 303 05:24 30.12.2020
4274 Clear -11 1023 51 10000 2.6 300 03:28 30.12.2020
4275 Clear -11 1023 51 10000 2.6 300 02:40 30.12.2020
4276 Clouds -11 1023 56 10000 2.1 300 01:56 30.12.2020
4277 Clouds -11 1023 56 10000 2.1 300 01:32 30.12.2020
4278 Clouds -12 1023 60 10000 5.98 308 00:48 30.12.2020
4279 Clouds -12 1023 60 10000 6.22 308 00:29 30.12.2020
4280 Clouds -11 1022 61 10000 6.22 308 23:54 29.12.2020
4281 Clouds -11 1022 61 10000 6.22 308 23:35 29.12.2020
4282 Clouds -11 1021 56 10000 6.44 306 22:56 29.12.2020
4283 Clouds -11 1021 56 10000 6.44 306 22:37 29.12.2020
4284 Clear -10 1021 61 10000 1.5 300 22:19 29.12.2020
4285 Clear -10 1021 61 10000 1.5 300 21:44 29.12.2020
4286 Clouds -9 1021 56 10000 2.6 300 21:24 29.12.2020
4287 Clouds -9 1021 56 10000 2.1 320 20:45 29.12.2020
4288 Clear -8 1021 57 10000 2.6 310 20:25 29.12.2020
4289 Clear -8 1021 57 10000 2.6 310 19:47 29.12.2020
4290 Clear -8 1021 57 10000 2.6 310 19:23 29.12.2020
4291 Clear -8 1021 57 10000 1.5 290 18:54 29.12.2020
4292 Clear -7 1021 53 10000 6.37 309 18:29 29.12.2020
4293 Clear -6 1021 53 10000 6.37 309 17:55 29.12.2020
4294 Clear -6 1021 53 10000 6.37 309 17:36 29.12.2020
4295 Clouds -6 1021 49 10000 6.3 308 17:18 29.12.2020
4296 Clouds -6 1020 45 10000 1.5 300 16:34 29.12.2020
4297 Clouds -5 1020 45 10000 1.5 300 15:52 29.12.2020
4298 Clouds -5 1020 49 10000 1.5 240 15:33 29.12.2020
4299 Clouds -4 1020 49 10000 1.5 240 14:45 29.12.2020
4300 Clouds -3 1020 49 10000 1.5 290 14:27 29.12.2020
4301 Clouds -3 1020 49 10000 1.5 290 13:56 29.12.2020
4302 Clouds -2 1021 54 10000 2.1 310 13:25 29.12.2020
4303 Snow -2 1021 54 10000 2.1 310 12:45 29.12.2020
4304 Clouds -1 1021 83 10000 5.2 301 12:26 29.12.2020
4305 Clouds -1 1021 83 10000 5.2 301 12:26 29.12.2020
4306 Clouds -1 1021 83 10000 5.2 301 11:59 29.12.2020
4307 Snow -1 1020 85 10000 4.6 301 11:32 29.12.2020
4308 Snow 0 1020 85 10000 4.6 301 10:52 29.12.2020
4309 Clouds 1 1021 69 10000 2.1 300 10:20 29.12.2020
4310 Snow 1 1021 69 10000 1.5 250 09:40 29.12.2020
4311 Clouds 1 1021 80 10000 3.97 315 09:18 29.12.2020
4312 Clouds 2 1020 74 10000 3.97 315 08:47 29.12.2020
4313 Mist 2 1020 86 8000 1.5 290 07:40 29.12.2020
4314 Mist 2 1021 91 6000 4.3 318 06:58 29.12.2020
4315 Clouds 3 1021 64 10000 1.5 280 05:40 29.12.2020
4316 Haze 2 1022 75 9000 1.86 326 01:58 29.12.2020
4317 Mist 0 1023 81 9000 1.16 330 00:24 29.12.2020
4318 Mist 0 1022 80 8000 0.89 314 23:37 28.12.2020
4319 Mist -1 1022 80 8000 0.89 314 22:44 28.12.2020
4320 Mist -1 1023 100 8000 0.58 327 21:51 28.12.2020
4321 Mist -1 1023 100 8000 0.11 264 21:30 28.12.2020
4322 Rain -1 1023 79 9000 0.11 264 20:50 28.12.2020
4323 Rain -1 1023 79 9000 0.11 264 20:50 28.12.2020
4324 Mist -1 1023 78 9000 0.28 48 20:31 28.12.2020
4325 Mist -1 1023 100 9000 0.28 48 19:59 28.12.2020
4326 Mist -1 1023 100 9000 0.28 48 19:41 28.12.2020
4327 Clear 0 1023 76 10000 0.29 4 19:21 28.12.2020
4328 Clear 0 1023 76 10000 0.29 4 18:48 28.12.2020
4329 Clouds 0 1023 76 10000 0.57 28 18:26 28.12.2020
4330 Clouds 0 1023 76 10000 0.57 28 17:41 28.12.2020
4331 Clouds 1 1023 74 10000 0.86 346 17:18 28.12.2020
4332 Clouds 1 1023 72 10000 0.54 357 16:32 28.12.2020
4333 Clouds 2 1023 72 10000 0.54 357 15:58 28.12.2020
4334 Clouds 2 1023 72 10000 0.54 357 15:38 28.12.2020
4335 Clear 3 1023 71 10000 0.86 77 14:43 28.12.2020
4336 Clouds 3 1023 69 10000 0.77 54 13:51 28.12.2020
4337 Clouds 5 1023 66 10000 0.94 358 13:23 28.12.2020
4338 Clouds 5 1023 67 10000 0.67 21 12:38 28.12.2020
4339 Clouds 7 1023 61 10000 0.89 30 12:18 28.12.2020
4340 Clouds 7 1023 61 10000 0.89 30 11:42 28.12.2020
4341 Clouds 7 1023 45 10000 1.5 280 11:18 28.12.2020
4342 Clouds 7 1023 45 10000 1.5 280 10:38 28.12.2020
4343 Clear 9 1023 46 10000 0.78 355 10:19 28.12.2020
4344 Clear 9 1023 46 10000 0.78 355 09:38 28.12.2020
4345 Clear 11 1022 34 10000 0.94 283 09:18 28.12.2020
4346 Clear 11 1023 53 10000 0.37 269 06:55 28.12.2020
4347 Haze 10 1023 61 9000 0.86 236 05:34 28.12.2020
4348 Haze 7 1024 81 8000 0.65 149 03:53 28.12.2020
4349 Mist 3 1024 100 6000 1.01 99 01:56 28.12.2020
4350 Mist 3 1023 100 6000 0.83 85 23:58 27.12.2020
4351 Mist 3 1023 100 6000 0.83 85 23:35 27.12.2020
4352 Mist 4 1022 100 6000 0.87 82 22:40 27.12.2020
4353 Mist 5 1022 100 4800 0.79 98 21:55 27.12.2020
4354 Mist 5 1022 100 6000 0.94 148 21:22 27.12.2020
4355 Mist 5 1022 100 6000 0.94 148 20:32 27.12.2020
4356 Mist 4 1022 100 6000 1.17 153 19:24 27.12.2020
4357 Mist 4 1022 93 3600 1.02 123 18:51 27.12.2020
4358 Clouds 4 1021 86 10000 1.05 121 18:21 27.12.2020
4359 Clouds 4 1021 86 10000 1.05 121 17:59 27.12.2020
4360 Rain 4 1021 86 10000 1.05 121 17:37 27.12.2020
4361 Clouds 4 1021 86 10000 1.06 122 17:18 27.12.2020
4362 Clouds 4 1021 86 10000 1.2 126 16:25 27.12.2020
4363 Clouds 4 1021 86 10000 1.2 126 15:34 27.12.2020
4364 Clouds 5 1021 75 10000 1 121 14:54 27.12.2020
4365 Clouds 5 1021 75 10000 1 121 14:36 27.12.2020
4366 Clouds 5 1021 72 10000 1 93 13:37 27.12.2020
4367 Clouds 5 1020 65 10000 1.42 56 12:56 27.12.2020
4368 Clouds 6 1020 60 10000 1.06 33 12:26 27.12.2020
4369 Clouds 6 1020 60 10000 1.06 33 11:42 27.12.2020
4370 Haze 7 1020 52 9000 1.14 116 11:20 27.12.2020
4371 Haze 7 1020 52 9000 1.14 116 10:45 27.12.2020
4372 Haze 9 1019 45 8000 1.4 103 10:19 27.12.2020
4373 Haze 9 1019 45 8000 1.4 103 09:37 27.12.2020
4374 Haze 10 1019 46 8000 1.5 110 08:28 27.12.2020
4375 Haze 10 1019 46 8000 1.5 110 07:29 27.12.2020
4376 Haze 10 1020 62 8000 1.5 50 05:59 27.12.2020
4377 Haze 10 1020 62 8000 1.5 50 05:38 27.12.2020
4378 Haze 6 1022 75 9000 1.51 106 03:25 27.12.2020
4379 Mist 2 1022 86 6000 1.4 104 02:25 27.12.2020
4380 Mist 0 1022 84 6000 1.51 113 00:56 27.12.2020
4381 Haze 1 1023 80 9000 1.4 111 23:44 26.12.2020
4382 Haze 2 1023 74 9000 1.46 108 23:24 26.12.2020
4383 Haze 2 1023 74 9000 1.46 108 22:46 26.12.2020
4384 Haze 2 1023 69 9000 1.42 113 22:19 26.12.2020
4385 Haze 2 1023 69 9000 1.42 113 21:53 26.12.2020
4386 Haze 2 1023 74 9000 1.44 113 21:26 26.12.2020
4387 Haze 2 1023 74 9000 1.44 113 20:45 26.12.2020
4388 Haze 2 1023 80 9000 1.38 113 20:24 26.12.2020
4389 Haze 2 1023 80 9000 1.37 113 19:32 26.12.2020
4390 Haze 0 1023 80 9000 1.43 122 18:59 26.12.2020
4391 Haze 0 1023 80 9000 1.43 122 18:34 26.12.2020
4392 Haze 0 1023 85 9000 1.4 117 17:47 26.12.2020
4393 Haze 1 1023 84 9000 1.3 107 17:28 26.12.2020
4394 Haze 1 1023 84 9000 1.3 107 16:40 26.12.2020
4395 Mist -1 1023 86 9000 1.26 108 16:18 26.12.2020
4396 Mist -1 1023 86 8000 1.19 103 15:21 26.12.2020
4397 Mist -1 1023 86 8000 1.19 103 14:38 26.12.2020
4398 Haze 0 1023 80 9000 1.06 96 14:20 26.12.2020
4399 Haze 0 1023 80 9000 1.06 96 13:37 26.12.2020
4400 Clear -1 1023 74 10000 1.14 92 12:58 26.12.2020
4401 Clear -1 1023 74 10000 1.15 90 12:39 26.12.2020
4402 Clear -1 1023 74 10000 1.15 90 12:39 26.12.2020
4403 Clear 0 1023 80 10000 1.13 95 12:18 26.12.2020
4404 Clear 0 1023 80 10000 1.13 95 11:42 26.12.2020
4405 Clear 3 1023 59 10000 0.92 89 11:20 26.12.2020
4406 Clear 3 1023 59 10000 0.92 89 10:46 26.12.2020
4407 Haze 6 1023 48 8000 0.46 63 10:25 26.12.2020
4408 Haze 6 1023 48 8000 0.46 63 09:47 26.12.2020
4409 Haze 7 1023 42 8000 2.1 210 08:55 26.12.2020
4410 Haze 8 1023 45 8000 1.61 302 08:19 26.12.2020
4411 Haze 8 1023 52 8000 1.78 291 07:21 26.12.2020
4412 Haze 7 1024 52 8000 0.94 283 05:37 26.12.2020
4413 Clouds 3 1026 69 10000 0.39 163 02:47 26.12.2020
4414 Clear -2 1025 92 10000 1.01 132 00:36 26.12.2020
4415 Clouds -2 1024 86 10000 1.23 141 23:49 25.12.2020
4416 Clouds -2 1024 86 10000 1.36 150 23:28 25.12.2020
4417 Clouds -3 1024 92 10000 1.36 150 22:52 25.12.2020
4418 Clouds -3 1024 92 10000 1.48 154 22:26 25.12.2020
4419 Clear -3 1024 85 10000 1.48 154 21:42 25.12.2020
4420 Clear -3 1024 79 10000 1.51 154 21:24 25.12.2020
4421 Clear -3 1024 79 10000 1.51 154 20:44 25.12.2020
4422 Clear -3 1024 79 10000 1.64 160 20:26 25.12.2020
4423 Clear -3 1024 79 10000 1.64 160 19:42 25.12.2020
4424 Clouds -2 1024 79 10000 1.58 161 18:43 25.12.2020
4425 Clouds -3 1024 74 10000 1.15 224 18:25 25.12.2020
4426 Clouds -3 1024 73 10000 1.15 224 17:35 25.12.2020
4427 Clear -4 1024 73 10000 1.22 224 16:51 25.12.2020
4428 Clear -4 1024 68 10000 1.3 222 16:21 25.12.2020
4429 Clear -4 1024 68 10000 1.3 222 15:49 25.12.2020
4430 Clear -3 1024 63 10000 1.43 193 15:25 25.12.2020
4431 Clear -3 1024 63 10000 1.43 193 14:32 25.12.2020
4432 Clear -3 1024 54 10000 1.12 178 13:48 25.12.2020
4433 Clear -3 1024 54 10000 0.89 165 13:26 25.12.2020
4434 Clear -2 1024 50 10000 0.73 171 12:49 25.12.2020
4435 Clear -1 1024 40 10000 0.33 237 12:27 25.12.2020
4436 Clear -1 1024 40 10000 0.33 237 11:46 25.12.2020
4437 Clear 1 1023 40 10000 1 266 11:22 25.12.2020
4438 Clear 1 1023 40 10000 1 266 10:35 25.12.2020
4439 Clear 3 1023 32 10000 1.13 271 09:49 25.12.2020
4440 Clear 3 1023 34 10000 1.5 280 08:51 25.12.2020
4441 Clear 3 1023 34 10000 3.14 296 08:29 25.12.2020
4442 Clear 4 1023 34 10000 3.98 305 06:49 25.12.2020
4443 Clear 3 1024 31 10000 2.6 220 05:24 25.12.2020
4444 Clear -2 1023 46 10000 2.23 285 02:21 25.12.2020
4445 Clear -4 1023 58 10000 1.62 291 00:20 25.12.2020
4446 Clear -4 1023 58 10000 2.58 309 23:30 24.12.2020
4447 Clear -3 1022 58 10000 2.58 309 22:53 24.12.2020
4448 Clear -4 1022 63 10000 3.84 315 22:24 24.12.2020
4449 Clear -4 1022 63 10000 3.84 315 21:43 24.12.2020
4450 Clear -4 1021 58 10000 4.03 316 20:53 24.12.2020
4451 Clear -4 1021 63 10000 3.91 316 19:34 24.12.2020
4452 Clouds -3 1021 63 10000 3.5 314 18:21 24.12.2020
4453 Clear -3 1020 63 10000 3.5 314 17:38 24.12.2020
4454 Clear -3 1020 63 10000 3.52 304 17:20 24.12.2020
4455 Clear -2 1020 54 10000 3.4 305 16:25 24.12.2020
4456 Clear -2 1020 54 10000 3.4 305 15:43 24.12.2020
4457 Clear -1 1020 83 10000 3.43 308 15:21 24.12.2020
4458 Clear -1 1020 83 10000 3.43 308 14:56 24.12.2020
4459 Clear 0 1020 47 10000 3.59 309 14:24 24.12.2020
4460 Clear 0 1020 47 10000 3.59 309 13:49 24.12.2020
4461 Clear 0 1019 47 10000 4.12 313 13:30 24.12.2020
4462 Clear 1 1019 47 10000 4.26 310 12:45 24.12.2020
4463 Clear 1 1018 50 10000 4.52 314 12:22 24.12.2020
4464 Clear 1 1018 50 10000 4.52 314 11:59 24.12.2020
4465 Clear 1 1018 50 10000 4.52 314 11:37 24.12.2020
4466 Clear 2 1018 47 10000 1.5 240 11:18 24.12.2020
4467 Clear 2 1018 47 10000 1.5 240 10:42 24.12.2020
4468 Clouds 3 1018 47 10000 5.01 311 09:54 24.12.2020
4469 Clouds 3 1018 47 10000 5.01 311 09:35 24.12.2020
4470 Clear 4 1018 41 10000 4.99 302 08:48 24.12.2020
4471 Clouds 5 1018 38 10000 5.72 296 07:48 24.12.2020
4472 Clouds 5 1018 38 10000 5.97 291 07:28 24.12.2020
4473 Clear 6 1017 30 10000 5.58 286 06:20 24.12.2020
4474 Clear 5 1018 56 10000 3.35 294 02:50 24.12.2020
4475 Clear 3 1018 69 10000 2.15 298 01:47 24.12.2020
4476 Clear 1 1017 80 10000 1.3 287 01:18 24.12.2020
4477 Clear 1 1017 80 10000 0.99 298 00:22 24.12.2020
4478 Clear 1 1017 80 10000 0.99 298 23:49 23.12.2020
4479 Clear 2 1016 86 10000 0.79 328 23:31 23.12.2020
4480 Clear 3 1016 86 10000 0.79 328 22:59 23.12.2020
4481 Clear 3 1016 86 10000 0.79 328 22:39 23.12.2020
4482 Clear 3 1016 86 10000 1.3 343 22:18 23.12.2020
4483 Clear 4 1017 86 10000 1.6 329 21:31 23.12.2020
4484 Clouds 5 1017 93 10000 1.6 329 20:56 23.12.2020
4485 Clouds 5 1017 93 10000 1.6 329 20:37 23.12.2020
4486 Clouds 5 1017 93 10000 1.63 322 20:19 23.12.2020
4487 Clouds 5 1017 93 10000 1.63 322 19:40 23.12.2020
4488 Clouds 5 1017 93 10000 1.32 299 19:21 23.12.2020
4489 Clouds 5 1017 93 10000 1.73 292 18:49 23.12.2020
4490 Mist 5 1017 93 6000 1.74 285 18:30 23.12.2020
4491 Mist 5 1017 100 6000 1.74 285 17:42 23.12.2020
4492 Mist 5 1018 93 4800 2.25 261 17:22 23.12.2020
4493 Mist 5 1018 93 4800 2.25 261 17:22 23.12.2020
4494 Mist 4 1018 93 4800 2.25 261 16:49 23.12.2020
4495 Mist 4 1018 93 4800 2.4 230 16:29 23.12.2020
4496 Mist 4 1018 93 4800 2.4 230 15:58 23.12.2020
4497 Mist 5 1018 87 6000 2.4 230 15:37 23.12.2020
4498 Mist 5 1018 87 6000 2.42 208 15:19 23.12.2020
4499 Mist 5 1018 87 6000 2.42 208 14:39 23.12.2020
4500 Mist 6 1018 87 6000 2.41 195 14:20 23.12.2020
4501 Mist 6 1018 87 6000 2.41 195 13:44 23.12.2020
4502 Mist 6 1018 87 6000 2.41 195 13:44 23.12.2020
4503 Mist 6 1018 87 6000 2.41 195 13:44 23.12.2020
4504 Haze 6 1019 81 6000 2.32 193 13:20 23.12.2020
4505 Haze 6 1019 81 6000 2.32 193 12:53 23.12.2020
4506 Haze 6 1019 81 6000 2.48 211 12:28 23.12.2020
4507 Haze 6 1019 75 6000 2.48 211 11:53 23.12.2020
4508 Haze 8 1019 75 6000 2.5 214 11:21 23.12.2020
4509 Haze 8 1019 75 6000 2.5 214 10:50 23.12.2020
4510 Haze 8 1019 75 6000 2.5 214 10:32 23.12.2020
4511 Haze 8 1020 70 6000 2.81 214 09:36 23.12.2020
4512 Haze 9 1020 61 4800 3.03 224 08:51 23.12.2020
4513 Haze 9 1020 61 4800 2.1 250 08:22 23.12.2020
4514 Haze 9 1020 61 4800 2.1 250 07:37 23.12.2020
4515 Haze 9 1020 61 4800 2.1 250 07:37 23.12.2020
4516 Haze 9 1020 61 4800 2.6 190 06:41 23.12.2020
4517 Haze 9 1021 57 4800 1.91 182 05:41 23.12.2020
4518 Haze 7 1023 77 4800 1.93 171 04:59 23.12.2020
4519 Mist 1 1024 86 8000 1.71 137 01:31 23.12.2020
4520 Mist 0 1024 86 8000 1.48 134 00:25 23.12.2020
4521 Mist 0 1025 93 9000 1.48 134 23:36 22.12.2020
4522 Mist -1 1025 92 9000 1.6 130 23:18 22.12.2020
4523 Mist -1 1025 92 9000 1.6 130 22:41 22.12.2020
4524 Mist -3 1025 100 8000 1.27 115 22:20 22.12.2020
4525 Mist -3 1025 100 8000 1.27 115 21:44 22.12.2020
4526 Mist -2 1025 92 9000 1.35 115 21:20 22.12.2020
4527 Mist -2 1025 92 9000 1.35 115 21:20 22.12.2020
4528 Mist -2 1025 92 9000 1.35 115 20:49 22.12.2020
4529 Mist -3 1025 92 9000 1.4 128 20:22 22.12.2020
4530 Mist -3 1025 92 9000 1.4 128 19:46 22.12.2020
4531 Mist -3 1025 92 9000 1.37 119 19:25 22.12.2020
4532 Mist -3 1025 92 9000 1.37 119 18:55 22.12.2020
4533 Mist -2 1025 92 9000 1.49 125 18:30 22.12.2020
4534 Mist -2 1025 92 9000 1.49 125 17:59 22.12.2020
4535 Mist -2 1025 92 9000 1.49 125 17:36 22.12.2020
4536 Mist -2 1025 92 9000 1.36 140 17:18 22.12.2020
4537 Clear -2 1026 86 10000 1.36 140 16:42 22.12.2020
4538 Clouds -2 1025 80 10000 1.23 148 16:19 22.12.2020
4539 Clouds -2 1025 80 10000 1.23 148 15:43 22.12.2020
4540 Clouds -2 1025 80 10000 1.1 141 15:24 22.12.2020
4541 Clouds -1 1025 80 10000 1.1 141 14:46 22.12.2020
4542 Clouds 0 1025 80 10000 1.22 141 14:27 22.12.2020
4543 Clouds 0 1025 80 10000 1.22 141 13:53 22.12.2020
4544 Clouds -1 1025 74 10000 1.1 147 13:20 22.12.2020
4545 Clouds -1 1025 74 10000 1.1 147 12:59 22.12.2020
4546 Clouds -1 1025 74 10000 1.05 164 12:40 22.12.2020
4547 Clear 0 1025 64 10000 0.84 171 12:19 22.12.2020
4548 Clear 0 1025 64 10000 0.84 171 11:43 22.12.2020
4549 Clear 3 1025 55 10000 0.72 221 11:23 22.12.2020
4550 Clear 3 1025 55 10000 0.72 221 10:56 22.12.2020
4551 Haze 5 1024 44 9000 0.93 251 10:28 22.12.2020
4552 Haze 5 1024 44 9000 0.93 251 09:59 22.12.2020
4553 Haze 5 1024 44 9000 0.93 251 09:31 22.12.2020
4554 Haze 6 1024 41 9000 1.34 249 08:59 22.12.2020
4555 Haze 6 1024 41 9000 1.34 249 08:40 22.12.2020
4556 Haze 7 1024 45 8000 1.13 222 08:19 22.12.2020
4557 Haze 7 1024 45 8000 0.66 204 07:27 22.12.2020
4558 Haze 6 1024 48 8000 0.66 204 06:36 22.12.2020
4559 Haze 6 1024 56 8000 1.17 226 05:33 22.12.2020
4560 Haze 2 1026 74 8000 0.97 137 02:31 22.12.2020
4561 Clouds -2 1026 92 10000 1.17 110 00:26 22.12.2020
4562 Clouds -2 1026 92 10000 1.17 110 23:50 21.12.2020
4563 Snow -2 1026 86 10000 1.09 95 23:22 21.12.2020
4564 Snow -2 1026 86 10000 1.09 95 22:37 21.12.2020
4565 Snow -2 1026 80 10000 0.8 91 22:19 21.12.2020
4566 Snow -2 1026 80 10000 0.8 91 22:19 21.12.2020
4567 Snow -2 1026 86 10000 0.8 91 21:47 21.12.2020
4568 Snow -2 1026 92 10000 0.84 120 21:28 21.12.2020
4569 Snow -3 1026 92 10000 0.84 120 20:45 21.12.2020
4570 Clouds -4 1027 92 10000 1.04 139 20:21 21.12.2020
4571 Clouds -4 1027 92 10000 1.04 139 19:47 21.12.2020
4572 Clear -5 1027 92 10000 0.92 140 19:22 21.12.2020
4573 Clear -5 1027 92 10000 0.92 140 18:59 21.12.2020
4574 Clear -5 1027 92 10000 0.85 145 18:41 21.12.2020
4575 Clouds -5 1027 92 10000 1.05 152 18:23 21.12.2020
4576 Clouds -5 1027 92 10000 1.05 152 17:42 21.12.2020
4577 Clouds -4 1027 92 10000 1.04 164 17:23 21.12.2020
4578 Clouds -5 1028 92 10000 1.04 164 16:45 21.12.2020
4579 Clear -4 1028 85 10000 0.99 151 16:21 21.12.2020
4580 Clear -4 1028 85 10000 0.99 151 15:43 21.12.2020
4581 Clear -4 1028 79 10000 0.93 146 14:58 21.12.2020
4582 Clear -3 1028 79 10000 0.67 125 14:23 21.12.2020
4583 Clear -3 1028 79 10000 0.67 125 13:55 21.12.2020
4584 Clear -3 1028 79 10000 0.67 125 13:37 21.12.2020
4585 Clear -3 1028 74 10000 0.54 98 13:18 21.12.2020
4586 Clear -3 1028 74 10000 0.37 143 12:42 21.12.2020
4587 Clear -2 1028 68 10000 0.24 78 12:19 21.12.2020
4588 Clear -2 1028 68 10000 0.24 78 11:43 21.12.2020
4589 Clouds 1 1028 55 10000 0.47 26 11:22 21.12.2020
4590 Clouds 1 1028 55 10000 0.47 26 10:57 21.12.2020
4591 Clouds 1 1028 55 10000 0.47 26 10:39 21.12.2020
4592 Clear 3 1027 47 10000 0.45 21 09:56 21.12.2020
4593 Clear 3 1027 47 10000 0.45 21 09:37 21.12.2020
4594 Clouds 4 1027 44 10000 0.43 357 09:19 21.12.2020
4595 Clouds 4 1028 44 10000 1.5 250 08:25 21.12.2020
4596 Clear 4 1028 44 10000 2.1 220 06:48 21.12.2020
4597 Clear 3 1028 40 10000 1.5 230 05:39 21.12.2020
4598 Clear 2 1029 34 10000 0.7 275 04:30 21.12.2020
4599 Clear -8 1030 85 10000 0.64 94 00:36 21.12.2020
4600 Clear -8 1029 85 10000 0.6 87 23:47 20.12.2020
4601 Clear -8 1030 85 10000 0.42 82 23:20 20.12.2020
4602 Clear -8 1030 85 10000 0.42 82 22:44 20.12.2020
4603 Clouds -7 1030 85 10000 0.5 61 22:23 20.12.2020
4604 Clouds -7 1030 85 10000 0.5 61 21:42 20.12.2020
4605 Clear -8 1030 85 10000 0.81 46 21:22 20.12.2020
4606 Clear -8 1030 85 10000 0.81 46 20:57 20.12.2020
4607 Clear -8 1030 85 10000 0.81 46 20:37 20.12.2020
4608 Clear -7 1030 85 10000 0.9 34 20:18 20.12.2020
4609 Clear -7 1030 85 10000 0.9 34 19:41 20.12.2020
4610 Clear -7 1030 85 10000 0.79 30 19:20 20.12.2020
4611 Clear -7 1030 85 10000 0.79 30 18:45 20.12.2020
4612 Clear -7 1031 85 10000 0.45 357 18:27 20.12.2020
4613 Clear -7 1031 85 10000 0.45 357 17:47 20.12.2020
4614 Clear -7 1031 85 10000 0.37 338 17:28 20.12.2020
4615 Clear -7 1031 85 10000 0.37 338 17:28 20.12.2020
4616 Clear -7 1031 79 10000 0.37 338 16:47 20.12.2020
4617 Clear -6 1031 73 10000 0.35 309 16:28 20.12.2020
4618 Clear -6 1031 73 10000 0.35 309 15:51 20.12.2020
4619 Clear -6 1031 67 10000 0.6 356 15:27 20.12.2020
4620 Clear -5 1031 67 10000 0.6 356 14:56 20.12.2020
4621 Clear -5 1031 67 10000 0.6 356 14:35 20.12.2020
4622 Clear -5 1031 62 10000 0.93 16 13:49 20.12.2020
4623 Clear -5 1031 62 10000 0.94 13 13:30 20.12.2020
4624 Clear -4 1032 53 10000 0.94 13 12:59 20.12.2020
4625 Clear -4 1032 53 10000 0.86 351 12:40 20.12.2020
4626 Clear -2 1031 46 10000 0.77 332 12:21 20.12.2020
4627 Clear -2 1031 46 10000 0.77 332 11:45 20.12.2020
4628 Clear -1 1031 39 10000 0.82 281 11:26 20.12.2020
4629 Clear -1 1031 39 10000 0.82 281 10:48 20.12.2020
4630 Clear 0 1031 84 10000 1.5 330 10:21 20.12.2020
4631 Clear 0 1031 84 10000 1.5 330 09:46 20.12.2020
4632 Clear 0 1031 84 10000 1.5 330 09:27 20.12.2020
4633 Clear 1 1031 84 10000 2.1 330 08:59 20.12.2020
4634 Clear 1 1031 84 10000 2.1 330 08:40 20.12.2020
4635 Clear 1 1031 29 10000 2.27 305 07:29 20.12.2020
4636 Clear 0 1031 86 10000 1.87 302 06:18 20.12.2020
4637 Clear -6 1033 57 10000 0.42 46 02:24 20.12.2020
4638 Clear -9 1033 66 10000 0.66 66 00:41 20.12.2020
4639 Clear -9 1033 52 10000 0.15 86 23:22 19.12.2020
4640 Clear -9 1033 52 10000 0.15 86 22:59 19.12.2020
4641 Clear -9 1033 52 10000 0.15 86 22:40 19.12.2020
4642 Clear -8 1033 52 10000 0.23 307 22:20 19.12.2020
4643 Clear -8 1033 52 10000 0.23 307 21:43 19.12.2020
4644 Clear -8 1033 61 10000 0.59 325 21:25 19.12.2020
4645 Clear -8 1033 61 10000 0.59 325 20:48 19.12.2020
4646 Clear -6 1033 52 10000 0.81 318 20:23 19.12.2020
4647 Clear -6 1033 52 10000 0.81 318 19:56 19.12.2020
4648 Clear -6 1033 52 10000 0.81 318 19:38 19.12.2020
4649 Clear -5 1033 45 10000 0.99 306 19:19 19.12.2020
4650 Clear -5 1033 45 10000 0.94 281 18:33 19.12.2020
4651 Clouds -5 1033 41 10000 1.5 320 17:55 19.12.2020
4652 Clouds -5 1033 41 10000 1.5 320 17:30 19.12.2020
4653 Clear -5 1033 53 10000 0.46 310 16:57 19.12.2020
4654 Clear -5 1033 53 10000 0.46 310 16:38 19.12.2020
4655 Clouds -4 1032 53 10000 0.68 6 16:19 19.12.2020
4656 Clouds -4 1032 53 10000 0.68 6 15:47 19.12.2020
4657 Clear -4 1032 45 10000 0.77 47 15:18 19.12.2020
4658 Clear -4 1032 45 10000 0.77 47 14:35 19.12.2020
4659 Clouds -3 1032 39 10000 0.9 114 13:42 19.12.2020
4660 Clouds -3 1032 39 10000 1.5 30 13:22 19.12.2020
4661 Clouds -3 1032 39 10000 1.5 30 12:55 19.12.2020
4662 Clouds -3 1032 39 10000 1.5 30 12:37 19.12.2020
4663 Clouds -3 1032 39 10000 1.5 30 12:37 19.12.2020
4664 Clouds -3 1032 39 10000 0.95 90 12:19 19.12.2020
4665 Clouds -3 1032 39 10000 0.95 90 11:42 19.12.2020
4666 Clouds -3 1032 38 10000 1.04 87 10:48 19.12.2020
4667 Clouds -3 1032 38 10000 0.61 72 10:29 19.12.2020
4668 Clear -2 1032 36 10000 1.5 310 10:00 19.12.2020
4669 Clear -2 1032 36 10000 1.5 310 09:40 19.12.2020
4670 Clear -1 1032 33 10000 1.05 335 08:57 19.12.2020
4671 Clear -1 1033 28 10000 2.89 319 08:18 19.12.2020
4672 Clear -1 1033 26 10000 4.02 316 07:19 19.12.2020
4673 Clear -1 1033 26 10000 4.02 316 06:44 19.12.2020
4674 Clear -3 1034 23 10000 2.94 315 05:21 19.12.2020
4675 Clear -4 1035 27 10000 2.1 200 03:40 19.12.2020
4676 Clear -9 1034 44 10000 2.1 290 00:41 19.12.2020
4677 Clear -9 1034 41 10000 1.29 304 00:20 19.12.2020
4678 Clear -9 1034 41 10000 1.29 304 23:49 18.12.2020
4679 Clear -8 1034 41 10000 1.39 305 23:25 18.12.2020
4680 Clear -8 1033 44 10000 1.39 305 22:49 18.12.2020
4681 Clear -7 1033 44 10000 1.5 310 22:25 18.12.2020
4682 Clear -7 1033 44 10000 1.5 310 21:59 18.12.2020
4683 Clear -7 1033 44 10000 1.5 310 21:38 18.12.2020
4684 Clear -7 1033 41 10000 1.29 309 21:20 18.12.2020
4685 Clear -7 1033 41 10000 2.1 290 20:24 18.12.2020
4686 Clear -7 1033 41 10000 2.1 290 19:47 18.12.2020
4687 Clear -7 1033 41 10000 2.1 290 19:23 18.12.2020
4688 Clear -7 1032 44 10000 1.54 315 18:46 18.12.2020
4689 Clear -7 1032 44 10000 1.5 320 18:26 18.12.2020
4690 Clear -7 1032 44 10000 1.5 320 17:50 18.12.2020
4691 Clear -6 1031 45 10000 2.1 310 17:20 18.12.2020
4692 Clear -6 1031 45 10000 2.1 310 16:45 18.12.2020
4693 Clear -5 1031 49 10000 1.5 240 16:20 18.12.2020
4694 Clear -5 1031 49 10000 1.5 240 15:51 18.12.2020
4695 Clear -5 1031 49 10000 1.5 240 15:33 18.12.2020
4696 Clear -5 1031 53 10000 5.1 330 14:57 18.12.2020
4697 Clear -4 1030 49 10000 5.7 330 14:24 18.12.2020
4698 Clear -4 1030 49 10000 5.7 330 13:53 18.12.2020
4699 Clear -4 1030 49 10000 5.7 330 13:32 18.12.2020
4700 Clear -3 1030 41 10000 7.7 330 12:57 18.12.2020
4701 Clear -3 1030 41 10000 7.7 330 12:34 18.12.2020
4702 Clear -1 1028 87 10000 3.75 310 11:28 18.12.2020
4703 Clear -1 1027 87 10000 1.5 300 10:40 18.12.2020
4704 Clear 0 1027 87 10000 1.5 300 10:21 18.12.2020
4705 Clear 0 1027 87 10000 1.5 300 09:57 18.12.2020
4706 Clear 0 1027 87 10000 1.5 300 09:37 18.12.2020
4707 Clear 1 1027 37 10000 3.1 330 09:18 18.12.2020
4708 Clear 1 1027 37 10000 3.1 330 08:43 18.12.2020
4709 Clear 2 1027 37 10000 4.01 308 07:56 18.12.2020
4710 Clear 2 1027 43 10000 2.1 230 07:19 18.12.2020
4711 Clear 2 1027 43 10000 2.1 230 06:59 18.12.2020
4712 Clouds 2 1027 50 10000 1.5 220 05:44 18.12.2020
4713 Clouds 1 1027 47 10000 4.15 304 04:52 18.12.2020
4714 Snow 0 1028 95 10000 1.5 290 03:20 18.12.2020
4715 Clouds -1 1028 97 10000 1.48 299 01:44 18.12.2020
4716 Clouds -2 1026 74 10000 0.82 25 00:29 18.12.2020
4717 Clouds -1 1026 74 10000 0.82 25 23:52 17.12.2020
4718 Clouds -1 1026 74 10000 0.71 53 23:21 17.12.2020
4719 Clouds -1 1026 74 10000 0.71 53 22:48 17.12.2020
4720 Snow -2 1026 79 10000 0.99 88 22:27 17.12.2020
4721 Snow -2 1026 79 8000 0.99 88 21:44 17.12.2020
4722 Snow -2 1026 79 8000 0.99 88 21:44 17.12.2020
4723 Snow -1 1026 68 9000 1.11 80 21:21 17.12.2020
4724 Clouds -1 1026 68 10000 1.11 80 20:45 17.12.2020
4725 Clouds -1 1027 63 10000 1.3 92 20:19 17.12.2020
4726 Clouds -1 1027 63 10000 1.3 92 19:50 17.12.2020
4727 Snow -1 1027 63 10000 1.32 91 19:25 17.12.2020
4728 Snow -1 1027 58 10000 1.5 50 18:56 17.12.2020
4729 Snow -1 1027 58 10000 1.5 50 18:37 17.12.2020
4730 Snow -1 1027 63 10000 1.53 108 18:18 17.12.2020
4731 Snow -1 1027 58 10000 1.53 108 17:44 17.12.2020
4732 Snow -1 1027 50 10000 1.69 89 17:26 17.12.2020
4733 Clouds -1 1027 50 10000 1.69 89 16:39 17.12.2020
4734 Snow -2 1027 46 10000 1.89 103 16:19 17.12.2020
4735 Snow -2 1028 42 10000 1.89 103 15:44 17.12.2020
4736 Snow -3 1028 46 10000 1.14 108 15:26 17.12.2020
4737 Snow -3 1028 46 10000 1.14 108 14:48 17.12.2020
4738 Clouds -4 1028 53 10000 1.54 121 14:20 17.12.2020
4739 Clouds -4 1028 49 10000 1.54 121 13:48 17.12.2020
4740 Clouds -3 1029 49 10000 1.59 132 13:20 17.12.2020
4741 Clouds -3 1029 49 10000 1.51 121 12:40 17.12.2020
4742 Clear -4 1029 38 10000 1.26 129 12:21 17.12.2020
4743 Clear -4 1029 38 10000 1.26 129 11:42 17.12.2020
4744 Clear -3 1029 38 10000 1.19 115 11:21 17.12.2020
4745 Clear -3 1029 38 10000 1.19 115 10:40 17.12.2020
4746 Clear 0 1029 83 10000 0.64 173 09:37 17.12.2020
4747 Clear 1 1029 82 10000 0.94 205 08:50 17.12.2020
4748 Clear 1 1030 78 10000 2.1 210 07:42 17.12.2020
4749 Clear 0 1030 26 10000 2.1 220 07:21 17.12.2020
4750 Clear 0 1030 26 10000 2.1 220 06:47 17.12.2020
4751 Clear -1 1031 36 10000 0.34 222 06:29 17.12.2020
4752 Clear -5 1032 48 10000 0.51 300 03:30 17.12.2020
4753 Clear -12 1031 61 10000 0.52 344 00:27 17.12.2020
4754 Clear -12 1031 66 10000 0.52 344 23:40 16.12.2020
4755 Clear -11 1031 61 10000 0.42 335 23:18 16.12.2020
4756 Clear -11 1031 61 10000 0.42 335 22:48 16.12.2020
4757 Clear -11 1031 61 10000 0.55 2 22:28 16.12.2020
4758 Clear -12 1031 66 10000 0.55 2 21:43 16.12.2020
4759 Clear -12 1031 72 10000 0.71 350 21:23 16.12.2020
4760 Clear -12 1031 72 10000 0.71 350 20:52 16.12.2020
4761 Clear -11 1032 66 10000 0.82 334 20:20 16.12.2020
4762 Clear -11 1032 66 10000 0.82 334 19:38 16.12.2020
4763 Clear -10 1032 52 10000 1 327 19:18 16.12.2020
4764 Clear -10 1032 52 10000 1.27 317 18:47 16.12.2020
4765 Clear -9 1032 52 10000 1.55 312 18:25 16.12.2020
4766 Clear -9 1032 52 10000 1.55 312 17:36 16.12.2020
4767 Clear -9 1032 52 10000 2.1 320 16:47 16.12.2020
4768 Clear -9 1032 52 10000 1.5 360 16:29 16.12.2020
4769 Clear -9 1032 52 10000 1.5 360 15:58 16.12.2020
4770 Clear -9 1032 52 10000 1.5 360 15:39 16.12.2020
4771 Clear -8 1031 41 10000 2.6 300 15:18 16.12.2020
4772 Clear -8 1031 41 10000 2.6 300 14:44 16.12.2020
4773 Clear -7 1031 37 10000 1.5 330 14:25 16.12.2020
4774 Clear -7 1031 37 10000 1.5 330 13:41 16.12.2020
4775 Clear -7 1031 34 10000 3.54 314 13:20 16.12.2020
4776 Clear -7 1031 34 10000 3.67 312 12:43 16.12.2020
4777 Clear -6 1031 34 10000 2.1 290 11:51 16.12.2020
4778 Clear -6 1031 34 10000 2.1 290 11:31 16.12.2020
4779 Clear -6 1031 24 10000 4.19 311 10:56 16.12.2020
4780 Clear -6 1031 24 10000 4.19 311 10:36 16.12.2020
4781 Clear -4 1030 27 10000 2.1 310 09:56 16.12.2020
4782 Clear -4 1030 27 10000 4.41 308 09:29 16.12.2020
4783 Clear -4 1030 27 10000 2.6 330 08:22 16.12.2020
4784 Clear -4 1030 27 10000 2.6 330 07:45 16.12.2020
4785 Clear -4 1030 29 10000 1.5 220 07:20 16.12.2020
4786 Clear -6 1033 31 10000 1.5 10 03:35 16.12.2020
4787 Clear -8 1032 37 10000 2.1 340 01:59 16.12.2020
4788 Clear -10 1031 36 10000 4.27 309 23:46 15.12.2020
4789 Clear -10 1031 40 10000 4.19 309 23:19 15.12.2020
4790 Clear -10 1031 40 10000 4.19 309 22:41 15.12.2020
4791 Clear -11 1030 40 10000 4.46 312 22:20 15.12.2020
4792 Clear -11 1030 40 10000 4.46 312 21:46 15.12.2020
4793 Clear -10 1030 40 10000 4.43 312 21:23 15.12.2020
4794 Clear -10 1030 40 10000 4.43 312 20:45 15.12.2020
4795 Clear -10 1030 61 10000 4.06 311 20:27 15.12.2020
4796 Clear -10 1030 61 10000 4.06 311 19:55 15.12.2020
4797 Clear -10 1030 61 10000 4.06 311 19:33 15.12.2020
4798 Clear -10 1030 56 10000 3.91 311 18:41 15.12.2020
4799 Clear -10 1030 61 10000 1.5 40 18:22 15.12.2020
4800 Clear -10 1030 61 10000 1.5 40 17:58 15.12.2020
4801 Clear -10 1030 61 10000 1.5 40 17:40 15.12.2020
4802 Clear -9 1030 56 10000 3.85 316 17:19 15.12.2020
4803 Clear -9 1030 57 10000 3.77 318 16:32 15.12.2020
4804 Clear -8 1030 57 10000 3.77 318 15:51 15.12.2020
4805 Clear -7 1031 48 10000 3.77 318 15:30 15.12.2020
4806 Clear -7 1031 48 10000 3.54 320 14:44 15.12.2020
4807 Clear -7 1031 48 10000 3.51 322 14:21 15.12.2020
4808 Clear -7 1031 44 10000 3.51 322 13:51 15.12.2020
4809 Clear -7 1031 44 10000 3.51 322 13:32 15.12.2020
4810 Clear -7 1031 41 10000 4.16 315 12:47 15.12.2020
4811 Clear -7 1031 41 10000 4.16 315 12:47 15.12.2020
4812 Clear -7 1030 37 10000 4.17 314 12:20 15.12.2020
4813 Clear -7 1030 37 10000 4.17 314 11:55 15.12.2020
4814 Clear -7 1030 31 10000 4.14 315 11:26 15.12.2020
4815 Clear -7 1030 31 10000 4.14 315 10:53 15.12.2020
4816 Clear -5 1029 27 10000 4.2 315 10:23 15.12.2020
4817 Clear -5 1029 27 10000 4.2 315 09:49 15.12.2020
4818 Clear -5 1029 27 10000 4.2 315 09:31 15.12.2020
4819 Clear -5 1029 27 10000 4.34 314 08:47 15.12.2020
4820 Clear -5 1030 27 10000 3.1 300 08:25 15.12.2020
4821 Clear -5 1030 27 10000 3.1 300 07:49 15.12.2020
4822 Clear -4 1030 29 10000 2.6 320 07:23 15.12.2020
4823 Clear -4 1031 25 10000 5.7 330 06:27 15.12.2020
4824 Clear -7 1033 31 10000 4.6 330 02:55 15.12.2020
4825 Clear -10 1032 40 10000 4.49 316 00:34 15.12.2020
4826 Clear -9 1031 33 10000 4.53 322 23:23 14.12.2020
4827 Clear -9 1031 33 10000 4.53 322 22:48 14.12.2020
4828 Clear -10 1031 40 10000 4.8 322 22:27 14.12.2020
4829 Clear -10 1031 40 10000 4.8 322 21:44 14.12.2020
4830 Clear -10 1031 40 10000 5.21 325 21:22 14.12.2020
4831 Clear -10 1031 40 10000 5.21 325 20:49 14.12.2020
4832 Clear -9 1031 43 10000 5.46 323 20:29 14.12.2020
4833 Clear -9 1031 43 10000 5.46 323 19:50 14.12.2020
4834 Clear -9 1031 43 10000 1.5 320 19:28 14.12.2020
4835 Clear -9 1031 43 10000 1.5 320 18:44 14.12.2020
4836 Clear -9 1031 44 10000 2.1 340 18:24 14.12.2020
4837 Clear -9 1031 44 10000 2.1 340 17:46 14.12.2020
4838 Clear -8 1031 44 10000 2.1 340 17:23 14.12.2020
4839 Clear -8 1031 48 10000 5.42 323 16:50 14.12.2020
4840 Clear -8 1031 52 10000 2.6 320 16:28 14.12.2020
4841 Clear -8 1031 48 10000 2.6 320 15:33 14.12.2020
4842 Clear -7 1031 48 10000 2.6 320 14:54 14.12.2020
4843 Clear -7 1031 48 10000 2.6 320 14:36 14.12.2020
4844 Clear -7 1030 48 10000 5.34 323 14:18 14.12.2020
4845 Clear -7 1030 48 10000 5.34 323 13:39 14.12.2020
4846 Clear -7 1029 52 10000 3.6 310 13:18 14.12.2020
4847 Clear -7 1029 52 10000 3.6 310 12:44 14.12.2020
4848 Clear -7 1029 52 10000 3.6 310 12:23 14.12.2020
4849 Clear -7 1029 44 10000 5.55 314 11:31 14.12.2020
4850 Clear -7 1028 41 10000 2.1 330 10:30 14.12.2020
4851 Clear -6 1028 34 10000 1.5 320 09:58 14.12.2020
4852 Clear -5 1028 32 10000 2.1 310 09:25 14.12.2020
4853 Clear -5 1028 32 10000 2.1 310 08:45 14.12.2020
4854 Clear -5 1028 35 10000 1.5 320 08:26 14.12.2020
4855 Clear -5 1028 32 10000 2.6 250 07:26 14.12.2020
4856 Clear -5 1028 32 10000 2.6 250 06:44 14.12.2020
4857 Clear -6 1030 34 10000 1.5 310 04:27 14.12.2020
4858 Clear -8 1030 48 10000 5.44 314 02:25 14.12.2020
4859 Clear -9 1029 47 10000 1.5 320 00:52 14.12.2020
4860 Clear -9 1029 47 10000 1.5 320 00:30 14.12.2020
4861 Clear -9 1028 47 10000 2.6 10 23:46 13.12.2020
4862 Clear -8 1027 48 10000 5.08 325 23:20 13.12.2020
4863 Clear -8 1027 48 10000 5.08 325 22:43 13.12.2020
4864 Clear -7 1027 48 10000 5.14 328 22:18 13.12.2020
4865 Clear -7 1027 48 10000 5.14 328 21:42 13.12.2020
4866 Clear -7 1027 48 10000 2.1 340 21:19 13.12.2020
4867 Clear -7 1027 48 10000 2.1 340 20:33 13.12.2020
4868 Clear -7 1027 48 10000 2.1 330 19:50 13.12.2020
4869 Clear -6 1026 48 10000 5.05 316 19:25 13.12.2020
4870 Clear -6 1026 48 10000 5.4 315 18:57 13.12.2020
4871 Clear -6 1026 48 10000 5.4 315 18:38 13.12.2020
4872 Clear -6 1025 48 10000 2.1 310 18:18 13.12.2020
4873 Clear -6 1025 48 10000 2.1 310 17:45 13.12.2020
4874 Clear -5 1025 53 10000 2.1 290 17:18 13.12.2020
4875 Clear -5 1025 53 10000 2.1 290 16:50 13.12.2020
4876 Clear -5 1025 53 10000 2.1 290 16:31 13.12.2020
4877 Clear -5 1024 53 10000 6.15 315 15:48 13.12.2020
4878 Clouds -5 1023 53 10000 6.22 314 15:27 13.12.2020
4879 Clouds -4 1023 53 10000 6.22 314 14:47 13.12.2020
4880 Clear -4 1023 58 10000 1.5 350 14:29 13.12.2020
4881 Clear -4 1023 58 10000 1.5 350 13:56 13.12.2020
4882 Clear -4 1023 58 10000 1.5 350 13:35 13.12.2020
4883 Clear -3 1022 58 10000 6.17 316 12:57 13.12.2020
4884 Clouds -3 1021 63 10000 2.1 310 12:25 13.12.2020
4885 Clouds -3 1021 63 10000 2.1 310 11:58 13.12.2020
4886 Clouds -3 1021 63 10000 2.1 310 11:32 13.12.2020
4887 Clouds -1 1020 68 10000 6.43 311 10:45 13.12.2020
4888 Clouds 0 1019 89 10000 2.6 310 10:21 13.12.2020
4889 Clouds 0 1019 89 10000 2.6 310 09:46 13.12.2020
4890 Clouds 1 1017 74 10000 1.5 330 08:48 13.12.2020
4891 Clouds 1 1017 74 10000 1.5 330 08:30 13.12.2020
4892 Clouds 0 1016 90 10000 2.6 300 07:19 13.12.2020
4893 Rain 0 1016 96 10000 2.03 120 02:44 13.12.2020
4894 Snow 0 1016 97 10000 2.57 119 02:20 13.12.2020
4895 Fog 0 1016 97 800 2.57 119 01:34 13.12.2020
4896 Snow 0 1016 98 10000 2.24 116 00:44 13.12.2020
4897 Snow 1 1016 86 9000 1.94 121 23:37 12.12.2020
4898 Snow 1 1016 81 10000 1.51 98 23:19 12.12.2020
4899 Snow 0 1016 77 6000 1.28 57 22:29 12.12.2020
4900 Snow 1 1017 59 10000 1.5 110 21:46 12.12.2020
4901 Snow 2 1018 51 10000 0.92 92 21:19 12.12.2020
4902 Clouds 2 1018 51 10000 0.92 92 20:44 12.12.2020
4903 Clouds 2 1019 59 10000 1.31 99 20:21 12.12.2020
4904 Rain 2 1019 59 10000 1.31 99 19:51 12.12.2020
4905 Rain 1 1019 64 10000 1.31 99 19:33 12.12.2020
4906 Rain 1 1019 64 10000 1.31 99 19:33 12.12.2020
4907 Snow 1 1019 64 10000 0.78 88 18:55 12.12.2020
4908 Snow 1 1019 64 10000 1.74 167 18:36 12.12.2020
4909 Snow 0 1018 70 10000 1.05 173 18:18 12.12.2020
4910 Clouds 0 1018 70 10000 1.05 173 17:40 12.12.2020
4911 Clear -1 1018 68 10000 0.27 210 16:30 12.12.2020
4912 Clear -2 1018 68 10000 0.27 210 15:53 12.12.2020
4913 Clear -2 1018 68 10000 0.27 210 15:35 12.12.2020
4914 Clear -1 1018 63 10000 0.69 201 14:53 12.12.2020
4915 Clear 0 1019 55 10000 0.73 184 14:20 12.12.2020
4916 Clear 0 1019 55 10000 0.73 184 13:40 12.12.2020
4917 Clear 1 1019 47 10000 0.36 253 13:22 12.12.2020
4918 Clear 1 1019 47 10000 1.1 280 12:32 12.12.2020
4919 Clear 4 1019 32 10000 1.36 291 11:18 12.12.2020
4920 Clear 4 1019 32 10000 1.36 291 10:42 12.12.2020
4921 Clear 5 1019 32 10000 3.08 308 09:20 12.12.2020
4922 Clear 5 1020 44 10000 3.51 314 03:39 12.12.2020
4923 Clear -2 1020 74 10000 3.13 325 00:48 12.12.2020
4924 Clear -1 1019 68 10000 2.43 324 23:19 11.12.2020
4925 Clear 1 1020 51 10000 3.14 314 20:55 11.12.2020
4926 Clear 3 1020 51 10000 3.42 308 19:31 11.12.2020
4927 Clouds 4 1019 80 10000 3.51 302 16:45 11.12.2020
4928 Clear 4 1018 80 10000 1.84 292 14:24 11.12.2020
4929 Clouds 4 1018 80 10000 1.93 277 13:25 11.12.2020
4930 Clear 5 1018 70 10000 2.25 277 12:21 11.12.2020
4931 Clear 5 1018 70 10000 2.25 277 11:52 11.12.2020
4932 Clear 7 1018 65 10000 2.72 274 11:24 11.12.2020
4933 Clear 8 1018 61 10000 3.45 277 09:58 11.12.2020
4934 Clear 9 1019 57 10000 3.2 268 06:26 11.12.2020
4935 Haze 9 1020 61 6000 2.7 267 05:20 11.12.2020
4936 Mist 5 1020 93 4400 0.63 254 02:40 11.12.2020
4937 Mist 1 1020 100 3200 0.4 186 00:39 11.12.2020
4938 Mist 0 1020 100 3600 0.45 124 22:57 10.12.2020
4939 Mist 0 1021 100 3200 0.62 28 21:37 10.12.2020
4940 Mist 0 1021 68 3600 0.62 327 20:49 10.12.2020
4941 Mist 0 1022 100 3600 0.42 320 19:49 10.12.2020
4942 Mist 0 1021 100 3600 0.26 20 19:21 10.12.2020
4943 Mist 0 1021 100 3600 0.52 71 18:44 10.12.2020
4944 Mist 2 1022 93 4800 0.73 352 16:49 10.12.2020
4945 Mist 3 1022 93 4800 0.71 313 15:51 10.12.2020
4946 Mist 5 1022 87 6000 0.4 348 14:58 10.12.2020
4947 Mist 5 1022 87 6000 0.4 348 14:38 10.12.2020
4948 Mist 5 1022 87 6000 0.4 348 14:38 10.12.2020
4949 Haze 7 1021 75 6000 0.16 217 13:23 10.12.2020
4950 Haze 7 1021 75 8000 0.17 284 11:43 10.12.2020
4951 Haze 9 1021 66 8000 0.65 221 09:33 10.12.2020
4952 Haze 9 1021 66 8000 1.76 200 08:19 10.12.2020
4953 Haze 9 1021 61 8000 1.5 176 06:51 10.12.2020
4954 Clouds 6 1023 66 10000 1.5 210 03:55 10.12.2020
4955 Clouds 5 1023 56 10000 1.4 152 02:24 10.12.2020
4956 Clouds 4 1023 64 10000 1.43 154 00:28 10.12.2020
4957 Clouds 3 1023 64 10000 1.63 161 22:58 09.12.2020
4958 Rain 4 1023 60 10000 1.03 142 20:37 09.12.2020
4959 Clouds 4 1023 60 10000 1.04 139 19:34 09.12.2020
4960 Rain 4 1024 60 10000 1.28 149 17:44 09.12.2020
4961 Clouds 3 1024 64 10000 1.01 134 16:52 09.12.2020
4962 Clouds 2 1024 64 10000 1.12 143 16:23 09.12.2020
4963 Rain 2 1024 59 10000 1.12 143 15:30 09.12.2020
4964 Clouds 2 1024 59 10000 0.44 140 14:27 09.12.2020
4965 Clouds 1 1025 69 10000 0.44 140 13:58 09.12.2020
4966 Snow 2 1024 64 10000 0.63 168 13:19 09.12.2020
4967 Clouds 2 1024 64 10000 0.6 133 12:44 09.12.2020
4968 Clear 2 1024 59 10000 0.6 196 11:51 09.12.2020
4969 Clouds 4 1024 55 10000 0.36 174 10:48 09.12.2020
4970 Clouds 5 1025 44 10000 0.7 63 09:38 09.12.2020
4971 Rain 6 1025 45 10000 1.27 270 07:43 09.12.2020
4972 Clear 6 1026 38 10000 1.5 30 05:53 09.12.2020
4973 Clear 3 1029 47 10000 0.95 116 03:29 09.12.2020
4974 Clear -1 1028 63 10000 1.04 113 01:52 09.12.2020
4975 Clear -6 1028 73 10000 0.66 119 23:43 08.12.2020
4976 Clear -6 1028 79 10000 0.66 103 22:52 08.12.2020
4977 Clear -5 1028 79 10000 0.36 338 21:22 08.12.2020
4978 Clear -5 1029 73 10000 0.51 329 19:33 08.12.2020
4979 Clear -5 1028 68 10000 0.5 282 18:58 08.12.2020
4980 Clear -4 1028 68 10000 0.44 321 17:33 08.12.2020
4981 Clear -3 1028 58 10000 0.98 340 15:44 08.12.2020
4982 Clear -2 1028 50 10000 1.16 312 14:18 08.12.2020
4983 Clear 0 1028 40 10000 1.19 311 13:24 08.12.2020
4984 Clear 0 1029 40 10000 1.69 304 12:24 08.12.2020
4985 Clear 0 1029 40 10000 1.69 304 11:39 08.12.2020
4986 Clear 2 1028 37 10000 2.28 310 10:43 08.12.2020
4987 Clear 2 1028 34 10000 2.49 305 09:50 08.12.2020
4988 Clear 4 1027 29 10000 1.5 220 07:59 08.12.2020
4989 Clear 4 1027 27 10000 1.5 270 06:33 08.12.2020
4990 Clear 1 1030 43 10000 2.06 318 03:23 08.12.2020
4991 Clouds -3 1030 54 10000 2.07 311 00:46 08.12.2020
4992 Clouds -5 1030 58 10000 1.5 360 23:51 07.12.2020
4993 Clouds -3 1029 63 10000 2.58 302 22:37 07.12.2020
4994 Clouds -4 1029 63 10000 2.73 298 21:50 07.12.2020
4995 Clear -2 1029 54 10000 2.73 306 19:51 07.12.2020
4996 Clear -1 1029 80 10000 2.1 310 18:29 07.12.2020
4997 Clear -1 1029 81 10000 2.1 310 17:26 07.12.2020
4998 Clear -1 1029 81 10000 2.1 320 16:52 07.12.2020
4999 Clear 0 1029 50 10000 1.5 310 15:26 07.12.2020
5000 Clear 0 1029 50 10000 1.5 310 14:44 07.12.2020
5001 Clear 1 1029 43 10000 4.64 314 13:44 07.12.2020
5002 Clear 1 1029 40 10000 1.5 310 12:35 07.12.2020
5003 Clear 2 1029 37 10000 5.55 308 11:43 07.12.2020
5004 Clear 3 1028 37 10000 1.5 320 10:44 07.12.2020
5005 Clear 4 1027 38 10000 2.6 300 09:40 07.12.2020
5006 Clouds 6 1026 33 10000 1.5 280 07:51 07.12.2020
5007 Clouds 7 1027 35 10000 2.1 320 05:34 07.12.2020
5008 Clouds 7 1027 36 10000 3.1 230 04:46 07.12.2020
5009 Haze 4 1028 72 6000 2.54 307 01:47 07.12.2020
5010 Clouds 4 1027 80 10000 1.05 319 22:53 06.12.2020
5011 Haze 4 1027 78 9000 0.74 305 22:19 06.12.2020
5012 Mist 4 1027 86 9000 0.78 305 20:47 06.12.2020
5013 Mist 4 1027 86 9000 1.14 328 20:26 06.12.2020
5014 Mist 4 1027 86 9000 1.14 328 19:39 06.12.2020
5015 Clouds 2 1027 93 10000 1.28 280 17:45 06.12.2020
5016 Clouds 1 1027 67 10000 1.38 236 16:34 06.12.2020
5017 Clear 1 1027 86 10000 1.15 227 14:49 06.12.2020
5018 Clear 2 1027 80 10000 1.06 240 13:30 06.12.2020
5019 Clear 3 1027 74 10000 1.08 241 12:35 06.12.2020
5020 Clear 4 1027 69 10000 1.13 258 11:53 06.12.2020
5021 Clear 6 1026 56 10000 1.19 274 11:25 06.12.2020
5022 Clear 6 1026 56 10000 1.19 274 10:36 06.12.2020
5023 Clear 7 1026 52 10000 2.76 265 09:31 06.12.2020
5024 Clouds 9 1026 49 10000 1.5 220 07:41 06.12.2020
5025 Clear 8 1027 52 10000 1.5 210 04:51 06.12.2020
5026 Clear -1 1028 92 10000 0.79 121 00:46 06.12.2020
5027 Clouds -1 1028 84 10000 0.76 115 00:26 06.12.2020
5028 Clouds 0 1028 84 10000 0.76 115 23:56 05.12.2020
5029 Clouds 1 1028 86 10000 0.74 109 22:25 05.12.2020
5030 Clouds 1 1028 86 10000 0.74 109 21:55 05.12.2020
5031 Clouds 1 1028 86 10000 0.84 62 21:30 05.12.2020
5032 Clouds 2 1029 74 10000 0.66 1 19:54 05.12.2020
5033 Clouds 2 1029 74 10000 0.3 72 18:46 05.12.2020
5034 Clouds 2 1029 74 10000 0.75 115 17:51 05.12.2020
5035 Clouds 2 1029 74 10000 0.65 101 16:45 05.12.2020
5036 Clouds 2 1029 74 10000 0.73 86 16:25 05.12.2020
5037 Clouds 1 1029 74 10000 1.02 48 14:39 05.12.2020
5038 Clouds 2 1029 64 10000 0.72 8 12:35 05.12.2020
5039 Clouds 3 1029 55 10000 0.79 346 11:50 05.12.2020
5040 Clouds 4 1029 48 10000 1.23 321 10:34 05.12.2020
5041 Clouds 6 1028 52 10000 2.6 302 08:27 05.12.2020
5042 Clouds 6 1028 52 10000 1.5 220 07:47 05.12.2020
5043 Clear 6 1029 48 10000 2.24 284 05:30 05.12.2020
5044 Clouds -3 1029 79 10000 0.22 321 23:57 04.12.2020
5045 Clouds -3 1029 79 10000 0.31 282 22:47 04.12.2020
5046 Clouds -2 1029 74 10000 0.16 132 20:39 04.12.2020
5047 Clouds -2 1029 74 10000 0.27 359 18:54 04.12.2020
5048 Clouds -2 1029 74 10000 0.52 341 18:28 04.12.2020
5049 Clouds -3 1029 68 10000 0.52 341 17:41 04.12.2020
5050 Clear -3 1030 68 10000 0.49 306 15:54 04.12.2020
5051 Clear -3 1030 68 10000 0.56 312 15:20 04.12.2020
5052 Clear -1 1029 58 10000 0.89 328 13:35 04.12.2020
5053 Clear -1 1030 74 10000 1.68 325 12:55 04.12.2020
5054 Clear 1 1029 43 10000 2.17 325 12:19 04.12.2020
5055 Clear 1 1029 37 10000 1.89 315 10:35 04.12.2020
5056 Clear 4 1028 32 10000 2.81 304 08:29 04.12.2020
5057 Clear 4 1028 27 10000 2.1 230 06:40 04.12.2020
5058 Clear 3 1030 40 10000 1.5 220 04:52 04.12.2020
5059 Clouds -5 1030 73 10000 1.21 249 00:24 04.12.2020
5060 Clear -5 1030 58 10000 0.67 272 22:47 03.12.2020
5061 Clear -6 1030 73 10000 0.73 262 21:20 03.12.2020
5062 Clear -6 1030 73 10000 0.73 262 20:39 03.12.2020
5063 Clear -3 1030 54 10000 1.03 264 19:21 03.12.2020
5064 Clear -3 1030 54 10000 1.03 264 18:40 03.12.2020
5065 Clear -2 1030 50 10000 1.22 325 17:21 03.12.2020
5066 Clear -1 1030 54 10000 2.1 320 15:59 03.12.2020
5067 Clear -1 1030 54 10000 2.1 320 15:32 03.12.2020
5068 Clear -1 1030 76 10000 2.1 320 14:48 03.12.2020
5069 Clear 0 1030 40 10000 1.5 330 13:51 03.12.2020
5070 Clear 1 1030 40 10000 2.6 280 12:33 03.12.2020
5071 Clear 1 1030 37 10000 2.1 310 11:59 03.12.2020
5072 Clear 1 1029 34 10000 1.5 310 10:38 03.12.2020
5073 Clear 3 1028 34 10000 4.69 304 08:38 03.12.2020
5074 Clear 3 1030 44 10000 3.93 308 03:42 03.12.2020
5075 Clear 2 1030 43 10000 3.77 310 01:41 03.12.2020
5076 Clear -2 1029 58 10000 2.95 308 23:51 02.12.2020
5077 Clouds -2 1028 54 10000 2.53 300 22:41 02.12.2020
5078 Clear 0 1028 40 10000 2.26 303 21:37 02.12.2020
5079 Clear 1 1029 40 10000 1.99 312 20:48 02.12.2020
5080 Clear 1 1029 40 10000 2.6 331 20:30 02.12.2020
5081 Clouds 1 1029 37 10000 2.6 331 19:39 02.12.2020
5082 Clear -1 1030 69 10000 2.1 340 17:48 02.12.2020
5083 Clear 1 1030 43 10000 2.66 312 17:29 02.12.2020
5084 Clouds 0 1030 40 10000 2.58 309 15:43 02.12.2020
5085 Clear 2 1029 37 10000 2.44 305 13:20 02.12.2020
5086 Clear 3 1029 35 10000 2.91 314 11:20 02.12.2020
5087 Clear 3 1029 35 10000 2.63 317 10:24 02.12.2020
5088 Clouds 6 1028 24 10000 2.62 308 07:42 02.12.2020
5089 Clouds 1 1031 43 10000 1.34 329 23:20 01.12.2020
5090 Snow 1 1031 43 10000 1.56 351 22:20 01.12.2020
5091 Clouds 2 1033 37 10000 1.5 260 19:36 01.12.2020
5092 Clouds 2 1033 37 10000 1.5 260 18:46 01.12.2020
5093 Clouds 2 1033 32 10000 2.1 310 16:47 01.12.2020
5094 Clouds 2 1033 37 10000 1.24 339 14:21 01.12.2020
5095 Clouds 3 1033 32 10000 1.65 354 12:29 01.12.2020
5096 Clouds 3 1034 32 10000 1.95 343 11:28 01.12.2020
5097 Clouds 3 1033 32 10000 1.95 343 10:44 01.12.2020
5098 Clouds 3 1034 25 10000 2.34 339 10:25 01.12.2020
5099 Clear 6 1034 26 10000 1.5 10 07:19 01.12.2020
5100 Clear -1 1037 65 10000 0.93 327 01:56 01.12.2020
5101 Clear -5 1037 73 10000 0.85 2 00:57 01.12.2020
5102 Clear -4 1036 62 10000 0.89 328 23:22 30.11.2020
5103 Clear -4 1036 62 10000 0.89 328 22:45 30.11.2020
5104 Clear -4 1036 62 10000 0.83 328 22:26 30.11.2020
5105 Clear -4 1037 53 10000 0.83 328 21:55 30.11.2020
5106 Clear -3 1037 46 10000 1.23 304 19:45 30.11.2020
5107 Clear -2 1037 77 10000 1.33 304 18:40 30.11.2020
5108 Clouds -2 1037 76 10000 1.36 293 18:20 30.11.2020
5109 Clear -2 1036 76 10000 1.5 320 17:24 30.11.2020
5110 Clear -2 1036 76 10000 1.5 320 16:43 30.11.2020
5111 Clear -1 1036 47 10000 1.5 360 14:47 30.11.2020
5112 Clear 0 1036 47 10000 1.95 313 13:53 30.11.2020
5113 Clear 0 1036 47 10000 1.95 313 13:53 30.11.2020
5114 Clear 1 1035 47 10000 1.5 290 12:27 30.11.2020
5115 Clear 1 1035 47 10000 1.5 290 11:58 30.11.2020
5116 Clear 1 1035 47 10000 3.75 317 10:30 30.11.2020
5117 Clear 3 1034 44 10000 3.75 317 09:51 30.11.2020
5118 Clear 4 1033 38 10000 2.1 240 07:26 30.11.2020
5119 Clear -5 1034 85 10000 2.6 302 00:54 30.11.2020
5120 Clear -5 1033 79 10000 1.92 308 21:53 29.11.2020
5121 Clear -5 1033 79 10000 1.92 308 21:53 29.11.2020
5122 Clear -5 1033 79 10000 1.92 308 21:32 29.11.2020
5123 Clear -5 1033 79 10000 1.92 312 20:38 29.11.2020
5124 Clear -3 1032 68 10000 2.34 308 17:48 29.11.2020
5125 Clear -2 1032 58 10000 3.3 313 16:27 29.11.2020
5126 Clear 0 1031 79 10000 3.9 315 13:24 29.11.2020
5127 Clouds 1 1030 59 10000 1.5 340 11:42 29.11.2020
5128 Clear 2 1029 59 10000 4.44 309 10:34 29.11.2020
5129 Clouds 3 1029 55 10000 1.5 300 08:38 29.11.2020
5130 Clouds 3 1028 55 10000 4.9 294 06:32 29.11.2020
5131 Clouds -3 1028 68 10000 0.89 322 23:52 28.11.2020
5132 Clear -3 1028 68 10000 0.87 322 22:56 28.11.2020
5133 Clouds -2 1028 54 10000 1.65 296 20:47 28.11.2020
5134 Clouds -1 1028 50 10000 1.7 285 19:48 28.11.2020
5135 Clouds -1 1028 50 10000 1.59 285 19:22 28.11.2020
5136 Clouds -1 1028 54 10000 1.57 286 18:27 28.11.2020
5137 Clouds -1 1028 54 10000 1.57 286 17:47 28.11.2020
5138 Clouds -1 1028 54 10000 1.47 291 16:40 28.11.2020
5139 Clouds 0 1028 74 10000 1.81 303 14:52 28.11.2020
5140 Clouds 0 1028 47 10000 3.75 311 11:31 28.11.2020
5141 Clear 1 1028 43 10000 1.5 330 10:28 28.11.2020
5142 Clear 3 1029 27 10000 2.1 330 06:26 28.11.2020
5143 Clear 2 1030 43 10000 2.1 300 03:26 28.11.2020
5144 Clear -1 1029 50 10000 3.8 308 00:49 28.11.2020
5145 Clear -1 1029 74 10000 4.04 302 22:55 27.11.2020
5146 Clear -1 1029 77 10000 5.07 310 21:27 27.11.2020
5147 Clear 0 1029 79 10000 4.91 306 20:30 27.11.2020
5148 Clear 0 1028 55 10000 1.5 320 19:25 27.11.2020
5149 Clear 0 1027 59 10000 4.75 304 17:50 27.11.2020
5150 Clear 2 1027 59 10000 4.59 306 14:46 27.11.2020
5151 Clear 3 1027 59 10000 4.6 300 13:24 27.11.2020
5152 Clear 3 1027 59 10000 4.6 300 12:47 27.11.2020
5153 Clear 3 1026 51 10000 2.1 310 11:35 27.11.2020
5154 Clear 5 1025 44 10000 5.74 308 10:50 27.11.2020
5155 Clear 6 1024 41 10000 1.5 350 09:53 27.11.2020
5156 Clouds 6 1024 45 10000 2.1 250 05:47 27.11.2020
5157 Rain 5 1026 65 10000 2.02 286 22:27 26.11.2020
5158 Clouds 1 1026 86 10000 1 40 21:56 26.11.2020
5159 Clouds 3 1025 75 10000 1.4 282 20:50 26.11.2020
5160 Clouds 3 1026 80 10000 0.87 290 18:37 26.11.2020
5161 Clouds 3 1026 70 10000 1.01 307 17:41 26.11.2020
5162 Clouds 3 1026 56 10000 0.83 293 14:49 26.11.2020
5163 Clear 4 1026 60 10000 0.71 331 13:19 26.11.2020
5164 Clear 4 1026 60 10000 0.71 331 12:41 26.11.2020
5165 Clear 5 1026 56 10000 1.8 319 11:29 26.11.2020
5166 Clouds 8 1025 45 10000 1.55 310 10:25 26.11.2020
5167 Clouds 8 1025 45 10000 1.55 310 09:39 26.11.2020
5168 Clear 10 1025 37 10000 1.5 230 09:18 26.11.2020
5169 Clear 10 1025 37 10000 1.5 230 08:34 26.11.2020
5170 Clouds 3 1028 86 10000 0.93 28 02:19 26.11.2020
5171 Clear 1 1027 67 10000 1.11 359 22:31 25.11.2020
5172 Clear 1 1027 93 10000 1.09 338 20:38 25.11.2020
5173 Clear 1 1027 93 10000 1.13 327 19:29 25.11.2020
5174 Clouds 1 1027 93 10000 0.95 305 18:22 25.11.2020
5175 Clear 2 1027 61 10000 0.87 272 15:55 25.11.2020
5176 Clear 2 1027 60 10000 0.64 359 15:32 25.11.2020
5177 Clouds 4 1026 80 10000 0.7 5 13:47 25.11.2020
5178 Clouds 5 1026 80 10000 0.77 258 12:59 25.11.2020
5179 Clear 5 1026 75 10000 1.23 304 11:27 25.11.2020
5180 Clouds 9 1026 54 10000 1.5 220 09:22 25.11.2020
5181 Clouds 9 1026 54 10000 1.5 220 08:50 25.11.2020
5182 Clouds 10 1026 52 10000 2.98 281 07:53 25.11.2020
5183 Clouds 7 1028 39 10000 1.54 291 03:54 25.11.2020
5184 Clear 3 1028 64 10000 0.33 213 01:50 25.11.2020
5185 Clear -2 1027 86 10000 0.29 82 00:21 25.11.2020
5186 Clear -1 1027 86 10000 0.29 82 23:36 24.11.2020
5187 Clouds -1 1028 66 10000 0.73 19 22:41 24.11.2020
5188 Clear -1 1027 80 10000 1.05 347 21:44 24.11.2020
5189 Clear -1 1027 80 10000 1.18 314 21:26 24.11.2020
5190 Clouds -1 1028 64 10000 0.95 305 19:48 24.11.2020
5191 Clouds 0 1027 61 10000 1.25 342 17:41 24.11.2020
5192 Clear -1 1028 60 10000 0.75 293 17:22 24.11.2020
5193 Clear -1 1028 60 10000 0.75 293 16:38 24.11.2020
5194 Clear -1 1028 60 10000 1.11 6 15:56 24.11.2020
5195 Clear 1 1028 59 10000 1.37 12 15:20 24.11.2020
5196 Clear 1 1028 59 10000 1.37 12 14:45 24.11.2020
5197 Clear 2 1028 44 10000 1.01 316 13:38 24.11.2020
5198 Clear 3 1028 44 10000 1.24 319 12:39 24.11.2020
5199 Clear 3 1028 41 10000 1.44 320 12:18 24.11.2020
5200 Clear 4 1028 41 10000 1.81 316 11:33 24.11.2020
5201 Clouds 5 1027 33 10000 1.89 322 10:25 24.11.2020
5202 Clouds 7 1027 33 10000 1.89 322 09:40 24.11.2020
5203 Clouds 7 1027 30 10000 1.97 314 08:59 24.11.2020
5204 Clouds 6 1028 39 10000 2.03 303 06:20 24.11.2020
5205 Clouds 2 1029 64 10000 0.78 275 01:00 24.11.2020
5206 Rain 1 1028 59 10000 0.92 15 22:24 23.11.2020
5207 Clouds 1 1028 59 10000 1.73 6 21:32 23.11.2020
5208 Clouds 1 1029 59 10000 1.73 6 20:31 23.11.2020
5209 Clouds 1 1028 55 10000 1.69 3 19:59 23.11.2020
5210 Clouds 0 1029 55 10000 1.36 315 17:57 23.11.2020
5211 Clear 0 1029 67 10000 1.57 302 16:56 23.11.2020
5212 Clear 1 1028 44 10000 1.73 307 15:18 23.11.2020
5213 Clear 1 1028 44 10000 1.73 307 14:37 23.11.2020
5214 Clear 2 1028 55 10000 2.7 324 12:41 23.11.2020
5215 Clear 3 1028 47 10000 3.82 327 12:18 23.11.2020
5216 Clear 3 1028 47 10000 3.82 327 11:41 23.11.2020
5217 Clear 4 1027 44 10000 1.5 290 10:19 23.11.2020
5218 Clear 6 1027 41 10000 3.5 308 08:59 23.11.2020
5219 Clear 6 1027 35 10000 1.5 210 08:18 23.11.2020
5220 Clear 4 1028 47 10000 1.5 230 05:22 23.11.2020
5221 Clear -1 1028 78 10000 2.12 296 23:54 22.11.2020
5222 Clear -1 1028 78 10000 2.36 302 22:32 22.11.2020
5223 Clear -1 1027 77 10000 3.06 315 21:25 22.11.2020
5224 Clear 0 1027 64 10000 3.2 311 20:27 22.11.2020
5225 Clear 0 1027 64 10000 3.41 311 19:29 22.11.2020
5226 Clear 1 1026 64 10000 3.37 304 18:25 22.11.2020
5227 Clear 2 1026 64 10000 4.01 304 16:29 22.11.2020
5228 Clear 2 1026 64 10000 4.05 306 15:27 22.11.2020
5229 Clouds 4 1025 69 10000 4.89 315 13:32 22.11.2020
5230 Clear 5 1024 65 10000 1.5 350 12:43 22.11.2020
5231 Clouds 5 1024 68 10000 5.23 308 11:54 22.11.2020
5232 Clouds 7 1023 70 10000 5.69 309 10:51 22.11.2020
5233 Clouds 7 1023 70 10000 6.02 312 10:33 22.11.2020
5234 Clouds 7 1023 70 10000 6.02 312 10:33 22.11.2020
5235 Clouds 7 1022 70 10000 3.87 290 04:43 22.11.2020
5236 Mist 6 1022 87 8000 1.71 307 00:49 22.11.2020
5237 Rain 7 1021 87 9000 2.69 294 22:42 21.11.2020
5238 Mist 7 1021 93 8000 3.61 294 21:31 21.11.2020
5239 Rain 8 1021 100 6000 3.61 294 20:49 21.11.2020
5240 Rain 8 1021 100 6000 3.53 295 20:20 21.11.2020
5241 Rain 8 1021 100 4400 3.53 295 19:49 21.11.2020
5242 Rain 8 1021 100 6000 1.59 277 19:18 21.11.2020
5243 Mist 8 1021 93 4000 3.28 267 17:31 21.11.2020
5244 Rain 8 1021 81 8000 2.1 230 16:45 21.11.2020
5245 Rain 10 1021 62 10000 1.97 209 15:41 21.11.2020
5246 Rain 9 1021 81 10000 1.51 199 15:20 21.11.2020
5247 Clouds 9 1021 81 10000 1.51 199 14:42 21.11.2020
5248 Clouds 9 1023 61 10000 1.55 168 12:44 21.11.2020
5249 Clouds 9 1022 66 10000 1.15 203 12:22 21.11.2020
5250 Clouds 9 1022 66 10000 1.15 203 11:49 21.11.2020
5251 Clouds 10 1022 61 10000 1.49 198 10:28 21.11.2020
5252 Clouds 12 1022 47 10000 1.47 162 08:52 21.11.2020
5253 Clouds 12 1022 43 10000 1.78 149 08:19 21.11.2020
5254 Clouds 11 1022 45 10000 1.5 50 05:42 21.11.2020
5255 Clear 2 1026 74 10000 1.92 96 01:59 21.11.2020
5256 Clear -1 1025 86 10000 0.98 60 00:21 21.11.2020
5257 Clear 0 1024 74 10000 1.58 58 22:43 20.11.2020
5258 Clear 0 1024 74 10000 1.55 67 21:44 20.11.2020
5259 Clear 0 1024 74 10000 1.55 67 21:44 20.11.2020
5260 Clear 0 1024 74 10000 2.08 59 21:21 20.11.2020
5261 Clear 0 1025 80 10000 2.17 47 19:55 20.11.2020
5262 Clear -1 1025 86 10000 2.02 36 18:54 20.11.2020
5263 Clear -1 1025 86 10000 1.1 69 17:59 20.11.2020
5264 Clear -1 1025 86 10000 0.63 33 17:29 20.11.2020
5265 Clear 0 1025 65 10000 0.63 33 16:47 20.11.2020
5266 Clear 1 1024 64 10000 0.86 16 15:59 20.11.2020
5267 Clear 1 1024 64 10000 0.86 16 15:34 20.11.2020
5268 Clouds 2 1023 69 10000 1.5 40 13:49 20.11.2020
5269 Clouds 2 1023 69 10000 2.02 341 13:19 20.11.2020
5270 Clouds 2 1023 69 10000 1.81 332 12:39 20.11.2020
5271 Clouds 3 1022 64 10000 2.6 280 11:46 20.11.2020
5272 Clouds 3 1022 64 10000 1.5 310 11:20 20.11.2020
5273 Clouds 4 1021 64 10000 1.5 280 09:31 20.11.2020
5274 Clouds 4 1020 64 10000 1.5 310 08:26 20.11.2020
5275 Clouds 4 1019 64 10000 2.6 330 07:34 20.11.2020
5276 Clouds 4 1019 69 10000 4.62 302 03:44 20.11.2020
5277 Clouds 4 1016 71 10000 3.1 220 22:47 19.11.2020
5278 Clouds 4 1016 70 10000 3.1 220 22:26 19.11.2020
5279 Clouds 5 1015 80 10000 1.5 280 21:46 19.11.2020
5280 Clouds 6 1015 81 10000 2.6 320 20:33 19.11.2020
5281 Clouds 7 1014 75 10000 5.56 294 19:54 19.11.2020
5282 Clouds 7 1014 81 10000 1.5 320 19:25 19.11.2020
5283 Clouds 7 1014 87 10000 5.34 285 17:46 19.11.2020
5284 Clouds 8 1013 87 10000 5.68 280 16:58 19.11.2020
5285 Clouds 8 1013 76 10000 1.5 300 15:41 19.11.2020
5286 Clouds 8 1013 76 10000 5.94 276 15:23 19.11.2020
5287 Clouds 9 1012 76 10000 6.07 272 13:46 19.11.2020
5288 Clouds 10 1012 76 10000 6.05 270 13:20 19.11.2020
5289 Clouds 10 1012 76 10000 6.18 272 12:40 19.11.2020
5290 Clouds 10 1012 76 10000 5.59 275 12:19 19.11.2020
5291 Clouds 10 1012 76 10000 5.59 275 11:36 19.11.2020
5292 Clouds 10 1011 76 10000 5.53 274 10:54 19.11.2020
5293 Clouds 11 1009 76 10000 5.41 272 10:19 19.11.2020
5294 Clouds 11 1009 76 10000 5.41 272 09:44 19.11.2020
5295 Clouds 11 1008 81 10000 1.5 270 09:24 19.11.2020
5296 Clouds 11 1008 81 10000 1.5 270 09:24 19.11.2020
5297 Clouds 14 1007 87 10000 5.98 270 08:19 19.11.2020
5298 Mist 14 1006 100 9000 5.86 272 05:41 19.11.2020
5299 Rain 18 1004 93 3000 5.7 220 01:45 19.11.2020
5300 Rain 19 1003 100 2000 7.65 228 23:53 18.11.2020
5301 Rain 19 1003 100 2000 8.19 212 23:24 18.11.2020
5302 Rain 20 1004 94 3600 1.5 260 22:36 18.11.2020
5303 Rain 19 1004 94 4400 1.5 200 22:18 18.11.2020
5304 Rain 18 1005 93 4000 5.7 210 21:38 18.11.2020
5305 Rain 19 1005 93 3000 6.2 180 21:19 18.11.2020
5306 Rain 18 1006 88 9000 6.7 170 19:46 18.11.2020
5307 Rain 18 1006 88 9000 6.7 170 19:25 18.11.2020
5308 Rain 18 1007 88 5000 6.2 170 18:49 18.11.2020
5309 Rain 18 1007 82 10000 6.2 160 17:55 18.11.2020
5310 Rain 18 1007 82 10000 6.2 160 17:35 18.11.2020
5311 Rain 17 1010 88 10000 4.6 150 16:22 18.11.2020
5312 Rain 17 1010 77 10000 5.1 160 14:49 18.11.2020
5313 Rain 17 1010 77 10000 5.1 160 14:29 18.11.2020
5314 Rain 18 1012 82 10000 2.47 120 13:42 18.11.2020
5315 Rain 18 1013 82 10000 2.24 123 12:47 18.11.2020
5316 Clouds 18 1012 88 10000 2.53 117 12:18 18.11.2020
5317 Clouds 18 1013 88 10000 2.56 119 11:25 18.11.2020
5318 Clouds 18 1013 88 10000 2.56 119 10:31 18.11.2020
5319 Rain 18 1014 88 4800 2.59 120 08:52 18.11.2020
5320 Rain 19 1015 82 3000 2.04 117 07:36 18.11.2020
5321 Clouds 19 1016 77 10000 1.5 60 06:28 18.11.2020
5322 Mist 15 1019 100 9000 1.35 101 00:22 18.11.2020
5323 Rain 15 1019 100 9000 1.7 102 23:30 17.11.2020
5324 Mist 14 1019 100 6000 1.7 102 22:45 17.11.2020
5325 Rain 14 1019 100 6000 1.72 104 22:27 17.11.2020
5326 Mist 15 1019 100 6000 1.72 104 21:48 17.11.2020
5327 Mist 15 1019 100 6000 1.49 98 21:23 17.11.2020
5328 Mist 15 1019 100 4000 1.49 98 20:43 17.11.2020
5329 Mist 15 1020 100 6000 1.5 107 20:23 17.11.2020
5330 Rain 15 1020 100 4800 1.5 107 19:44 17.11.2020
5331 Rain 15 1020 100 4800 1.39 111 18:23 17.11.2020
5332 Mist 15 1021 93 4800 1.57 100 17:28 17.11.2020
5333 Mist 15 1021 93 9000 1.57 100 16:35 17.11.2020
5334 Clouds 15 1021 82 10000 1.86 91 15:54 17.11.2020
5335 Clouds 15 1021 82 10000 1.86 91 15:35 17.11.2020
5336 Clouds 15 1021 87 10000 1.19 96 14:58 17.11.2020
5337 Clouds 15 1021 93 10000 1.35 103 14:29 17.11.2020
5338 Clouds 15 1021 93 10000 1.35 103 14:29 17.11.2020
5339 Mist 14 1021 93 9000 1.35 103 13:42 17.11.2020
5340 Clouds 16 1022 93 10000 1.26 141 13:20 17.11.2020
5341 Clouds 16 1022 93 10000 1.26 141 12:41 17.11.2020
5342 Clouds 17 1022 77 10000 0.7 97 11:44 17.11.2020
5343 Clouds 18 1022 68 10000 0.62 95 10:56 17.11.2020
5344 Rain 18 1022 68 10000 0.5 130 10:33 17.11.2020
5345 Clouds 19 1022 63 10000 0.5 130 09:51 17.11.2020
5346 Clouds 19 1022 63 10000 0.79 145 09:29 17.11.2020
5347 Clouds 20 1021 56 10000 1.08 126 08:24 17.11.2020
5348 Clouds 20 1021 56 10000 1.08 126 07:46 17.11.2020
5349 Clouds 20 1022 49 10000 1.25 101 06:40 17.11.2020
5350 Clouds 17 1024 59 10000 1.78 105 03:48 17.11.2020
5351 Clouds 16 1025 67 10000 1.5 80 02:53 17.11.2020
5352 Clouds 13 1025 81 10000 1.65 92 01:25 17.11.2020
5353 Clouds 12 1025 81 10000 1.72 89 00:53 17.11.2020
5354 Clouds 11 1025 81 10000 1.83 79 23:48 16.11.2020
5355 Clouds 11 1025 81 10000 1.58 79 23:29 16.11.2020
5356 Clouds 10 1025 87 10000 1.58 79 22:43 16.11.2020
5357 Clouds 9 1025 93 10000 1.73 73 22:20 16.11.2020
5358 Clouds 9 1025 93 10000 1.73 73 21:45 16.11.2020
5359 Clear 8 1025 87 10000 1.51 77 21:24 16.11.2020
5360 Clear 8 1025 87 10000 1.51 77 20:37 16.11.2020
5361 Clear 7 1025 87 10000 1.96 83 20:19 16.11.2020
5362 Clear 7 1025 87 10000 1.96 83 19:38 16.11.2020
5363 Clear 7 1025 87 10000 1.8 84 19:19 16.11.2020
5364 Clear 7 1025 87 10000 1.93 91 18:29 16.11.2020
5365 Clear 8 1025 81 10000 1.93 91 17:42 16.11.2020
5366 Clear 8 1025 81 10000 2.07 90 17:20 16.11.2020
5367 Clear 8 1025 81 10000 2.07 90 16:52 16.11.2020
5368 Clear 8 1025 81 10000 2.23 84 16:27 16.11.2020
5369 Clear 8 1025 87 10000 2.23 84 15:50 16.11.2020
5370 Clear 8 1025 87 10000 2.5 84 15:29 16.11.2020
5371 Clear 8 1025 87 10000 2.5 84 15:29 16.11.2020
5372 Clear 8 1025 87 10000 2.5 84 14:53 16.11.2020
5373 Clear 9 1025 87 10000 2.55 79 13:59 16.11.2020
5374 Clear 10 1025 81 10000 2.53 74 13:21 16.11.2020
5375 Clear 10 1025 81 10000 1.82 67 12:32 16.11.2020
5376 Clear 11 1025 71 10000 1.82 67 11:43 16.11.2020
5377 Clear 11 1024 66 10000 1.29 61 11:23 16.11.2020
5378 Clear 13 1024 66 10000 1.29 61 10:44 16.11.2020
5379 Clear 14 1024 51 10000 1.22 60 10:26 16.11.2020
5380 Clear 16 1024 51 10000 1.22 60 09:53 16.11.2020
5381 Clear 16 1024 51 10000 1.22 60 09:34 16.11.2020
5382 Clear 18 1024 42 10000 0.98 39 08:48 16.11.2020
5383 Clear 18 1024 42 10000 1.34 38 08:21 16.11.2020
5384 Haze 17 1025 48 9000 1.79 23 07:19 16.11.2020
5385 Haze 17 1025 48 9000 1.13 55 06:45 16.11.2020
5386 Haze 16 1025 55 8000 2.1 150 05:48 16.11.2020
5387 Haze 12 1027 71 8000 1.17 21 03:54 16.11.2020
5388 Mist 8 1028 100 6000 1.23 39 01:45 16.11.2020
5389 Mist 5 1027 100 4000 0.63 4 00:29 16.11.2020
5390 Mist 6 1027 100 4800 0.49 291 23:29 15.11.2020
5391 Mist 5 1027 100 4800 0.49 291 22:57 15.11.2020
5392 Mist 5 1026 100 4800 0.48 329 22:24 15.11.2020
5393 Mist 5 1026 100 4800 0.48 329 21:51 15.11.2020
5394 Mist 5 1026 100 4800 0.38 308 21:29 15.11.2020
5395 Mist 5 1026 100 4800 0.38 308 20:51 15.11.2020
5396 Mist 5 1026 100 4800 0.51 301 20:32 15.11.2020
5397 Mist 5 1027 100 6000 0.51 301 19:55 15.11.2020
5398 Mist 5 1027 100 6000 0.51 301 19:37 15.11.2020
5399 Mist 6 1027 100 6000 0.56 314 19:18 15.11.2020
5400 Mist 6 1027 100 6000 0.67 309 18:43 15.11.2020
5401 Mist 6 1027 100 6000 0.94 339 18:24 15.11.2020
5402 Mist 6 1027 100 6000 0.94 339 17:47 15.11.2020
5403 Mist 7 1027 100 4800 0.69 322 17:26 15.11.2020
5404 Mist 7 1027 100 4800 0.69 322 16:53 15.11.2020
5405 Mist 7 1027 93 4800 0.9 322 16:24 15.11.2020
5406 Mist 7 1027 93 4800 0.9 322 15:58 15.11.2020
5407 Mist 7 1027 93 6000 0.9 322 15:39 15.11.2020
5408 Mist 8 1026 93 6000 0.72 286 15:21 15.11.2020
5409 Mist 8 1026 93 6000 0.72 286 14:45 15.11.2020
5410 Mist 9 1026 93 8000 0.87 250 14:22 15.11.2020
5411 Mist 9 1026 93 8000 0.87 250 13:41 15.11.2020
5412 Clear 10 1026 81 10000 0.71 270 12:53 15.11.2020
5413 Clear 10 1026 81 10000 1.46 275 12:29 15.11.2020
5414 Clear 10 1026 81 10000 1.46 275 11:58 15.11.2020
5415 Clear 10 1026 81 10000 1.46 275 11:40 15.11.2020
5416 Clear 11 1026 71 10000 2.11 273 11:18 15.11.2020
5417 Clear 11 1026 71 10000 2.11 273 11:18 15.11.2020
5418 Clear 11 1026 71 10000 2.11 273 10:46 15.11.2020
5419 Clear 11 1026 71 10000 2.57 274 10:27 15.11.2020
5420 Clear 14 1026 58 10000 2.57 274 09:45 15.11.2020
5421 Clear 15 1026 58 10000 3.07 276 09:22 15.11.2020
5422 Clear 15 1026 58 10000 3.07 276 08:53 15.11.2020
5423 Clear 15 1026 58 10000 3.2 268 08:31 15.11.2020
5424 Clouds 15 1026 67 10000 3.2 268 07:43 15.11.2020
5425 Clouds 15 1027 67 10000 3.07 256 05:30 15.11.2020
5426 Haze 15 1027 67 6000 1.5 290 04:50 15.11.2020
5427 Mist 6 1028 100 4000 0.83 173 00:49 15.11.2020
5428 Mist 6 1028 100 4000 0.85 148 00:29 15.11.2020
5429 Mist 5 1028 100 4800 0.85 148 23:37 14.11.2020
5430 Mist 4 1028 100 8000 0.84 141 22:50 14.11.2020
5431 Mist 4 1028 100 8000 0.84 141 22:31 14.11.2020
5432 Mist 4 1028 100 8000 0.84 141 22:31 14.11.2020
5433 Mist 5 1027 100 6000 0.55 136 21:44 14.11.2020
5434 Mist 5 1027 93 8000 0.6 119 21:22 14.11.2020
5435 Mist 5 1027 93 8000 0.6 119 20:57 14.11.2020
5436 Mist 5 1027 100 4800 0.31 139 20:28 14.11.2020
5437 Mist 6 1027 93 4800 0.31 139 19:52 14.11.2020
5438 Mist 6 1027 93 4800 0.32 154 19:32 14.11.2020
5439 Mist 6 1028 100 8000 0.32 154 18:44 14.11.2020
5440 Mist 6 1028 100 8000 0.51 151 18:25 14.11.2020
5441 Mist 7 1028 93 8000 0.51 151 17:57 14.11.2020
5442 Mist 7 1028 93 8000 0.51 151 17:39 14.11.2020
5443 Mist 7 1028 87 8000 0.69 137 17:19 14.11.2020
5444 Mist 7 1028 87 8000 0.69 137 16:41 14.11.2020
5445 Mist 8 1028 87 9000 0.47 154 16:20 14.11.2020
5446 Mist 8 1028 87 9000 0.47 154 15:52 14.11.2020
5447 Mist 8 1028 87 9000 0.41 205 15:26 14.11.2020
5448 Clouds 8 1028 87 10000 0.41 205 14:42 14.11.2020
5449 Clear 9 1028 76 10000 0.55 225 14:23 14.11.2020
5450 Clear 9 1028 76 10000 0.55 225 13:42 14.11.2020
5451 Clouds 10 1028 66 10000 0.96 233 13:23 14.11.2020
5452 Clouds 11 1028 66 10000 0.96 233 12:46 14.11.2020
5453 Clouds 11 1028 66 10000 1.13 224 12:28 14.11.2020
5454 Clouds 12 1028 58 10000 1.13 224 11:46 14.11.2020
5455 Clouds 12 1028 58 10000 0.95 181 11:25 14.11.2020
5456 Clouds 14 1028 50 10000 0.95 181 10:45 14.11.2020
5457 Clouds 14 1028 50 10000 1.38 142 10:25 14.11.2020
5458 Clouds 16 1028 42 10000 1.38 142 09:49 14.11.2020
5459 Clouds 16 1028 42 10000 1.93 134 09:28 14.11.2020
5460 Clear 18 1028 36 10000 1.93 134 08:50 14.11.2020
5461 Clear 18 1028 36 10000 1.57 147 08:29 14.11.2020
5462 Clouds 19 1028 36 10000 2.1 120 07:50 14.11.2020
5463 Clouds 19 1028 36 10000 2.1 120 07:26 14.11.2020
5464 Clear 18 1028 39 10000 3.1 160 06:32 14.11.2020
5465 Clear 18 1029 48 10000 2.1 120 05:31 14.11.2020
5466 Clear 14 1030 62 10000 1.5 140 03:53 14.11.2020
5467 Mist 5 1030 100 3600 1.15 77 00:56 14.11.2020
5468 Mist 5 1030 100 3200 1.4 80 23:46 13.11.2020
5469 Mist 5 1030 100 3000 1.23 80 23:23 13.11.2020
5470 Mist 5 1030 100 4000 1.23 80 22:44 13.11.2020
5471 Mist 5 1029 100 4400 1.1 84 22:25 13.11.2020
5472 Mist 5 1029 100 4400 1.1 84 21:51 13.11.2020
5473 Mist 5 1029 100 4400 1.1 84 21:33 13.11.2020
5474 Mist 6 1029 100 4000 1.02 82 20:59 13.11.2020
5475 Mist 6 1029 100 4000 1.02 82 20:40 13.11.2020
5476 Mist 5 1029 100 3600 0.84 67 20:20 13.11.2020
5477 Mist 5 1029 100 3600 0.84 67 19:45 13.11.2020
5478 Mist 5 1029 100 3600 0.83 64 19:23 13.11.2020
5479 Mist 5 1029 100 3600 0.81 80 18:53 13.11.2020
5480 Mist 6 1029 100 1600 0.81 79 18:00 13.11.2020
5481 Mist 6 1029 100 2200 0.81 79 17:39 13.11.2020
5482 Mist 6 1029 100 1200 0.74 73 17:18 13.11.2020
5483 Mist 6 1029 100 2800 0.74 73 16:47 13.11.2020
5484 Mist 6 1029 100 3200 0.62 44 16:21 13.11.2020
5485 Mist 7 1029 100 3000 0.62 44 15:42 13.11.2020
5486 Mist 8 1029 100 4400 0.25 352 15:23 13.11.2020
5487 Mist 8 1029 100 4400 0.25 352 14:41 13.11.2020
5488 Mist 9 1028 93 4800 0.15 257 14:20 13.11.2020
5489 Mist 9 1028 93 4800 0.15 257 13:45 13.11.2020
5490 Mist 10 1028 87 8000 0.58 254 13:21 13.11.2020
5491 Mist 10 1028 87 8000 0.46 251 12:45 13.11.2020
5492 Clear 10 1028 81 10000 0.76 261 12:24 13.11.2020
5493 Clear 10 1028 81 10000 0.76 261 11:48 13.11.2020
5494 Clear 13 1027 66 10000 1.11 251 11:24 13.11.2020
5495 Clear 13 1027 66 10000 1.11 251 10:54 13.11.2020
5496 Clear 13 1027 66 10000 1.11 251 10:34 13.11.2020
5497 Clear 15 1027 51 10000 1.5 252 09:56 13.11.2020
5498 Clear 15 1027 51 10000 1.5 252 09:32 13.11.2020
5499 Clear 17 1027 45 10000 1.9 267 08:57 13.11.2020
5500 Clear 17 1027 45 10000 1.9 267 08:33 13.11.2020
5501 Clear 17 1027 55 10000 1.88 282 07:55 13.11.2020
5502 Clear 17 1027 55 10000 1.88 282 07:37 13.11.2020
5503 Clouds 17 1027 55 10000 2.08 291 07:18 13.11.2020
5504 Clouds 17 1027 55 10000 1.88 290 06:41 13.11.2020
5505 Clear 16 1027 63 10000 2.1 250 05:42 13.11.2020
5506 Clouds 15 1028 62 10000 1.81 263 04:39 13.11.2020
5507 Clouds 10 1029 62 10000 0.81 120 01:43 13.11.2020
5508 Clouds 8 1029 71 10000 0.83 111 00:37 13.11.2020
5509 Clouds 6 1028 87 10000 0.82 93 23:59 12.11.2020
5510 Clouds 6 1028 87 10000 0.82 93 23:36 12.11.2020
5511 Clouds 7 1028 87 10000 0.69 92 23:18 12.11.2020
5512 Clouds 7 1028 87 10000 0.69 92 23:18 12.11.2020
5513 Clouds 7 1028 87 10000 0.69 92 22:40 12.11.2020
5514 Clouds 7 1028 87 10000 0.61 101 21:59 12.11.2020
5515 Clouds 7 1028 87 10000 0.61 101 21:41 12.11.2020
5516 Clouds 8 1028 87 10000 0.53 110 21:22 12.11.2020
5517 Clouds 8 1028 87 10000 0.53 110 20:42 12.11.2020
5518 Clouds 7 1029 87 10000 0.51 119 20:24 12.11.2020
5519 Clouds 7 1029 87 10000 0.51 119 19:57 12.11.2020
5520 Clouds 7 1029 87 10000 0.51 119 19:39 12.11.2020
5521 Mist 6 1029 93 9000 0.31 126 19:21 12.11.2020
5522 Mist 6 1029 93 9000 0.81 162 18:45 12.11.2020
5523 Clouds 7 1029 87 10000 0.7 176 18:20 12.11.2020
5524 Clouds 7 1029 87 10000 0.7 176 17:43 12.11.2020
5525 Clouds 7 1029 87 10000 0.69 192 17:24 12.11.2020
5526 Clouds 7 1029 87 10000 0.69 192 16:46 12.11.2020
5527 Clouds 7 1029 81 10000 0.66 199 16:24 12.11.2020
5528 Clouds 7 1029 81 10000 0.66 199 15:53 12.11.2020
5529 Clouds 7 1029 81 10000 0.39 226 15:29 12.11.2020
5530 Clear 7 1029 75 10000 0.39 226 14:56 12.11.2020
5531 Clear 7 1029 75 10000 0.39 226 14:37 12.11.2020
5532 Clouds 9 1029 66 10000 0.5 269 14:18 12.11.2020
5533 Clouds 9 1029 66 10000 0.5 269 13:45 12.11.2020
5534 Clouds 10 1029 57 10000 0.76 286 13:19 12.11.2020
5535 Clouds 10 1029 57 10000 0.76 286 12:48 12.11.2020
5536 Clear 11 1028 57 10000 0.77 259 12:25 12.11.2020
5537 Clear 11 1028 57 10000 0.77 259 11:54 12.11.2020
5538 Clear 11 1028 57 10000 0.77 259 11:35 12.11.2020
5539 Clouds 13 1028 39 10000 1.59 274 10:53 12.11.2020
5540 Clouds 13 1028 39 10000 1.59 274 10:53 12.11.2020
5541 Clouds 13 1028 39 10000 1.59 274 10:34 12.11.2020
5542 Haze 15 1028 36 9000 1.87 273 09:56 12.11.2020
5543 Haze 15 1028 33 9000 1.83 227 09:28 12.11.2020
5544 Haze 17 1028 29 9000 1.83 227 08:59 12.11.2020
5545 Haze 17 1028 29 9000 1.83 227 08:40 12.11.2020
5546 Haze 17 1028 29 9000 1.83 227 08:40 12.11.2020
5547 Haze 17 1028 32 9000 2.12 238 08:20 12.11.2020
5548 Haze 17 1028 32 9000 2.12 238 07:54 12.11.2020
5549 Haze 17 1028 32 9000 2.12 238 07:31 12.11.2020
5550 Clear 17 1028 31 10000 2.6 160 06:51 12.11.2020
5551 Clear 17 1029 32 10000 2.1 280 06:22 12.11.2020
5552 Clear 13 1031 46 10000 0.25 161 03:45 12.11.2020
5553 Clear 10 1031 53 10000 0.57 109 03:19 12.11.2020
5554 Clear 3 1032 93 10000 0.89 98 00:28 12.11.2020
5555 Clear 2 1031 100 10000 0.89 98 23:42 11.11.2020
5556 Clear 2 1031 100 10000 0.94 99 23:24 11.11.2020
5557 Clear 2 1031 100 10000 0.94 99 22:47 11.11.2020
5558 Clear 2 1031 93 10000 0.9 104 22:22 11.11.2020
5559 Clear 2 1031 93 10000 0.9 104 21:56 11.11.2020
5560 Clear 2 1031 93 10000 0.9 104 21:38 11.11.2020
5561 Clear 3 1031 93 10000 0.8 100 21:19 11.11.2020
5562 Clear 3 1031 93 10000 0.8 100 20:42 11.11.2020
5563 Clear 3 1032 93 10000 0.9 93 20:22 11.11.2020
5564 Clear 3 1032 93 10000 0.9 93 19:55 11.11.2020
5565 Clear 3 1032 93 10000 0.9 93 19:36 11.11.2020
5566 Clear 3 1032 93 10000 0.84 74 19:18 11.11.2020
5567 Clear 3 1032 93 10000 0.84 74 19:18 11.11.2020
5568 Clear 3 1032 93 10000 0.84 74 18:41 11.11.2020
5569 Clear 4 1032 93 10000 0.69 71 18:19 11.11.2020
5570 Clear 4 1032 93 10000 0.69 71 17:37 11.11.2020
5571 Clear 4 1031 86 10000 0.66 60 17:19 11.11.2020
5572 Clear 4 1031 86 10000 0.66 60 16:38 11.11.2020
5573 Clear 5 1032 80 10000 0.42 35 16:20 11.11.2020
5574 Clear 5 1032 80 10000 0.42 35 15:41 11.11.2020
5575 Clear 5 1032 75 10000 0.28 9 15:23 11.11.2020
5576 Clear 5 1032 75 10000 0.28 9 14:43 11.11.2020
5577 Clear 6 1032 70 10000 0.13 54 14:23 11.11.2020
5578 Clear 6 1032 70 10000 0.13 54 13:49 11.11.2020
5579 Clear 7 1032 57 10000 0.28 307 13:24 11.11.2020
5580 Clear 10 1031 50 10000 0.67 283 12:22 11.11.2020
5581 Clear 10 1031 50 10000 0.67 283 11:52 11.11.2020
5582 Clear 10 1031 50 10000 0.67 283 11:34 11.11.2020
5583 Clear 12 1031 37 10000 0.67 300 10:56 11.11.2020
5584 Clear 12 1031 37 10000 0.67 300 10:37 11.11.2020
5585 Clear 14 1031 33 10000 0.9 295 10:18 11.11.2020
5586 Clear 14 1031 33 10000 0.9 295 09:42 11.11.2020
5587 Clear 15 1030 30 10000 1.17 292 09:21 11.11.2020
5588 Clear 15 1030 30 10000 1.17 292 08:44 11.11.2020
5589 Clear 15 1030 30 10000 0.9 303 08:25 11.11.2020
5590 Clear 16 1030 30 10000 0.9 303 07:46 11.11.2020
5591 Clear 15 1031 30 10000 1.34 307 06:33 11.11.2020
5592 Clear 15 1031 30 10000 1.5 220 05:45 11.11.2020
5593 Clear 7 1033 45 10000 0.62 70 01:58 11.11.2020
5594 Clear 2 1032 49 10000 0.47 80 00:58 11.11.2020
5595 Clear 1 1031 54 10000 0.72 77 00:25 11.11.2020
5596 Clear 1 1031 54 10000 0.72 77 23:40 10.11.2020
5597 Clear 1 1031 93 10000 0.55 62 23:22 10.11.2020
5598 Clear 1 1031 93 10000 0.55 62 22:50 10.11.2020
5599 Clear 1 1031 93 10000 0.66 45 22:26 10.11.2020
5600 Clear 2 1030 93 10000 0.66 45 21:42 10.11.2020
5601 Clear 2 1030 54 10000 0.74 29 21:23 10.11.2020
5602 Clear 2 1030 54 10000 0.74 29 20:58 10.11.2020
5603 Clear 2 1030 54 10000 0.74 29 20:39 10.11.2020
5604 Clear 2 1030 93 10000 0.71 12 20:21 10.11.2020
5605 Clear 2 1030 93 10000 0.71 12 19:44 10.11.2020
5606 Clear 3 1030 86 10000 0.64 344 19:24 10.11.2020
5607 Clear 3 1030 86 10000 0.64 344 18:55 10.11.2020
5608 Clear 3 1030 86 10000 0.56 359 18:37 10.11.2020
5609 Clear 3 1030 86 10000 0.58 329 18:18 10.11.2020
5610 Clear 3 1030 86 10000 0.58 329 17:41 10.11.2020
5611 Clear 4 1030 86 10000 0.81 311 17:23 10.11.2020
5612 Clear 4 1030 86 10000 0.81 311 16:42 10.11.2020
5613 Clear 5 1030 80 10000 0.98 296 16:22 10.11.2020
5614 Clear 5 1030 80 10000 0.98 296 15:54 10.11.2020
5615 Clear 5 1030 80 10000 0.98 296 15:36 10.11.2020
5616 Clear 5 1029 75 10000 1.14 295 15:18 10.11.2020
5617 Clear 5 1029 75 10000 1.14 295 14:39 10.11.2020
5618 Clear 6 1029 75 10000 1.3 303 14:18 10.11.2020
5619 Clear 6 1029 75 10000 1.3 303 13:39 10.11.2020
5620 Clear 8 1029 61 10000 1.69 311 13:20 10.11.2020
5621 Clear 8 1029 61 10000 2.46 303 12:46 10.11.2020
5622 Clear 8 1029 61 10000 2.85 308 12:28 10.11.2020
5623 Clear 9 1028 45 10000 2.85 308 11:43 10.11.2020
5624 Clear 9 1028 46 10000 3.71 312 11:22 10.11.2020
5625 Clear 10 1028 46 10000 3.71 312 10:58 10.11.2020
5626 Clear 10 1028 46 10000 3.71 312 10:39 10.11.2020
5627 Clear 12 1028 37 10000 4.14 314 10:21 10.11.2020
5628 Clear 12 1028 37 10000 4.14 314 09:46 10.11.2020
5629 Clear 12 1027 30 10000 4.54 315 09:25 10.11.2020
5630 Clear 13 1027 30 10000 4.54 315 08:55 10.11.2020
5631 Clear 13 1027 30 10000 4.9 315 08:29 10.11.2020
5632 Haze 13 1027 30 9000 1.5 90 07:45 10.11.2020
5633 Haze 13 1027 30 9000 1.5 90 07:24 10.11.2020
5634 Haze 13 1027 32 8000 1.5 220 06:41 10.11.2020
5635 Clear 12 1028 30 10000 5.01 314 05:44 10.11.2020
5636 Haze 12 1028 32 9000 1.5 220 04:59 10.11.2020
5637 Clear 9 1029 45 10000 4.57 317 02:36 10.11.2020
5638 Clear 7 1028 52 10000 4.01 325 01:30 10.11.2020
5639 Clear 1 1027 86 10000 3.14 313 23:57 09.11.2020
5640 Clear 1 1027 86 10000 3.14 313 23:36 09.11.2020
5641 Clear 1 1027 80 10000 2.78 306 22:49 09.11.2020
5642 Clear 1 1027 80 10000 2.65 298 22:25 09.11.2020
5643 Clear 1 1027 80 10000 2.65 298 21:56 09.11.2020
5644 Clear 1 1027 80 10000 2.65 298 21:37 09.11.2020
5645 Clear 1 1026 59 10000 2.03 295 21:18 09.11.2020
5646 Clear 1 1026 59 10000 2.03 295 20:37 09.11.2020
5647 Clear 2 1027 59 10000 1.74 294 20:19 09.11.2020
5648 Clear 2 1027 59 10000 1.74 294 19:41 09.11.2020
5649 Clear 3 1026 74 10000 1.6 293 19:22 09.11.2020
5650 Clear 3 1026 74 10000 1.44 283 18:42 09.11.2020
5651 Clear 4 1026 69 10000 1.12 290 18:20 09.11.2020
5652 Clear 4 1026 69 10000 1.12 290 17:53 09.11.2020
5653 Clear 4 1026 69 10000 1.12 290 17:53 09.11.2020
5654 Clear 4 1026 69 10000 1.12 290 17:33 09.11.2020
5655 Clear 5 1025 60 10000 1.14 305 16:48 09.11.2020
5656 Clear 5 1025 60 10000 1.26 321 16:30 09.11.2020
5657 Clouds 7 1025 49 10000 1.26 321 15:58 09.11.2020
5658 Clouds 7 1025 49 10000 1.26 321 15:40 09.11.2020
5659 Clouds 8 1025 52 10000 1.38 342 15:20 09.11.2020
5660 Clouds 8 1025 52 10000 1.38 342 14:44 09.11.2020
5661 Clouds 8 1025 52 10000 0.93 358 14:25 09.11.2020
5662 Clouds 8 1025 52 10000 0.93 358 13:46 09.11.2020
5663 Clouds 8 1024 42 10000 1.97 331 13:20 09.11.2020
5664 Clouds 8 1024 42 10000 1.97 331 13:20 09.11.2020
5665 Clouds 8 1024 42 10000 1.97 331 12:47 09.11.2020
5666 Clouds 8 1024 45 10000 1.48 328 12:25 09.11.2020
5667 Clouds 9 1024 45 10000 1.48 328 11:56 09.11.2020
5668 Clouds 9 1024 45 10000 1.48 328 11:37 09.11.2020
5669 Clouds 9 1024 36 10000 1.76 284 11:18 09.11.2020
5670 Clouds 9 1024 36 10000 1.76 284 10:42 09.11.2020
5671 Clouds 9 1024 34 10000 2.89 258 10:23 09.11.2020
5672 Clouds 9 1024 34 10000 2.89 258 09:41 09.11.2020
5673 Clouds 9 1024 34 10000 3.81 250 09:23 09.11.2020
5674 Clouds 9 1024 34 10000 3.81 250 08:38 09.11.2020
5675 Clouds 9 1024 23 10000 1.5 240 08:19 09.11.2020
5676 Clouds 9 1024 23 10000 1.5 240 07:39 09.11.2020
5677 Clouds 9 1025 19 10000 4.82 272 07:19 09.11.2020
5678 Clouds 9 1025 19 10000 3.95 282 06:23 09.11.2020
5679 Clear 6 1027 24 10000 3.64 312 03:19 09.11.2020
5680 Clear 5 1027 27 10000 3.82 317 01:43 09.11.2020
5681 Clear 2 1026 40 10000 3.85 312 00:58 09.11.2020
5682 Clear 1 1026 34 10000 3.42 312 23:51 08.11.2020
5683 Clear 1 1026 34 10000 3.62 312 23:29 08.11.2020
5684 Clear 1 1026 40 10000 3.62 312 22:46 08.11.2020
5685 Clear 2 1026 35 10000 1.5 300 22:22 08.11.2020
5686 Clear 2 1026 35 10000 1.5 300 21:54 08.11.2020
5687 Clear 2 1026 35 10000 1.5 300 21:36 08.11.2020
5688 Clear 2 1026 40 10000 4 308 21:18 08.11.2020
5689 Clear 2 1026 40 10000 4 308 20:39 08.11.2020
5690 Clear 3 1026 41 10000 1.5 340 20:20 08.11.2020
5691 Clear 3 1026 41 10000 1.5 340 19:56 08.11.2020
5692 Clear 3 1026 41 10000 1.5 340 19:37 08.11.2020
5693 Clear 4 1026 41 10000 4.29 316 19:18 08.11.2020
5694 Clear 4 1026 41 10000 4.39 312 18:44 08.11.2020
5695 Clear 4 1026 38 10000 2.1 320 18:21 08.11.2020
5696 Clear 4 1026 38 10000 2.1 320 17:57 08.11.2020
5697 Clear 4 1026 38 10000 2.1 320 17:36 08.11.2020
5698 Clear 4 1026 41 10000 5 321 17:18 08.11.2020
5699 Clear 4 1026 41 10000 5 321 16:39 08.11.2020
5700 Clear 5 1026 35 10000 1.5 350 16:21 08.11.2020
5701 Clear 5 1026 35 10000 1.5 350 15:50 08.11.2020
5702 Clear 5 1026 35 10000 1.5 350 15:28 08.11.2020
5703 Clear 5 1025 33 10000 1.5 310 14:44 08.11.2020
5704 Clear 5 1025 35 10000 2.1 330 14:24 08.11.2020
5705 Clear 5 1025 35 10000 2.1 330 14:24 08.11.2020
5706 Clear 6 1025 35 10000 2.1 330 13:57 08.11.2020
5707 Clear 6 1025 35 10000 2.1 330 13:39 08.11.2020
5708 Clear 6 1025 36 10000 1.5 330 13:20 08.11.2020
5709 Clear 6 1025 36 10000 1.5 330 12:41 08.11.2020
5710 Clear 7 1024 28 10000 3.1 320 12:23 08.11.2020
5711 Clear 8 1024 28 10000 3.1 320 11:56 08.11.2020
5712 Clear 8 1024 28 10000 3.1 320 11:38 08.11.2020
5713 Clear 9 1023 15 10000 2.6 300 11:19 08.11.2020
5714 Clear 9 1023 15 10000 2.6 300 10:42 08.11.2020
5715 Clear 10 1023 18 10000 2.6 340 10:18 08.11.2020
5716 Clear 10 1023 18 10000 2.6 340 09:42 08.11.2020
5717 Clear 11 1022 14 10000 2.6 260 09:23 08.11.2020
5718 Clear 11 1022 14 10000 2.6 260 08:47 08.11.2020
5719 Clear 11 1022 14 10000 2.6 260 08:27 08.11.2020
5720 Clear 12 1022 13 10000 6.87 306 07:53 08.11.2020
5721 Clear 12 1022 13 10000 6.29 309 07:32 08.11.2020
5722 Clear 12 1022 16 10000 1.5 250 06:45 08.11.2020
5723 Clear 12 1022 20 10000 6.24 314 05:54 08.11.2020
5724 Clear 12 1022 22 10000 6.33 314 04:51 08.11.2020
5725 Clear 11 1022 29 10000 2.1 320 03:25 08.11.2020
5726 Clear 9 1021 39 10000 5.18 309 01:20 08.11.2020
5727 Clear 9 1021 39 10000 5.18 309 00:33 08.11.2020
5728 Clear 8 1021 45 10000 3.6 280 23:57 07.11.2020
5729 Clear 8 1021 45 10000 3.6 280 23:38 07.11.2020
5730 Clear 11 1020 62 10000 5.02 312 23:19 07.11.2020
5731 Clear 11 1020 62 10000 5.02 312 22:40 07.11.2020
5732 Clear 10 1019 71 10000 5.16 322 22:20 07.11.2020
5733 Haze 10 1019 76 4800 5.16 322 21:43 07.11.2020
5734 Mist 8 1019 93 3000 5.44 316 21:19 07.11.2020
5735 Mist 8 1019 93 3000 5.44 316 20:47 07.11.2020
5736 Mist 8 1019 93 3000 5.23 309 20:29 07.11.2020
5737 Mist 8 1019 100 2200 5.23 309 19:49 07.11.2020
5738 Mist 8 1019 100 2200 3.68 281 19:28 07.11.2020
5739 Mist 9 1019 100 3000 3.68 281 18:45 07.11.2020
5740 Mist 9 1019 93 3200 3.44 275 18:27 07.11.2020
5741 Mist 9 1019 93 3200 3.44 275 17:57 07.11.2020
5742 Mist 9 1019 87 4000 3.44 275 17:37 07.11.2020
5743 Haze 10 1019 81 2600 3.19 274 16:54 07.11.2020
5744 Haze 10 1019 81 2600 3.19 274 16:36 07.11.2020
5745 Haze 11 1019 81 2800 3.16 281 16:18 07.11.2020
5746 Haze 11 1019 81 2800 3.16 281 15:41 07.11.2020
5747 Haze 11 1019 76 3200 3.38 291 15:22 07.11.2020
5748 Haze 11 1019 76 3200 3.38 291 14:45 07.11.2020
5749 Haze 11 1019 76 3200 4.19 291 14:26 07.11.2020
5750 Haze 12 1019 76 2800 4.19 291 13:55 07.11.2020
5751 Haze 12 1018 76 3200 4.45 281 13:30 07.11.2020
5752 Haze 13 1018 66 4000 4.45 281 12:47 07.11.2020
5753 Haze 14 1018 66 4800 4.84 270 12:20 07.11.2020
5754 Haze 14 1018 58 8000 4.84 270 11:41 07.11.2020
5755 Haze 15 1017 41 9000 4.91 265 11:22 07.11.2020
5756 Haze 15 1017 41 9000 4.91 265 10:45 07.11.2020
5757 Haze 15 1017 38 6000 4.97 265 10:25 07.11.2020
5758 Haze 16 1017 38 9000 1.5 250 09:52 07.11.2020
5759 Haze 16 1017 33 9000 1.5 250 09:32 07.11.2020
5760 Haze 17 1017 36 8000 5.25 267 08:53 07.11.2020
5761 Haze 17 1017 36 8000 5.48 268 08:34 07.11.2020
5762 Haze 18 1016 36 6000 5.48 268 07:50 07.11.2020
5763 Haze 18 1016 39 6000 1.5 250 07:18 07.11.2020
5764 Haze 18 1016 39 6000 1.5 250 06:47 07.11.2020
5765 Haze 18 1017 42 6000 5.04 272 04:43 07.11.2020
5766 Haze 16 1018 72 4000 1.5 330 03:23 07.11.2020
5767 Mist 15 1017 93 4800 2.1 220 01:28 07.11.2020
5768 Mist 13 1017 93 4800 2.1 220 00:41 07.11.2020
5769 Mist 14 1017 100 4800 2.08 247 23:50 06.11.2020
5770 Mist 13 1017 100 4800 2.06 230 23:20 06.11.2020
5771 Mist 13 1017 100 4800 2.06 230 22:41 06.11.2020
5772 Mist 13 1017 100 6000 2.31 204 22:19 06.11.2020
5773 Mist 13 1017 100 6000 2.31 204 21:45 06.11.2020
5774 Mist 13 1017 93 6000 2.37 191 21:21 06.11.2020
5775 Mist 13 1017 100 6000 2.37 191 20:51 06.11.2020
5776 Mist 13 1017 93 9000 2.31 185 20:22 06.11.2020
5777 Mist 13 1017 93 9000 2.31 185 19:55 06.11.2020
5778 Mist 13 1018 93 8000 2.31 185 19:37 06.11.2020
5779 Mist 13 1018 87 9000 2.17 184 19:19 06.11.2020
5780 Mist 13 1018 87 9000 2.64 191 18:44 06.11.2020
5781 Mist 13 1018 87 9000 2.57 187 18:22 06.11.2020
5782 Haze 13 1018 82 9000 2.57 187 17:50 06.11.2020
5783 Clouds 13 1018 82 10000 2.37 179 17:25 06.11.2020
5784 Clouds 12 1018 82 10000 2.37 179 16:48 06.11.2020
5785 Haze 12 1019 81 9000 2.27 175 16:25 06.11.2020
5786 Haze 12 1019 81 9000 2.27 175 15:47 06.11.2020
5787 Haze 12 1019 81 9000 2.36 177 15:28 06.11.2020
5788 Clouds 13 1019 76 10000 2.36 177 14:53 06.11.2020
5789 Clouds 13 1019 76 10000 2.19 185 14:24 06.11.2020
5790 Haze 14 1019 76 9000 2.19 185 13:44 06.11.2020
5791 Clouds 13 1019 71 10000 1.93 188 13:23 06.11.2020
5792 Clouds 14 1019 67 10000 2.54 192 12:45 06.11.2020
5793 Clouds 14 1019 62 10000 2.59 196 12:23 06.11.2020
5794 Clouds 15 1019 62 10000 2.59 196 11:43 06.11.2020
5795 Clouds 16 1018 59 10000 2.52 207 11:24 06.11.2020
5796 Clouds 16 1018 59 10000 2.52 207 10:39 06.11.2020
5797 Haze 17 1018 55 9000 3.1 214 10:19 06.11.2020
5798 Haze 17 1018 55 9000 3.1 214 09:48 06.11.2020
5799 Haze 17 1018 51 9000 3.53 221 09:21 06.11.2020
5800 Haze 17 1018 51 9000 3.53 221 08:49 06.11.2020
5801 Haze 17 1018 51 9000 3.74 223 08:28 06.11.2020
5802 Haze 17 1019 51 9000 3.74 223 07:49 06.11.2020
5803 Haze 17 1019 51 9000 3.57 217 07:30 06.11.2020
5804 Haze 17 1019 48 9000 3.22 216 06:51 06.11.2020
5805 Haze 16 1021 41 9000 3.12 216 05:44 06.11.2020
5806 Haze 14 1023 47 9000 2.18 223 03:46 06.11.2020
5807 Clouds 10 1023 71 10000 1.12 154 00:49 06.11.2020
5808 Clouds 9 1023 66 10000 1.24 165 00:19 06.11.2020
5809 Clouds 9 1023 66 10000 1.43 144 23:30 05.11.2020
5810 Rain 9 1023 71 10000 1.43 144 22:57 05.11.2020
5811 Clouds 9 1023 71 10000 1.43 144 22:37 05.11.2020
5812 Clouds 9 1024 71 10000 0.65 160 22:18 05.11.2020
5813 Rain 9 1024 71 10000 0.65 160 21:42 05.11.2020
5814 Clouds 9 1024 71 10000 1.3 91 21:21 05.11.2020
5815 Clouds 9 1024 71 10000 1.3 91 20:48 05.11.2020
5816 Clouds 9 1024 71 10000 1.06 60 20:28 05.11.2020
5817 Clouds 10 1024 62 10000 1.06 60 19:59 05.11.2020
5818 Rain 10 1024 62 10000 1.06 60 19:40 05.11.2020
5819 Clouds 10 1025 71 10000 0.82 96 19:22 05.11.2020
5820 Clouds 10 1025 71 10000 1.1 113 18:42 05.11.2020
5821 Clouds 10 1025 81 10000 0.75 100 18:24 05.11.2020
5822 Clouds 10 1025 81 10000 0.75 100 17:52 05.11.2020
5823 Clouds 10 1026 71 10000 0.79 94 17:27 05.11.2020
5824 Clouds 10 1026 71 10000 0.79 94 16:53 05.11.2020
5825 Rain 10 1026 71 10000 0.98 87 16:29 05.11.2020
5826 Clouds 10 1026 76 10000 0.98 87 15:57 05.11.2020
5827 Rain 10 1026 76 10000 0.98 87 15:39 05.11.2020
5828 Clouds 10 1027 76 10000 0.84 70 15:20 05.11.2020
5829 Clouds 10 1027 76 10000 0.84 70 14:44 05.11.2020
5830 Clouds 11 1027 66 10000 0.74 49 14:24 05.11.2020
5831 Clouds 11 1027 66 10000 0.74 49 13:41 05.11.2020
5832 Clouds 11 1026 66 10000 0.8 14 13:20 05.11.2020
5833 Clouds 11 1026 66 10000 0.8 14 12:43 05.11.2020
5834 Clouds 12 1026 62 10000 0.97 317 12:23 05.11.2020
5835 Clouds 12 1026 62 10000 0.97 317 11:44 05.11.2020
5836 Clouds 13 1025 58 10000 1.63 300 11:24 05.11.2020
5837 Clouds 13 1025 58 10000 1.63 300 10:52 05.11.2020
5838 Clouds 13 1025 58 10000 1.51 279 10:28 05.11.2020
5839 Clouds 14 1025 50 10000 1.51 279 09:50 05.11.2020
5840 Haze 15 1025 44 9000 1.74 256 09:25 05.11.2020
5841 Haze 15 1025 44 9000 1.74 256 08:59 05.11.2020
5842 Haze 15 1025 44 9000 1.74 256 08:41 05.11.2020
5843 Clouds 15 1025 41 10000 1.2 235 08:23 05.11.2020
5844 Clouds 16 1025 41 10000 2.06 214 07:29 05.11.2020
5845 Clear 15 1026 37 10000 1.96 215 06:51 05.11.2020
5846 Clear 15 1026 37 10000 1.36 202 06:32 05.11.2020
5847 Clear 11 1028 42 10000 1.17 127 03:45 05.11.2020
5848 Clear 4 1028 75 10000 1.51 106 00:45 05.11.2020
5849 Clear 2 1027 58 10000 1.41 101 00:20 05.11.2020
5850 Clear 2 1027 58 10000 1.41 101 23:43 04.11.2020
5851 Clear 2 1027 59 10000 1.3 111 23:24 04.11.2020
5852 Clear 2 1027 59 10000 1.3 111 22:42 04.11.2020
5853 Clouds 3 1027 80 10000 1.35 111 22:22 04.11.2020
5854 Clouds 3 1027 80 10000 1.35 111 21:47 04.11.2020
5855 Clouds 3 1027 80 10000 1.35 111 21:47 04.11.2020
5856 Clouds 2 1027 58 10000 1.22 115 21:27 04.11.2020
5857 Clouds 3 1027 58 10000 1.22 115 20:54 04.11.2020
5858 Clouds 3 1027 58 10000 1.22 115 20:35 04.11.2020
5859 Clouds 3 1027 58 10000 1.22 115 20:35 04.11.2020
5860 Clouds 3 1027 57 10000 1.2 104 19:59 04.11.2020
5861 Clouds 3 1027 57 10000 1.2 104 19:40 04.11.2020
5862 Clouds 3 1027 56 10000 1.24 115 19:22 04.11.2020
5863 Clouds 3 1027 55 10000 1.26 117 18:41 04.11.2020
5864 Clear 3 1026 55 10000 1.2 125 18:22 04.11.2020
5865 Clear 2 1026 69 10000 2.1 160 17:47 04.11.2020
5866 Clear 3 1026 74 10000 1.08 139 17:27 04.11.2020
5867 Clear 2 1026 74 10000 1.08 139 16:46 04.11.2020
5868 Clear 3 1026 74 10000 1.05 138 16:27 04.11.2020
5869 Clear 3 1026 74 10000 1.05 138 15:59 04.11.2020
5870 Clear 3 1026 74 10000 1.05 138 15:40 04.11.2020
5871 Clear 3 1026 69 10000 1.04 154 15:20 04.11.2020
5872 Clear 3 1026 69 10000 1.04 154 14:44 04.11.2020
5873 Clear 3 1026 69 10000 0.98 191 14:24 04.11.2020
5874 Clear 4 1025 60 10000 0.98 191 13:51 04.11.2020
5875 Clear 6 1025 52 10000 1.4 221 13:21 04.11.2020
5876 Clear 6 1025 52 10000 1.4 221 12:58 04.11.2020
5877 Clear 6 1025 52 10000 1.07 226 12:39 04.11.2020
5878 Clear 6 1025 52 10000 1.07 226 12:39 04.11.2020
5879 Clear 7 1025 42 10000 1.5 249 12:21 04.11.2020
5880 Clear 7 1025 42 10000 1.5 249 11:44 04.11.2020
5881 Clear 7 1024 36 10000 2.12 253 11:21 04.11.2020
5882 Clear 7 1024 36 10000 2.12 253 10:48 04.11.2020
5883 Clear 7 1024 36 10000 2.25 263 10:23 04.11.2020
5884 Clear 9 1024 29 10000 2.25 263 09:55 04.11.2020
5885 Clear 11 1024 21 10000 2.42 282 09:28 04.11.2020
5886 Clear 11 1024 21 10000 2.42 282 08:48 04.11.2020
5887 Clear 11 1024 18 10000 2.72 305 08:23 04.11.2020
5888 Clear 10 1024 18 10000 2.72 305 07:57 04.11.2020
5889 Clear 10 1024 18 10000 2.72 305 07:31 04.11.2020
5890 Clear 10 1025 18 10000 3.46 307 06:58 04.11.2020
5891 Clear 10 1025 18 10000 3.46 307 06:38 04.11.2020
5892 Clear 9 1026 17 10000 2.1 350 04:46 04.11.2020
5893 Clear 4 1027 25 10000 1.5 320 02:31 04.11.2020
5894 Clear 4 1027 25 10000 1.5 320 01:32 04.11.2020
5895 Clear 1 1026 37 10000 1.5 310 23:53 03.11.2020
5896 Clear 1 1026 37 10000 1.5 310 23:25 03.11.2020
5897 Clear 1 1025 34 10000 1.5 340 22:54 03.11.2020
5898 Clear 1 1025 34 10000 1.5 340 22:36 03.11.2020
5899 Clear 2 1025 34 10000 4.41 305 22:18 03.11.2020
5900 Clear 2 1025 34 10000 4.41 305 21:41 03.11.2020
5901 Clear 2 1024 37 10000 4.77 311 21:22 03.11.2020
5902 Clear 2 1024 37 10000 4.77 311 20:46 03.11.2020
5903 Clear 2 1024 37 10000 4.84 314 20:26 03.11.2020
5904 Clear 2 1024 44 10000 1.5 320 19:46 03.11.2020
5905 Clear 2 1024 44 10000 1.5 320 19:27 03.11.2020
5906 Clear 3 1024 44 10000 4.78 315 18:57 03.11.2020
5907 Clear 3 1024 44 10000 4.78 315 18:38 03.11.2020
5908 Clear 3 1023 48 10000 5.11 317 18:18 03.11.2020
5909 Clear 3 1023 48 10000 5.11 317 17:43 03.11.2020
5910 Clear 3 1024 48 10000 5.18 316 17:25 03.11.2020
5911 Clear 3 1024 48 10000 5.18 316 16:45 03.11.2020
5912 Clear 3 1024 48 10000 4.97 318 16:25 03.11.2020
5913 Clear 3 1024 48 10000 4.97 318 15:52 03.11.2020
5914 Clear 3 1024 48 10000 4.91 314 15:29 03.11.2020
5915 Clear 3 1024 41 10000 1.5 340 14:54 03.11.2020
5916 Clear 3 1024 41 10000 1.5 340 14:33 03.11.2020
5917 Clear 4 1023 44 10000 1.5 340 13:47 03.11.2020
5918 Clear 4 1023 44 10000 1.5 340 13:26 03.11.2020
5919 Clear 4 1023 41 10000 2.6 350 12:59 03.11.2020
5920 Clear 4 1023 41 10000 2.6 350 12:41 03.11.2020
5921 Clear 5 1022 38 10000 1.5 310 12:20 03.11.2020
5922 Clear 5 1022 38 10000 1.5 310 11:46 03.11.2020
5923 Clear 5 1021 38 10000 1.5 330 11:22 03.11.2020
5924 Clear 6 1021 38 10000 1.5 330 10:41 03.11.2020
5925 Clear 6 1021 33 10000 6.47 313 10:22 03.11.2020
5926 Clear 7 1021 33 10000 6.47 313 09:59 03.11.2020
5927 Clear 7 1021 33 10000 6.47 313 09:41 03.11.2020
5928 Clear 7 1021 33 10000 2.6 310 09:18 03.11.2020
5929 Clear 7 1021 33 10000 2.6 310 08:44 03.11.2020
5930 Clear 7 1021 33 10000 2.6 310 08:25 03.11.2020
5931 Clouds 8 1021 31 10000 3.6 300 07:35 03.11.2020
5932 Clouds 8 1021 31 10000 3.1 360 06:53 03.11.2020
5933 Clear 8 1021 31 10000 4.1 350 06:19 03.11.2020
5934 Clear 8 1023 33 10000 7.52 305 03:34 03.11.2020
5935 Clear 5 1022 35 10000 6.16 311 00:43 03.11.2020
5936 Clear 4 1022 38 10000 5.78 315 23:59 02.11.2020
5937 Clear 4 1022 38 10000 5.78 315 23:40 02.11.2020
5938 Clear 4 1021 48 10000 5.76 319 22:56 02.11.2020
5939 Clear 4 1021 48 10000 5.76 319 22:37 02.11.2020
5940 Clear 4 1021 41 10000 5.77 322 22:19 02.11.2020
5941 Clear 4 1021 41 10000 5.77 322 21:38 02.11.2020
5942 Clouds 5 1021 41 10000 2.6 330 21:19 02.11.2020
5943 Clouds 5 1021 41 10000 2.6 330 20:41 02.11.2020
5944 Clouds 7 1021 49 10000 2.1 320 20:20 02.11.2020
5945 Clouds 7 1021 49 10000 2.1 320 19:57 02.11.2020
5946 Clouds 7 1021 49 10000 2.1 320 19:38 02.11.2020
5947 Clouds 8 1020 81 10000 2.1 310 19:20 02.11.2020
5948 Clouds 8 1020 81 10000 2.1 310 18:39 02.11.2020
5949 Clouds 8 1020 81 10000 5.34 324 18:20 02.11.2020
5950 Clouds 8 1020 76 10000 2.1 340 17:43 02.11.2020
5951 Rain 9 1019 81 10000 5.25 332 17:25 02.11.2020
5952 Rain 9 1019 81 10000 5.25 332 16:54 02.11.2020
5953 Rain 9 1019 81 10000 5.25 332 16:36 02.11.2020
5954 Rain 11 1019 57 10000 5.85 316 16:18 02.11.2020
5955 Rain 11 1019 53 10000 5.85 316 15:39 02.11.2020
5956 Clouds 11 1019 50 10000 4.44 298 15:20 02.11.2020
5957 Clouds 11 1019 50 10000 4.44 298 15:20 02.11.2020
5958 Clouds 11 1019 46 10000 1.5 250 14:49 02.11.2020
5959 Rain 9 1019 66 10000 3.93 310 14:19 02.11.2020
5960 Clouds 9 1019 66 10000 3.93 310 13:51 02.11.2020
5961 Clear 9 1019 57 10000 3.46 300 13:22 02.11.2020
5962 Clear 9 1019 57 10000 3.24 314 12:52 02.11.2020
5963 Clear 9 1019 57 10000 3.21 289 12:28 02.11.2020
5964 Clear 10 1019 40 10000 3.21 289 11:46 02.11.2020
5965 Clear 12 1019 37 10000 3.5 276 11:21 02.11.2020
5966 Clear 12 1019 37 10000 3.5 276 10:48 02.11.2020
5967 Clear 12 1019 37 10000 3.88 275 10:26 02.11.2020
5968 Clear 14 1019 28 10000 3.88 275 09:57 02.11.2020
5969 Clear 14 1019 28 10000 3.73 286 09:30 02.11.2020
5970 Clear 15 1019 19 10000 3.73 286 08:59 02.11.2020
5971 Clear 15 1019 19 10000 3.73 286 08:39 02.11.2020
5972 Clear 16 1019 18 10000 3.79 294 08:19 02.11.2020
5973 Clear 16 1019 18 10000 3.79 294 07:42 02.11.2020
5974 Clear 16 1020 21 10000 4.3 297 06:46 02.11.2020
5975 Clear 15 1020 22 10000 4.97 299 05:39 02.11.2020
5976 Clear 10 1022 71 10000 2.16 316 01:35 02.11.2020
5977 Clear 6 1021 100 10000 1.44 323 00:39 02.11.2020
5978 Clear 6 1021 100 10000 1.44 323 00:39 02.11.2020
5979 Mist 5 1021 100 4800 1.27 348 00:20 02.11.2020
5980 Mist 5 1021 100 3600 1.27 348 23:39 01.11.2020
5981 Mist 5 1021 100 2400 1.03 349 23:21 01.11.2020
5982 Mist 5 1021 100 3200 1.03 349 22:43 01.11.2020
5983 Mist 6 1021 100 6000 1.63 346 22:22 01.11.2020
5984 Mist 6 1021 100 4800 1.63 346 21:43 01.11.2020
5985 Mist 6 1021 100 4800 2.18 333 21:25 01.11.2020
5986 Mist 7 1021 100 3000 2.18 333 20:50 01.11.2020
5987 Mist 7 1021 100 3000 1.02 285 20:28 01.11.2020
5988 Mist 7 1021 100 4800 1.02 285 19:56 01.11.2020
5989 Mist 7 1021 100 2800 1.02 285 19:37 01.11.2020
5990 Mist 8 1020 100 4800 0.93 248 19:19 01.11.2020
5991 Mist 8 1020 100 6000 0.93 248 18:40 01.11.2020
5992 Mist 8 1020 100 6000 1.42 290 18:40 01.11.2020
5993 Mist 9 1020 100 6000 1.11 254 18:19 01.11.2020
5994 Mist 9 1020 100 6000 1.11 254 18:19 01.11.2020
5995 Mist 9 1020 100 4000 1.11 254 17:45 01.11.2020
5996 Mist 9 1020 100 3200 1.04 261 17:27 01.11.2020
5997 Mist 9 1020 100 3200 1.04 261 16:57 01.11.2020
5998 Mist 9 1020 100 1800 1.04 261 16:39 01.11.2020
5999 Fog 10 1020 100 400 1.1 303 16:18 01.11.2020
6000 Fog 10 1020 100 800 1.1 303 15:39 01.11.2020
6001 Mist 10 1020 100 1000 1.64 319 15:20 01.11.2020
6002 Mist 11 1019 100 1000 1.64 319 14:48 01.11.2020
6003 Mist 11 1019 100 2400 2.32 321 14:24 01.11.2020
6004 Mist 12 1019 100 2400 2.32 321 13:58 01.11.2020
6005 Mist 12 1019 100 2400 2.32 321 13:39 01.11.2020
6006 Mist 13 1019 100 2600 2.2 305 13:21 01.11.2020
6007 Mist 13 1019 100 2600 2.24 317 12:43 01.11.2020
6008 Mist 14 1019 100 2600 1.94 305 12:20 01.11.2020
6009 Rain 14 1019 100 4000 1.94 305 11:49 01.11.2020
6010 Mist 14 1018 93 4400 2.38 269 11:18 01.11.2020
6011 Mist 14 1018 93 4800 2.38 269 10:42 01.11.2020
6012 Mist 14 1018 100 6000 2.83 240 10:24 01.11.2020
6013 Mist 14 1018 93 4800 2.83 240 10:24 01.11.2020
6014 Rain 14 1018 100 4800 2.83 240 09:49 01.11.2020
6015 Mist 14 1018 100 4800 3.17 233 09:26 01.11.2020
6016 Rain 14 1018 100 10000 3.17 233 08:40 01.11.2020
6017 Mist 14 1018 93 4800 3.13 232 07:57 01.11.2020
6018 Rain 14 1018 93 3200 3.59 215 06:52 01.11.2020
6019 Clouds 13 1020 93 10000 2.1 150 02:32 01.11.2020
6020 Rain 14 1020 82 10000 3.1 180 01:42 01.11.2020
6021 Haze 14 1020 82 8000 2.6 200 23:58 31.10.2020
6022 Rain 13 1020 82 10000 2.19 222 23:24 31.10.2020
6023 Rain 13 1020 82 8000 2.19 222 22:45 31.10.2020
6024 Clouds 14 1020 72 10000 1.5 180 22:24 31.10.2020
6025 Rain 14 1020 71 10000 3.18 233 21:47 31.10.2020
6026 Rain 14 1020 71 10000 3.67 213 21:23 31.10.2020
6027 Rain 14 1020 71 10000 3.67 213 21:23 31.10.2020
6028 Rain 13 1020 71 10000 3.67 213 20:46 31.10.2020
6029 Rain 14 1021 62 10000 3.68 212 20:21 31.10.2020
6030 Clouds 14 1021 62 10000 3.68 212 19:58 31.10.2020
6031 Clouds 14 1021 62 10000 3.68 212 19:38 31.10.2020
6032 Clouds 14 1021 58 10000 3.64 210 19:18 31.10.2020
6033 Clouds 14 1021 58 10000 4.06 212 18:43 31.10.2020
6034 Clouds 14 1021 58 10000 3.77 209 17:49 31.10.2020
6035 Clouds 14 1021 58 10000 3.42 206 17:29 31.10.2020
6036 Clouds 15 1021 54 10000 3.42 206 16:59 31.10.2020
6037 Clouds 15 1021 54 10000 3.42 206 16:40 31.10.2020
6038 Clouds 15 1021 54 10000 3.02 205 15:57 31.10.2020
6039 Clouds 15 1021 54 10000 3.02 205 15:36 31.10.2020
6040 Clouds 14 1021 51 10000 3.14 205 15:18 31.10.2020
6041 Clouds 14 1021 51 10000 3.14 205 14:46 31.10.2020
6042 Clouds 14 1021 54 10000 3.21 205 14:26 31.10.2020
6043 Clouds 15 1021 54 10000 3.21 205 13:49 31.10.2020
6044 Clouds 14 1022 62 10000 3.44 211 13:21 31.10.2020
6045 Clouds 14 1022 62 10000 3.92 217 12:32 31.10.2020
6046 Clouds 14 1022 58 10000 3.92 217 11:47 31.10.2020
6047 Clouds 14 1022 58 10000 3.92 217 11:47 31.10.2020
6048 Clouds 14 1022 58 10000 4.05 215 11:28 31.10.2020
6049 Clouds 16 1022 55 10000 4.05 215 10:54 31.10.2020
6050 Clouds 16 1022 55 10000 4.13 222 10:33 31.10.2020
6051 Clouds 17 1022 48 10000 4.13 222 09:42 31.10.2020
6052 Clouds 18 1022 48 10000 4.54 227 09:20 31.10.2020
6053 Clouds 18 1022 48 10000 5.04 234 08:28 31.10.2020
6054 Clouds 18 1022 48 10000 3.1 240 07:49 31.10.2020
6055 Clouds 18 1022 48 10000 3.1 240 07:26 31.10.2020
6056 Haze 18 1023 48 9000 5.28 231 06:38 31.10.2020
6057 Clear 15 1025 54 10000 2.1 40 03:50 31.10.2020
6058 Clouds 13 1026 62 10000 1.5 70 03:21 31.10.2020
6059 Clear 11 1026 71 10000 1.9 121 01:23 31.10.2020
6060 Clear 9 1026 71 10000 1.86 121 00:46 31.10.2020
6061 Clear 7 1026 70 10000 1.65 113 23:49 30.10.2020
6062 Clear 7 1026 70 10000 1.64 101 23:23 30.10.2020
6063 Clear 6 1026 70 10000 1.64 101 22:43 30.10.2020
6064 Clear 6 1026 66 10000 1.95 103 22:24 30.10.2020
6065 Clear 6 1026 66 10000 1.95 103 21:52 30.10.2020
6066 Clear 6 1026 66 10000 1.44 95 21:29 30.10.2020
6067 Clear 5 1026 75 10000 1.44 95 20:59 30.10.2020
6068 Clear 5 1026 75 10000 1.44 95 20:37 30.10.2020
6069 Clear 5 1026 87 10000 1.54 100 20:18 30.10.2020
6070 Clear 5 1026 87 10000 1.54 100 19:44 30.10.2020
6071 Clear 4 1026 81 10000 1.2 96 19:18 30.10.2020
6072 Clear 4 1026 81 10000 1.27 101 18:45 30.10.2020
6073 Clear 4 1026 81 10000 1.53 111 18:27 30.10.2020
6074 Clear 5 1026 81 10000 1.53 111 17:48 30.10.2020
6075 Clear 5 1026 75 10000 1.34 124 17:22 30.10.2020
6076 Clear 5 1026 75 10000 1.34 124 16:57 30.10.2020
6077 Clear 6 1026 70 10000 1.45 120 16:26 30.10.2020
6078 Clear 6 1026 70 10000 1.45 120 15:58 30.10.2020
6079 Clear 7 1026 70 10000 1.45 120 15:40 30.10.2020
6080 Clear 7 1026 70 10000 1.48 98 15:18 30.10.2020
6081 Clear 7 1026 70 10000 1.48 98 14:44 30.10.2020
6082 Clear 7 1026 70 10000 1.04 56 14:25 30.10.2020
6083 Clear 8 1026 61 10000 1.04 56 13:44 30.10.2020
6084 Clear 10 1026 57 10000 0.58 27 13:20 30.10.2020
6085 Clear 10 1026 57 10000 0.58 27 12:49 30.10.2020
6086 Clear 11 1025 31 10000 0.32 49 12:22 30.10.2020
6087 Clear 11 1025 31 10000 0.32 49 11:56 30.10.2020
6088 Clear 12 1025 40 10000 0.48 43 11:21 30.10.2020
6089 Clear 12 1025 40 10000 0.48 43 10:50 30.10.2020
6090 Clear 14 1025 40 10000 0.61 28 10:25 30.10.2020
6091 Clear 17 1024 26 10000 0.61 28 09:48 30.10.2020
6092 Clear 17 1024 26 10000 0.73 39 09:25 30.10.2020
6093 Clear 18 1024 20 10000 0.78 98 08:59 30.10.2020
6094 Clear 18 1024 20 10000 0.78 98 08:31 30.10.2020
6095 Clear 19 1024 17 10000 1.5 90 07:53 30.10.2020
6096 Clear 19 1024 17 10000 1.5 90 07:35 30.10.2020
6097 Clear 19 1024 18 10000 0.31 86 06:50 30.10.2020
6098 Clear 18 1025 23 10000 0.76 123 05:45 30.10.2020
6099 Clear 13 1026 37 10000 1.5 110 02:43 30.10.2020
6100 Clear 6 1025 75 10000 1.26 74 01:18 30.10.2020
6101 Clear 4 1025 44 10000 1.16 64 23:58 29.10.2020
6102 Clear 4 1025 44 10000 1.16 64 23:40 29.10.2020
6103 Clear 4 1024 46 10000 1.01 55 23:21 29.10.2020
6104 Clear 4 1024 46 10000 1.01 55 22:43 29.10.2020
6105 Clear 4 1024 44 10000 0.83 47 22:24 29.10.2020
6106 Clear 5 1024 44 10000 0.83 47 21:43 29.10.2020
6107 Clear 5 1024 44 10000 0.64 42 21:22 29.10.2020
6108 Clear 5 1024 44 10000 0.64 42 21:22 29.10.2020
6109 Clear 5 1024 44 10000 0.64 42 20:42 29.10.2020
6110 Clouds 7 1024 70 10000 0.72 23 20:21 29.10.2020
6111 Clouds 7 1024 70 10000 0.72 23 19:54 29.10.2020
6112 Clouds 7 1024 70 10000 0.72 23 19:36 29.10.2020
6113 Clear 7 1023 42 10000 0.98 25 19:18 29.10.2020
6114 Clear 7 1023 42 10000 0.98 25 18:41 29.10.2020
6115 Clouds 7 1023 41 10000 1.31 18 18:21 29.10.2020
6116 Clouds 7 1023 41 10000 1.31 18 17:42 29.10.2020
6117 Clouds 7 1023 56 10000 1.17 345 17:21 29.10.2020
6118 Clouds 7 1023 56 10000 1.17 345 16:48 29.10.2020
6119 Clouds 8 1023 49 10000 0.97 325 16:22 29.10.2020
6120 Clouds 8 1023 49 10000 0.97 325 15:57 29.10.2020
6121 Clouds 8 1023 49 10000 0.97 325 15:38 29.10.2020
6122 Clouds 10 1023 40 10000 1.3 318 15:20 29.10.2020
6123 Clouds 10 1023 40 10000 1.3 318 14:46 29.10.2020
6124 Clouds 11 1023 37 10000 1.86 314 14:23 29.10.2020
6125 Clouds 11 1023 37 10000 1.86 314 13:48 29.10.2020
6126 Clouds 11 1023 37 10000 2.28 305 13:28 29.10.2020
6127 Clouds 10 1023 43 10000 2.28 305 12:57 29.10.2020
6128 Clouds 10 1023 43 10000 2.25 315 12:39 29.10.2020
6129 Clouds 10 1023 46 10000 2.94 325 12:18 29.10.2020
6130 Clouds 10 1023 46 10000 2.94 325 11:42 29.10.2020
6131 Clouds 11 1022 34 10000 3.69 318 11:24 29.10.2020
6132 Haze 12 1022 26 9000 3.69 318 10:37 29.10.2020
6133 Haze 12 1022 26 9000 3.69 318 10:37 29.10.2020
6134 Haze 15 1022 26 9000 3.38 320 10:19 29.10.2020
6135 Haze 15 1022 26 9000 3.38 320 09:50 29.10.2020
6136 Haze 15 1022 26 9000 3.34 317 09:28 29.10.2020
6137 Clouds 15 1022 19 10000 3.34 317 08:52 29.10.2020
6138 Clear 15 1022 19 10000 3.27 313 08:26 29.10.2020
6139 Clear 15 1022 19 10000 3.27 313 07:53 29.10.2020
6140 Clear 15 1022 19 10000 3.31 306 07:24 29.10.2020
6141 Clear 16 1022 22 10000 2.6 220 06:54 29.10.2020
6142 Haze 15 1024 26 9000 2.1 270 04:51 29.10.2020
6143 Clouds 14 1024 33 10000 1.08 324 02:40 29.10.2020
6144 Clouds 11 1025 40 10000 1.03 290 00:45 29.10.2020
6145 Clouds 10 1024 43 10000 0.91 295 00:23 29.10.2020
6146 Clouds 10 1024 43 10000 0.91 295 23:44 28.10.2020
6147 Clouds 10 1025 44 10000 0.89 292 23:20 28.10.2020
6148 Clear 1 1025 86 10000 0.5 180 22:44 28.10.2020
6149 Clear 3 1024 74 10000 1.06 304 22:26 28.10.2020
6150 Clear 3 1024 74 10000 1.06 304 21:46 28.10.2020
6151 Clouds 4 1024 64 10000 1.36 315 21:26 28.10.2020
6152 Clouds 4 1024 64 10000 1.36 315 20:59 28.10.2020
6153 Clouds 4 1024 64 10000 1.36 315 20:41 28.10.2020
6154 Clear 4 1024 64 10000 1.79 306 20:19 28.10.2020
6155 Clear 4 1024 64 10000 1.79 306 19:47 28.10.2020
6156 Clear 4 1024 64 10000 2.07 313 19:27 28.10.2020
6157 Clear 7 1024 52 10000 2.24 308 18:46 28.10.2020
6158 Clear 8 1024 42 10000 2.86 323 18:20 28.10.2020
6159 Clear 8 1024 42 10000 2.86 323 17:44 28.10.2020
6160 Clear 9 1024 39 10000 1.5 290 17:24 28.10.2020
6161 Clear 9 1024 39 10000 1.5 290 16:49 28.10.2020
6162 Clear 9 1024 39 10000 1.5 290 16:30 28.10.2020
6163 Clear 9 1024 39 10000 4.04 326 15:46 28.10.2020
6164 Clear 12 1025 39 10000 4.63 327 15:20 28.10.2020
6165 Clear 10 1024 39 10000 0.5 110 14:57 28.10.2020
6166 Clear 11 1024 37 10000 4.63 327 14:38 28.10.2020
6167 Clear 12 1025 38 10000 4.77 326 14:18 28.10.2020
6168 Clouds 12 1024 38 10000 4.87 322 12:39 28.10.2020
6169 Clouds 13 1024 37 10000 5.13 319 12:20 28.10.2020
6170 Clouds 13 1024 37 10000 5.13 319 11:44 28.10.2020
6171 Clear 16 1021 23 10000 1.5 280 11:23 28.10.2020
6172 Clear 15 1021 26 10000 1 280 10:58 28.10.2020
6173 Clear 15 1021 26 10000 1 280 10:58 28.10.2020
6174 Clear 16 1021 23 10000 5.14 321 10:40 28.10.2020
6175 Clear 16 1021 23 10000 5.12 321 10:22 28.10.2020
6176 Clear 16 1021 23 10000 5.12 321 09:38 28.10.2020
6177 Clear 16 1021 23 10000 5.12 321 09:38 28.10.2020
6178 Clear 17 1021 23 10000 1.5 310 09:20 28.10.2020
6179 Clear 17 1021 23 10000 1.5 310 08:47 28.10.2020
6180 Clouds 18 1021 25 10000 5.46 318 08:25 28.10.2020
6181 Clouds 18 1021 25 10000 5.46 318 07:48 28.10.2020
6182 Clouds 18 1021 25 10000 5.46 318 07:30 28.10.2020
6183 Clouds 19 1021 22 10000 1.5 300 06:40 28.10.2020
6184 Clouds 19 1022 26 10000 2.1 250 05:49 28.10.2020
6185 Clear 18 1022 27 10000 1.5 220 04:52 28.10.2020
6186 Clouds 18 1023 39 10000 1.5 220 04:25 28.10.2020
6187 Clouds 14 1023 71 6000 3.6 330 02:25 28.10.2020
6188 Mist 13 1023 93 4000 2.6 340 01:26 28.10.2020
6189 Fog 9 1023 100 2000 0.5 340 23:54 27.10.2020
6190 Clouds 11 1022 87 10000 2.38 300 23:25 27.10.2020
6191 Clouds 11 1022 87 10000 2.38 300 22:55 27.10.2020
6192 Clouds 11 1022 87 10000 2.38 300 22:37 27.10.2020
6193 Clouds 11 1022 87 10000 2.35 302 22:18 27.10.2020
6194 Clouds 11 1022 87 10000 2.35 302 21:55 27.10.2020
6195 Clouds 11 1022 87 10000 2.35 302 21:36 27.10.2020
6196 Clouds 12 1022 87 10000 2.13 306 21:18 27.10.2020
6197 Clouds 12 1021 87 10000 2.13 306 20:39 27.10.2020
6198 Clouds 12 1021 87 10000 1.8 296 20:20 27.10.2020
6199 Clouds 12 1022 93 10000 1.8 296 19:39 27.10.2020
6200 Clouds 12 1021 93 10000 1.23 290 19:20 27.10.2020
6201 Clouds 12 1021 93 10000 1.23 290 18:58 27.10.2020
6202 Clouds 12 1021 93 10000 1.23 290 18:58 27.10.2020
6203 Clouds 12 1021 100 10000 1.23 290 18:39 27.10.2020
6204 Clouds 12 1021 93 10000 1.62 282 18:18 27.10.2020
6205 Clouds 12 1021 93 10000 1.62 282 18:18 27.10.2020
6206 Clouds 12 1021 93 10000 1.62 282 17:42 27.10.2020
6207 Clouds 12 1022 87 10000 1.42 284 17:21 27.10.2020
6208 Clouds 12 1022 87 10000 1.42 284 17:21 27.10.2020
6209 Clouds 12 1022 87 10000 1.42 284 17:21 27.10.2020
6210 Clouds 12 1022 87 10000 1.42 284 17:21 27.10.2020
6211 Clouds 12 1022 87 10000 1.42 284 17:21 27.10.2020
6212 Clouds 12 1022 93 10000 1.42 284 16:48 27.10.2020
6213 Mist 11 1022 100 3000 1 100 16:25 27.10.2020
6214 Mist 11 1022 100 2500 0.5 40 15:48 27.10.2020
6215 Mist 11 1022 100 2500 0.5 40 15:30 27.10.2020
6216 Mist 11 1022 100 2200 0.5 350 14:55 27.10.2020
6217 Clear 12 1021 87 10000 1.4 265 14:37 27.10.2020
6218 Clear 11 1021 87 10000 1.61 269 14:19 27.10.2020
6219 Clear 11 1021 87 10000 1.61 269 13:33 27.10.2020
6220 Clear 12 1021 82 10000 1.6 275 12:58 27.10.2020
6221 Clear 12 1021 82 10000 1.55 267 12:38 27.10.2020
6222 Clear 13 1021 67 10000 1.73 270 12:20 27.10.2020
6223 Clear 14 1021 67 10000 1.73 270 11:42 27.10.2020
6224 Clear 15 1020 72 10000 2.13 271 11:22 27.10.2020
6225 Clear 15 1020 72 10000 2.13 271 10:47 27.10.2020
6226 Clear 16 1020 59 10000 2.46 273 10:25 27.10.2020
6227 Clear 18 1020 59 10000 2.46 273 09:45 27.10.2020
6228 Clear 19 1020 48 10000 1.5 230 09:23 27.10.2020
6229 Clear 19 1020 48 10000 1.5 230 08:38 27.10.2020
6230 Clear 19 1020 45 10000 3.4 274 08:18 27.10.2020
6231 Clear 19 1020 45 10000 3.4 274 07:44 27.10.2020
6232 Clear 20 1020 42 10000 2.1 360 07:25 27.10.2020
6233 Clear 19 1020 52 10000 2.1 320 06:22 27.10.2020
6234 Clear 19 1020 52 10000 2.1 320 05:51 27.10.2020
6235 Clear 19 1020 52 10000 2.1 320 05:33 27.10.2020
6236 Haze 18 1021 59 9000 2.36 282 04:44 27.10.2020
6237 Haze 15 1021 71 9000 0.18 222 02:29 27.10.2020
6238 Mist 8 1022 100 6000 0.57 129 00:51 27.10.2020
6239 Mist 7 1021 100 4000 0.28 142 23:41 26.10.2020
6240 Mist 7 1021 100 4800 0.3 148 23:19 26.10.2020
6241 Mist 7 1021 100 8000 0.3 148 22:46 26.10.2020
6242 Mist 7 1020 100 8000 0.33 172 22:21 26.10.2020
6243 Mist 7 1020 100 8000 0.33 172 21:43 26.10.2020
6244 Mist 7 1020 100 6000 0.29 102 21:20 26.10.2020
6245 Mist 7 1020 100 6000 0.29 102 20:57 26.10.2020
6246 Mist 7 1020 100 6000 0.29 102 20:38 26.10.2020
6247 Mist 8 1020 100 8000 0.52 18 20:18 26.10.2020
6248 Mist 8 1020 100 8000 0.52 18 19:44 26.10.2020
6249 Mist 8 1020 100 9000 0.75 19 19:22 26.10.2020
6250 Mist 8 1020 100 9000 0.69 3 18:42 26.10.2020
6251 Mist 8 1020 100 8000 0.81 316 18:22 26.10.2020
6252 Mist 8 1020 100 8000 0.81 316 17:45 26.10.2020
6253 Mist 8 1020 93 9000 0.64 290 17:24 26.10.2020
6254 Mist 8 1020 93 9000 0.64 290 16:57 26.10.2020
6255 Mist 8 1020 93 9000 0.64 290 16:38 26.10.2020
6256 Clear 9 1020 93 10000 0.59 296 16:19 26.10.2020
6257 Clear 9 1020 93 10000 0.59 296 15:39 26.10.2020
6258 Clear 10 1020 87 10000 0.66 264 15:19 26.10.2020
6259 Clear 10 1020 87 10000 0.66 264 14:46 26.10.2020
6260 Rain 13 1020 67 10000 1.5 300 14:21 26.10.2020
6261 Rain 13 1020 67 10000 1.5 300 13:42 26.10.2020
6262 Rain 12 1019 71 10000 1.32 265 13:23 26.10.2020
6263 Rain 12 1019 71 10000 1.26 262 12:47 26.10.2020
6264 Clear 12 1019 71 10000 1.45 258 12:27 26.10.2020
6265 Rain 13 1019 58 10000 1.45 258 11:55 26.10.2020
6266 Rain 13 1019 58 10000 1.45 258 11:37 26.10.2020
6267 Rain 13 1019 58 10000 1.45 258 11:37 26.10.2020
6268 Rain 15 1018 58 10000 1.64 260 11:18 26.10.2020
6269 Rain 15 1018 58 10000 1.64 260 10:42 26.10.2020
6270 Clear 15 1018 51 10000 1.5 300 10:22 26.10.2020
6271 Clear 17 1018 51 10000 1.5 300 09:43 26.10.2020
6272 Clear 19 1018 48 10000 2.96 282 09:23 26.10.2020
6273 Clear 19 1018 48 10000 2.88 286 08:29 26.10.2020
6274 Clouds 18 1018 45 10000 2.88 286 07:53 26.10.2020
6275 Clouds 18 1018 45 10000 2.88 286 07:35 26.10.2020
6276 Clear 19 1019 39 10000 3.36 284 06:37 26.10.2020
6277 Clear 17 1020 63 10000 1.72 283 04:22 26.10.2020
6278 Clear 17 1020 63 10000 1.72 283 03:42 26.10.2020
6279 Clear 11 1021 87 10000 0.2 122 01:40 26.10.2020
6280 Clear 8 1021 100 10000 0.52 95 00:57 26.10.2020
6281 Clear 8 1021 100 10000 0.44 148 00:32 26.10.2020
6282 Rain 6 1021 100 8000 0.44 148 23:41 25.10.2020
6283 Rain 5 1020 100 10000 0.41 96 23:21 25.10.2020
6284 Rain 5 1020 100 10000 0.41 96 22:40 25.10.2020
6285 Rain 5 1020 100 9000 0.28 41 22:20 25.10.2020
6286 Mist 6 1020 100 9000 0.28 41 21:41 25.10.2020
6287 Clear 6 1020 100 10000 0.38 355 21:22 25.10.2020
6288 Clear 6 1020 100 10000 0.38 355 20:46 25.10.2020
6289 Clear 6 1020 100 10000 0.32 9 20:28 25.10.2020
6290 Clear 6 1020 100 10000 0.32 9 19:59 25.10.2020
6291 Rain 6 1020 100 10000 0.32 9 19:41 25.10.2020
6292 Clear 7 1020 100 10000 0.47 350 19:21 25.10.2020
6293 Rain 7 1020 100 10000 0.55 331 18:42 25.10.2020
6294 Rain 7 1020 100 10000 0.56 294 18:24 25.10.2020
6295 Rain 7 1020 100 10000 0.56 294 17:59 25.10.2020
6296 Rain 7 1020 100 10000 0.56 294 17:38 25.10.2020
6297 Rain 8 1020 93 10000 0.57 307 17:20 25.10.2020
6298 Rain 7 1020 100 8000 1.5 320 16:52 25.10.2020
6299 Rain 8 1020 93 10000 0.8 311 16:32 25.10.2020
6300 Rain 8 1020 93 10000 0.8 311 15:52 25.10.2020
6301 Rain 8 1020 93 10000 0.8 311 15:32 25.10.2020
6302 Rain 9 1020 87 10000 1.16 302 14:59 25.10.2020
6303 Rain 9 1020 87 10000 1.16 302 14:38 25.10.2020
6304 Rain 10 1020 76 10000 1.71 284 14:19 25.10.2020
6305 Clouds 10 1020 76 10000 1.71 284 13:42 25.10.2020
6306 Clouds 11 1020 66 10000 1.75 271 13:20 25.10.2020
6307 Clouds 11 1020 66 10000 1.75 271 12:46 25.10.2020
6308 Clouds 11 1020 66 10000 2.02 269 12:26 25.10.2020
6309 Clear 12 1019 58 10000 2.02 269 11:44 25.10.2020
6310 Clouds 15 1019 47 10000 2.33 278 11:22 25.10.2020
6311 Clouds 15 1019 47 10000 2.33 278 10:57 25.10.2020
6312 Clouds 15 1019 47 10000 2.33 278 10:38 25.10.2020
6313 Clouds 16 1018 41 10000 3.18 277 10:20 25.10.2020
6314 Clouds 16 1018 41 10000 3.18 277 09:40 25.10.2020
6315 Clouds 18 1018 34 10000 2.1 220 09:19 25.10.2020
6316 Clouds 18 1018 34 10000 2.1 220 08:41 25.10.2020
6317 Clouds 18 1018 31 10000 1.5 190 08:22 25.10.2020
6318 Clouds 18 1018 31 10000 1.5 190 07:47 25.10.2020
6319 Clouds 18 1018 30 10000 1.5 190 07:24 25.10.2020
6320 Clear 18 1019 33 10000 1.5 220 06:45 25.10.2020
6321 Clouds 18 1019 34 10000 1.5 250 05:36 25.10.2020
6322 Clouds 18 1020 45 10000 2.97 295 04:51 25.10.2020
6323 Clear 14 1021 62 10000 2.34 291 02:45 25.10.2020
6324 Clear 6 1021 87 10000 0.61 266 01:32 25.10.2020
6325 Clear 3 1020 100 10000 0.61 266 00:48 25.10.2020
6326 Clear 3 1020 93 10000 0.53 289 00:20 25.10.2020
6327 Rain 3 1020 93 10000 0.53 289 23:53 24.10.2020
6328 Rain 3 1020 93 10000 0.56 298 23:26 24.10.2020
6329 Clear 4 1020 100 10000 0.56 298 22:55 24.10.2020
6330 Clear 4 1020 100 10000 0.56 298 22:37 24.10.2020
6331 Clear 4 1020 93 10000 0.84 297 22:18 24.10.2020
6332 Clear 4 1020 93 10000 0.84 297 21:41 24.10.2020
6333 Clear 4 1020 93 10000 0.78 287 21:20 24.10.2020
6334 Clear 4 1020 93 10000 0.78 287 20:47 24.10.2020
6335 Clear 4 1020 93 10000 0.8 295 20:23 24.10.2020
6336 Clear 4 1020 93 10000 0.8 295 19:48 24.10.2020
6337 Clear 4 1020 93 10000 1.17 284 19:28 24.10.2020
6338 Clear 5 1020 86 10000 1.17 284 18:57 24.10.2020
6339 Clear 5 1020 86 10000 1.17 284 18:39 24.10.2020
6340 Clear 6 1020 81 10000 1.1 290 18:20 24.10.2020
6341 Clear 6 1020 81 10000 1.1 290 17:38 24.10.2020
6342 Rain 6 1020 81 10000 1.21 292 17:20 24.10.2020
6343 Rain 6 1020 81 10000 1.21 292 16:44 24.10.2020
6344 Rain 7 1020 70 10000 1.53 291 16:21 24.10.2020
6345 Clear 7 1020 70 10000 1.53 291 15:39 24.10.2020
6346 Rain 7 1019 65 10000 2.25 302 15:19 24.10.2020
6347 Rain 7 1019 65 10000 2.93 310 14:46 24.10.2020
6348 Rain 7 1019 65 10000 4.32 312 14:27 24.10.2020
6349 Clear 8 1019 61 10000 4.32 312 13:46 24.10.2020
6350 Clear 8 1019 61 10000 5.03 314 13:24 24.10.2020
6351 Clear 10 1018 43 10000 5.03 314 12:44 24.10.2020
6352 Clear 12 1018 32 10000 5.26 309 12:21 24.10.2020
6353 Clear 12 1018 32 10000 5.26 309 11:51 24.10.2020
6354 Clear 12 1018 32 10000 5.1 305 11:32 24.10.2020
6355 Clear 13 1018 30 10000 5.1 305 10:52 24.10.2020
6356 Clear 13 1018 30 10000 5.77 302 10:33 24.10.2020
6357 Clear 14 1018 26 10000 5.77 302 09:50 24.10.2020
6358 Clear 14 1018 26 10000 5.94 303 09:32 24.10.2020
6359 Clear 14 1018 24 10000 5.94 303 08:58 24.10.2020
6360 Clear 14 1018 24 10000 5.93 306 08:19 24.10.2020
6361 Clear 14 1018 24 10000 5.93 306 07:54 24.10.2020
6362 Clear 14 1018 24 10000 6.51 312 07:25 24.10.2020
6363 Clear 13 1019 27 10000 3.1 230 06:53 24.10.2020
6364 Clear 12 1020 25 10000 6.92 315 06:23 24.10.2020
6365 Clear 8 1020 36 10000 5.82 317 02:56 24.10.2020
6366 Clear 4 1018 48 10000 4.91 320 01:20 24.10.2020
6367 Clear 4 1018 48 10000 4.91 320 00:40 24.10.2020
6368 Clear 4 1018 48 10000 4.91 320 00:40 24.10.2020
6369 Rain 5 1018 60 10000 4.55 315 00:21 24.10.2020
6370 Rain 5 1018 60 10000 4.55 315 23:47 23.10.2020
6371 Rain 5 1018 60 10000 4.36 310 23:25 23.10.2020
6372 Rain 5 1018 48 10000 4.36 310 22:57 23.10.2020
6373 Clear 5 1018 48 10000 4.36 310 22:37 23.10.2020
6374 Clear 5 1017 52 10000 4.43 305 22:18 23.10.2020
6375 Clear 5 1017 52 10000 4.43 305 21:39 23.10.2020
6376 Clear 5 1017 60 10000 4.63 301 21:21 23.10.2020
6377 Clear 6 1017 60 10000 4.63 301 20:40 23.10.2020
6378 Rain 6 1017 49 10000 4.45 302 20:20 23.10.2020
6379 Rain 6 1017 49 10000 4.86 305 19:48 23.10.2020
6380 Clear 6 1017 49 10000 4.8 306 19:30 23.10.2020
6381 Rain 5 1017 65 10000 4.8 306 18:52 23.10.2020
6382 Rain 5 1017 65 10000 4.8 306 18:30 23.10.2020
6383 Rain 7 1017 52 10000 4.84 306 17:48 23.10.2020
6384 Rain 7 1017 52 10000 4.87 306 17:23 23.10.2020
6385 Rain 7 1017 49 10000 4.87 306 16:56 23.10.2020
6386 Rain 7 1017 49 10000 4.87 306 16:56 23.10.2020
6387 Rain 7 1017 49 10000 4.87 306 16:56 23.10.2020
6388 Rain 7 1017 49 10000 4.87 306 16:35 23.10.2020
6389 Rain 8 1016 45 10000 1.5 290 15:59 23.10.2020
6390 Rain 8 1016 45 10000 1.5 290 15:40 23.10.2020
6391 Rain 8 1016 42 10000 5.23 311 15:20 23.10.2020
6392 Rain 8 1016 42 10000 5.23 311 14:49 23.10.2020
6393 Rain 8 1016 42 10000 5.11 312 14:30 23.10.2020
6394 Rain 9 1015 42 10000 5.62 311 13:43 23.10.2020
6395 Rain 10 1015 37 10000 2.6 310 13:24 23.10.2020
6396 Rain 10 1015 37 10000 2.6 310 12:51 23.10.2020
6397 Rain 10 1015 37 10000 2.6 310 12:31 23.10.2020
6398 Rain 10 1014 32 10000 3.6 310 11:51 23.10.2020
6399 Rain 10 1014 32 10000 3.6 310 11:51 23.10.2020
6400 Clear 10 1014 32 10000 3.6 310 11:28 23.10.2020
6401 Clear 12 1014 32 10000 2.1 300 10:55 23.10.2020
6402 Clear 12 1014 32 10000 2.1 300 10:37 23.10.2020
6403 Clear 13 1014 30 10000 1.5 300 10:19 23.10.2020
6404 Clear 13 1014 30 10000 1.5 300 09:43 23.10.2020
6405 Clear 13 1014 30 10000 1.5 300 09:23 23.10.2020
6406 Clear 14 1013 32 10000 1.5 320 08:50 23.10.2020
6407 Clear 14 1013 32 10000 1.5 320 08:26 23.10.2020
6408 Clear 12 1014 34 10000 1.5 230 07:27 23.10.2020
6409 Clear 12 1014 34 10000 1.5 230 06:49 23.10.2020
6410 Clear 12 1015 37 10000 2.1 210 06:20 23.10.2020
6411 Clear 10 1016 49 10000 2.1 210 03:38 23.10.2020
6412 Clear 9 1016 49 10000 1.5 270 02:26 23.10.2020
6413 Rain 7 1015 56 10000 4.08 306 00:49 23.10.2020
6414 Rain 6 1014 57 10000 2.6 310 00:29 23.10.2020
6415 Rain 6 1014 57 10000 2.6 310 23:37 22.10.2020
6416 Rain 7 1014 65 10000 1.5 340 23:18 22.10.2020
6417 Rain 7 1014 65 10000 1.5 340 22:44 22.10.2020
6418 Clear 7 1014 65 10000 5.19 307 22:23 22.10.2020
6419 Rain 7 1014 65 10000 5.19 307 21:49 22.10.2020
6420 Clear 7 1014 65 10000 5.48 300 21:31 22.10.2020
6421 Clear 8 1014 61 10000 5.48 300 20:59 22.10.2020
6422 Clear 8 1014 61 10000 5.48 300 20:41 22.10.2020
6423 Rain 8 1014 52 10000 5.58 300 20:21 22.10.2020
6424 Rain 8 1014 52 10000 5.58 300 19:43 22.10.2020
6425 Rain 8 1014 51 10000 5.9 302 19:20 22.10.2020
6426 Rain 8 1014 51 10000 5.9 302 18:44 22.10.2020
6427 Rain 9 1014 50 10000 5.89 304 18:22 22.10.2020
6428 Rain 9 1014 50 10000 5.89 304 17:47 22.10.2020
6429 Rain 9 1014 53 10000 5.86 301 17:26 22.10.2020
6430 Clear 9 1014 53 10000 5.86 301 16:58 22.10.2020
6431 Rain 9 1014 53 10000 5.86 301 16:40 22.10.2020
6432 Rain 9 1014 53 10000 2.1 250 16:22 22.10.2020
6433 Rain 9 1014 53 10000 2.1 250 15:44 22.10.2020
6434 Rain 10 1014 53 10000 2.6 300 15:25 22.10.2020
6435 Rain 10 1014 53 10000 2.6 300 14:49 22.10.2020
6436 Rain 10 1014 53 10000 2.6 300 14:49 22.10.2020
6437 Rain 11 1013 50 10000 4.6 300 14:25 22.10.2020
6438 Rain 12 1013 50 10000 4.6 300 13:49 22.10.2020
6439 Rain 12 1013 50 10000 4.6 300 13:24 22.10.2020
6440 Rain 12 1013 43 10000 1.5 330 13:24 22.10.2020
6441 Rain 13 1013 43 10000 1.5 330 12:54 22.10.2020
6442 Rain 14 1012 38 10000 1.5 290 12:24 22.10.2020
6443 Rain 14 1012 38 10000 1.5 290 11:50 22.10.2020
6444 Clear 16 1012 41 10000 6.06 310 11:20 22.10.2020
6445 Clear 16 1012 41 10000 6.06 310 10:51 22.10.2020
6446 Clear 18 1011 36 10000 6.52 311 10:29 22.10.2020
6447 Clear 18 1011 36 10000 6.52 311 09:54 22.10.2020
6448 Clear 18 1011 36 10000 6.52 311 09:35 22.10.2020
6449 Clear 19 1011 39 10000 6.47 311 08:53 22.10.2020
6450 Clear 19 1011 39 10000 6.47 311 08:32 22.10.2020
6451 Clear 19 1011 45 10000 1.5 360 07:58 22.10.2020
6452 Clear 19 1011 45 10000 1.5 360 07:40 22.10.2020
6453 Clear 19 1012 52 10000 2.1 240 06:58 22.10.2020
6454 Clear 19 1012 52 10000 2.1 240 06:35 22.10.2020
6455 Clouds 19 1013 63 10000 1.5 270 05:42 22.10.2020
6456 Clouds 18 1013 72 10000 1.5 310 05:19 22.10.2020
6457 Clouds 14 1014 87 10000 1.92 179 01:50 22.10.2020
6458 Clouds 13 1014 93 10000 1.69 165 00:26 22.10.2020
6459 Clouds 13 1014 93 10000 1.69 165 23:51 21.10.2020
6460 Clouds 13 1014 93 10000 2.07 174 23:32 21.10.2020
6461 Clouds 13 1014 93 10000 2.07 174 22:43 21.10.2020
6462 Clouds 12 1014 93 10000 2.39 164 22:19 21.10.2020
6463 Clouds 12 1014 93 10000 2.39 164 21:56 21.10.2020
6464 Clouds 12 1014 93 10000 2.39 164 21:37 21.10.2020
6465 Clouds 12 1015 93 10000 2.53 169 21:18 21.10.2020
6466 Clouds 12 1015 93 10000 2.53 169 21:18 21.10.2020
6467 Clouds 12 1015 93 10000 2.53 169 20:47 21.10.2020
6468 Clouds 11 1015 100 10000 2.6 177 20:19 21.10.2020
6469 Clouds 11 1015 100 10000 2.92 164 19:45 21.10.2020
6470 Clouds 11 1015 100 10000 2.72 172 19:26 21.10.2020
6471 Clouds 11 1015 100 10000 2.72 172 19:26 21.10.2020
6472 Clouds 11 1015 100 10000 2.72 172 18:54 21.10.2020
6473 Clouds 11 1015 100 10000 2.72 172 18:33 21.10.2020
6474 Clouds 11 1015 100 10000 2.64 183 18:33 21.10.2020
6475 Clouds 12 1015 93 10000 2.64 183 17:55 21.10.2020
6476 Clouds 12 1015 93 10000 2.64 183 17:37 21.10.2020
6477 Clouds 11 1016 93 10000 2.84 196 17:18 21.10.2020
6478 Clouds 11 1016 93 10000 2.84 196 16:40 21.10.2020
6479 Clouds 12 1016 93 10000 2.88 208 16:21 21.10.2020
6480 Clouds 12 1016 93 10000 2.88 208 15:49 21.10.2020
6481 Clouds 12 1016 93 10000 2.66 208 15:28 21.10.2020
6482 Clouds 13 1016 87 10000 2.66 208 14:57 21.10.2020
6483 Clouds 13 1016 87 10000 2.66 208 14:38 21.10.2020
6484 Clouds 13 1017 87 10000 3.13 192 14:19 21.10.2020
6485 Clouds 13 1017 87 10000 3.13 192 13:42 21.10.2020
6486 Clouds 14 1016 82 10000 3.07 187 13:21 21.10.2020
6487 Clouds 14 1016 82 10000 3.07 187 12:41 21.10.2020
6488 Clouds 14 1016 72 10000 2.55 186 12:21 21.10.2020
6489 Clouds 15 1016 72 10000 2.55 186 11:47 21.10.2020
6490 Clouds 15 1016 72 10000 2.77 195 11:21 21.10.2020
6491 Clouds 16 1016 59 10000 2.77 195 10:57 21.10.2020
6492 Clouds 17 1016 59 10000 2.77 195 10:38 21.10.2020
6493 Clouds 17 1016 59 10000 3.01 206 10:20 21.10.2020
6494 Clouds 18 1016 52 10000 3.01 206 09:39 21.10.2020
6495 Clouds 17 1017 59 10000 2.6 140 08:59 21.10.2020
6496 Clouds 17 1017 59 10000 2.6 140 08:40 21.10.2020
6497 Rain 17 1018 55 10000 2.77 194 08:22 21.10.2020
6498 Rain 17 1018 55 10000 2.77 194 07:48 21.10.2020
6499 Rain 17 1019 55 10000 3.57 212 06:59 21.10.2020
6500 Rain 17 1019 55 10000 3.23 212 06:33 21.10.2020
6501 Clouds 17 1020 55 10000 2.1 50 05:23 21.10.2020
6502 Clouds 14 1021 67 10000 1.54 144 02:37 21.10.2020
6503 Clouds 12 1021 71 10000 1.37 108 00:24 21.10.2020
6504 Clouds 12 1021 71 10000 1.17 119 23:25 20.10.2020
6505 Clouds 12 1021 71 10000 1.17 119 22:37 20.10.2020
6506 Clouds 11 1021 71 10000 1.57 101 22:19 20.10.2020
6507 Clouds 12 1021 71 10000 1.57 101 21:47 20.10.2020
6508 Clouds 9 1022 87 10000 1.36 103 21:18 20.10.2020
6509 Clouds 9 1022 87 10000 1.36 103 20:42 20.10.2020
6510 Clouds 9 1022 93 10000 0.97 112 20:23 20.10.2020
6511 Rain 10 1022 93 10000 0.95 106 19:45 20.10.2020
6512 Clouds 10 1022 93 10000 1.22 94 19:22 20.10.2020
6513 Clouds 10 1022 93 10000 1.22 94 18:57 20.10.2020
6514 Clouds 10 1022 93 10000 1.22 94 18:37 20.10.2020
6515 Clear 9 1023 87 10000 0.96 110 17:51 20.10.2020
6516 Rain 9 1023 87 10000 0.63 90 17:32 20.10.2020
6517 Rain 10 1023 87 10000 0.63 90 16:58 20.10.2020
6518 Rain 10 1023 87 10000 0.63 90 16:38 20.10.2020
6519 Rain 11 1023 81 10000 0.56 75 16:20 20.10.2020
6520 Rain 11 1023 81 10000 0.56 75 15:44 20.10.2020
6521 Rain 11 1024 81 10000 0.88 75 15:23 20.10.2020
6522 Rain 11 1024 81 10000 0.88 75 14:44 20.10.2020
6523 Rain 12 1024 81 10000 0.16 289 14:25 20.10.2020
6524 Rain 13 1024 76 10000 0.4 41 13:58 20.10.2020
6525 Rain 13 1024 76 10000 0.4 41 13:39 20.10.2020
6526 Rain 14 1023 67 10000 0.63 269 13:19 20.10.2020
6527 Rain 14 1023 67 10000 0.63 269 12:48 20.10.2020
6528 Rain 14 1023 67 10000 0.52 295 12:29 20.10.2020
6529 Rain 17 1023 59 10000 0.52 295 11:47 20.10.2020
6530 Clear 19 1024 40 10000 0.58 37 11:27 20.10.2020
6531 Clear 19 1024 40 10000 0.58 37 10:40 20.10.2020
6532 Clear 21 1024 40 10000 1.44 356 10:22 20.10.2020
6533 Clear 21 1024 40 10000 1.44 356 09:44 20.10.2020
6534 Clear 21 1024 40 10000 2.21 305 09:19 20.10.2020
6535 Clear 22 1025 40 10000 1.5 210 08:39 20.10.2020
6536 Clear 21 1025 37 10000 2.6 230 07:54 20.10.2020
6537 Clear 21 1025 42 10000 1.5 160 07:26 20.10.2020
6538 Clear 20 1025 42 10000 1.5 160 06:57 20.10.2020
6539 Clear 20 1027 48 10000 1.16 346 06:19 20.10.2020
6540 Clear 15 1028 67 10000 0.42 41 03:59 20.10.2020
6541 Clear 12 1028 82 10000 0.7 79 02:30 20.10.2020
6542 Rain 10 1027 100 3200 0.97 81 01:22 20.10.2020
6543 Mist 9 1027 100 2200 0.97 81 00:50 20.10.2020
6544 Rain 8 1027 100 1200 0.92 82 00:24 20.10.2020
6545 Mist 9 1027 100 3200 0.92 82 23:49 19.10.2020
6546 Mist 9 1026 100 4400 0.86 78 23:24 19.10.2020
6547 Rain 9 1026 100 4400 0.86 78 22:51 19.10.2020
6548 Rain 9 1026 100 4800 0.81 78 22:25 19.10.2020
6549 Rain 9 1026 100 4400 0.81 78 22:25 19.10.2020
6550 Rain 8 1026 100 4800 0.81 78 21:49 19.10.2020
6551 Rain 9 1026 100 6000 0.73 67 21:23 19.10.2020
6552 Rain 9 1026 100 6000 0.73 67 20:52 19.10.2020
6553 Rain 9 1026 100 4800 0.53 74 20:33 19.10.2020
6554 Mist 9 1026 100 3600 0.53 74 19:56 19.10.2020
6555 Mist 9 1026 100 3600 0.61 85 19:38 19.10.2020
6556 Rain 9 1026 100 3600 0.42 88 19:18 19.10.2020
6557 Rain 9 1026 100 3000 0.42 88 18:42 19.10.2020
6558 Rain 11 1026 100 3600 0.36 50 18:19 19.10.2020
6559 Rain 11 1026 100 3600 0.36 50 17:45 19.10.2020
6560 Rain 11 1026 100 4800 0.45 352 17:25 19.10.2020
6561 Mist 11 1026 100 4800 0.45 352 16:48 19.10.2020
6562 Rain 12 1026 100 4800 0.57 313 16:28 19.10.2020
6563 Rain 16 1026 64 10000 0.57 313 15:44 19.10.2020
6564 Rain 16 1026 62 10000 0.94 302 15:25 19.10.2020
6565 Rain 16 1026 62 10000 0.94 302 14:52 19.10.2020
6566 Rain 17 1025 60 10000 1.53 297 14:27 19.10.2020
6567 Rain 17 1025 60 10000 1.53 297 13:54 19.10.2020
6568 Rain 17 1025 62 10000 1.52 301 13:34 19.10.2020
6569 Clear 17 1025 59 10000 2.07 287 12:59 19.10.2020
6570 Clear 17 1025 59 10000 2.07 287 12:40 19.10.2020
6571 Clear 18 1025 55 10000 2.5 277 12:22 19.10.2020
6572 Clear 19 1023 52 10000 2.5 277 11:40 19.10.2020
6573 Clear 19 1023 52 10000 3.22 277 11:19 19.10.2020
6574 Clear 19 1023 52 10000 3.22 277 10:43 19.10.2020
6575 Clear 21 1023 35 10000 3.95 281 10:21 19.10.2020
6576 Clear 21 1023 35 10000 3.95 281 09:50 19.10.2020
6577 Clear 21 1023 37 10000 1.5 160 09:23 19.10.2020
6578 Clear 21 1023 37 10000 1.5 160 08:49 19.10.2020
6579 Clear 21 1023 37 10000 2.99 292 08:23 19.10.2020
6580 Clear 21 1023 37 10000 2.96 292 07:52 19.10.2020
6581 Clear 20 1024 48 10000 2.1 210 07:19 19.10.2020
6582 Clear 19 1025 55 10000 1.57 295 06:19 19.10.2020
6583 Clear 19 1025 55 10000 1.57 295 06:19 19.10.2020
6584 Clear 17 1025 72 10000 1.5 40 04:29 19.10.2020
6585 Clear 16 1025 72 10000 1.5 40 03:42 19.10.2020
6586 Mist 8 1025 100 6000 0.81 89 00:59 19.10.2020
6587 Mist 7 1025 100 4800 0.57 84 00:25 19.10.2020
6588 Mist 8 1025 100 6000 0.57 84 23:48 18.10.2020
6589 Mist 8 1025 100 6000 0.56 58 23:25 18.10.2020
6590 Rain 8 1024 100 9000 0.56 58 22:52 18.10.2020
6591 Rain 8 1024 100 8000 0.76 19 22:22 18.10.2020
6592 Rain 8 1024 100 8000 0.76 19 21:55 18.10.2020
6593 Rain 8 1024 100 8000 0.76 19 21:36 18.10.2020
6594 Rain 9 1024 100 8000 0.78 351 21:18 18.10.2020
6595 Mist 9 1024 100 8000 0.78 351 20:40 18.10.2020
6596 Rain 9 1024 100 10000 0.64 353 20:19 18.10.2020
6597 Rain 9 1024 100 10000 0.64 353 20:19 18.10.2020
6598 Clear 9 1024 100 10000 0.64 353 19:43 18.10.2020
6599 Clear 9 1024 93 10000 0.61 331 19:22 18.10.2020
6600 Clear 9 1024 93 10000 0.61 331 18:48 18.10.2020
6601 Rain 9 1024 93 10000 0.7 303 18:26 18.10.2020
6602 Clear 10 1024 93 10000 0.7 303 17:43 18.10.2020
6603 Clear 10 1024 93 10000 1.01 284 17:25 18.10.2020
6604 Clear 10 1024 87 10000 1.01 284 16:45 18.10.2020
6605 Clear 11 1023 87 10000 1.09 301 16:26 18.10.2020
6606 Clear 11 1023 87 10000 1.09 301 15:57 18.10.2020
6607 Clear 11 1023 87 10000 1.09 301 15:39 18.10.2020
6608 Clear 12 1023 87 10000 1.33 281 15:19 18.10.2020
6609 Clear 12 1023 87 10000 1.33 281 14:50 18.10.2020
6610 Clear 13 1023 71 10000 1.91 274 14:28 18.10.2020
6611 Clear 13 1023 71 10000 1.91 274 13:55 18.10.2020
6612 Clear 13 1023 71 10000 1.92 270 13:37 18.10.2020
6613 Clear 15 1023 63 10000 2.54 269 13:18 18.10.2020
6614 Clear 15 1023 63 10000 2.54 269 12:41 18.10.2020
6615 Clear 17 1022 59 10000 2.95 272 12:20 18.10.2020
6616 Clear 17 1022 59 10000 2.95 272 11:41 18.10.2020
6617 Clear 18 1022 52 10000 3.62 275 11:22 18.10.2020
6618 Clear 18 1022 52 10000 3.62 275 10:40 18.10.2020
6619 Clear 18 1022 52 10000 3.62 275 10:40 18.10.2020
6620 Clouds 19 1022 48 10000 2.1 270 10:20 18.10.2020
6621 Clouds 19 1022 48 10000 2.1 270 09:50 18.10.2020
6622 Clear 20 1022 45 10000 4.45 282 09:23 18.10.2020
6623 Clear 20 1022 45 10000 4.45 282 08:57 18.10.2020
6624 Clear 20 1022 45 10000 4.45 282 08:37 18.10.2020
6625 Clouds 20 1022 40 10000 4.28 282 08:19 18.10.2020
6626 Clouds 20 1023 45 10000 3.61 289 06:57 18.10.2020
6627 Clear 17 1025 45 10000 2.72 308 04:44 18.10.2020
6628 Clear 12 1025 62 10000 0.79 320 02:55 18.10.2020
6629 Clear 8 1025 87 10000 0.3 41 01:38 18.10.2020
6630 Rain 5 1024 93 10000 0.4 71 00:48 18.10.2020
6631 Clear 5 1024 93 10000 0.42 58 00:24 18.10.2020
6632 Rain 5 1024 93 10000 0.42 58 23:43 17.10.2020
6633 Rain 6 1024 93 10000 0.41 47 23:21 17.10.2020
6634 Rain 6 1024 93 10000 0.41 47 22:57 17.10.2020
6635 Clear 6 1024 93 10000 0.41 47 22:39 17.10.2020
6636 Rain 6 1024 93 10000 0.25 63 22:18 17.10.2020
6637 Rain 6 1024 93 10000 0.25 63 21:43 17.10.2020
6638 Rain 6 1024 100 10000 0.32 358 21:21 17.10.2020
6639 Rain 6 1024 100 10000 0.32 358 20:46 17.10.2020
6640 Rain 7 1024 93 10000 0.55 354 20:21 17.10.2020
6641 Rain 7 1024 93 10000 0.55 354 19:45 17.10.2020
6642 Rain 7 1024 93 10000 0.65 355 19:23 17.10.2020
6643 Rain 7 1024 93 10000 0.65 355 18:47 17.10.2020
6644 Rain 7 1024 93 10000 0.76 350 18:28 17.10.2020
6645 Rain 8 1024 87 10000 0.76 350 17:57 17.10.2020
6646 Rain 8 1024 87 10000 0.76 350 17:38 17.10.2020
6647 Rain 8 1024 87 10000 0.86 329 17:20 17.10.2020
6648 Rain 8 1024 87 10000 0.86 329 16:42 17.10.2020
6649 Rain 10 1024 76 10000 1.05 309 16:19 17.10.2020
6650 Rain 10 1024 76 10000 1.05 309 15:43 17.10.2020
6651 Rain 11 1023 58 10000 1.59 310 15:22 17.10.2020
6652 Rain 12 1023 58 10000 1.59 310 14:57 17.10.2020
6653 Rain 12 1023 58 10000 1.59 310 14:38 17.10.2020
6654 Rain 12 1023 54 10000 1.56 300 14:19 17.10.2020
6655 Rain 12 1023 54 10000 1.56 300 13:43 17.10.2020
6656 Rain 13 1023 44 10000 1.5 320 13:24 17.10.2020
6657 Rain 13 1023 44 10000 1.5 320 12:56 17.10.2020
6658 Rain 13 1023 44 10000 1.5 320 12:36 17.10.2020
6659 Rain 15 1021 44 10000 2.58 327 12:18 17.10.2020
6660 Clear 17 1021 36 10000 2.96 327 11:31 17.10.2020
6661 Clear 17 1021 36 10000 2.96 327 11:31 17.10.2020
6662 Clear 17 1021 36 10000 2.96 327 11:31 17.10.2020
6663 Clear 17 1021 36 10000 2.96 327 11:31 17.10.2020
6664 Clear 15 1021 44 10000 2.58 327 11:31 17.10.2020
6665 Clear 15 1021 44 10000 2.96 327 11:31 17.10.2020
6666 Clear 15 1021 44 10000 2.96 327 11:31 17.10.2020
6667 Clear 17 1021 36 10000 2.96 327 10:50 17.10.2020
6668 Clear 17 1021 36 10000 3.35 326 10:30 17.10.2020
6669 Clear 17 1021 36 10000 3.35 326 10:30 17.10.2020
6670 Clear 18 1021 25 10000 1.5 300 09:50 17.10.2020
6671 Clear 18 1021 25 10000 1.5 300 09:32 17.10.2020
6672 Clear 19 1022 27 10000 2.6 240 08:51 17.10.2020
6673 Clear 19 1022 27 10000 2.1 210 08:23 17.10.2020
6674 Clear 18 1022 28 10000 2.1 210 07:44 17.10.2020
6675 Clear 18</